GFSGL_prec_precacc24_027.txt.gz
Total_Precipitation_Accumulation
0.14 0.23 0.21 0.20 0.13 0.09 0.07 0.04 0.02 0.01 0.01 0.00 0.00 0.00 0.00 0.00 0.00 0.01 0.00 0.00 0.00 0.00 0.00 0.00 0.00 0.00 0.00 0.00 0.00 0.00 0.00 0.00 0.00 0.00 0.00 0.00 0.00 0.00 0.00 0.00 0.00 0.01 0.02
0.10 0.12 0.16 0.15 0.10 0.08 0.06 0.04 0.02 0.01 0.00 0.00 0.00 0.00 0.00 0.00 0.00 0.00 0.00 0.00 0.00 0.00 0.01 0.00 0.00 0.00 0.00 0.00 0.00 0.00 0.00 0.00 0.00 0.00 0.00 0.00 0.00 0.00 0.00 0.00 0.01 0.01 0.03
0.13 0.13 0.10 0.09 0.09 0.07 0.04 0.02 0.00 0.00 0.00 0.00 0.00 0.00 0.00 0.00 0.00 0.00 0.00 0.00 0.00 0.01 0.00 0.00 0.00 0.00 0.00 0.00 0.00 0.00 0.00 0.00 0.01 0.01 0.01 0.00 0.00 0.00 0.00 0.00 0.00 0.02 0.03
0.13 0.10 0.09 0.07 0.05 0.02 0.01 0.00 0.00 0.00 0.00 0.00 0.00 0.00 0.00 0.00 0.01 0.03 0.02 0.00 0.00 0.00 0.00 0.00 0.00 0.00 0.00 0.00 0.00 0.00 0.01 0.01 0.01 0.01 0.00 0.00 0.00 0.00 0.01 0.02 0.04 0.04 0.03
0.06 0.04 0.03 0.02 0.01 0.00 0.00 0.00 0.00 0.00 0.00 0.00 0.00 0.00 0.01 0.05 0.07 0.05 0.00 0.00 0.00 0.00 0.00 0.00 0.00 0.00 0.00 0.00 0.00 0.00 0.00 0.00 0.01 0.01 0.01 0.01 0.01 0.01 0.02 0.03 0.03 0.03 0.04
0.01 0.01 0.00 0.00 0.00 0.00 0.00 0.00 0.00 0.00 0.00 0.00 0.01 0.04 0.08 0.10 0.04 0.00 0.00 0.00 0.00 0.00 0.00 0.00 0.00 0.00 0.00 0.00 0.00 0.00 0.00 0.00 0.01 0.02 0.02 0.02 0.02 0.02 0.05 0.08 0.08 0.06 0.04
0.00 0.00 0.00 0.00 0.00 0.00 0.00 0.00 0.00 0.00 0.01 0.03 0.07 0.12 0.11 0.06 0.00 0.00 0.00 0.00 0.00 0.00 0.00 0.00 0.00 0.00 0.00 0.00 0.00 0.00 0.00 0.00 0.01 0.01 0.02 0.03 0.05 0.05 0.05 0.07 0.08 0.08 0.06
0.00 0.00 0.00 0.00 0.00 0.01 0.01 0.01 0.02 0.05 0.11 0.15 0.16 0.10 0.02 0.00 0.01 0.01 0.00 0.00 0.00 0.00 0.00 0.00 0.00 0.00 0.00 0.00 0.00 0.00 0.00 0.00 0.00 0.00 0.02 0.02 0.03 0.03 0.04 0.05 0.07 0.06 0.02
0.00 0.00 0.00 0.01 0.01 0.01 0.03 0.09 0.16 0.21 0.18 0.12 0.04 0.01 0.02 0.01 0.01 0.00 0.00 0.00 0.00 0.00 0.00 0.00 0.00 0.00 0.00 0.00 0.00 0.00 0.00 0.00 0.00 0.00 0.00 0.00 0.00 0.00 0.01 0.04 0.04 0.07 0.06
0.00 0.00 0.00 0.01 0.03 0.09 0.18 0.21 0.15 0.07 0.03 0.03 0.04 0.03 0.02 0.00 0.00 0.00 0.00 0.00 0.00 0.00 0.00 0.00 0.00 0.00 0.00 0.00 0.00 0.00 0.00 0.01 0.00 0.00 0.00 0.00 0.01 0.01 0.01 0.04 0.05 0.09 0.09
0.00 0.01 0.03 0.08 0.14 0.16 0.13 0.06 0.03 0.02 0.02 0.01 0.00 0.00 0.00 0.00 0.00 0.00 0.00 0.00 0.00 0.00 0.00 0.00 0.00 0.00 0.00 0.00 0.00 0.00 0.00 0.00 0.00 0.01 0.01 0.01 0.02 0.02 0.03 0.04 0.05 0.08 0.12
0.03 0.07 0.12 0.15 0.12 0.07 0.02 0.00 0.00 0.00 0.00 0.00 0.00 0.00 0.00 0.00 0.00 0.00 0.00 0.00 0.00 0.00 0.00 0.00 0.00 0.00 0.00 0.00 0.00 0.00 0.00 0.00 0.00 0.01 0.02 0.02 0.02 0.02 0.02 0.03 0.04 0.06 0.08
0.06 0.08 0.08 0.04 0.01 0.00 0.00 0.00 0.00 0.00 0.00 0.00 0.00 0.00 0.00 0.01 0.01 0.00 0.00 0.00 0.00 0.00 0.00 0.00 0.00 0.00 0.00 0.00 0.00 0.00 0.00 0.00 0.00 0.01 0.01 0.01 0.01 0.02 0.02 0.06 0.08 0.06 0.03
0.02 0.01 0.00 0.00 0.00 0.00 0.00 0.00 0.00 0.00 0.00 0.00 0.00 0.00 0.01 0.01 0.00 0.00 0.00 0.00 0.00 0.00 0.00 0.00 0.00 0.00 0.00 0.00 0.00 0.00 0.00 0.00 0.00 0.00 0.01 0.01 0.02 0.02 0.04 0.10 0.12 0.14 0.13
0.00 0.00 0.00 0.00 0.00 0.00 0.00 0.00 0.00 0.00 0.00 0.00 0.01 0.01 0.01 0.00 0.00 0.00 0.01 0.01 0.01 0.01 0.02 0.03 0.03 0.03 0.02 0.01 0.01 0.01 0.01 0.02 0.02 0.01 0.01 0.01 0.01 0.01 0.02 0.03 0.05 0.10 0.25
0.00 0.00 0.00 0.00 0.00 0.00 0.00 0.00 0.00 0.00 0.00 0.00 0.00 0.00 0.00 0.00 0.00 0.00 0.00 0.00 0.00 0.01 0.09 0.11 0.06 0.05 0.05 0.04 0.03 0.02 0.03 0.05 0.04 0.03 0.03 0.01 0.01 0.01 0.01 0.02 0.02 0.05 0.11
0.00 0.00 0.00 0.00 0.00 0.00 0.00 0.00 0.00 0.00 0.00 0.00 0.00 0.00 0.00 0.00 0.00 0.00 0.00 0.00 0.02 0.08 0.24 0.16 0.12 0.10 0.08 0.08 0.09 0.07 0.05 0.02 0.04 0.07 0.05 0.03 0.01 0.01 0.01 0.02 0.02 0.02 0.02
0.00 0.00 0.00 0.00 0.00 0.00 0.00 0.01 0.01 0.02 0.02 0.02 0.01 0.00 0.00 0.00 0.00 0.01 0.02 0.06 0.15 0.15 0.16 0.12 0.09 0.07 0.05 0.04 0.04 0.04 0.03 0.03 0.05 0.05 0.04 0.02 0.01 0.01 0.01 0.01 0.02 0.02 0.01
0.00 0.00 0.00 0.00 0.01 0.00 0.01 0.01 0.01 0.01 0.02 0.02 0.01 0.01 0.01 0.02 0.02 0.02 0.04 0.15 0.15 0.10 0.08 0.08 0.06 0.06 0.08 0.07 0.08 0.11 0.11 0.08 0.05 0.04 0.02 0.01 0.01 0.01 0.00 0.01 0.01 0.01 0.01
0.00 0.00 0.00 0.00 0.00 0.01 0.01 0.02 0.03 0.04 0.04 0.04 0.04 0.03 0.03 0.07 0.08 0.05 0.07 0.11 0.11 0.09 0.07 0.07 0.06 0.07 0.07 0.07 0.07 0.08 0.08 0.05 0.04 0.03 0.01 0.00 0.00 0.00 0.00 0.00 0.00 0.01 0.00
0.00 0.00 0.00 0.01 0.01 0.02 0.04 0.04 0.04 0.05 0.06 0.07 0.07 0.05 0.04 0.09 0.12 0.10 0.08 0.09 0.10 0.10 0.10 0.11 0.09 0.10 0.09 0.10 0.10 0.08 0.05 0.03 0.02 0.02 0.02 0.01 0.00 0.01 0.00 0.00 0.00 0.00 0.00
0.00 0.01 0.01 0.01 0.02 0.03 0.04 0.06 0.08 0.08 0.06 0.06 0.06 0.06 0.05 0.08 0.10 0.11 0.12 0.11 0.08 0.07 0.11 0.17 0.18 0.16 0.15 0.15 0.15 0.13 0.08 0.04 0.03 0.02 0.02 0.02 0.02 0.01 0.01 0.01 0.00 0.00 0.00
0.01 0.01 0.02 0.02 0.03 0.04 0.05 0.06 0.09 0.12 0.14 0.14 0.14 0.12 0.09 0.09 0.08 0.08 0.09 0.12 0.18 0.25 0.26 0.28 0.31 0.27 0.22 0.21 0.21 0.20 0.16 0.05 0.03 0.06 0.07 0.04 0.03 0.01 0.02 0.01 0.00 0.00 0.00
0.02 0.03 0.04 0.04 0.05 0.06 0.07 0.07 0.08 0.10 0.14 0.18 0.20 0.20 0.19 0.20 0.21 0.23 0.28 0.34 0.39 0.39 0.38 0.39 0.38 0.36 0.33 0.30 0.26 0.20 0.15 0.09 0.10 0.11 0.11 0.11 0.06 0.03 0.02 0.02 0.00 0.00 0.00
0.04 0.04 0.05 0.06 0.09 0.11 0.14 0.15 0.16 0.18 0.18 0.18 0.18 0.18 0.19 0.24 0.29 0.31 0.31 0.27 0.26 0.26 0.27 0.29 0.32 0.33 0.34 0.37 0.36 0.32 0.27 0.23 0.21 0.17 0.19 0.15 0.10 0.07 0.04 0.03 0.02 0.01 0.00
0.06 0.08 0.10 0.12 0.15 0.15 0.19 0.22 0.25 0.26 0.26 0.26 0.29 0.30 0.27 0.23 0.19 0.16 0.15 0.13 0.14 0.14 0.14 0.16 0.16 0.16 0.16 0.15 0.15 0.16 0.16 0.18 0.23 0.23 0.21 0.17 0.12 0.10 0.07 0.05 0.04 0.03 0.01

GFSGL_prec_precacc24_030.txt.gz
Total_Precipitation_Accumulation
0.14 0.24 0.24 0.29 0.25 0.18 0.15 0.11 0.06 0.02 0.02 0.05 0.09 0.10 0.04 0.00 0.00 0.00 0.00 0.00 0.00 0.00 0.00 0.00 0.00 0.00 0.00 0.00 0.00 0.00 0.00 0.00 0.00 0.00 0.00 0.00 0.00 0.00 0.00 0.00 0.00 0.00 0.00
0.10 0.13 0.18 0.19 0.17 0.14 0.12 0.09 0.06 0.04 0.04 0.03 0.01 0.00 0.00 0.00 0.00 0.00 0.00 0.00 0.01 0.01 0.01 0.00 0.00 0.00 0.00 0.00 0.00 0.00 0.00 0.00 0.00 0.00 0.00 0.00 0.00 0.00 0.00 0.00 0.00 0.00 0.00
0.14 0.13 0.11 0.11 0.11 0.09 0.07 0.04 0.02 0.02 0.02 0.01 0.00 0.00 0.00 0.00 0.00 0.00 0.00 0.05 0.05 0.01 0.00 0.00 0.00 0.00 0.00 0.00 0.00 0.00 0.00 0.00 0.00 0.00 0.00 0.00 0.00 0.00 0.00 0.00 0.00 0.00 0.00
0.14 0.12 0.11 0.11 0.07 0.06 0.03 0.01 0.00 0.00 0.00 0.00 0.00 0.00 0.00 0.00 0.01 0.06 0.09 0.04 0.00 0.00 0.00 0.00 0.00 0.00 0.00 0.00 0.00 0.00 0.00 0.00 0.00 0.00 0.00 0.00 0.00 0.00 0.00 0.00 0.02 0.01 0.01
0.06 0.04 0.03 0.02 0.01 0.00 0.00 0.00 0.00 0.00 0.00 0.00 0.00 0.00 0.02 0.05 0.10 0.10 0.04 0.01 0.00 0.00 0.00 0.00 0.00 0.00 0.00 0.00 0.00 0.00 0.00 0.00 0.00 0.00 0.00 0.00 0.00 0.01 0.01 0.01 0.02 0.01 0.01
0.01 0.01 0.00 0.00 0.00 0.00 0.00 0.00 0.00 0.00 0.00 0.00 0.01 0.05 0.09 0.12 0.11 0.09 0.02 0.00 0.00 0.00 0.00 0.00 0.00 0.00 0.00 0.00 0.00 0.00 0.00 0.00 0.00 0.01 0.01 0.01 0.01 0.01 0.03 0.04 0.04 0.04 0.03
0.00 0.00 0.00 0.00 0.00 0.00 0.00 0.00 0.00 0.00 0.01 0.03 0.07 0.13 0.15 0.12 0.05 0.02 0.00 0.00 0.00 0.00 0.00 0.00 0.00 0.00 0.00 0.00 0.00 0.00 0.00 0.00 0.00 0.00 0.01 0.02 0.03 0.03 0.04 0.04 0.03 0.05 0.04
0.00 0.00 0.00 0.00 0.00 0.01 0.01 0.01 0.02 0.05 0.11 0.15 0.17 0.13 0.06 0.01 0.02 0.04 0.02 0.00 0.00 0.00 0.00 0.00 0.00 0.00 0.00 0.00 0.00 0.00 0.00 0.00 0.00 0.00 0.01 0.01 0.01 0.01 0.02 0.03 0.05 0.03 0.01
0.00 0.00 0.00 0.01 0.01 0.01 0.03 0.09 0.17 0.21 0.18 0.12 0.04 0.01 0.02 0.02 0.04 0.02 0.01 0.00 0.00 0.00 0.00 0.00 0.00 0.00 0.00 0.00 0.00 0.00 0.00 0.00 0.00 0.00 0.00 0.00 0.00 0.00 0.00 0.03 0.03 0.04 0.03
0.00 0.00 0.00 0.01 0.03 0.09 0.18 0.21 0.15 0.07 0.03 0.03 0.04 0.04 0.04 0.01 0.00 0.00 0.00 0.00 0.00 0.00 0.00 0.00 0.00 0.00 0.00 0.00 0.00 0.00 0.00 0.00 0.00 0.00 0.00 0.00 0.00 0.01 0.01 0.03 0.04 0.07 0.05
0.00 0.01 0.03 0.08 0.14 0.16 0.13 0.06 0.03 0.02 0.02 0.01 0.00 0.00 0.00 0.00 0.00 0.00 0.00 0.00 0.00 0.00 0.00 0.00 0.00 0.00 0.00 0.00 0.00 0.00 0.00 0.00 0.00 0.00 0.01 0.01 0.01 0.01 0.02 0.03 0.04 0.07 0.11
0.03 0.07 0.12 0.15 0.12 0.07 0.02 0.00 0.00 0.00 0.00 0.00 0.00 0.00 0.00 0.00 0.00 0.00 0.00 0.00 0.00 0.00 0.00 0.00 0.00 0.00 0.00 0.00 0.00 0.00 0.00 0.00 0.00 0.00 0.01 0.01 0.01 0.01 0.01 0.02 0.02 0.05 0.07
0.06 0.08 0.08 0.04 0.01 0.00 0.00 0.00 0.00 0.00 0.00 0.00 0.00 0.00 0.00 0.01 0.01 0.00 0.00 0.00 0.00 0.00 0.00 0.00 0.00 0.00 0.00 0.00 0.00 0.00 0.00 0.00 0.00 0.00 0.01 0.01 0.01 0.01 0.01 0.04 0.07 0.05 0.02
0.02 0.01 0.00 0.00 0.00 0.00 0.00 0.00 0.00 0.00 0.00 0.00 0.00 0.00 0.01 0.01 0.00 0.00 0.00 0.00 0.00 0.00 0.00 0.00 0.00 0.00 0.00 0.01 0.00 0.00 0.00 0.00 0.00 0.00 0.00 0.00 0.01 0.01 0.01 0.03 0.06 0.10 0.11
0.00 0.00 0.00 0.00 0.00 0.00 0.00 0.00 0.00 0.00 0.00 0.00 0.01 0.01 0.01 0.00 0.00 0.00 0.01 0.01 0.01 0.01 0.02 0.04 0.04 0.04 0.05 0.04 0.04 0.04 0.05 0.04 0.03 0.01 0.02 0.03 0.03 0.02 0.01 0.01 0.02 0.05 0.19
0.00 0.00 0.00 0.00 0.00 0.00 0.00 0.00 0.00 0.00 0.00 0.00 0.00 0.00 0.00 0.00 0.00 0.00 0.00 0.00 0.00 0.01 0.10 0.12 0.07 0.07 0.08 0.07 0.08 0.08 0.11 0.14 0.11 0.09 0.09 0.06 0.05 0.03 0.01 0.01 0.01 0.02 0.05
0.00 0.00 0.00 0.00 0.00 0.00 0.00 0.00 0.00 0.00 0.00 0.00 0.00 0.00 0.00 0.00 0.00 0.00 0.00 0.00 0.02 0.08 0.24 0.16 0.13 0.12 0.11 0.11 0.13 0.14 0.13 0.09 0.11 0.17 0.12 0.06 0.05 0.05 0.03 0.03 0.01 0.01 0.01
0.00 0.00 0.00 0.00 0.00 0.00 0.00 0.00 0.01 0.01 0.02 0.01 0.01 0.00 0.00 0.00 0.00 0.01 0.02 0.06 0.15 0.14 0.16 0.12 0.10 0.08 0.07 0.08 0.09 0.10 0.08 0.08 0.11 0.10 0.08 0.04 0.04 0.03 0.03 0.01 0.01 0.02 0.01
0.00 0.00 0.00 0.00 0.00 0.00 0.01 0.01 0.01 0.01 0.01 0.01 0.01 0.01 0.01 0.02 0.02 0.02 0.03 0.15 0.15 0.10 0.08 0.08 0.06 0.06 0.08 0.09 0.10 0.13 0.15 0.15 0.13 0.11 0.07 0.04 0.03 0.02 0.02 0.01 0.00 0.01 0.00
0.00 0.00 0.00 0.00 0.00 0.00 0.01 0.02 0.03 0.04 0.04 0.04 0.03 0.02 0.03 0.06 0.08 0.05 0.06 0.10 0.11 0.09 0.08 0.07 0.06 0.07 0.08 0.09 0.10 0.11 0.12 0.11 0.10 0.09 0.05 0.03 0.01 0.01 0.01 0.00 0.00 0.00 0.00
0.00 0.00 0.00 0.01 0.01 0.01 0.02 0.03 0.04 0.05 0.06 0.06 0.07 0.05 0.04 0.09 0.12 0.09 0.07 0.08 0.10 0.10 0.10 0.11 0.09 0.10 0.10 0.12 0.13 0.14 0.13 0.11 0.06 0.04 0.03 0.02 0.03 0.03 0.02 0.01 0.00 0.00 0.00
0.00 0.01 0.01 0.01 0.02 0.03 0.04 0.05 0.06 0.07 0.06 0.06 0.06 0.05 0.05 0.09 0.10 0.10 0.11 0.11 0.08 0.08 0.11 0.17 0.19 0.16 0.16 0.18 0.19 0.20 0.18 0.15 0.12 0.07 0.05 0.04 0.04 0.04 0.04 0.02 0.01 0.00 0.00
0.01 0.01 0.01 0.01 0.02 0.03 0.05 0.06 0.08 0.10 0.13 0.14 0.14 0.12 0.08 0.09 0.08 0.08 0.09 0.12 0.18 0.25 0.26 0.28 0.31 0.28 0.23 0.24 0.26 0.27 0.24 0.15 0.12 0.14 0.12 0.07 0.05 0.06 0.06 0.02 0.01 0.00 0.00
0.02 0.03 0.03 0.04 0.04 0.05 0.07 0.07 0.07 0.09 0.13 0.17 0.19 0.19 0.19 0.20 0.21 0.23 0.28 0.34 0.38 0.39 0.38 0.39 0.39 0.37 0.34 0.32 0.30 0.26 0.21 0.15 0.15 0.16 0.15 0.14 0.09 0.07 0.07 0.03 0.01 0.00 0.00
0.03 0.04 0.04 0.05 0.07 0.10 0.13 0.13 0.15 0.16 0.16 0.16 0.15 0.16 0.17 0.22 0.27 0.30 0.30 0.25 0.24 0.24 0.25 0.29 0.33 0.34 0.35 0.39 0.41 0.39 0.33 0.28 0.26 0.24 0.25 0.19 0.12 0.11 0.09 0.05 0.02 0.01 0.01
0.05 0.06 0.09 0.11 0.13 0.13 0.16 0.19 0.22 0.23 0.24 0.24 0.27 0.28 0.26 0.22 0.18 0.16 0.14 0.12 0.11 0.11 0.12 0.14 0.16 0.16 0.17 0.17 0.19 0.22 0.23 0.24 0.28 0.28 0.25 0.22 0.18 0.17 0.14 0.09 0.05 0.03 0.02

GFSGL_prec_precacc24_033.txt.gz
Total_Precipitation_Accumulation
0.14 0.24 0.24 0.30 0.31 0.26 0.19 0.12 0.08 0.04 0.03 0.05 0.10 0.12 0.09 0.05 0.02 0.00 0.00 0.00 0.00 0.00 0.01 0.01 0.00 0.00 0.00 0.00 0.00 0.00 0.00 0.00 0.00 0.00 0.00 0.00 0.00 0.00 0.00 0.00 0.00 0.00 0.00
0.10 0.13 0.19 0.22 0.21 0.21 0.19 0.12 0.09 0.06 0.04 0.03 0.01 0.01 0.00 0.00 0.00 0.00 0.01 0.00 0.01 0.05 0.05 0.01 0.00 0.00 0.00 0.00 0.00 0.00 0.00 0.00 0.00 0.00 0.00 0.00 0.00 0.00 0.00 0.00 0.00 0.00 0.00
0.14 0.13 0.11 0.12 0.13 0.12 0.10 0.08 0.05 0.03 0.02 0.01 0.01 0.02 0.02 0.01 0.01 0.01 0.01 0.05 0.08 0.04 0.01 0.00 0.00 0.00 0.00 0.00 0.00 0.00 0.00 0.00 0.00 0.00 0.00 0.00 0.00 0.00 0.00 0.00 0.00 0.00 0.00
0.14 0.14 0.12 0.14 0.08 0.07 0.04 0.01 0.00 0.00 0.00 0.00 0.00 0.01 0.01 0.00 0.01 0.06 0.09 0.07 0.06 0.04 0.01 0.00 0.00 0.00 0.00 0.00 0.00 0.00 0.00 0.00 0.00 0.00 0.00 0.00 0.00 0.00 0.00 0.00 0.00 0.00 0.00
0.09 0.07 0.05 0.03 0.01 0.00 0.00 0.00 0.00 0.00 0.00 0.00 0.00 0.00 0.01 0.06 0.11 0.11 0.12 0.11 0.03 0.00 0.00 0.00 0.00 0.00 0.00 0.00 0.00 0.00 0.01 0.01 0.01 0.00 0.00 0.00 0.00 0.00 0.00 0.00 0.00 0.00 0.00
0.02 0.01 0.01 0.00 0.00 0.00 0.00 0.00 0.00 0.00 0.00 0.00 0.01 0.04 0.08 0.13 0.13 0.12 0.05 0.01 0.00 0.00 0.00 0.00 0.00 0.00 0.00 0.00 0.00 0.00 0.00 0.01 0.01 0.01 0.00 0.00 0.00 0.01 0.01 0.02 0.01 0.01 0.01
0.00 0.00 0.00 0.00 0.00 0.00 0.00 0.00 0.00 0.00 0.01 0.03 0.07 0.12 0.14 0.11 0.06 0.02 0.01 0.00 0.01 0.00 0.00 0.00 0.00 0.00 0.00 0.00 0.00 0.00 0.00 0.00 0.00 0.00 0.01 0.01 0.02 0.01 0.00 0.01 0.01 0.02 0.02
0.00 0.00 0.00 0.00 0.00 0.01 0.01 0.01 0.02 0.05 0.11 0.15 0.17 0.13 0.05 0.01 0.02 0.04 0.03 0.01 0.01 0.00 0.00 0.00 0.00 0.00 0.00 0.00 0.00 0.00 0.00 0.00 0.00 0.00 0.00 0.00 0.00 0.00 0.00 0.01 0.03 0.03 0.00
0.00 0.00 0.00 0.01 0.01 0.01 0.03 0.09 0.17 0.21 0.18 0.12 0.04 0.01 0.02 0.02 0.04 0.03 0.02 0.00 0.00 0.00 0.00 0.00 0.00 0.00 0.00 0.00 0.00 0.00 0.00 0.00 0.00 0.00 0.00 0.00 0.00 0.00 0.00 0.02 0.02 0.03 0.01
0.00 0.00 0.00 0.01 0.03 0.09 0.18 0.21 0.15 0.07 0.03 0.03 0.04 0.04 0.05 0.02 0.01 0.00 0.00 0.00 0.00 0.00 0.00 0.00 0.00 0.00 0.00 0.00 0.00 0.00 0.00 0.00 0.01 0.00 0.00 0.00 0.00 0.00 0.01 0.02 0.03 0.06 0.04
0.00 0.01 0.03 0.08 0.14 0.16 0.13 0.06 0.03 0.02 0.02 0.01 0.00 0.00 0.00 0.00 0.00 0.00 0.00 0.00 0.00 0.00 0.00 0.00 0.00 0.00 0.00 0.00 0.00 0.00 0.00 0.00 0.02 0.02 0.02 0.01 0.00 0.00 0.01 0.01 0.02 0.05 0.09
0.03 0.07 0.12 0.15 0.12 0.07 0.02 0.00 0.00 0.00 0.00 0.00 0.00 0.00 0.00 0.00 0.00 0.00 0.00 0.00 0.00 0.00 0.00 0.00 0.00 0.00 0.00 0.00 0.00 0.00 0.00 0.00 0.01 0.03 0.04 0.01 0.01 0.00 0.00 0.00 0.00 0.02 0.05
0.06 0.08 0.08 0.04 0.01 0.00 0.00 0.00 0.00 0.00 0.00 0.00 0.00 0.00 0.00 0.00 0.00 0.00 0.00 0.00 0.00 0.00 0.00 0.00 0.00 0.00 0.00 0.00 0.00 0.00 0.00 0.01 0.04 0.04 0.03 0.01 0.00 0.00 0.00 0.00 0.02 0.04 0.02
0.02 0.01 0.00 0.00 0.00 0.00 0.00 0.00 0.00 0.00 0.00 0.00 0.00 0.00 0.00 0.01 0.00 0.00 0.00 0.00 0.00 0.00 0.00 0.00 0.00 0.00 0.00 0.01 0.01 0.02 0.02 0.02 0.04 0.05 0.02 0.00 0.01 0.01 0.00 0.00 0.00 0.02 0.06
0.00 0.00 0.00 0.00 0.00 0.00 0.00 0.00 0.00 0.00 0.00 0.00 0.00 0.01 0.01 0.00 0.00 0.00 0.01 0.01 0.01 0.01 0.02 0.04 0.04 0.04 0.05 0.05 0.05 0.05 0.09 0.12 0.12 0.10 0.10 0.10 0.08 0.04 0.02 0.00 0.01 0.00 0.05
0.00 0.00 0.00 0.00 0.00 0.00 0.00 0.00 0.00 0.00 0.00 0.00 0.00 0.00 0.00 0.00 0.00 0.00 0.00 0.00 0.00 0.01 0.10 0.12 0.07 0.08 0.09 0.08 0.09 0.10 0.14 0.18 0.17 0.16 0.18 0.19 0.19 0.15 0.07 0.04 0.03 0.02 0.01
0.00 0.00 0.00 0.00 0.00 0.00 0.00 0.00 0.00 0.00 0.00 0.00 0.00 0.00 0.00 0.00 0.00 0.00 0.00 0.00 0.02 0.08 0.24 0.16 0.13 0.12 0.11 0.11 0.14 0.15 0.16 0.14 0.18 0.28 0.22 0.17 0.17 0.17 0.12 0.08 0.03 0.01 0.00
0.00 0.00 0.00 0.00 0.00 0.00 0.00 0.00 0.00 0.00 0.00 0.00 0.00 0.00 0.00 0.00 0.00 0.01 0.02 0.06 0.14 0.14 0.15 0.12 0.09 0.07 0.07 0.08 0.09 0.10 0.11 0.14 0.19 0.18 0.15 0.12 0.11 0.10 0.09 0.04 0.02 0.02 0.01
0.00 0.00 0.00 0.00 0.00 0.00 0.00 0.00 0.01 0.01 0.01 0.01 0.00 0.00 0.01 0.02 0.02 0.02 0.03 0.14 0.15 0.10 0.08 0.07 0.05 0.06 0.08 0.09 0.11 0.14 0.15 0.16 0.16 0.16 0.13 0.10 0.10 0.10 0.07 0.03 0.01 0.01 0.01
0.00 0.00 0.00 0.00 0.00 0.00 0.00 0.01 0.02 0.03 0.03 0.03 0.03 0.02 0.02 0.06 0.08 0.04 0.05 0.09 0.10 0.09 0.07 0.07 0.06 0.07 0.08 0.10 0.11 0.11 0.13 0.12 0.12 0.12 0.10 0.09 0.07 0.06 0.05 0.03 0.01 0.01 0.01
0.00 0.00 0.00 0.01 0.01 0.01 0.02 0.02 0.02 0.03 0.04 0.05 0.05 0.04 0.04 0.09 0.11 0.08 0.06 0.07 0.09 0.09 0.10 0.11 0.09 0.10 0.10 0.12 0.13 0.15 0.14 0.13 0.13 0.13 0.12 0.08 0.06 0.06 0.04 0.05 0.03 0.01 0.01
0.00 0.01 0.01 0.01 0.01 0.02 0.03 0.04 0.05 0.05 0.04 0.04 0.04 0.04 0.05 0.08 0.10 0.10 0.11 0.11 0.07 0.07 0.10 0.16 0.18 0.16 0.16 0.19 0.20 0.21 0.18 0.18 0.19 0.20 0.19 0.16 0.10 0.07 0.08 0.08 0.05 0.02 0.01
0.01 0.01 0.01 0.01 0.01 0.02 0.03 0.04 0.07 0.09 0.11 0.12 0.12 0.10 0.06 0.07 0.07 0.08 0.09 0.12 0.18 0.25 0.25 0.28 0.31 0.28 0.23 0.24 0.27 0.29 0.27 0.18 0.16 0.21 0.22 0.16 0.13 0.10 0.09 0.06 0.04 0.02 0.01
0.01 0.02 0.03 0.03 0.03 0.03 0.05 0.05 0.06 0.08 0.12 0.15 0.17 0.18 0.17 0.18 0.19 0.22 0.28 0.34 0.38 0.38 0.36 0.37 0.38 0.37 0.35 0.32 0.31 0.28 0.24 0.18 0.19 0.21 0.23 0.22 0.16 0.10 0.11 0.08 0.04 0.02 0.01
0.02 0.02 0.02 0.04 0.06 0.07 0.10 0.11 0.13 0.14 0.14 0.13 0.13 0.13 0.14 0.19 0.24 0.28 0.29 0.24 0.23 0.22 0.23 0.26 0.30 0.32 0.34 0.39 0.42 0.40 0.35 0.31 0.31 0.30 0.32 0.27 0.19 0.16 0.12 0.09 0.05 0.04 0.02
0.02 0.02 0.02 0.04 0.06 0.09 0.14 0.16 0.19 0.20 0.20 0.21 0.25 0.26 0.24 0.21 0.17 0.15 0.13 0.12 0.11 0.10 0.11 0.12 0.13 0.14 0.15 0.16 0.19 0.23 0.25 0.26 0.31 0.32 0.31 0.29 0.24 0.22 0.17 0.15 0.12 0.08 0.04

GFSGL_prec_precacc24_036.txt.gz
Total_Precipitation_Accumulation
0.15 0.29 0.31 0.40 0.50 0.38 0.26 0.25 0.19 0.10 0.07 0.06 0.10 0.12 0.09 0.05 0.02 0.01 0.01 0.02 0.01 0.01 0.02 0.02 0.00 0.00 0.00 0.00 0.00 0.00 0.00 0.00 0.00 0.00 0.00 0.00 0.00 0.00 0.00 0.00 0.00 0.00 0.00
0.11 0.25 0.45 0.31 0.41 0.34 0.34 0.18 0.14 0.09 0.07 0.03 0.01 0.01 0.00 0.01 0.01 0.01 0.02 0.03 0.04 0.06 0.04 0.01 0.00 0.00 0.00 0.00 0.00 0.00 0.00 0.00 0.00 0.00 0.00 0.00 0.00 0.00 0.00 0.00 0.00 0.00 0.00
0.15 0.23 0.27 0.16 0.39 0.22 0.18 0.14 0.09 0.04 0.02 0.01 0.01 0.02 0.02 0.02 0.02 0.02 0.03 0.08 0.10 0.04 0.03 0.02 0.00 0.00 0.00 0.00 0.00 0.00 0.00 0.00 0.00 0.00 0.00 0.00 0.00 0.00 0.00 0.00 0.00 0.00 0.00
0.17 0.20 0.14 0.18 0.19 0.11 0.06 0.03 0.01 0.00 0.00 0.00 0.01 0.01 0.01 0.01 0.02 0.06 0.10 0.08 0.08 0.07 0.02 0.00 0.00 0.00 0.00 0.00 0.00 0.00 0.00 0.01 0.00 0.01 0.00 0.00 0.00 0.00 0.00 0.00 0.00 0.00 0.00
0.13 0.09 0.06 0.10 0.03 0.01 0.01 0.00 0.00 0.00 0.00 0.00 0.00 0.00 0.01 0.05 0.11 0.12 0.12 0.12 0.04 0.01 0.00 0.00 0.00 0.00 0.00 0.00 0.00 0.00 0.01 0.01 0.01 0.01 0.00 0.00 0.00 0.00 0.00 0.00 0.00 0.00 0.00
0.03 0.02 0.01 0.01 0.00 0.00 0.00 0.00 0.00 0.00 0.00 0.00 0.01 0.04 0.08 0.12 0.13 0.12 0.06 0.01 0.00 0.00 0.00 0.00 0.00 0.00 0.00 0.00 0.00 0.00 0.00 0.01 0.01 0.01 0.01 0.00 0.00 0.00 0.00 0.00 0.00 0.00 0.01
0.01 0.00 0.00 0.00 0.00 0.00 0.00 0.00 0.00 0.00 0.01 0.03 0.07 0.12 0.14 0.10 0.06 0.02 0.01 0.00 0.01 0.00 0.00 0.00 0.00 0.00 0.00 0.00 0.00 0.00 0.00 0.00 0.00 0.00 0.01 0.00 0.00 0.00 0.01 0.00 0.00 0.01 0.01
0.00 0.00 0.00 0.00 0.00 0.01 0.01 0.01 0.02 0.05 0.11 0.15 0.17 0.13 0.05 0.01 0.02 0.04 0.03 0.01 0.01 0.00 0.00 0.00 0.00 0.00 0.00 0.00 0.00 0.00 0.00 0.00 0.00 0.00 0.00 0.00 0.00 0.00 0.02 0.02 0.03 0.03 0.00
0.00 0.00 0.00 0.01 0.01 0.01 0.03 0.09 0.17 0.21 0.18 0.12 0.04 0.01 0.02 0.02 0.04 0.03 0.02 0.00 0.00 0.00 0.00 0.00 0.00 0.00 0.00 0.00 0.00 0.00 0.00 0.00 0.00 0.00 0.00 0.00 0.00 0.00 0.01 0.02 0.02 0.03 0.01
0.00 0.00 0.00 0.00 0.03 0.09 0.18 0.21 0.15 0.07 0.03 0.03 0.04 0.04 0.05 0.02 0.01 0.00 0.00 0.00 0.00 0.00 0.00 0.00 0.00 0.00 0.00 0.00 0.00 0.00 0.00 0.00 0.01 0.02 0.01 0.00 0.00 0.00 0.00 0.01 0.02 0.05 0.03
0.00 0.00 0.02 0.07 0.14 0.16 0.13 0.06 0.03 0.02 0.02 0.01 0.00 0.00 0.00 0.00 0.00 0.00 0.00 0.00 0.00 0.00 0.00 0.00 0.00 0.00 0.00 0.00 0.00 0.00 0.00 0.01 0.03 0.04 0.05 0.06 0.03 0.01 0.00 0.00 0.00 0.02 0.06
0.01 0.04 0.11 0.15 0.12 0.07 0.02 0.00 0.00 0.00 0.00 0.00 0.00 0.00 0.00 0.00 0.00 0.00 0.00 0.00 0.00 0.00 0.00 0.00 0.00 0.00 0.00 0.00 0.00 0.00 0.00 0.00 0.02 0.04 0.06 0.09 0.11 0.06 0.01 0.00 0.00 0.00 0.03
0.05 0.08 0.08 0.04 0.01 0.00 0.00 0.00 0.00 0.00 0.00 0.00 0.00 0.00 0.00 0.00 0.00 0.00 0.00 0.00 0.00 0.00 0.00 0.00 0.00 0.00 0.00 0.00 0.00 0.00 0.00 0.02 0.05 0.07 0.05 0.03 0.03 0.06 0.05 0.03 0.01 0.00 0.00
0.01 0.01 0.00 0.00 0.00 0.00 0.00 0.00 0.00 0.00 0.00 0.00 0.00 0.00 0.00 0.00 0.00 0.00 0.00 0.00 0.00 0.00 0.00 0.00 0.00 0.00 0.01 0.01 0.01 0.02 0.02 0.03 0.06 0.08 0.06 0.05 0.05 0.07 0.08 0.05 0.02 0.00 0.00
0.00 0.00 0.00 0.00 0.00 0.00 0.00 0.00 0.00 0.00 0.00 0.00 0.00 0.00 0.00 0.00 0.00 0.00 0.00 0.00 0.01 0.01 0.02 0.04 0.04 0.04 0.05 0.05 0.05 0.05 0.09 0.12 0.13 0.12 0.13 0.15 0.15 0.13 0.08 0.03 0.03 0.03 0.02
0.00 0.00 0.00 0.00 0.00 0.00 0.00 0.00 0.00 0.00 0.00 0.00 0.00 0.00 0.00 0.00 0.00 0.00 0.00 0.00 0.00 0.01 0.10 0.12 0.07 0.07 0.09 0.07 0.09 0.10 0.14 0.18 0.17 0.16 0.19 0.21 0.24 0.26 0.27 0.26 0.16 0.11 0.07
0.00 0.00 0.00 0.00 0.00 0.00 0.00 0.00 0.00 0.00 0.00 0.00 0.00 0.00 0.00 0.00 0.00 0.00 0.00 0.00 0.02 0.08 0.24 0.16 0.13 0.12 0.10 0.11 0.14 0.15 0.16 0.14 0.18 0.29 0.29 0.26 0.26 0.25 0.18 0.16 0.13 0.09 0.06
0.00 0.00 0.00 0.00 0.00 0.00 0.00 0.00 0.00 0.00 0.00 0.00 0.00 0.00 0.00 0.00 0.00 0.01 0.02 0.06 0.14 0.14 0.15 0.12 0.09 0.07 0.07 0.08 0.09 0.11 0.12 0.14 0.19 0.18 0.19 0.19 0.18 0.17 0.17 0.13 0.08 0.05 0.03
0.00 0.00 0.00 0.00 0.00 0.00 0.00 0.00 0.00 0.00 0.01 0.00 0.00 0.00 0.01 0.02 0.02 0.02 0.03 0.14 0.15 0.10 0.07 0.07 0.05 0.06 0.08 0.09 0.11 0.14 0.16 0.17 0.16 0.16 0.14 0.13 0.14 0.16 0.16 0.10 0.04 0.03 0.02
0.01 0.01 0.00 0.00 0.00 0.00 0.00 0.01 0.01 0.02 0.02 0.02 0.02 0.02 0.02 0.06 0.07 0.04 0.05 0.09 0.10 0.09 0.07 0.07 0.06 0.07 0.08 0.10 0.11 0.12 0.13 0.12 0.12 0.12 0.11 0.10 0.09 0.09 0.09 0.10 0.07 0.04 0.02
0.02 0.01 0.01 0.01 0.01 0.01 0.02 0.02 0.02 0.03 0.04 0.04 0.04 0.03 0.03 0.06 0.08 0.07 0.06 0.07 0.09 0.10 0.10 0.11 0.09 0.10 0.11 0.12 0.14 0.15 0.14 0.13 0.13 0.15 0.14 0.13 0.13 0.15 0.13 0.11 0.08 0.04 0.03
0.01 0.00 0.00 0.00 0.01 0.01 0.02 0.03 0.04 0.04 0.04 0.04 0.04 0.04 0.04 0.07 0.08 0.09 0.09 0.10 0.07 0.07 0.11 0.17 0.19 0.16 0.17 0.19 0.21 0.22 0.19 0.18 0.19 0.22 0.21 0.20 0.19 0.16 0.17 0.16 0.12 0.07 0.04
0.00 0.00 0.00 0.00 0.01 0.01 0.02 0.03 0.06 0.08 0.10 0.11 0.11 0.09 0.06 0.05 0.05 0.06 0.08 0.11 0.16 0.24 0.25 0.27 0.29 0.27 0.23 0.25 0.28 0.30 0.28 0.19 0.18 0.22 0.25 0.19 0.16 0.16 0.15 0.13 0.09 0.08 0.04
0.01 0.01 0.01 0.00 0.00 0.01 0.03 0.03 0.04 0.07 0.11 0.14 0.16 0.17 0.17 0.17 0.16 0.17 0.22 0.29 0.34 0.36 0.36 0.37 0.36 0.35 0.34 0.31 0.30 0.28 0.25 0.20 0.20 0.22 0.26 0.26 0.19 0.15 0.16 0.14 0.10 0.06 0.04
0.01 0.01 0.00 0.01 0.02 0.02 0.03 0.03 0.07 0.12 0.13 0.12 0.11 0.11 0.12 0.16 0.20 0.22 0.23 0.19 0.19 0.20 0.22 0.25 0.30 0.31 0.33 0.36 0.39 0.39 0.36 0.31 0.31 0.31 0.35 0.31 0.24 0.22 0.20 0.16 0.10 0.08 0.07
0.01 0.01 0.01 0.01 0.02 0.04 0.06 0.08 0.13 0.16 0.15 0.14 0.19 0.23 0.23 0.21 0.17 0.15 0.13 0.11 0.10 0.10 0.10 0.12 0.12 0.13 0.14 0.15 0.16 0.20 0.23 0.26 0.31 0.34 0.35 0.32 0.29 0.27 0.23 0.19 0.15 0.14 0.09

GFSGL_prec_precacc24_039.txt.gz
Total_Precipitation_Accumulation
0.29 0.34 0.35 0.43 0.58 0.59 0.46 0.39 0.37 0.19 0.16 0.22 0.21 0.16 0.10 0.06 0.03 0.01 0.01 0.02 0.02 0.02 0.02 0.03 0.02 0.01 0.00 0.00 0.00 0.00 0.00 0.00 0.00 0.00 0.00 0.00 0.00 0.00 0.00 0.00 0.00 0.00 0.00
0.23 0.46 0.69 0.61 0.84 0.96 0.83 0.49 0.45 0.19 0.17 0.07 0.02 0.02 0.02 0.01 0.01 0.01 0.03 0.03 0.04 0.08 0.07 0.03 0.02 0.01 0.00 0.00 0.00 0.00 0.00 0.00 0.00 0.00 0.00 0.00 0.00 0.00 0.00 0.00 0.00 0.00 0.00
0.48 0.59 0.57 0.40 0.68 0.49 0.45 0.31 0.15 0.09 0.05 0.02 0.01 0.02 0.02 0.02 0.02 0.02 0.03 0.08 0.11 0.06 0.05 0.04 0.01 0.00 0.00 0.00 0.00 0.00 0.00 0.00 0.00 0.00 0.00 0.00 0.00 0.00 0.00 0.00 0.00 0.00 0.00
0.28 0.28 0.21 0.19 0.25 0.19 0.12 0.07 0.06 0.03 0.03 0.02 0.01 0.01 0.01 0.01 0.02 0.07 0.10 0.08 0.09 0.08 0.03 0.01 0.00 0.00 0.00 0.00 0.00 0.00 0.00 0.01 0.00 0.01 0.00 0.00 0.00 0.00 0.00 0.00 0.01 0.00 0.00
0.14 0.09 0.07 0.14 0.04 0.04 0.04 0.02 0.00 0.02 0.01 0.00 0.00 0.00 0.02 0.06 0.11 0.12 0.12 0.12 0.04 0.01 0.00 0.00 0.00 0.00 0.00 0.00 0.00 0.00 0.01 0.01 0.01 0.01 0.01 0.00 0.00 0.00 0.00 0.01 0.01 0.00 0.00
0.03 0.02 0.01 0.02 0.01 0.01 0.01 0.00 0.00 0.00 0.00 0.00 0.01 0.04 0.08 0.12 0.13 0.13 0.06 0.01 0.00 0.00 0.00 0.00 0.00 0.00 0.00 0.00 0.00 0.00 0.00 0.01 0.01 0.01 0.01 0.00 0.00 0.00 0.01 0.02 0.02 0.02 0.02
0.01 0.00 0.00 0.00 0.00 0.00 0.00 0.00 0.00 0.00 0.01 0.03 0.07 0.12 0.14 0.10 0.06 0.02 0.01 0.00 0.01 0.00 0.00 0.00 0.00 0.00 0.00 0.00 0.00 0.00 0.00 0.00 0.00 0.00 0.01 0.00 0.00 0.00 0.02 0.03 0.03 0.04 0.03
0.00 0.00 0.00 0.00 0.00 0.00 0.00 0.01 0.02 0.05 0.11 0.15 0.17 0.13 0.05 0.01 0.02 0.04 0.03 0.01 0.01 0.00 0.00 0.00 0.00 0.00 0.00 0.00 0.00 0.00 0.00 0.00 0.00 0.00 0.00 0.00 0.00 0.01 0.03 0.04 0.06 0.05 0.01
0.00 0.00 0.00 0.00 0.00 0.00 0.03 0.09 0.16 0.21 0.18 0.12 0.04 0.01 0.02 0.02 0.04 0.03 0.02 0.00 0.00 0.00 0.00 0.00 0.00 0.00 0.00 0.00 0.00 0.00 0.00 0.00 0.00 0.00 0.00 0.00 0.00 0.00 0.02 0.04 0.03 0.05 0.03
0.00 0.00 0.00 0.00 0.02 0.08 0.18 0.21 0.15 0.07 0.03 0.03 0.04 0.04 0.05 0.02 0.01 0.00 0.00 0.00 0.00 0.00 0.00 0.00 0.00 0.00 0.00 0.00 0.00 0.00 0.00 0.00 0.01 0.02 0.01 0.00 0.00 0.00 0.01 0.02 0.02 0.06 0.04
0.00 0.00 0.01 0.06 0.12 0.16 0.13 0.06 0.03 0.02 0.02 0.01 0.00 0.00 0.00 0.00 0.00 0.00 0.00 0.00 0.00 0.00 0.00 0.00 0.00 0.00 0.00 0.00 0.00 0.00 0.00 0.01 0.03 0.04 0.05 0.06 0.03 0.02 0.01 0.00 0.01 0.02 0.04
0.00 0.02 0.08 0.13 0.11 0.07 0.02 0.00 0.00 0.00 0.00 0.00 0.00 0.00 0.00 0.00 0.00 0.00 0.00 0.00 0.00 0.00 0.00 0.00 0.00 0.00 0.00 0.00 0.00 0.00 0.00 0.00 0.02 0.04 0.06 0.09 0.11 0.06 0.02 0.01 0.01 0.02 0.05
0.01 0.05 0.07 0.04 0.01 0.00 0.00 0.00 0.00 0.00 0.00 0.00 0.00 0.00 0.00 0.00 0.00 0.00 0.00 0.00 0.00 0.00 0.00 0.00 0.00 0.00 0.00 0.00 0.00 0.00 0.00 0.02 0.05 0.09 0.08 0.05 0.04 0.06 0.07 0.06 0.05 0.05 0.05
0.01 0.00 0.00 0.00 0.00 0.00 0.00 0.00 0.00 0.00 0.00 0.00 0.00 0.00 0.00 0.00 0.00 0.00 0.00 0.00 0.00 0.00 0.00 0.00 0.00 0.00 0.01 0.01 0.01 0.02 0.02 0.03 0.06 0.08 0.07 0.06 0.06 0.08 0.12 0.16 0.18 0.10 0.05
0.00 0.00 0.00 0.00 0.00 0.00 0.00 0.00 0.00 0.00 0.00 0.00 0.00 0.00 0.00 0.00 0.00 0.00 0.00 0.00 0.01 0.01 0.02 0.04 0.04 0.04 0.05 0.05 0.05 0.05 0.09 0.12 0.13 0.12 0.13 0.15 0.15 0.13 0.09 0.04 0.06 0.10 0.09
0.00 0.00 0.00 0.00 0.00 0.00 0.00 0.00 0.00 0.00 0.00 0.00 0.00 0.00 0.00 0.00 0.00 0.00 0.00 0.00 0.00 0.01 0.09 0.12 0.07 0.07 0.09 0.07 0.09 0.10 0.14 0.18 0.17 0.17 0.20 0.21 0.25 0.26 0.28 0.30 0.28 0.22 0.14
0.00 0.00 0.00 0.00 0.00 0.00 0.00 0.00 0.00 0.00 0.00 0.00 0.00 0.00 0.00 0.00 0.00 0.00 0.00 0.00 0.02 0.08 0.24 0.16 0.13 0.12 0.10 0.11 0.14 0.15 0.16 0.14 0.18 0.30 0.29 0.26 0.28 0.29 0.25 0.22 0.19 0.19 0.18
0.00 0.00 0.00 0.00 0.00 0.00 0.00 0.00 0.00 0.00 0.00 0.00 0.00 0.00 0.00 0.00 0.00 0.01 0.02 0.05 0.14 0.14 0.15 0.12 0.09 0.07 0.07 0.08 0.09 0.11 0.12 0.14 0.19 0.18 0.19 0.19 0.19 0.20 0.21 0.16 0.12 0.08 0.05
0.00 0.00 0.00 0.00 0.00 0.01 0.01 0.01 0.01 0.00 0.01 0.00 0.00 0.00 0.01 0.02 0.02 0.02 0.03 0.13 0.14 0.10 0.07 0.07 0.05 0.06 0.08 0.09 0.11 0.14 0.16 0.17 0.16 0.16 0.14 0.13 0.14 0.17 0.19 0.14 0.09 0.08 0.07
0.01 0.03 0.03 0.03 0.03 0.02 0.01 0.01 0.01 0.02 0.02 0.02 0.02 0.02 0.02 0.04 0.05 0.03 0.05 0.08 0.10 0.09 0.07 0.07 0.06 0.07 0.08 0.10 0.11 0.12 0.13 0.12 0.12 0.12 0.11 0.11 0.09 0.09 0.10 0.12 0.12 0.11 0.08
0.15 0.10 0.07 0.04 0.02 0.01 0.01 0.01 0.01 0.02 0.03 0.04 0.04 0.03 0.02 0.04 0.05 0.04 0.04 0.05 0.08 0.09 0.09 0.10 0.09 0.10 0.11 0.12 0.14 0.15 0.15 0.13 0.13 0.15 0.14 0.13 0.14 0.17 0.15 0.16 0.15 0.11 0.08
0.09 0.05 0.03 0.01 0.01 0.01 0.01 0.01 0.02 0.03 0.02 0.03 0.03 0.04 0.04 0.07 0.08 0.08 0.07 0.06 0.06 0.06 0.09 0.14 0.17 0.16 0.17 0.19 0.21 0.23 0.19 0.18 0.19 0.22 0.22 0.20 0.20 0.20 0.21 0.21 0.21 0.19 0.12
0.04 0.03 0.01 0.01 0.00 0.00 0.00 0.00 0.01 0.01 0.03 0.08 0.10 0.08 0.05 0.05 0.05 0.06 0.07 0.09 0.13 0.17 0.19 0.20 0.25 0.25 0.22 0.24 0.28 0.30 0.29 0.19 0.19 0.24 0.25 0.19 0.17 0.18 0.20 0.16 0.14 0.15 0.12
0.02 0.01 0.00 0.00 0.00 0.00 0.01 0.01 0.02 0.02 0.03 0.03 0.04 0.09 0.15 0.16 0.15 0.16 0.20 0.25 0.26 0.27 0.25 0.27 0.31 0.32 0.31 0.29 0.28 0.26 0.24 0.21 0.21 0.23 0.27 0.28 0.20 0.17 0.20 0.17 0.14 0.11 0.10
0.00 0.00 0.00 0.00 0.00 0.01 0.01 0.01 0.02 0.03 0.03 0.04 0.07 0.08 0.08 0.12 0.16 0.18 0.19 0.15 0.12 0.12 0.14 0.18 0.24 0.28 0.31 0.35 0.37 0.37 0.35 0.31 0.30 0.31 0.36 0.32 0.25 0.24 0.24 0.21 0.17 0.16 0.14
0.00 0.00 0.00 0.00 0.00 0.01 0.01 0.01 0.01 0.02 0.03 0.04 0.07 0.09 0.12 0.14 0.13 0.12 0.12 0.10 0.10 0.10 0.10 0.11 0.12 0.13 0.13 0.15 0.16 0.19 0.20 0.23 0.28 0.32 0.35 0.34 0.31 0.29 0.27 0.23 0.20 0.21 0.18

GFSGL_prec_precacc24_042.txt.gz
Total_Precipitation_Accumulation
0.34 0.38 0.37 0.46 0.61 0.67 0.60 0.56 0.53 0.48 0.45 0.37 0.30 0.25 0.16 0.10 0.05 0.01 0.02 0.04 0.04 0.03 0.03 0.04 0.02 0.01 0.01 0.02 0.02 0.01 0.00 0.00 0.00 0.00 0.00 0.00 0.00 0.00 0.00 0.00 0.00 0.00 0.00
0.31 0.51 0.73 0.66 0.98 1.49 1.50 1.15 1.24 1.11 0.63 0.18 0.10 0.08 0.05 0.04 0.02 0.01 0.03 0.04 0.05 0.09 0.07 0.04 0.02 0.01 0.01 0.01 0.01 0.00 0.00 0.00 0.00 0.00 0.00 0.00 0.00 0.00 0.00 0.00 0.00 0.00 0.00
0.63 0.76 0.76 0.62 0.99 0.94 0.65 0.47 0.39 0.45 0.26 0.04 0.03 0.06 0.05 0.04 0.03 0.02 0.03 0.09 0.11 0.06 0.05 0.04 0.03 0.02 0.01 0.00 0.00 0.00 0.00 0.00 0.00 0.00 0.00 0.00 0.00 0.00 0.00 0.00 0.00 0.00 0.00
0.37 0.47 0.37 0.30 0.34 0.31 0.23 0.17 0.12 0.08 0.10 0.05 0.04 0.04 0.02 0.02 0.02 0.07 0.10 0.08 0.09 0.08 0.03 0.01 0.00 0.00 0.00 0.00 0.00 0.00 0.00 0.01 0.00 0.01 0.00 0.00 0.00 0.00 0.00 0.01 0.01 0.01 0.01
0.14 0.17 0.13 0.21 0.13 0.12 0.07 0.06 0.04 0.05 0.06 0.04 0.03 0.02 0.02 0.06 0.12 0.13 0.13 0.12 0.04 0.01 0.00 0.00 0.00 0.00 0.00 0.00 0.00 0.00 0.01 0.01 0.01 0.01 0.01 0.00 0.00 0.00 0.00 0.01 0.02 0.01 0.00
0.05 0.08 0.06 0.08 0.07 0.06 0.04 0.02 0.02 0.03 0.02 0.01 0.02 0.04 0.09 0.12 0.15 0.13 0.06 0.01 0.00 0.00 0.00 0.00 0.00 0.00 0.00 0.00 0.00 0.00 0.00 0.01 0.01 0.01 0.01 0.00 0.00 0.00 0.01 0.02 0.02 0.03 0.03
0.05 0.04 0.04 0.04 0.05 0.04 0.04 0.02 0.01 0.00 0.01 0.03 0.07 0.12 0.14 0.10 0.06 0.02 0.01 0.00 0.01 0.00 0.00 0.00 0.00 0.00 0.00 0.00 0.00 0.00 0.00 0.00 0.00 0.00 0.01 0.00 0.00 0.00 0.02 0.03 0.03 0.05 0.04
0.02 0.03 0.03 0.03 0.03 0.03 0.02 0.00 0.01 0.04 0.11 0.15 0.17 0.13 0.05 0.01 0.02 0.04 0.03 0.01 0.01 0.00 0.00 0.00 0.00 0.00 0.00 0.00 0.00 0.00 0.00 0.00 0.00 0.00 0.00 0.00 0.00 0.01 0.03 0.04 0.06 0.05 0.02
0.02 0.02 0.02 0.02 0.02 0.01 0.01 0.06 0.16 0.21 0.18 0.12 0.04 0.01 0.02 0.02 0.04 0.03 0.02 0.00 0.00 0.00 0.00 0.00 0.00 0.00 0.00 0.00 0.00 0.00 0.00 0.00 0.00 0.00 0.00 0.00 0.00 0.00 0.01 0.03 0.03 0.05 0.05
0.00 0.00 0.00 0.00 0.02 0.06 0.14 0.18 0.14 0.07 0.03 0.03 0.04 0.04 0.05 0.02 0.01 0.00 0.00 0.00 0.00 0.00 0.00 0.00 0.00 0.00 0.00 0.00 0.00 0.00 0.00 0.00 0.01 0.02 0.01 0.00 0.00 0.00 0.01 0.02 0.02 0.07 0.06
0.00 0.00 0.01 0.03 0.06 0.09 0.10 0.06 0.03 0.02 0.02 0.01 0.00 0.00 0.00 0.00 0.00 0.00 0.00 0.00 0.00 0.00 0.00 0.00 0.00 0.00 0.00 0.00 0.00 0.00 0.00 0.01 0.03 0.04 0.05 0.06 0.03 0.02 0.01 0.00 0.01 0.04 0.08
0.00 0.00 0.02 0.06 0.08 0.06 0.02 0.00 0.00 0.00 0.00 0.00 0.00 0.00 0.00 0.00 0.00 0.00 0.00 0.00 0.00 0.00 0.00 0.00 0.00 0.00 0.00 0.00 0.00 0.00 0.00 0.00 0.02 0.04 0.06 0.09 0.12 0.06 0.02 0.01 0.01 0.03 0.05
0.00 0.01 0.02 0.02 0.01 0.00 0.00 0.00 0.00 0.00 0.00 0.00 0.00 0.00 0.00 0.00 0.00 0.00 0.00 0.00 0.00 0.00 0.00 0.00 0.00 0.00 0.00 0.00 0.00 0.00 0.00 0.02 0.05 0.09 0.08 0.05 0.04 0.06 0.07 0.06 0.06 0.05 0.05
0.00 0.00 0.00 0.00 0.00 0.00 0.00 0.00 0.00 0.00 0.00 0.00 0.00 0.00 0.00 0.00 0.00 0.00 0.00 0.00 0.00 0.00 0.00 0.00 0.00 0.00 0.01 0.01 0.01 0.02 0.02 0.03 0.06 0.08 0.07 0.06 0.06 0.08 0.12 0.17 0.19 0.11 0.07
0.00 0.00 0.00 0.00 0.00 0.00 0.00 0.00 0.00 0.00 0.00 0.00 0.00 0.00 0.00 0.00 0.00 0.00 0.00 0.00 0.01 0.01 0.02 0.04 0.04 0.04 0.05 0.05 0.05 0.05 0.09 0.12 0.13 0.13 0.14 0.15 0.15 0.13 0.09 0.04 0.07 0.11 0.13
0.00 0.00 0.00 0.00 0.00 0.00 0.00 0.00 0.00 0.00 0.00 0.00 0.00 0.00 0.00 0.00 0.00 0.00 0.00 0.00 0.00 0.01 0.09 0.12 0.07 0.07 0.09 0.07 0.09 0.10 0.14 0.18 0.17 0.17 0.20 0.22 0.25 0.27 0.28 0.31 0.28 0.24 0.19
0.00 0.00 0.00 0.00 0.00 0.00 0.00 0.00 0.00 0.00 0.00 0.00 0.00 0.00 0.00 0.00 0.00 0.00 0.00 0.00 0.02 0.08 0.22 0.16 0.13 0.12 0.10 0.11 0.14 0.15 0.16 0.14 0.18 0.30 0.29 0.26 0.28 0.30 0.26 0.23 0.21 0.23 0.21
0.00 0.00 0.00 0.00 0.00 0.00 0.00 0.00 0.00 0.00 0.01 0.01 0.00 0.00 0.00 0.00 0.00 0.01 0.02 0.05 0.11 0.12 0.15 0.12 0.09 0.07 0.07 0.08 0.09 0.11 0.12 0.14 0.19 0.18 0.20 0.19 0.19 0.20 0.21 0.16 0.13 0.11 0.08
0.00 0.00 0.00 0.00 0.00 0.02 0.03 0.04 0.03 0.03 0.02 0.01 0.00 0.00 0.01 0.01 0.02 0.02 0.03 0.09 0.11 0.09 0.07 0.07 0.05 0.06 0.08 0.09 0.11 0.14 0.16 0.17 0.16 0.17 0.14 0.13 0.14 0.18 0.19 0.14 0.10 0.09 0.09
0.04 0.05 0.07 0.10 0.14 0.13 0.10 0.06 0.03 0.02 0.01 0.02 0.02 0.02 0.02 0.03 0.04 0.03 0.03 0.05 0.06 0.07 0.06 0.07 0.06 0.07 0.08 0.10 0.11 0.12 0.13 0.12 0.12 0.12 0.11 0.11 0.09 0.09 0.11 0.12 0.13 0.12 0.11
0.25 0.23 0.21 0.17 0.13 0.10 0.08 0.05 0.04 0.04 0.03 0.02 0.01 0.01 0.02 0.03 0.03 0.04 0.04 0.05 0.07 0.07 0.08 0.08 0.06 0.08 0.09 0.12 0.13 0.15 0.15 0.13 0.14 0.15 0.14 0.14 0.14 0.17 0.16 0.17 0.16 0.13 0.09
0.20 0.16 0.13 0.10 0.08 0.08 0.05 0.03 0.02 0.02 0.01 0.01 0.01 0.01 0.00 0.02 0.06 0.07 0.06 0.06 0.05 0.07 0.09 0.13 0.14 0.12 0.14 0.17 0.21 0.24 0.20 0.18 0.20 0.23 0.23 0.20 0.20 0.20 0.22 0.22 0.22 0.22 0.17
0.11 0.09 0.07 0.05 0.04 0.02 0.02 0.01 0.01 0.01 0.01 0.01 0.01 0.02 0.01 0.02 0.03 0.04 0.06 0.09 0.12 0.16 0.18 0.19 0.20 0.19 0.17 0.20 0.26 0.29 0.28 0.20 0.20 0.25 0.26 0.20 0.17 0.18 0.21 0.19 0.17 0.18 0.15
0.05 0.04 0.03 0.02 0.01 0.01 0.01 0.00 0.01 0.00 0.00 0.01 0.01 0.02 0.02 0.04 0.06 0.10 0.16 0.21 0.22 0.20 0.17 0.18 0.19 0.21 0.24 0.24 0.25 0.25 0.24 0.22 0.22 0.23 0.27 0.28 0.21 0.17 0.21 0.19 0.17 0.16 0.14
0.02 0.02 0.01 0.00 0.00 0.00 0.01 0.01 0.01 0.01 0.01 0.01 0.02 0.02 0.02 0.03 0.03 0.06 0.09 0.10 0.10 0.11 0.11 0.13 0.15 0.16 0.18 0.24 0.30 0.33 0.33 0.30 0.29 0.31 0.35 0.31 0.25 0.25 0.26 0.22 0.19 0.20 0.18
0.00 0.00 0.00 0.00 0.01 0.01 0.01 0.01 0.01 0.01 0.01 0.01 0.01 0.01 0.02 0.03 0.03 0.05 0.07 0.08 0.09 0.10 0.10 0.11 0.12 0.12 0.13 0.14 0.16 0.19 0.19 0.21 0.25 0.30 0.33 0.32 0.29 0.28 0.28 0.24 0.22 0.25 0.23

GFSGL_prec_precacc24_048.txt.gz
Total_Precipitation_Accumulation
0.30 0.40 0.36 0.41 0.58 0.66 0.61 0.60 0.58 0.55 0.55 0.58 0.60 0.52 0.39 0.30 0.31 0.29 0.17 0.14 0.11 0.08 0.07 0.09 0.08 0.08 0.08 0.07 0.06 0.04 0.02 0.01 0.01 0.00 0.00 0.00 0.00 0.00 0.00 0.00 0.00 0.00 0.00
0.35 0.60 0.83 0.71 1.02 1.55 1.61 1.26 1.48 1.49 1.15 0.90 0.68 0.45 0.30 0.18 0.12 0.10 0.06 0.07 0.11 0.13 0.11 0.09 0.09 0.08 0.08 0.07 0.05 0.03 0.02 0.00 0.00 0.00 0.00 0.00 0.00 0.00 0.00 0.00 0.00 0.00 0.00
0.56 0.71 0.77 0.67 1.08 1.02 0.71 0.53 0.42 0.52 0.49 0.30 0.20 0.15 0.10 0.07 0.05 0.04 0.05 0.11 0.14 0.09 0.10 0.10 0.09 0.08 0.06 0.03 0.02 0.00 0.00 0.00 0.00 0.00 0.00 0.00 0.00 0.00 0.00 0.00 0.00 0.00 0.00
0.27 0.38 0.31 0.30 0.39 0.37 0.31 0.24 0.20 0.18 0.17 0.16 0.14 0.15 0.09 0.05 0.05 0.10 0.12 0.11 0.12 0.11 0.08 0.04 0.03 0.01 0.01 0.00 0.00 0.00 0.00 0.01 0.00 0.01 0.00 0.00 0.00 0.00 0.00 0.01 0.01 0.01 0.01
0.09 0.15 0.12 0.22 0.17 0.14 0.10 0.12 0.15 0.17 0.24 0.19 0.18 0.09 0.09 0.12 0.18 0.17 0.15 0.14 0.07 0.03 0.01 0.01 0.01 0.01 0.01 0.01 0.00 0.00 0.01 0.01 0.01 0.01 0.01 0.00 0.00 0.00 0.00 0.01 0.02 0.01 0.00
0.04 0.08 0.06 0.10 0.10 0.10 0.06 0.06 0.09 0.10 0.11 0.13 0.15 0.13 0.15 0.20 0.26 0.19 0.08 0.02 0.01 0.01 0.01 0.00 0.00 0.02 0.00 0.00 0.00 0.00 0.00 0.01 0.01 0.01 0.01 0.00 0.00 0.00 0.01 0.02 0.02 0.03 0.02
0.05 0.04 0.05 0.06 0.08 0.06 0.09 0.06 0.08 0.11 0.08 0.08 0.11 0.18 0.24 0.18 0.15 0.06 0.04 0.01 0.01 0.01 0.00 0.00 0.00 0.01 0.01 0.00 0.00 0.00 0.00 0.00 0.00 0.00 0.01 0.00 0.00 0.00 0.02 0.03 0.03 0.04 0.03
0.03 0.04 0.04 0.04 0.05 0.06 0.07 0.08 0.08 0.08 0.10 0.12 0.16 0.18 0.11 0.05 0.08 0.07 0.05 0.01 0.01 0.00 0.00 0.01 0.01 0.01 0.01 0.00 0.00 0.00 0.00 0.00 0.00 0.00 0.00 0.00 0.00 0.01 0.03 0.04 0.04 0.04 0.02
0.02 0.02 0.03 0.05 0.05 0.05 0.05 0.06 0.08 0.10 0.14 0.13 0.08 0.05 0.05 0.04 0.08 0.05 0.03 0.00 0.00 0.01 0.01 0.01 0.01 0.01 0.01 0.00 0.00 0.00 0.00 0.00 0.00 0.00 0.00 0.00 0.00 0.00 0.01 0.03 0.03 0.06 0.05
0.01 0.01 0.02 0.02 0.02 0.01 0.03 0.03 0.05 0.05 0.04 0.04 0.05 0.04 0.06 0.03 0.04 0.02 0.01 0.00 0.01 0.01 0.01 0.01 0.01 0.00 0.00 0.00 0.00 0.00 0.00 0.00 0.01 0.02 0.01 0.00 0.00 0.00 0.01 0.02 0.03 0.09 0.07
0.01 0.01 0.01 0.00 0.00 0.00 0.00 0.01 0.02 0.02 0.02 0.02 0.01 0.00 0.00 0.00 0.01 0.01 0.01 0.00 0.00 0.00 0.00 0.00 0.00 0.00 0.00 0.00 0.00 0.00 0.00 0.01 0.03 0.04 0.05 0.06 0.03 0.02 0.01 0.00 0.01 0.04 0.09
0.02 0.01 0.00 0.00 0.00 0.00 0.01 0.01 0.02 0.01 0.00 0.00 0.00 0.00 0.00 0.00 0.00 0.01 0.00 0.00 0.00 0.00 0.00 0.00 0.00 0.00 0.00 0.00 0.00 0.00 0.00 0.00 0.02 0.04 0.06 0.09 0.12 0.06 0.02 0.01 0.01 0.03 0.06
0.02 0.01 0.00 0.00 0.00 0.00 0.00 0.01 0.00 0.00 0.00 0.00 0.00 0.00 0.00 0.00 0.00 0.00 0.00 0.00 0.00 0.00 0.00 0.00 0.00 0.00 0.00 0.00 0.00 0.00 0.00 0.02 0.05 0.09 0.08 0.05 0.04 0.06 0.07 0.06 0.06 0.05 0.05
0.01 0.00 0.00 0.00 0.00 0.00 0.00 0.00 0.00 0.00 0.00 0.00 0.00 0.00 0.00 0.00 0.00 0.00 0.00 0.00 0.00 0.00 0.00 0.00 0.00 0.00 0.01 0.01 0.01 0.02 0.02 0.03 0.06 0.08 0.07 0.06 0.06 0.08 0.12 0.17 0.19 0.11 0.07
0.00 0.00 0.00 0.00 0.00 0.00 0.00 0.00 0.00 0.00 0.00 0.00 0.00 0.00 0.00 0.00 0.00 0.00 0.00 0.00 0.01 0.01 0.02 0.03 0.02 0.03 0.03 0.04 0.04 0.05 0.09 0.12 0.13 0.13 0.14 0.15 0.15 0.13 0.09 0.04 0.07 0.12 0.13
0.00 0.00 0.00 0.00 0.00 0.00 0.00 0.00 0.00 0.00 0.00 0.00 0.00 0.00 0.00 0.00 0.00 0.00 0.00 0.00 0.00 0.01 0.06 0.08 0.06 0.06 0.07 0.06 0.09 0.09 0.12 0.17 0.17 0.17 0.20 0.22 0.25 0.27 0.29 0.31 0.28 0.25 0.20
0.00 0.00 0.00 0.00 0.00 0.00 0.00 0.00 0.00 0.01 0.02 0.02 0.03 0.02 0.01 0.01 0.00 0.00 0.00 0.00 0.00 0.01 0.05 0.09 0.10 0.11 0.10 0.10 0.12 0.13 0.13 0.12 0.17 0.30 0.30 0.26 0.28 0.30 0.26 0.23 0.21 0.23 0.21
0.00 0.00 0.00 0.00 0.00 0.01 0.01 0.01 0.02 0.04 0.06 0.07 0.05 0.02 0.02 0.02 0.03 0.04 0.04 0.04 0.03 0.02 0.05 0.07 0.08 0.07 0.07 0.07 0.07 0.08 0.10 0.13 0.18 0.18 0.20 0.19 0.19 0.21 0.22 0.17 0.14 0.12 0.09
0.06 0.08 0.09 0.09 0.09 0.09 0.10 0.11 0.12 0.14 0.14 0.13 0.13 0.12 0.12 0.11 0.09 0.09 0.07 0.07 0.07 0.06 0.06 0.06 0.05 0.05 0.06 0.07 0.07 0.08 0.11 0.15 0.16 0.17 0.14 0.13 0.14 0.18 0.19 0.15 0.10 0.09 0.11
0.31 0.28 0.23 0.22 0.25 0.25 0.24 0.21 0.18 0.17 0.16 0.15 0.14 0.13 0.10 0.07 0.06 0.05 0.04 0.04 0.05 0.05 0.04 0.04 0.03 0.03 0.04 0.06 0.07 0.08 0.09 0.09 0.11 0.12 0.11 0.11 0.10 0.10 0.12 0.13 0.14 0.13 0.12
0.35 0.33 0.31 0.27 0.24 0.22 0.18 0.15 0.13 0.13 0.11 0.09 0.09 0.07 0.05 0.03 0.03 0.04 0.04 0.03 0.03 0.03 0.03 0.04 0.04 0.05 0.06 0.08 0.09 0.11 0.13 0.12 0.13 0.15 0.15 0.14 0.14 0.17 0.16 0.17 0.16 0.13 0.10
0.29 0.24 0.20 0.16 0.15 0.13 0.10 0.08 0.07 0.06 0.06 0.05 0.04 0.04 0.03 0.03 0.03 0.03 0.02 0.02 0.02 0.02 0.03 0.05 0.06 0.08 0.12 0.15 0.17 0.18 0.16 0.16 0.18 0.22 0.23 0.21 0.21 0.19 0.21 0.22 0.23 0.23 0.18
0.14 0.12 0.10 0.09 0.08 0.06 0.05 0.04 0.04 0.03 0.04 0.03 0.03 0.03 0.02 0.01 0.01 0.01 0.01 0.02 0.02 0.01 0.02 0.03 0.05 0.07 0.10 0.16 0.20 0.20 0.20 0.17 0.19 0.23 0.25 0.20 0.17 0.18 0.20 0.19 0.18 0.19 0.16
0.07 0.06 0.05 0.05 0.04 0.03 0.03 0.02 0.02 0.01 0.01 0.01 0.01 0.01 0.01 0.01 0.01 0.01 0.01 0.01 0.01 0.01 0.02 0.04 0.05 0.08 0.11 0.12 0.12 0.13 0.16 0.18 0.17 0.16 0.22 0.24 0.18 0.15 0.19 0.19 0.18 0.18 0.17
0.03 0.02 0.02 0.01 0.01 0.00 0.01 0.01 0.01 0.01 0.01 0.00 0.01 0.01 0.01 0.01 0.01 0.01 0.01 0.01 0.00 0.01 0.01 0.02 0.06 0.08 0.10 0.13 0.14 0.15 0.17 0.15 0.16 0.22 0.27 0.26 0.22 0.21 0.23 0.21 0.20 0.22 0.21
0.00 0.00 0.00 0.00 0.01 0.01 0.01 0.01 0.01 0.01 0.01 0.01 0.01 0.01 0.02 0.01 0.01 0.01 0.01 0.00 0.01 0.01 0.00 0.01 0.03 0.05 0.08 0.11 0.13 0.16 0.15 0.15 0.16 0.21 0.28 0.28 0.26 0.25 0.24 0.22 0.20 0.26 0.27

GFSGL_prec_precacc24_051.txt.gz
Total_Precipitation_Accumulation
0.29 0.30 0.23 0.27 0.49 0.60 0.56 0.56 0.56 0.54 0.54 0.58 0.60 0.52 0.39 0.30 0.33 0.37 0.41 0.47 0.45 0.38 0.33 0.27 0.17 0.16 0.13 0.11 0.09 0.06 0.04 0.02 0.02 0.01 0.00 0.00 0.00 0.00 0.00 0.00 0.00 0.00 0.00
0.33 0.55 0.76 0.62 0.94 1.48 1.55 1.23 1.46 1.47 1.14 0.90 0.68 0.45 0.30 0.19 0.13 0.13 0.19 0.21 0.24 0.27 0.23 0.19 0.15 0.14 0.11 0.09 0.07 0.05 0.03 0.02 0.01 0.01 0.00 0.00 0.00 0.00 0.00 0.00 0.00 0.00 0.00
0.53 0.68 0.74 0.65 1.03 0.96 0.67 0.51 0.42 0.52 0.49 0.30 0.20 0.15 0.11 0.07 0.05 0.05 0.09 0.20 0.27 0.16 0.12 0.11 0.10 0.10 0.08 0.04 0.03 0.02 0.02 0.01 0.01 0.01 0.00 0.00 0.00 0.00 0.00 0.00 0.00 0.00 0.00
0.25 0.37 0.29 0.26 0.35 0.35 0.30 0.24 0.20 0.17 0.17 0.16 0.15 0.16 0.11 0.06 0.04 0.07 0.11 0.11 0.12 0.11 0.08 0.04 0.04 0.03 0.02 0.03 0.03 0.03 0.02 0.01 0.01 0.01 0.00 0.00 0.00 0.00 0.00 0.01 0.01 0.01 0.01
0.09 0.14 0.11 0.21 0.16 0.14 0.10 0.11 0.15 0.18 0.25 0.21 0.21 0.11 0.11 0.11 0.12 0.15 0.15 0.14 0.08 0.04 0.02 0.02 0.03 0.05 0.06 0.03 0.01 0.01 0.01 0.02 0.02 0.02 0.01 0.00 0.00 0.00 0.00 0.01 0.02 0.01 0.00
0.04 0.08 0.06 0.10 0.10 0.10 0.06 0.05 0.09 0.11 0.13 0.18 0.20 0.20 0.17 0.17 0.31 0.29 0.16 0.06 0.03 0.03 0.03 0.02 0.04 0.06 0.02 0.02 0.01 0.00 0.00 0.01 0.01 0.01 0.01 0.00 0.00 0.00 0.01 0.02 0.02 0.03 0.02
0.05 0.04 0.05 0.06 0.08 0.06 0.08 0.06 0.08 0.11 0.09 0.10 0.11 0.16 0.21 0.23 0.28 0.15 0.13 0.06 0.07 0.06 0.03 0.02 0.01 0.01 0.02 0.00 0.01 0.01 0.00 0.00 0.00 0.00 0.01 0.00 0.00 0.00 0.02 0.03 0.03 0.04 0.03
0.03 0.04 0.04 0.04 0.05 0.06 0.06 0.08 0.08 0.07 0.09 0.09 0.09 0.13 0.12 0.10 0.16 0.13 0.10 0.03 0.03 0.02 0.02 0.02 0.01 0.01 0.01 0.01 0.00 0.00 0.00 0.00 0.00 0.00 0.00 0.00 0.00 0.01 0.03 0.04 0.03 0.03 0.02
0.02 0.02 0.03 0.05 0.05 0.05 0.05 0.04 0.05 0.07 0.10 0.10 0.08 0.08 0.06 0.08 0.14 0.08 0.06 0.01 0.01 0.02 0.01 0.01 0.01 0.01 0.02 0.02 0.00 0.00 0.00 0.00 0.00 0.00 0.00 0.00 0.00 0.00 0.01 0.03 0.03 0.06 0.05
0.01 0.01 0.02 0.02 0.02 0.01 0.03 0.02 0.04 0.06 0.06 0.05 0.05 0.05 0.09 0.06 0.09 0.05 0.03 0.00 0.01 0.01 0.01 0.02 0.03 0.01 0.02 0.01 0.00 0.00 0.00 0.00 0.01 0.02 0.01 0.00 0.00 0.00 0.01 0.02 0.03 0.09 0.07
0.01 0.01 0.03 0.03 0.03 0.02 0.01 0.01 0.02 0.02 0.02 0.02 0.03 0.02 0.03 0.03 0.04 0.04 0.02 0.00 0.00 0.00 0.01 0.01 0.01 0.02 0.01 0.00 0.00 0.00 0.00 0.01 0.03 0.04 0.05 0.06 0.03 0.02 0.01 0.00 0.01 0.04 0.09
0.03 0.04 0.05 0.05 0.04 0.02 0.01 0.02 0.02 0.02 0.02 0.03 0.02 0.02 0.02 0.02 0.03 0.02 0.02 0.01 0.01 0.00 0.00 0.00 0.01 0.01 0.00 0.00 0.00 0.00 0.00 0.00 0.02 0.04 0.06 0.09 0.12 0.06 0.02 0.01 0.01 0.03 0.06
0.06 0.07 0.08 0.05 0.02 0.01 0.01 0.01 0.02 0.03 0.03 0.05 0.04 0.03 0.02 0.00 0.01 0.02 0.01 0.01 0.01 0.00 0.00 0.00 0.00 0.00 0.00 0.00 0.00 0.00 0.00 0.02 0.05 0.09 0.08 0.05 0.04 0.06 0.07 0.06 0.06 0.05 0.05
0.03 0.03 0.01 0.00 0.00 0.00 0.01 0.01 0.01 0.02 0.02 0.02 0.01 0.00 0.00 0.00 0.00 0.00 0.00 0.00 0.00 0.00 0.00 0.00 0.00 0.00 0.01 0.01 0.01 0.02 0.02 0.03 0.06 0.08 0.07 0.06 0.06 0.08 0.12 0.17 0.19 0.11 0.07
0.01 0.00 0.00 0.00 0.00 0.00 0.00 0.00 0.01 0.00 0.00 0.00 0.00 0.00 0.00 0.00 0.00 0.00 0.00 0.00 0.00 0.00 0.00 0.01 0.01 0.02 0.03 0.04 0.04 0.05 0.08 0.10 0.11 0.12 0.13 0.15 0.15 0.13 0.09 0.04 0.07 0.12 0.13
0.00 0.00 0.00 0.00 0.00 0.00 0.00 0.00 0.00 0.01 0.01 0.01 0.01 0.02 0.03 0.02 0.02 0.02 0.01 0.01 0.00 0.00 0.00 0.01 0.02 0.04 0.04 0.04 0.07 0.09 0.11 0.14 0.14 0.15 0.17 0.21 0.25 0.27 0.29 0.31 0.28 0.25 0.20
0.00 0.00 0.00 0.00 0.00 0.00 0.00 0.00 0.02 0.06 0.08 0.09 0.09 0.08 0.05 0.04 0.02 0.00 0.00 0.00 0.00 0.00 0.02 0.03 0.04 0.05 0.06 0.05 0.07 0.09 0.12 0.12 0.14 0.23 0.25 0.24 0.28 0.30 0.26 0.23 0.21 0.23 0.21
0.05 0.06 0.03 0.04 0.06 0.06 0.06 0.06 0.07 0.08 0.10 0.11 0.09 0.05 0.04 0.04 0.04 0.06 0.06 0.05 0.05 0.03 0.03 0.04 0.04 0.04 0.05 0.06 0.07 0.08 0.09 0.11 0.14 0.14 0.16 0.18 0.19 0.21 0.22 0.17 0.14 0.12 0.09
0.38 0.37 0.32 0.26 0.21 0.16 0.15 0.15 0.14 0.16 0.16 0.17 0.18 0.17 0.17 0.16 0.13 0.12 0.09 0.09 0.08 0.07 0.06 0.06 0.05 0.04 0.04 0.04 0.05 0.05 0.06 0.09 0.12 0.13 0.12 0.13 0.14 0.18 0.20 0.15 0.10 0.09 0.11
0.50 0.41 0.32 0.28 0.30 0.29 0.28 0.24 0.21 0.19 0.19 0.18 0.17 0.15 0.12 0.08 0.07 0.06 0.06 0.06 0.06 0.06 0.06 0.05 0.04 0.02 0.03 0.04 0.05 0.05 0.07 0.07 0.08 0.09 0.10 0.11 0.10 0.10 0.12 0.13 0.14 0.13 0.12
0.41 0.39 0.36 0.32 0.29 0.26 0.22 0.18 0.16 0.15 0.13 0.11 0.10 0.08 0.06 0.04 0.04 0.04 0.04 0.04 0.03 0.03 0.02 0.02 0.01 0.02 0.02 0.04 0.05 0.07 0.11 0.11 0.12 0.14 0.13 0.13 0.14 0.18 0.16 0.18 0.16 0.13 0.11
0.32 0.28 0.22 0.19 0.16 0.14 0.11 0.09 0.08 0.07 0.06 0.06 0.06 0.05 0.04 0.03 0.04 0.03 0.02 0.02 0.02 0.02 0.02 0.01 0.02 0.01 0.03 0.05 0.07 0.12 0.13 0.15 0.18 0.21 0.21 0.19 0.19 0.19 0.22 0.23 0.23 0.23 0.18
0.14 0.12 0.10 0.09 0.08 0.06 0.05 0.05 0.04 0.04 0.04 0.04 0.03 0.03 0.02 0.01 0.01 0.01 0.01 0.01 0.02 0.01 0.01 0.01 0.01 0.02 0.01 0.04 0.08 0.10 0.15 0.16 0.18 0.21 0.22 0.17 0.15 0.18 0.21 0.19 0.18 0.20 0.16
0.07 0.06 0.05 0.05 0.04 0.03 0.03 0.02 0.02 0.01 0.01 0.01 0.01 0.01 0.01 0.01 0.01 0.01 0.01 0.01 0.01 0.00 0.01 0.01 0.01 0.02 0.03 0.04 0.06 0.09 0.12 0.14 0.14 0.14 0.18 0.20 0.16 0.15 0.20 0.19 0.18 0.19 0.17
0.03 0.02 0.02 0.01 0.01 0.00 0.01 0.01 0.01 0.01 0.01 0.00 0.01 0.01 0.01 0.01 0.01 0.01 0.01 0.01 0.00 0.00 0.00 0.00 0.01 0.02 0.02 0.03 0.06 0.09 0.11 0.10 0.11 0.16 0.19 0.20 0.17 0.19 0.23 0.21 0.19 0.22 0.21
0.00 0.00 0.00 0.00 0.01 0.01 0.01 0.01 0.01 0.01 0.01 0.01 0.01 0.01 0.02 0.01 0.01 0.01 0.01 0.00 0.01 0.01 0.00 0.00 0.00 0.01 0.02 0.03 0.05 0.10 0.09 0.09 0.09 0.11 0.17 0.19 0.21 0.21 0.22 0.21 0.20 0.24 0.26

GFSGL_prec_precacc24_054.txt.gz
Total_Precipitation_Accumulation
0.29 0.29 0.21 0.18 0.37 0.50 0.47 0.49 0.52 0.53 0.53 0.54 0.50 0.42 0.35 0.30 0.33 0.37 0.41 0.47 0.45 0.39 0.34 0.30 0.24 0.25 0.27 0.25 0.25 0.21 0.16 0.14 0.12 0.05 0.02 0.01 0.00 0.00 0.00 0.00 0.00 0.00 0.00
0.33 0.54 0.74 0.58 0.87 1.42 1.49 1.17 1.42 1.44 1.11 0.87 0.67 0.45 0.30 0.19 0.13 0.13 0.19 0.21 0.23 0.27 0.28 0.28 0.25 0.31 0.36 0.29 0.19 0.12 0.09 0.07 0.06 0.04 0.02 0.01 0.01 0.01 0.00 0.00 0.00 0.00 0.00
0.53 0.68 0.74 0.63 1.02 0.94 0.64 0.48 0.40 0.49 0.47 0.29 0.19 0.14 0.10 0.07 0.05 0.05 0.09 0.15 0.22 0.18 0.17 0.16 0.13 0.12 0.09 0.07 0.07 0.06 0.06 0.05 0.04 0.03 0.02 0.01 0.01 0.00 0.00 0.00 0.00 0.00 0.00
0.24 0.35 0.27 0.23 0.33 0.34 0.30 0.23 0.20 0.17 0.17 0.16 0.15 0.16 0.11 0.06 0.04 0.04 0.04 0.07 0.13 0.13 0.09 0.05 0.05 0.04 0.04 0.05 0.06 0.05 0.05 0.04 0.03 0.03 0.02 0.01 0.00 0.00 0.00 0.01 0.01 0.01 0.01
0.08 0.14 0.11 0.21 0.16 0.15 0.10 0.12 0.15 0.18 0.25 0.21 0.21 0.11 0.10 0.10 0.09 0.10 0.12 0.14 0.08 0.04 0.03 0.02 0.03 0.06 0.07 0.03 0.01 0.01 0.01 0.02 0.02 0.02 0.01 0.00 0.00 0.00 0.00 0.01 0.02 0.01 0.00
0.04 0.08 0.06 0.10 0.10 0.10 0.06 0.05 0.09 0.11 0.13 0.18 0.20 0.19 0.16 0.16 0.26 0.24 0.17 0.08 0.05 0.04 0.04 0.03 0.04 0.08 0.03 0.05 0.04 0.03 0.01 0.01 0.01 0.01 0.01 0.00 0.00 0.00 0.01 0.02 0.02 0.03 0.02
0.05 0.04 0.05 0.06 0.08 0.06 0.08 0.06 0.08 0.11 0.09 0.10 0.11 0.15 0.18 0.18 0.27 0.18 0.17 0.08 0.09 0.10 0.06 0.05 0.04 0.05 0.09 0.02 0.05 0.03 0.01 0.00 0.00 0.00 0.01 0.00 0.00 0.00 0.02 0.03 0.03 0.04 0.03
0.03 0.04 0.04 0.04 0.05 0.06 0.06 0.08 0.08 0.08 0.09 0.08 0.09 0.11 0.10 0.11 0.19 0.14 0.14 0.04 0.04 0.04 0.04 0.04 0.04 0.04 0.04 0.04 0.01 0.01 0.00 0.00 0.00 0.00 0.00 0.00 0.00 0.01 0.03 0.04 0.03 0.03 0.02
0.02 0.02 0.03 0.05 0.05 0.05 0.05 0.04 0.05 0.07 0.10 0.10 0.09 0.09 0.08 0.11 0.19 0.10 0.08 0.01 0.02 0.03 0.03 0.04 0.05 0.04 0.10 0.08 0.01 0.00 0.00 0.00 0.00 0.00 0.00 0.00 0.00 0.00 0.01 0.03 0.03 0.06 0.05
0.01 0.01 0.02 0.02 0.02 0.01 0.03 0.02 0.04 0.06 0.06 0.05 0.06 0.06 0.12 0.07 0.16 0.09 0.06 0.01 0.02 0.03 0.03 0.05 0.10 0.05 0.06 0.03 0.01 0.00 0.00 0.00 0.01 0.02 0.01 0.00 0.00 0.00 0.01 0.02 0.03 0.08 0.07
0.01 0.01 0.03 0.03 0.04 0.04 0.01 0.02 0.02 0.02 0.02 0.02 0.04 0.03 0.04 0.07 0.09 0.10 0.07 0.01 0.01 0.03 0.04 0.04 0.05 0.07 0.03 0.01 0.00 0.00 0.00 0.01 0.03 0.04 0.05 0.06 0.03 0.02 0.01 0.00 0.01 0.04 0.09
0.03 0.04 0.05 0.06 0.08 0.06 0.05 0.06 0.05 0.03 0.03 0.03 0.03 0.03 0.03 0.05 0.09 0.09 0.07 0.06 0.06 0.01 0.02 0.02 0.04 0.06 0.01 0.00 0.00 0.00 0.00 0.00 0.02 0.04 0.06 0.09 0.12 0.06 0.02 0.01 0.01 0.03 0.06
0.06 0.07 0.09 0.09 0.06 0.05 0.04 0.04 0.03 0.03 0.04 0.05 0.05 0.06 0.07 0.06 0.08 0.11 0.09 0.07 0.05 0.02 0.01 0.01 0.03 0.02 0.00 0.00 0.00 0.00 0.00 0.02 0.05 0.08 0.08 0.05 0.04 0.06 0.07 0.06 0.06 0.05 0.05
0.03 0.07 0.06 0.05 0.06 0.03 0.02 0.02 0.02 0.03 0.04 0.04 0.04 0.04 0.05 0.07 0.08 0.08 0.05 0.02 0.01 0.00 0.00 0.00 0.00 0.00 0.00 0.01 0.01 0.02 0.02 0.03 0.06 0.08 0.07 0.06 0.06 0.08 0.12 0.17 0.19 0.11 0.07
0.05 0.04 0.02 0.02 0.01 0.00 0.00 0.02 0.02 0.02 0.04 0.02 0.02 0.02 0.03 0.03 0.03 0.02 0.01 0.00 0.01 0.02 0.03 0.02 0.01 0.01 0.01 0.01 0.01 0.02 0.04 0.08 0.10 0.11 0.12 0.12 0.12 0.12 0.08 0.04 0.06 0.11 0.13
0.02 0.01 0.02 0.00 0.00 0.00 0.01 0.03 0.05 0.05 0.04 0.02 0.03 0.03 0.05 0.05 0.06 0.07 0.07 0.06 0.05 0.03 0.02 0.02 0.01 0.02 0.02 0.02 0.02 0.03 0.04 0.05 0.08 0.09 0.12 0.16 0.20 0.24 0.28 0.30 0.28 0.24 0.20
0.02 0.01 0.01 0.02 0.02 0.02 0.02 0.02 0.04 0.11 0.13 0.15 0.14 0.12 0.08 0.08 0.06 0.04 0.03 0.02 0.01 0.01 0.02 0.04 0.04 0.05 0.04 0.03 0.04 0.04 0.05 0.06 0.08 0.13 0.17 0.20 0.23 0.26 0.23 0.22 0.21 0.23 0.21
0.22 0.21 0.21 0.23 0.25 0.25 0.23 0.21 0.18 0.17 0.17 0.19 0.16 0.10 0.08 0.07 0.06 0.07 0.07 0.06 0.06 0.04 0.04 0.04 0.04 0.04 0.03 0.03 0.03 0.02 0.04 0.07 0.08 0.09 0.11 0.15 0.16 0.18 0.20 0.16 0.13 0.12 0.09
0.79 0.78 0.71 0.61 0.49 0.37 0.29 0.24 0.21 0.22 0.22 0.23 0.23 0.21 0.20 0.17 0.15 0.13 0.09 0.09 0.08 0.07 0.06 0.06 0.06 0.04 0.03 0.03 0.03 0.02 0.02 0.03 0.04 0.06 0.08 0.10 0.13 0.17 0.18 0.14 0.11 0.09 0.11
0.69 0.60 0.47 0.41 0.40 0.38 0.35 0.30 0.27 0.25 0.23 0.22 0.20 0.18 0.13 0.09 0.07 0.06 0.06 0.06 0.06 0.06 0.05 0.05 0.04 0.02 0.02 0.02 0.03 0.03 0.03 0.02 0.03 0.04 0.06 0.09 0.09 0.09 0.12 0.13 0.14 0.13 0.12
0.49 0.47 0.42 0.36 0.32 0.29 0.24 0.20 0.17 0.16 0.14 0.12 0.11 0.09 0.06 0.04 0.04 0.04 0.04 0.04 0.03 0.03 0.02 0.02 0.01 0.01 0.02 0.02 0.02 0.02 0.03 0.03 0.08 0.12 0.13 0.12 0.12 0.16 0.15 0.18 0.17 0.14 0.11
0.33 0.29 0.23 0.19 0.17 0.15 0.12 0.09 0.08 0.07 0.07 0.06 0.06 0.05 0.04 0.03 0.04 0.03 0.02 0.02 0.02 0.02 0.01 0.01 0.01 0.01 0.01 0.02 0.03 0.05 0.03 0.04 0.09 0.17 0.20 0.18 0.17 0.17 0.19 0.22 0.23 0.23 0.19
0.14 0.12 0.10 0.09 0.08 0.06 0.05 0.05 0.04 0.04 0.04 0.04 0.04 0.03 0.02 0.01 0.01 0.01 0.01 0.02 0.02 0.01 0.01 0.01 0.01 0.01 0.01 0.02 0.03 0.04 0.06 0.06 0.09 0.13 0.17 0.15 0.13 0.14 0.17 0.19 0.19 0.20 0.17
0.07 0.06 0.05 0.05 0.04 0.03 0.03 0.03 0.03 0.01 0.01 0.01 0.01 0.01 0.01 0.01 0.01 0.01 0.01 0.01 0.01 0.01 0.01 0.01 0.01 0.01 0.02 0.01 0.01 0.02 0.05 0.09 0.10 0.09 0.15 0.18 0.14 0.11 0.16 0.18 0.19 0.19 0.18
0.03 0.02 0.02 0.01 0.01 0.00 0.01 0.01 0.01 0.01 0.01 0.01 0.01 0.01 0.01 0.01 0.01 0.01 0.01 0.01 0.00 0.00 0.00 0.00 0.01 0.01 0.01 0.01 0.01 0.02 0.05 0.05 0.06 0.10 0.14 0.16 0.15 0.15 0.19 0.20 0.20 0.22 0.21
0.00 0.00 0.00 0.00 0.01 0.01 0.01 0.01 0.01 0.01 0.01 0.01 0.01 0.01 0.02 0.01 0.01 0.01 0.01 0.00 0.01 0.00 0.00 0.00 0.00 0.00 0.01 0.01 0.01 0.03 0.02 0.03 0.05 0.07 0.13 0.15 0.16 0.15 0.16 0.18 0.19 0.25 0.26

GFSGL_prec_precacc24_060.txt.gz
Total_Precipitation_Accumulation
0.28 0.24 0.14 0.07 0.12 0.31 0.37 0.35 0.39 0.45 0.48 0.52 0.50 0.40 0.30 0.26 0.31 0.36 0.40 0.44 0.44 0.38 0.33 0.29 0.25 0.27 0.30 0.28 0.28 0.27 0.25 0.26 0.29 0.16 0.08 0.06 0.08 0.09 0.06 0.05 0.04 0.02 0.01
0.32 0.42 0.47 0.46 0.64 1.22 1.27 1.09 1.34 1.40 1.08 0.87 0.67 0.44 0.30 0.18 0.12 0.12 0.16 0.18 0.20 0.22 0.24 0.28 0.26 0.32 0.39 0.34 0.27 0.20 0.14 0.12 0.13 0.09 0.06 0.05 0.05 0.04 0.04 0.02 0.01 0.00 0.00
0.51 0.58 0.58 0.58 0.74 0.81 0.53 0.39 0.33 0.47 0.47 0.28 0.19 0.13 0.08 0.05 0.03 0.03 0.07 0.12 0.17 0.15 0.15 0.16 0.15 0.14 0.12 0.10 0.10 0.09 0.09 0.09 0.11 0.13 0.10 0.07 0.06 0.03 0.02 0.02 0.01 0.00 0.00
0.20 0.27 0.24 0.15 0.22 0.29 0.27 0.21 0.18 0.17 0.16 0.16 0.14 0.15 0.10 0.05 0.03 0.03 0.02 0.03 0.05 0.06 0.06 0.06 0.07 0.07 0.07 0.07 0.09 0.09 0.08 0.07 0.07 0.08 0.07 0.04 0.03 0.02 0.03 0.03 0.02 0.01 0.02
0.02 0.08 0.08 0.13 0.15 0.14 0.10 0.13 0.15 0.18 0.25 0.21 0.21 0.11 0.10 0.10 0.09 0.08 0.04 0.03 0.04 0.04 0.03 0.03 0.04 0.08 0.09 0.05 0.03 0.03 0.03 0.05 0.07 0.05 0.05 0.03 0.03 0.03 0.04 0.06 0.08 0.05 0.04
0.02 0.06 0.05 0.09 0.09 0.10 0.06 0.05 0.09 0.11 0.13 0.18 0.20 0.19 0.16 0.15 0.24 0.21 0.13 0.07 0.05 0.04 0.04 0.05 0.06 0.11 0.06 0.09 0.10 0.10 0.08 0.07 0.08 0.08 0.06 0.04 0.05 0.09 0.11 0.13 0.12 0.10 0.08
0.04 0.04 0.05 0.06 0.08 0.06 0.08 0.06 0.08 0.11 0.09 0.10 0.11 0.16 0.19 0.18 0.27 0.19 0.18 0.09 0.09 0.10 0.08 0.07 0.06 0.09 0.15 0.06 0.15 0.16 0.13 0.16 0.13 0.08 0.09 0.14 0.19 0.20 0.21 0.20 0.13 0.07 0.04
0.03 0.04 0.04 0.04 0.05 0.06 0.06 0.08 0.08 0.08 0.09 0.08 0.09 0.12 0.10 0.12 0.20 0.16 0.16 0.06 0.05 0.06 0.06 0.07 0.06 0.08 0.14 0.16 0.12 0.17 0.20 0.25 0.27 0.28 0.30 0.32 0.28 0.18 0.10 0.08 0.05 0.04 0.02
0.02 0.02 0.03 0.05 0.05 0.05 0.05 0.04 0.05 0.07 0.10 0.10 0.09 0.09 0.09 0.12 0.22 0.15 0.10 0.03 0.07 0.10 0.08 0.11 0.16 0.13 0.37 0.30 0.17 0.20 0.24 0.24 0.24 0.18 0.12 0.09 0.06 0.04 0.03 0.04 0.04 0.07 0.06
0.01 0.01 0.02 0.02 0.02 0.01 0.03 0.02 0.04 0.06 0.06 0.05 0.06 0.06 0.13 0.08 0.26 0.19 0.13 0.03 0.09 0.11 0.11 0.17 0.31 0.17 0.26 0.15 0.08 0.05 0.09 0.11 0.10 0.09 0.06 0.05 0.03 0.03 0.03 0.04 0.05 0.10 0.08
0.01 0.01 0.03 0.03 0.04 0.04 0.02 0.02 0.02 0.03 0.02 0.03 0.04 0.03 0.05 0.11 0.16 0.19 0.16 0.05 0.05 0.10 0.15 0.16 0.23 0.34 0.21 0.19 0.15 0.13 0.17 0.19 0.18 0.14 0.11 0.09 0.06 0.04 0.02 0.02 0.02 0.04 0.09
0.03 0.04 0.05 0.06 0.08 0.06 0.05 0.06 0.06 0.04 0.04 0.04 0.04 0.05 0.05 0.08 0.16 0.16 0.14 0.14 0.18 0.10 0.16 0.18 0.29 0.34 0.20 0.20 0.20 0.21 0.21 0.18 0.14 0.12 0.09 0.06 0.04 0.02 0.01 0.01 0.01 0.03 0.05
0.06 0.07 0.09 0.09 0.06 0.05 0.06 0.08 0.08 0.06 0.07 0.08 0.08 0.10 0.12 0.12 0.16 0.21 0.19 0.20 0.21 0.21 0.28 0.33 0.35 0.29 0.22 0.20 0.20 0.18 0.15 0.13 0.11 0.10 0.09 0.07 0.04 0.02 0.02 0.03 0.05 0.05 0.05
0.04 0.08 0.06 0.06 0.08 0.05 0.08 0.09 0.08 0.08 0.10 0.12 0.14 0.15 0.16 0.18 0.21 0.21 0.20 0.20 0.23 0.22 0.25 0.26 0.24 0.20 0.18 0.16 0.14 0.11 0.09 0.06 0.05 0.05 0.05 0.04 0.03 0.02 0.04 0.12 0.16 0.10 0.07
0.10 0.11 0.10 0.09 0.09 0.08 0.09 0.13 0.11 0.13 0.19 0.17 0.17 0.16 0.17 0.22 0.26 0.28 0.24 0.23 0.23 0.25 0.25 0.24 0.22 0.18 0.14 0.10 0.07 0.05 0.04 0.03 0.03 0.03 0.02 0.02 0.01 0.01 0.01 0.01 0.04 0.09 0.11
0.16 0.17 0.20 0.15 0.14 0.13 0.11 0.16 0.28 0.29 0.27 0.30 0.32 0.29 0.39 0.44 0.49 0.48 0.44 0.38 0.30 0.24 0.19 0.17 0.15 0.11 0.09 0.08 0.07 0.06 0.03 0.02 0.02 0.02 0.01 0.01 0.01 0.01 0.02 0.04 0.12 0.15 0.14
0.29 0.25 0.25 0.26 0.27 0.25 0.23 0.21 0.28 0.44 0.47 0.52 0.51 0.48 0.44 0.47 0.39 0.33 0.28 0.22 0.18 0.14 0.13 0.14 0.14 0.13 0.10 0.06 0.05 0.03 0.03 0.02 0.01 0.01 0.01 0.01 0.02 0.05 0.08 0.08 0.09 0.14 0.16
0.94 0.93 0.81 0.79 0.83 0.91 0.98 1.02 1.00 0.96 0.92 0.91 0.77 0.57 0.49 0.43 0.36 0.29 0.23 0.16 0.13 0.10 0.10 0.09 0.08 0.06 0.04 0.02 0.02 0.01 0.01 0.01 0.01 0.01 0.00 0.01 0.02 0.04 0.06 0.05 0.05 0.07 0.07
1.61 1.70 1.65 1.55 1.42 1.21 0.99 0.85 0.79 0.76 0.69 0.66 0.58 0.47 0.39 0.30 0.23 0.19 0.14 0.12 0.11 0.09 0.07 0.06 0.06 0.04 0.03 0.02 0.02 0.01 0.01 0.01 0.01 0.01 0.01 0.01 0.02 0.03 0.04 0.05 0.07 0.07 0.10
1.02 0.95 0.82 0.76 0.72 0.66 0.61 0.54 0.49 0.45 0.40 0.37 0.33 0.31 0.22 0.13 0.09 0.08 0.07 0.06 0.06 0.06 0.05 0.05 0.03 0.02 0.01 0.01 0.01 0.01 0.01 0.01 0.01 0.01 0.01 0.02 0.02 0.03 0.04 0.04 0.08 0.11 0.11
0.60 0.60 0.55 0.49 0.45 0.40 0.34 0.29 0.25 0.21 0.18 0.15 0.14 0.11 0.06 0.05 0.05 0.05 0.04 0.04 0.03 0.02 0.02 0.02 0.01 0.01 0.01 0.01 0.00 0.01 0.01 0.01 0.01 0.01 0.02 0.02 0.03 0.04 0.04 0.09 0.10 0.11 0.09
0.35 0.31 0.26 0.22 0.20 0.16 0.14 0.11 0.09 0.08 0.07 0.07 0.06 0.05 0.04 0.03 0.04 0.03 0.02 0.02 0.02 0.02 0.01 0.01 0.00 0.00 0.00 0.00 0.01 0.02 0.01 0.01 0.01 0.02 0.03 0.02 0.03 0.05 0.07 0.09 0.13 0.17 0.16
0.15 0.13 0.10 0.10 0.08 0.07 0.06 0.06 0.05 0.05 0.05 0.04 0.04 0.03 0.02 0.01 0.01 0.01 0.01 0.02 0.02 0.01 0.00 0.00 0.00 0.00 0.00 0.00 0.01 0.01 0.02 0.02 0.03 0.05 0.05 0.03 0.03 0.04 0.08 0.09 0.11 0.14 0.14
0.07 0.06 0.05 0.05 0.04 0.04 0.04 0.03 0.02 0.01 0.01 0.01 0.01 0.01 0.01 0.01 0.01 0.01 0.01 0.01 0.01 0.01 0.00 0.00 0.00 0.00 0.00 0.00 0.00 0.00 0.02 0.04 0.05 0.03 0.04 0.06 0.04 0.03 0.07 0.09 0.10 0.14 0.15
0.03 0.02 0.02 0.01 0.01 0.00 0.01 0.01 0.00 0.00 0.01 0.01 0.01 0.01 0.01 0.01 0.01 0.01 0.01 0.00 0.00 0.00 0.00 0.00 0.00 0.00 0.00 0.00 0.00 0.01 0.02 0.02 0.01 0.02 0.05 0.05 0.04 0.05 0.08 0.10 0.12 0.16 0.16
0.00 0.00 0.00 0.00 0.00 0.00 0.00 0.01 0.00 0.01 0.01 0.01 0.01 0.01 0.01 0.01 0.00 0.00 0.00 0.00 0.00 0.00 0.00 0.00 0.00 0.00 0.00 0.00 0.00 0.02 0.00 0.00 0.00 0.01 0.04 0.05 0.05 0.05 0.08 0.08 0.10 0.15 0.19

GFSGL_prec_precacc24_063.txt.gz
Total_Precipitation_Accumulation
0.14 0.19 0.10 0.04 0.04 0.10 0.17 0.21 0.21 0.36 0.39 0.36 0.38 0.36 0.29 0.25 0.31 0.37 0.41 0.44 0.43 0.37 0.32 0.28 0.23 0.27 0.30 0.29 0.30 0.29 0.26 0.26 0.29 0.16 0.08 0.06 0.08 0.09 0.06 0.05 0.04 0.02 0.01
0.20 0.22 0.22 0.16 0.21 0.60 0.78 0.77 1.03 1.30 0.97 0.83 0.66 0.43 0.28 0.18 0.12 0.12 0.16 0.18 0.20 0.20 0.22 0.26 0.25 0.31 0.39 0.34 0.27 0.20 0.16 0.14 0.16 0.11 0.06 0.06 0.05 0.04 0.04 0.02 0.01 0.01 0.01
0.18 0.22 0.28 0.34 0.45 0.54 0.26 0.22 0.27 0.43 0.44 0.27 0.18 0.12 0.08 0.05 0.03 0.03 0.06 0.12 0.16 0.13 0.13 0.15 0.13 0.14 0.12 0.10 0.10 0.10 0.10 0.12 0.14 0.16 0.12 0.07 0.06 0.03 0.02 0.02 0.02 0.01 0.01
0.11 0.19 0.17 0.14 0.16 0.21 0.22 0.17 0.14 0.15 0.14 0.15 0.14 0.15 0.10 0.05 0.03 0.03 0.02 0.03 0.04 0.05 0.06 0.05 0.07 0.07 0.07 0.07 0.09 0.09 0.09 0.08 0.09 0.09 0.09 0.06 0.04 0.02 0.03 0.03 0.02 0.01 0.02
0.09 0.10 0.07 0.09 0.13 0.11 0.07 0.11 0.15 0.16 0.24 0.21 0.20 0.11 0.10 0.10 0.08 0.08 0.04 0.03 0.04 0.04 0.03 0.03 0.04 0.08 0.09 0.05 0.03 0.03 0.04 0.06 0.09 0.09 0.09 0.08 0.06 0.05 0.05 0.07 0.07 0.07 0.09
0.03 0.09 0.09 0.08 0.09 0.10 0.05 0.06 0.09 0.11 0.13 0.18 0.20 0.19 0.16 0.15 0.23 0.20 0.13 0.07 0.05 0.04 0.04 0.05 0.06 0.11 0.06 0.09 0.10 0.11 0.10 0.09 0.11 0.11 0.11 0.11 0.09 0.10 0.12 0.14 0.16 0.20 0.21
0.04 0.04 0.05 0.06 0.08 0.06 0.09 0.06 0.08 0.11 0.09 0.10 0.12 0.16 0.19 0.19 0.28 0.20 0.19 0.09 0.09 0.10 0.08 0.07 0.06 0.09 0.15 0.06 0.15 0.18 0.17 0.21 0.18 0.13 0.13 0.19 0.27 0.33 0.37 0.42 0.36 0.28 0.21
0.03 0.03 0.04 0.04 0.06 0.08 0.09 0.08 0.08 0.08 0.09 0.08 0.09 0.12 0.10 0.13 0.21 0.17 0.17 0.07 0.05 0.06 0.06 0.07 0.07 0.08 0.15 0.17 0.12 0.17 0.21 0.29 0.35 0.38 0.41 0.46 0.41 0.31 0.20 0.15 0.10 0.08 0.05
0.02 0.02 0.03 0.05 0.06 0.05 0.06 0.05 0.05 0.07 0.10 0.10 0.11 0.10 0.09 0.13 0.22 0.15 0.11 0.03 0.07 0.11 0.09 0.11 0.16 0.13 0.40 0.34 0.19 0.22 0.29 0.32 0.43 0.36 0.27 0.23 0.18 0.14 0.11 0.13 0.15 0.16 0.11
0.01 0.01 0.02 0.02 0.02 0.01 0.03 0.03 0.04 0.06 0.06 0.05 0.06 0.06 0.14 0.08 0.28 0.21 0.16 0.05 0.11 0.13 0.13 0.18 0.35 0.20 0.33 0.21 0.12 0.08 0.20 0.27 0.24 0.26 0.25 0.23 0.19 0.16 0.15 0.15 0.15 0.15 0.11
0.01 0.01 0.03 0.03 0.04 0.04 0.02 0.02 0.03 0.03 0.03 0.04 0.05 0.05 0.08 0.14 0.21 0.27 0.23 0.08 0.07 0.13 0.18 0.20 0.29 0.44 0.27 0.29 0.26 0.25 0.42 0.47 0.47 0.39 0.32 0.29 0.26 0.21 0.15 0.09 0.06 0.06 0.08
0.03 0.04 0.05 0.06 0.08 0.06 0.06 0.08 0.09 0.07 0.08 0.08 0.07 0.06 0.06 0.10 0.20 0.21 0.19 0.20 0.26 0.13 0.21 0.24 0.40 0.46 0.29 0.30 0.30 0.35 0.38 0.33 0.28 0.27 0.24 0.19 0.13 0.08 0.05 0.04 0.03 0.03 0.03
0.06 0.07 0.09 0.09 0.06 0.05 0.08 0.11 0.12 0.11 0.12 0.13 0.11 0.12 0.14 0.15 0.19 0.28 0.25 0.28 0.31 0.29 0.40 0.52 0.59 0.51 0.43 0.42 0.42 0.38 0.32 0.27 0.24 0.21 0.19 0.16 0.12 0.08 0.04 0.02 0.01 0.00 0.00
0.04 0.08 0.07 0.06 0.09 0.05 0.09 0.11 0.11 0.11 0.14 0.16 0.19 0.22 0.25 0.27 0.28 0.27 0.26 0.28 0.34 0.39 0.50 0.55 0.52 0.47 0.42 0.39 0.34 0.28 0.23 0.19 0.16 0.14 0.12 0.10 0.06 0.03 0.02 0.01 0.01 0.01 0.02
0.10 0.11 0.11 0.11 0.12 0.11 0.12 0.19 0.17 0.23 0.33 0.34 0.35 0.34 0.34 0.41 0.53 0.59 0.58 0.61 0.64 0.67 0.64 0.64 0.62 0.53 0.47 0.39 0.28 0.19 0.14 0.11 0.09 0.07 0.05 0.04 0.02 0.00 0.00 0.00 0.00 0.01 0.04
0.16 0.18 0.22 0.17 0.17 0.17 0.16 0.24 0.40 0.44 0.43 0.48 0.53 0.52 0.67 0.74 0.85 0.84 0.79 0.76 0.72 0.65 0.55 0.51 0.46 0.35 0.25 0.20 0.17 0.13 0.08 0.05 0.04 0.02 0.01 0.01 0.00 0.00 0.01 0.00 0.00 0.03 0.07
0.30 0.27 0.28 0.30 0.32 0.33 0.33 0.31 0.40 0.58 0.63 0.75 0.80 0.79 0.74 0.78 0.68 0.61 0.56 0.51 0.46 0.35 0.31 0.31 0.28 0.23 0.18 0.12 0.08 0.05 0.03 0.02 0.01 0.00 0.01 0.00 0.01 0.01 0.01 0.01 0.02 0.04 0.04
0.96 0.97 0.88 0.86 0.91 1.02 1.14 1.23 1.25 1.23 1.21 1.26 1.20 1.03 0.94 0.84 0.76 0.68 0.57 0.43 0.36 0.28 0.24 0.20 0.16 0.11 0.07 0.04 0.02 0.01 0.01 0.01 0.01 0.00 0.00 0.01 0.01 0.02 0.02 0.02 0.02 0.04 0.04
1.64 1.77 1.75 1.69 1.58 1.40 1.23 1.10 1.05 1.04 1.01 1.03 0.99 0.88 0.78 0.63 0.51 0.43 0.33 0.28 0.23 0.17 0.11 0.08 0.07 0.04 0.03 0.02 0.02 0.01 0.01 0.01 0.00 0.01 0.01 0.01 0.01 0.02 0.02 0.01 0.02 0.02 0.05
1.05 0.98 0.85 0.80 0.78 0.73 0.70 0.63 0.58 0.54 0.50 0.47 0.44 0.42 0.31 0.19 0.15 0.13 0.10 0.08 0.07 0.07 0.06 0.05 0.03 0.02 0.01 0.01 0.01 0.01 0.01 0.00 0.01 0.00 0.00 0.01 0.01 0.02 0.03 0.02 0.03 0.03 0.05
0.51 0.54 0.53 0.50 0.49 0.46 0.40 0.34 0.30 0.26 0.23 0.19 0.18 0.14 0.08 0.05 0.05 0.05 0.04 0.04 0.03 0.02 0.02 0.02 0.01 0.01 0.01 0.01 0.00 0.01 0.01 0.01 0.01 0.01 0.01 0.02 0.02 0.02 0.02 0.03 0.03 0.03 0.04
0.29 0.28 0.24 0.22 0.20 0.17 0.15 0.13 0.11 0.10 0.09 0.07 0.07 0.06 0.04 0.04 0.04 0.04 0.03 0.02 0.02 0.02 0.01 0.01 0.00 0.00 0.00 0.00 0.01 0.01 0.01 0.01 0.01 0.02 0.02 0.02 0.01 0.02 0.03 0.03 0.03 0.05 0.07
0.11 0.10 0.09 0.09 0.08 0.06 0.06 0.06 0.05 0.05 0.05 0.04 0.04 0.03 0.02 0.01 0.01 0.01 0.02 0.02 0.02 0.01 0.00 0.00 0.00 0.00 0.00 0.00 0.00 0.01 0.02 0.02 0.02 0.03 0.04 0.03 0.02 0.02 0.03 0.05 0.06 0.07 0.06
0.06 0.05 0.05 0.05 0.04 0.04 0.04 0.03 0.02 0.01 0.01 0.01 0.01 0.01 0.01 0.01 0.01 0.01 0.01 0.01 0.01 0.01 0.00 0.00 0.00 0.00 0.00 0.00 0.00 0.00 0.01 0.02 0.03 0.02 0.03 0.04 0.03 0.02 0.03 0.05 0.06 0.08 0.09
0.03 0.02 0.02 0.01 0.01 0.00 0.01 0.01 0.00 0.00 0.01 0.01 0.01 0.01 0.01 0.01 0.01 0.01 0.01 0.00 0.00 0.00 0.00 0.00 0.00 0.00 0.00 0.00 0.00 0.00 0.01 0.01 0.01 0.01 0.03 0.03 0.02 0.03 0.04 0.05 0.06 0.09 0.10
0.00 0.00 0.00 0.00 0.00 0.00 0.00 0.01 0.00 0.01 0.01 0.01 0.01 0.01 0.02 0.01 0.00 0.01 0.00 0.00 0.00 0.00 0.00 0.00 0.00 0.00 0.00 0.00 0.00 0.01 0.00 0.00 0.00 0.01 0.02 0.03 0.03 0.03 0.04 0.05 0.05 0.08 0.11

GFSGL_prec_precacc24_066.txt.gz
Total_Precipitation_Accumulation
0.07 0.14 0.08 0.01 0.01 0.02 0.03 0.04 0.05 0.07 0.10 0.22 0.29 0.27 0.23 0.21 0.29 0.37 0.40 0.43 0.42 0.36 0.32 0.28 0.23 0.26 0.29 0.27 0.28 0.28 0.26 0.26 0.29 0.16 0.08 0.06 0.08 0.09 0.06 0.05 0.04 0.02 0.01
0.12 0.16 0.19 0.12 0.06 0.07 0.12 0.12 0.24 0.37 0.51 0.72 0.59 0.37 0.25 0.15 0.11 0.12 0.15 0.17 0.19 0.20 0.21 0.26 0.24 0.30 0.38 0.33 0.26 0.20 0.16 0.14 0.16 0.11 0.07 0.06 0.05 0.05 0.04 0.02 0.01 0.01 0.01
0.05 0.05 0.08 0.12 0.14 0.09 0.06 0.06 0.03 0.06 0.23 0.25 0.17 0.09 0.05 0.03 0.02 0.03 0.06 0.11 0.16 0.13 0.13 0.14 0.12 0.12 0.11 0.10 0.10 0.10 0.10 0.12 0.14 0.16 0.12 0.07 0.06 0.03 0.03 0.03 0.02 0.02 0.01
0.05 0.02 0.01 0.03 0.06 0.09 0.10 0.07 0.08 0.10 0.07 0.11 0.11 0.12 0.09 0.04 0.03 0.03 0.02 0.03 0.04 0.05 0.05 0.05 0.07 0.07 0.07 0.07 0.09 0.09 0.09 0.08 0.09 0.09 0.09 0.06 0.04 0.02 0.03 0.03 0.02 0.02 0.03
0.10 0.05 0.08 0.07 0.08 0.05 0.04 0.08 0.11 0.13 0.19 0.18 0.18 0.10 0.10 0.09 0.08 0.08 0.04 0.03 0.04 0.04 0.03 0.03 0.04 0.08 0.09 0.05 0.03 0.03 0.04 0.06 0.09 0.09 0.10 0.08 0.06 0.06 0.06 0.07 0.09 0.08 0.10
0.02 0.07 0.11 0.05 0.09 0.10 0.09 0.10 0.10 0.08 0.11 0.17 0.19 0.19 0.15 0.14 0.22 0.20 0.13 0.07 0.05 0.04 0.04 0.05 0.06 0.11 0.06 0.09 0.10 0.11 0.10 0.09 0.11 0.12 0.11 0.11 0.09 0.11 0.12 0.15 0.19 0.27 0.31
0.00 0.01 0.03 0.03 0.04 0.05 0.11 0.10 0.10 0.12 0.13 0.10 0.13 0.16 0.19 0.18 0.28 0.20 0.19 0.09 0.09 0.10 0.08 0.07 0.06 0.09 0.15 0.06 0.15 0.18 0.17 0.23 0.20 0.15 0.15 0.20 0.28 0.34 0.38 0.43 0.41 0.35 0.31
0.00 0.00 0.01 0.01 0.03 0.05 0.08 0.09 0.10 0.12 0.13 0.11 0.12 0.14 0.13 0.14 0.23 0.20 0.20 0.07 0.05 0.06 0.06 0.07 0.07 0.08 0.15 0.17 0.12 0.18 0.22 0.29 0.37 0.40 0.44 0.53 0.49 0.39 0.29 0.25 0.20 0.20 0.20
0.00 0.00 0.01 0.03 0.04 0.04 0.05 0.05 0.07 0.09 0.12 0.12 0.13 0.14 0.12 0.14 0.27 0.20 0.18 0.09 0.10 0.12 0.09 0.12 0.17 0.14 0.42 0.38 0.23 0.23 0.30 0.34 0.46 0.42 0.33 0.32 0.31 0.26 0.21 0.22 0.28 0.31 0.34
0.01 0.01 0.02 0.02 0.02 0.01 0.03 0.03 0.05 0.08 0.08 0.09 0.08 0.08 0.17 0.12 0.31 0.25 0.22 0.08 0.13 0.15 0.16 0.20 0.40 0.24 0.36 0.25 0.14 0.09 0.21 0.31 0.29 0.34 0.36 0.40 0.41 0.42 0.45 0.41 0.39 0.34 0.26
0.01 0.01 0.03 0.03 0.04 0.04 0.02 0.02 0.03 0.04 0.04 0.05 0.08 0.08 0.12 0.19 0.25 0.33 0.29 0.11 0.09 0.16 0.24 0.26 0.35 0.57 0.34 0.35 0.34 0.29 0.54 0.61 0.61 0.51 0.49 0.47 0.44 0.38 0.31 0.23 0.15 0.10 0.08
0.03 0.04 0.05 0.06 0.08 0.06 0.06 0.08 0.09 0.07 0.08 0.09 0.09 0.10 0.10 0.12 0.24 0.26 0.24 0.25 0.35 0.21 0.30 0.31 0.49 0.59 0.38 0.40 0.42 0.51 0.58 0.51 0.46 0.49 0.48 0.45 0.38 0.31 0.24 0.17 0.11 0.08 0.06
0.06 0.07 0.09 0.09 0.06 0.05 0.08 0.11 0.12 0.11 0.12 0.15 0.16 0.20 0.22 0.20 0.24 0.36 0.32 0.37 0.46 0.45 0.60 0.73 0.79 0.67 0.57 0.58 0.62 0.61 0.56 0.52 0.51 0.50 0.47 0.42 0.33 0.25 0.16 0.10 0.05 0.02 0.01
0.04 0.08 0.07 0.06 0.09 0.05 0.09 0.11 0.11 0.11 0.15 0.20 0.28 0.33 0.35 0.36 0.35 0.34 0.33 0.35 0.45 0.57 0.77 0.83 0.77 0.71 0.68 0.70 0.71 0.65 0.54 0.49 0.46 0.44 0.39 0.32 0.23 0.16 0.09 0.04 0.01 0.00 0.00
0.10 0.11 0.11 0.11 0.12 0.11 0.14 0.22 0.19 0.28 0.38 0.39 0.43 0.46 0.49 0.59 0.77 0.86 0.86 0.89 0.93 1.01 1.04 1.07 1.07 1.03 0.97 0.90 0.82 0.71 0.61 0.51 0.41 0.33 0.25 0.18 0.11 0.05 0.02 0.00 0.00 0.00 0.00
0.16 0.18 0.22 0.17 0.18 0.18 0.18 0.27 0.46 0.51 0.50 0.56 0.62 0.62 0.86 1.02 1.15 1.12 1.10 1.09 1.06 1.02 0.91 0.87 0.81 0.70 0.59 0.51 0.43 0.36 0.28 0.21 0.16 0.10 0.06 0.02 0.01 0.00 0.00 0.00 0.00 0.00 0.01
0.30 0.27 0.29 0.30 0.32 0.33 0.35 0.34 0.46 0.66 0.72 0.87 0.94 0.95 0.92 1.02 0.92 0.83 0.77 0.71 0.67 0.55 0.50 0.51 0.47 0.41 0.34 0.25 0.19 0.14 0.10 0.05 0.02 0.01 0.01 0.00 0.00 0.00 0.00 0.00 0.00 0.00 0.01
0.97 0.97 0.89 0.86 0.91 1.03 1.15 1.25 1.31 1.31 1.30 1.39 1.37 1.20 1.13 1.06 0.97 0.87 0.74 0.55 0.50 0.41 0.37 0.33 0.28 0.22 0.16 0.10 0.07 0.04 0.03 0.02 0.02 0.01 0.01 0.01 0.01 0.01 0.01 0.01 0.00 0.01 0.02
1.65 1.77 1.75 1.69 1.60 1.40 1.23 1.11 1.08 1.07 1.07 1.11 1.10 1.01 0.94 0.79 0.65 0.55 0.44 0.38 0.33 0.27 0.21 0.16 0.13 0.08 0.06 0.04 0.04 0.02 0.02 0.01 0.01 0.01 0.01 0.01 0.01 0.01 0.01 0.01 0.01 0.01 0.02
1.03 0.96 0.82 0.74 0.69 0.64 0.63 0.61 0.60 0.57 0.54 0.52 0.48 0.47 0.38 0.25 0.21 0.18 0.14 0.11 0.10 0.09 0.07 0.06 0.04 0.03 0.02 0.01 0.01 0.01 0.01 0.00 0.00 0.00 0.00 0.01 0.01 0.02 0.02 0.02 0.02 0.02 0.02
0.41 0.41 0.39 0.38 0.39 0.38 0.34 0.31 0.28 0.24 0.22 0.20 0.20 0.15 0.08 0.06 0.06 0.05 0.05 0.05 0.04 0.03 0.02 0.02 0.01 0.01 0.01 0.01 0.00 0.01 0.01 0.01 0.01 0.01 0.01 0.01 0.01 0.02 0.01 0.02 0.02 0.02 0.02
0.17 0.16 0.15 0.13 0.12 0.11 0.10 0.10 0.10 0.09 0.08 0.07 0.07 0.06 0.04 0.04 0.04 0.04 0.02 0.02 0.01 0.01 0.01 0.01 0.00 0.00 0.00 0.00 0.00 0.01 0.01 0.01 0.01 0.01 0.02 0.01 0.01 0.01 0.02 0.02 0.02 0.02 0.02
0.03 0.03 0.04 0.04 0.04 0.04 0.04 0.05 0.04 0.04 0.05 0.04 0.04 0.03 0.01 0.01 0.01 0.01 0.01 0.01 0.01 0.01 0.00 0.00 0.00 0.00 0.00 0.00 0.00 0.01 0.01 0.01 0.02 0.02 0.03 0.02 0.02 0.01 0.02 0.03 0.03 0.03 0.03
0.02 0.02 0.02 0.03 0.03 0.03 0.03 0.03 0.02 0.01 0.01 0.01 0.01 0.01 0.01 0.01 0.01 0.01 0.01 0.01 0.00 0.01 0.01 0.00 0.00 0.00 0.00 0.00 0.00 0.00 0.01 0.01 0.02 0.02 0.02 0.03 0.02 0.02 0.02 0.03 0.02 0.03 0.05
0.01 0.01 0.01 0.01 0.01 0.00 0.00 0.01 0.00 0.01 0.01 0.01 0.01 0.01 0.02 0.01 0.01 0.01 0.01 0.00 0.00 0.00 0.01 0.00 0.00 0.00 0.00 0.00 0.00 0.00 0.01 0.01 0.00 0.00 0.02 0.02 0.02 0.02 0.03 0.03 0.03 0.05 0.05
0.00 0.00 0.00 0.00 0.00 0.00 0.00 0.00 0.00 0.01 0.01 0.01 0.01 0.01 0.01 0.01 0.01 0.01 0.00 0.00 0.00 0.00 0.00 0.00 0.00 0.00 0.00 0.00 0.00 0.01 0.00 0.00 0.00 0.00 0.02 0.02 0.02 0.02 0.03 0.03 0.03 0.04 0.06

GFSGL_prec_precacc24_069.txt.gz
Total_Precipitation_Accumulation
0.00 0.02 0.02 0.00 0.00 0.00 0.00 0.00 0.00 0.00 0.00 0.01 0.04 0.06 0.08 0.12 0.25 0.35 0.39 0.43 0.41 0.34 0.30 0.24 0.20 0.24 0.28 0.27 0.28 0.28 0.26 0.27 0.30 0.16 0.08 0.06 0.08 0.09 0.06 0.05 0.04 0.02 0.01
0.04 0.03 0.08 0.06 0.02 0.00 0.01 0.01 0.01 0.01 0.03 0.09 0.09 0.15 0.21 0.13 0.10 0.12 0.15 0.16 0.17 0.17 0.18 0.21 0.20 0.28 0.37 0.33 0.26 0.20 0.16 0.14 0.16 0.11 0.07 0.06 0.05 0.05 0.04 0.02 0.01 0.01 0.01
0.05 0.04 0.03 0.06 0.06 0.03 0.01 0.01 0.00 0.01 0.03 0.05 0.07 0.05 0.02 0.00 0.01 0.01 0.04 0.10 0.13 0.10 0.10 0.11 0.11 0.12 0.11 0.10 0.10 0.09 0.10 0.12 0.14 0.16 0.12 0.07 0.06 0.03 0.03 0.03 0.02 0.02 0.01
0.07 0.03 0.03 0.03 0.04 0.06 0.07 0.06 0.03 0.03 0.05 0.09 0.08 0.08 0.05 0.01 0.00 0.00 0.00 0.01 0.03 0.03 0.05 0.05 0.07 0.07 0.07 0.07 0.09 0.09 0.09 0.08 0.09 0.09 0.09 0.06 0.04 0.02 0.03 0.03 0.02 0.02 0.03
0.10 0.05 0.07 0.06 0.06 0.06 0.04 0.08 0.07 0.06 0.09 0.11 0.11 0.05 0.05 0.06 0.04 0.06 0.03 0.03 0.03 0.03 0.03 0.03 0.04 0.07 0.08 0.05 0.03 0.03 0.04 0.06 0.09 0.09 0.10 0.08 0.06 0.06 0.06 0.07 0.09 0.08 0.10
0.02 0.06 0.10 0.03 0.06 0.08 0.10 0.16 0.11 0.05 0.08 0.12 0.13 0.13 0.10 0.10 0.18 0.19 0.12 0.07 0.05 0.04 0.04 0.05 0.06 0.10 0.06 0.09 0.10 0.11 0.10 0.09 0.11 0.12 0.11 0.11 0.09 0.11 0.12 0.15 0.19 0.27 0.31
0.00 0.01 0.01 0.01 0.01 0.03 0.09 0.09 0.07 0.09 0.16 0.10 0.12 0.16 0.18 0.19 0.27 0.21 0.20 0.10 0.09 0.10 0.08 0.07 0.06 0.09 0.15 0.06 0.15 0.18 0.17 0.23 0.20 0.15 0.15 0.20 0.28 0.35 0.40 0.45 0.42 0.35 0.32
0.00 0.00 0.00 0.00 0.01 0.02 0.04 0.05 0.08 0.12 0.14 0.12 0.14 0.15 0.15 0.15 0.23 0.25 0.32 0.16 0.09 0.07 0.07 0.07 0.07 0.08 0.15 0.17 0.12 0.18 0.22 0.29 0.37 0.40 0.44 0.53 0.49 0.40 0.32 0.32 0.31 0.32 0.32
0.00 0.00 0.00 0.01 0.01 0.02 0.04 0.05 0.07 0.09 0.12 0.14 0.14 0.16 0.15 0.15 0.30 0.29 0.29 0.17 0.15 0.16 0.14 0.14 0.18 0.14 0.43 0.40 0.24 0.23 0.30 0.34 0.47 0.44 0.35 0.35 0.34 0.30 0.27 0.27 0.34 0.39 0.44
0.00 0.00 0.01 0.01 0.01 0.01 0.03 0.02 0.05 0.08 0.08 0.09 0.08 0.09 0.23 0.15 0.38 0.32 0.27 0.12 0.14 0.16 0.18 0.22 0.43 0.27 0.39 0.28 0.17 0.10 0.22 0.31 0.31 0.37 0.41 0.45 0.46 0.49 0.55 0.47 0.45 0.45 0.45
0.00 0.00 0.03 0.03 0.03 0.04 0.02 0.02 0.03 0.04 0.04 0.05 0.08 0.08 0.14 0.24 0.31 0.42 0.36 0.21 0.15 0.22 0.28 0.30 0.41 0.74 0.45 0.47 0.47 0.37 0.67 0.74 0.76 0.60 0.56 0.55 0.51 0.46 0.43 0.37 0.32 0.29 0.27
0.02 0.04 0.05 0.06 0.08 0.06 0.06 0.08 0.09 0.07 0.08 0.09 0.09 0.11 0.12 0.15 0.31 0.31 0.31 0.34 0.46 0.33 0.48 0.47 0.67 0.76 0.49 0.56 0.65 0.83 0.90 0.73 0.63 0.69 0.71 0.67 0.57 0.50 0.45 0.39 0.32 0.28 0.24
0.06 0.07 0.09 0.09 0.06 0.05 0.08 0.11 0.12 0.11 0.13 0.15 0.17 0.21 0.23 0.22 0.29 0.43 0.37 0.45 0.57 0.58 0.81 0.99 1.01 0.84 0.74 0.79 0.90 0.94 0.92 0.89 0.89 0.90 0.89 0.82 0.72 0.60 0.47 0.35 0.27 0.20 0.15
0.04 0.08 0.07 0.06 0.09 0.05 0.09 0.11 0.11 0.12 0.16 0.21 0.29 0.35 0.36 0.39 0.39 0.38 0.40 0.43 0.56 0.70 0.97 1.09 1.07 1.00 0.95 0.99 1.00 0.96 0.94 0.97 0.97 0.94 0.87 0.77 0.62 0.47 0.36 0.27 0.20 0.15 0.10
0.10 0.11 0.11 0.11 0.12 0.11 0.14 0.23 0.20 0.31 0.40 0.40 0.46 0.49 0.52 0.65 0.88 0.96 0.95 1.02 1.09 1.22 1.26 1.34 1.37 1.33 1.31 1.27 1.16 1.02 0.92 0.83 0.73 0.64 0.53 0.42 0.30 0.20 0.13 0.08 0.05 0.04 0.03
0.16 0.18 0.22 0.17 0.18 0.18 0.18 0.27 0.46 0.52 0.51 0.58 0.65 0.67 0.94 1.13 1.26 1.23 1.23 1.25 1.25 1.22 1.09 1.06 0.99 0.88 0.78 0.69 0.61 0.53 0.44 0.35 0.28 0.20 0.14 0.08 0.05 0.03 0.02 0.01 0.00 0.00 0.01
0.30 0.27 0.29 0.30 0.32 0.33 0.35 0.34 0.46 0.66 0.72 0.88 0.97 0.99 0.98 1.10 1.00 0.93 0.88 0.81 0.78 0.65 0.60 0.62 0.58 0.53 0.46 0.36 0.29 0.22 0.17 0.10 0.06 0.04 0.03 0.02 0.01 0.01 0.01 0.00 0.00 0.00 0.00
0.97 0.97 0.89 0.86 0.91 1.03 1.15 1.25 1.31 1.32 1.30 1.38 1.36 1.22 1.17 1.11 1.04 0.94 0.81 0.60 0.55 0.47 0.42 0.38 0.34 0.28 0.21 0.15 0.10 0.06 0.04 0.03 0.02 0.02 0.01 0.01 0.01 0.01 0.01 0.01 0.00 0.01 0.01
1.64 1.76 1.74 1.67 1.57 1.39 1.21 1.08 1.03 1.01 1.00 1.06 1.06 0.98 0.93 0.79 0.66 0.57 0.47 0.42 0.38 0.32 0.25 0.19 0.15 0.10 0.07 0.05 0.05 0.03 0.02 0.02 0.01 0.01 0.01 0.01 0.01 0.01 0.01 0.01 0.01 0.01 0.01
0.93 0.87 0.75 0.69 0.63 0.58 0.56 0.54 0.53 0.50 0.48 0.46 0.43 0.43 0.35 0.24 0.21 0.19 0.15 0.13 0.11 0.10 0.08 0.07 0.05 0.04 0.02 0.02 0.01 0.01 0.01 0.00 0.00 0.00 0.00 0.01 0.01 0.02 0.02 0.01 0.02 0.02 0.01
0.36 0.36 0.34 0.31 0.33 0.31 0.28 0.25 0.22 0.18 0.17 0.16 0.16 0.12 0.07 0.05 0.05 0.04 0.04 0.04 0.04 0.03 0.02 0.02 0.01 0.01 0.01 0.01 0.00 0.01 0.01 0.01 0.01 0.01 0.01 0.01 0.01 0.02 0.01 0.02 0.02 0.01 0.01
0.14 0.13 0.10 0.09 0.08 0.06 0.06 0.05 0.05 0.05 0.04 0.04 0.04 0.03 0.02 0.02 0.03 0.02 0.02 0.01 0.01 0.01 0.01 0.01 0.00 0.00 0.00 0.00 0.00 0.01 0.01 0.01 0.01 0.01 0.01 0.01 0.01 0.01 0.01 0.02 0.01 0.01 0.02
0.02 0.01 0.01 0.01 0.01 0.01 0.01 0.02 0.02 0.02 0.02 0.02 0.01 0.01 0.00 0.01 0.00 0.00 0.01 0.01 0.01 0.01 0.00 0.00 0.00 0.00 0.00 0.00 0.00 0.01 0.01 0.01 0.01 0.02 0.02 0.02 0.01 0.01 0.02 0.02 0.02 0.02 0.02
0.01 0.01 0.00 0.01 0.01 0.01 0.01 0.01 0.01 0.00 0.01 0.01 0.01 0.01 0.01 0.01 0.01 0.01 0.01 0.01 0.00 0.01 0.01 0.00 0.00 0.00 0.00 0.00 0.00 0.00 0.00 0.01 0.02 0.01 0.01 0.02 0.01 0.01 0.02 0.02 0.02 0.02 0.03
0.00 0.00 0.00 0.00 0.00 0.00 0.00 0.01 0.00 0.01 0.01 0.01 0.01 0.01 0.02 0.01 0.01 0.01 0.01 0.00 0.00 0.00 0.01 0.00 0.00 0.00 0.00 0.00 0.00 0.00 0.00 0.01 0.00 0.00 0.01 0.01 0.01 0.02 0.02 0.03 0.02 0.03 0.03
0.00 0.00 0.00 0.00 0.00 0.00 0.00 0.00 0.00 0.01 0.01 0.01 0.01 0.01 0.01 0.01 0.01 0.01 0.00 0.00 0.00 0.00 0.00 0.00 0.00 0.00 0.00 0.00 0.00 0.00 0.00 0.00 0.00 0.00 0.01 0.02 0.02 0.02 0.03 0.03 0.02 0.02 0.03

GFSGL_prec_precacc24_072.txt.gz
Total_Precipitation_Accumulation
0.00 0.00 0.00 0.00 0.00 0.00 0.00 0.00 0.00 0.00 0.00 0.00 0.00 0.00 0.00 0.00 0.02 0.11 0.26 0.33 0.34 0.31 0.29 0.24 0.19 0.20 0.23 0.21 0.24 0.26 0.25 0.28 0.31 0.16 0.08 0.06 0.08 0.09 0.06 0.05 0.04 0.02 0.01
0.02 0.01 0.01 0.01 0.01 0.00 0.00 0.00 0.00 0.00 0.00 0.00 0.00 0.00 0.00 0.00 0.01 0.04 0.12 0.14 0.13 0.16 0.17 0.20 0.18 0.24 0.31 0.27 0.23 0.18 0.15 0.15 0.17 0.11 0.07 0.06 0.05 0.05 0.04 0.02 0.01 0.01 0.01
0.06 0.03 0.02 0.04 0.02 0.01 0.00 0.00 0.00 0.00 0.00 0.00 0.00 0.00 0.00 0.00 0.00 0.01 0.04 0.09 0.13 0.10 0.08 0.08 0.06 0.07 0.07 0.07 0.08 0.09 0.09 0.12 0.14 0.16 0.12 0.07 0.06 0.03 0.03 0.03 0.02 0.02 0.01
0.08 0.03 0.04 0.02 0.02 0.04 0.02 0.00 0.00 0.00 0.00 0.00 0.00 0.01 0.02 0.01 0.00 0.00 0.00 0.00 0.01 0.01 0.01 0.02 0.04 0.05 0.06 0.07 0.09 0.09 0.09 0.08 0.09 0.09 0.09 0.06 0.04 0.02 0.03 0.03 0.02 0.02 0.03
0.10 0.05 0.08 0.06 0.06 0.05 0.03 0.03 0.02 0.01 0.02 0.02 0.02 0.02 0.02 0.01 0.02 0.03 0.02 0.01 0.01 0.02 0.02 0.02 0.04 0.07 0.07 0.04 0.03 0.03 0.04 0.06 0.09 0.09 0.10 0.08 0.06 0.06 0.06 0.07 0.09 0.08 0.10
0.02 0.06 0.10 0.04 0.07 0.08 0.11 0.15 0.09 0.04 0.08 0.08 0.07 0.09 0.07 0.07 0.12 0.14 0.10 0.06 0.04 0.03 0.04 0.05 0.06 0.09 0.05 0.09 0.10 0.11 0.10 0.09 0.11 0.12 0.11 0.11 0.09 0.11 0.12 0.15 0.20 0.27 0.31
0.00 0.01 0.01 0.01 0.01 0.03 0.08 0.09 0.07 0.07 0.14 0.09 0.09 0.12 0.12 0.15 0.27 0.24 0.25 0.12 0.10 0.11 0.08 0.07 0.05 0.08 0.14 0.06 0.15 0.18 0.17 0.23 0.20 0.15 0.15 0.20 0.28 0.35 0.40 0.45 0.42 0.35 0.32
0.00 0.00 0.00 0.00 0.01 0.02 0.03 0.01 0.03 0.07 0.09 0.10 0.11 0.12 0.14 0.17 0.29 0.33 0.42 0.24 0.13 0.09 0.08 0.10 0.10 0.09 0.15 0.18 0.13 0.18 0.22 0.29 0.37 0.40 0.45 0.53 0.51 0.41 0.32 0.32 0.31 0.33 0.35
0.00 0.00 0.00 0.00 0.00 0.01 0.01 0.01 0.02 0.03 0.06 0.09 0.10 0.13 0.14 0.15 0.34 0.31 0.31 0.19 0.16 0.17 0.18 0.19 0.26 0.20 0.46 0.43 0.26 0.27 0.33 0.36 0.50 0.47 0.38 0.41 0.39 0.33 0.29 0.28 0.37 0.48 0.61
0.00 0.00 0.00 0.00 0.00 0.01 0.01 0.01 0.02 0.04 0.05 0.07 0.07 0.08 0.23 0.14 0.38 0.31 0.27 0.13 0.14 0.17 0.22 0.31 0.65 0.35 0.41 0.31 0.20 0.13 0.30 0.43 0.36 0.41 0.45 0.53 0.52 0.56 0.66 0.53 0.49 0.59 0.66
0.00 0.00 0.02 0.02 0.03 0.04 0.02 0.01 0.02 0.02 0.03 0.05 0.07 0.08 0.14 0.24 0.31 0.42 0.36 0.21 0.16 0.26 0.37 0.40 0.50 0.87 0.48 0.50 0.58 0.48 0.98 1.01 0.93 0.71 0.66 0.69 0.68 0.66 0.64 0.57 0.49 0.46 0.46
0.01 0.03 0.05 0.06 0.08 0.06 0.05 0.07 0.07 0.06 0.08 0.09 0.09 0.11 0.12 0.15 0.33 0.32 0.31 0.35 0.48 0.36 0.55 0.56 0.79 0.88 0.54 0.61 0.76 1.04 1.21 1.04 0.95 1.09 1.14 1.15 1.09 0.99 0.88 0.78 0.69 0.62 0.56
0.03 0.06 0.08 0.09 0.06 0.04 0.07 0.10 0.12 0.11 0.13 0.15 0.17 0.21 0.24 0.22 0.29 0.44 0.38 0.46 0.59 0.60 0.85 1.09 1.14 0.96 0.85 0.92 1.08 1.16 1.17 1.19 1.30 1.35 1.35 1.28 1.13 0.98 0.80 0.65 0.53 0.44 0.36
0.03 0.08 0.07 0.06 0.09 0.05 0.09 0.11 0.11 0.12 0.16 0.21 0.29 0.35 0.36 0.39 0.39 0.38 0.40 0.44 0.58 0.72 1.00 1.14 1.13 1.09 1.06 1.13 1.18 1.17 1.17 1.23 1.26 1.27 1.21 1.09 0.90 0.72 0.56 0.45 0.36 0.29 0.21
0.10 0.11 0.11 0.11 0.12 0.12 0.15 0.23 0.21 0.32 0.40 0.41 0.47 0.49 0.52 0.66 0.91 0.97 0.96 1.03 1.11 1.25 1.29 1.39 1.42 1.40 1.37 1.34 1.25 1.15 1.05 0.94 0.83 0.74 0.62 0.51 0.39 0.28 0.20 0.14 0.10 0.07 0.06
0.16 0.18 0.22 0.17 0.18 0.18 0.18 0.28 0.47 0.52 0.51 0.58 0.66 0.67 0.95 1.14 1.27 1.24 1.24 1.26 1.27 1.25 1.12 1.10 1.05 0.95 0.85 0.77 0.68 0.60 0.49 0.41 0.33 0.25 0.17 0.12 0.08 0.05 0.04 0.02 0.01 0.01 0.01
0.30 0.27 0.29 0.30 0.32 0.33 0.35 0.35 0.46 0.65 0.71 0.86 0.94 0.98 0.97 1.10 1.00 0.93 0.89 0.82 0.80 0.66 0.61 0.64 0.62 0.56 0.50 0.40 0.33 0.25 0.19 0.12 0.07 0.05 0.04 0.03 0.02 0.01 0.01 0.01 0.00 0.00 0.00
0.97 0.97 0.89 0.87 0.91 1.03 1.15 1.25 1.29 1.28 1.26 1.35 1.35 1.21 1.16 1.10 1.02 0.91 0.78 0.57 0.52 0.46 0.42 0.38 0.34 0.28 0.21 0.15 0.11 0.07 0.05 0.03 0.03 0.02 0.01 0.01 0.01 0.01 0.01 0.01 0.00 0.01 0.01
1.59 1.69 1.66 1.60 1.52 1.33 1.16 1.03 0.99 0.96 0.95 1.00 0.99 0.91 0.85 0.72 0.60 0.51 0.42 0.37 0.33 0.28 0.21 0.16 0.12 0.08 0.06 0.05 0.05 0.03 0.02 0.02 0.01 0.01 0.01 0.01 0.01 0.01 0.01 0.01 0.01 0.01 0.01
0.76 0.74 0.66 0.62 0.57 0.52 0.49 0.46 0.45 0.42 0.39 0.38 0.36 0.37 0.29 0.19 0.16 0.14 0.11 0.10 0.08 0.07 0.05 0.05 0.04 0.03 0.02 0.02 0.01 0.01 0.01 0.00 0.00 0.00 0.00 0.01 0.01 0.01 0.01 0.01 0.01 0.01 0.01
0.30 0.31 0.30 0.27 0.28 0.26 0.24 0.21 0.18 0.15 0.14 0.12 0.13 0.08 0.04 0.03 0.03 0.02 0.02 0.03 0.02 0.02 0.02 0.01 0.01 0.01 0.01 0.01 0.00 0.01 0.00 0.01 0.01 0.01 0.01 0.01 0.01 0.01 0.01 0.01 0.01 0.01 0.01
0.09 0.08 0.07 0.07 0.06 0.05 0.05 0.05 0.04 0.04 0.03 0.03 0.03 0.02 0.01 0.01 0.01 0.01 0.01 0.01 0.01 0.01 0.00 0.00 0.00 0.00 0.00 0.00 0.00 0.01 0.01 0.00 0.01 0.01 0.01 0.01 0.01 0.01 0.01 0.01 0.01 0.01 0.01
0.01 0.01 0.01 0.01 0.01 0.01 0.01 0.02 0.01 0.01 0.01 0.01 0.01 0.00 0.00 0.00 0.00 0.01 0.01 0.01 0.01 0.01 0.00 0.00 0.00 0.00 0.00 0.00 0.00 0.01 0.01 0.01 0.01 0.01 0.02 0.01 0.01 0.01 0.01 0.02 0.02 0.02 0.02
0.00 0.00 0.00 0.00 0.00 0.00 0.00 0.01 0.01 0.00 0.01 0.01 0.01 0.01 0.01 0.01 0.01 0.01 0.01 0.01 0.01 0.01 0.01 0.00 0.00 0.00 0.00 0.00 0.00 0.00 0.00 0.00 0.01 0.01 0.01 0.01 0.01 0.01 0.02 0.02 0.01 0.01 0.02
0.00 0.00 0.00 0.00 0.00 0.00 0.00 0.00 0.00 0.00 0.01 0.01 0.01 0.01 0.01 0.01 0.01 0.01 0.01 0.00 0.00 0.00 0.01 0.00 0.00 0.00 0.00 0.00 0.00 0.00 0.00 0.00 0.00 0.00 0.01 0.01 0.01 0.01 0.02 0.02 0.02 0.03 0.02
0.00 0.00 0.00 0.00 0.00 0.00 0.00 0.00 0.00 0.01 0.01 0.01 0.01 0.01 0.01 0.00 0.01 0.01 0.00 0.00 0.00 0.00 0.00 0.00 0.00 0.00 0.00 0.01 0.00 0.00 0.00 0.00 0.00 0.00 0.00 0.01 0.01 0.02 0.02 0.02 0.02 0.02 0.02

GFSGL_prec_precacc24_075.txt.gz
Total_Precipitation_Accumulation
0.00 0.00 0.00 0.00 0.00 0.00 0.00 0.00 0.00 0.00 0.01 0.00 0.00 0.00 0.00 0.01 0.01 0.05 0.10 0.05 0.03 0.02 0.04 0.08 0.12 0.16 0.23 0.21 0.22 0.24 0.24 0.27 0.29 0.16 0.08 0.06 0.08 0.09 0.06 0.05 0.04 0.02 0.01
0.02 0.01 0.00 0.00 0.00 0.00 0.00 0.00 0.00 0.00 0.00 0.00 0.00 0.00 0.00 0.00 0.00 0.00 0.01 0.04 0.04 0.05 0.07 0.12 0.13 0.20 0.30 0.27 0.22 0.17 0.14 0.14 0.17 0.11 0.06 0.06 0.05 0.05 0.04 0.02 0.01 0.01 0.01
0.09 0.03 0.02 0.01 0.01 0.00 0.00 0.00 0.00 0.00 0.00 0.00 0.00 0.00 0.00 0.00 0.00 0.00 0.00 0.00 0.00 0.03 0.07 0.07 0.05 0.05 0.05 0.06 0.08 0.08 0.08 0.10 0.14 0.16 0.12 0.07 0.06 0.03 0.03 0.03 0.02 0.02 0.01
0.10 0.05 0.06 0.03 0.02 0.04 0.02 0.00 0.00 0.00 0.00 0.00 0.00 0.00 0.00 0.00 0.00 0.00 0.00 0.00 0.01 0.01 0.01 0.02 0.03 0.04 0.04 0.04 0.06 0.06 0.07 0.08 0.09 0.09 0.09 0.06 0.04 0.02 0.03 0.03 0.02 0.02 0.03
0.11 0.06 0.09 0.07 0.07 0.07 0.04 0.03 0.02 0.01 0.00 0.00 0.00 0.00 0.00 0.00 0.00 0.00 0.00 0.01 0.00 0.00 0.01 0.01 0.02 0.03 0.03 0.02 0.03 0.03 0.03 0.06 0.09 0.09 0.10 0.09 0.06 0.06 0.06 0.07 0.09 0.08 0.10
0.02 0.06 0.11 0.04 0.08 0.09 0.13 0.16 0.10 0.04 0.08 0.04 0.03 0.03 0.03 0.04 0.07 0.05 0.04 0.02 0.02 0.01 0.01 0.02 0.02 0.05 0.04 0.07 0.09 0.11 0.09 0.09 0.11 0.12 0.11 0.11 0.09 0.11 0.12 0.15 0.20 0.27 0.31
0.03 0.01 0.01 0.01 0.01 0.03 0.08 0.09 0.08 0.08 0.13 0.09 0.11 0.11 0.10 0.14 0.25 0.17 0.18 0.08 0.04 0.05 0.04 0.05 0.05 0.07 0.13 0.06 0.14 0.17 0.17 0.23 0.20 0.15 0.15 0.20 0.28 0.35 0.41 0.45 0.42 0.36 0.32
0.00 0.00 0.00 0.00 0.01 0.02 0.03 0.01 0.03 0.06 0.06 0.08 0.09 0.09 0.13 0.16 0.24 0.28 0.37 0.23 0.11 0.08 0.06 0.10 0.11 0.10 0.17 0.22 0.14 0.18 0.22 0.30 0.39 0.42 0.47 0.56 0.54 0.46 0.36 0.36 0.35 0.37 0.39
0.00 0.00 0.00 0.00 0.00 0.01 0.01 0.01 0.02 0.02 0.03 0.04 0.06 0.09 0.11 0.10 0.28 0.28 0.29 0.18 0.15 0.16 0.20 0.28 0.36 0.22 0.50 0.47 0.28 0.28 0.35 0.44 0.65 0.55 0.45 0.54 0.53 0.40 0.33 0.32 0.43 0.68 0.89
0.00 0.00 0.00 0.00 0.00 0.00 0.00 0.00 0.01 0.02 0.02 0.04 0.04 0.05 0.18 0.11 0.32 0.28 0.25 0.12 0.13 0.17 0.24 0.36 0.74 0.37 0.41 0.31 0.21 0.14 0.37 0.68 0.54 0.54 0.57 0.66 0.63 0.66 0.77 0.62 0.61 0.89 1.17
0.00 0.00 0.00 0.00 0.00 0.01 0.01 0.01 0.01 0.01 0.02 0.03 0.05 0.06 0.11 0.21 0.28 0.39 0.35 0.21 0.16 0.25 0.36 0.40 0.51 0.90 0.49 0.53 0.61 0.50 1.07 1.16 1.10 0.87 0.81 0.85 0.85 0.85 0.87 0.83 0.77 0.76 0.80
0.00 0.00 0.00 0.01 0.03 0.04 0.05 0.07 0.07 0.05 0.06 0.06 0.07 0.09 0.10 0.13 0.31 0.31 0.30 0.34 0.47 0.36 0.55 0.57 0.81 0.89 0.55 0.63 0.79 1.10 1.30 1.15 1.06 1.23 1.32 1.37 1.32 1.25 1.17 1.04 0.90 0.79 0.71
0.00 0.00 0.01 0.04 0.04 0.04 0.07 0.09 0.10 0.09 0.09 0.10 0.14 0.19 0.22 0.21 0.28 0.43 0.37 0.45 0.58 0.60 0.86 1.09 1.14 0.96 0.85 0.94 1.10 1.18 1.20 1.22 1.35 1.44 1.48 1.44 1.30 1.13 0.93 0.77 0.62 0.50 0.41
0.01 0.05 0.05 0.06 0.09 0.05 0.08 0.10 0.10 0.10 0.14 0.19 0.28 0.35 0.37 0.39 0.39 0.38 0.40 0.44 0.58 0.72 1.00 1.14 1.13 1.09 1.07 1.14 1.19 1.18 1.19 1.27 1.31 1.32 1.27 1.16 0.97 0.78 0.61 0.50 0.39 0.31 0.22
0.09 0.11 0.11 0.11 0.12 0.12 0.16 0.23 0.21 0.33 0.40 0.41 0.47 0.50 0.53 0.68 0.93 0.97 0.96 1.03 1.11 1.25 1.29 1.39 1.42 1.40 1.37 1.34 1.25 1.16 1.06 0.96 0.84 0.77 0.65 0.54 0.41 0.30 0.21 0.14 0.10 0.07 0.06
0.16 0.18 0.22 0.17 0.18 0.18 0.18 0.28 0.47 0.52 0.51 0.58 0.65 0.66 0.94 1.14 1.25 1.22 1.23 1.25 1.27 1.25 1.12 1.10 1.05 0.95 0.85 0.77 0.68 0.60 0.49 0.41 0.34 0.26 0.19 0.13 0.09 0.06 0.04 0.02 0.01 0.01 0.01
0.30 0.27 0.29 0.30 0.32 0.33 0.35 0.34 0.44 0.60 0.64 0.79 0.89 0.93 0.94 1.08 0.99 0.93 0.89 0.82 0.80 0.66 0.60 0.63 0.60 0.54 0.48 0.38 0.31 0.24 0.18 0.12 0.07 0.05 0.04 0.03 0.02 0.01 0.01 0.01 0.00 0.00 0.00
0.91 0.92 0.85 0.82 0.86 0.97 1.09 1.19 1.24 1.25 1.22 1.30 1.31 1.19 1.14 1.08 1.00 0.89 0.76 0.56 0.50 0.44 0.40 0.36 0.32 0.27 0.20 0.14 0.10 0.06 0.04 0.03 0.03 0.02 0.01 0.01 0.01 0.01 0.01 0.01 0.00 0.01 0.01
1.27 1.40 1.43 1.43 1.40 1.25 1.11 1.00 0.96 0.94 0.93 0.96 0.94 0.86 0.79 0.67 0.56 0.48 0.40 0.35 0.31 0.26 0.20 0.15 0.11 0.07 0.05 0.04 0.04 0.03 0.02 0.02 0.01 0.01 0.01 0.01 0.01 0.01 0.01 0.01 0.01 0.00 0.00
0.57 0.60 0.57 0.56 0.53 0.48 0.46 0.43 0.42 0.39 0.37 0.35 0.33 0.34 0.27 0.18 0.15 0.13 0.10 0.08 0.06 0.05 0.03 0.03 0.02 0.02 0.02 0.01 0.01 0.01 0.01 0.00 0.00 0.00 0.00 0.01 0.01 0.01 0.01 0.01 0.01 0.01 0.01
0.25 0.25 0.24 0.22 0.23 0.22 0.20 0.18 0.16 0.13 0.12 0.10 0.11 0.07 0.03 0.02 0.02 0.01 0.01 0.02 0.02 0.01 0.01 0.01 0.01 0.01 0.01 0.01 0.00 0.01 0.00 0.01 0.01 0.01 0.01 0.01 0.01 0.01 0.01 0.01 0.01 0.01 0.01
0.06 0.05 0.04 0.05 0.04 0.04 0.04 0.04 0.04 0.03 0.02 0.02 0.01 0.00 0.00 0.01 0.01 0.01 0.01 0.01 0.00 0.00 0.00 0.00 0.00 0.00 0.00 0.00 0.00 0.01 0.01 0.00 0.01 0.01 0.01 0.01 0.01 0.01 0.01 0.01 0.01 0.01 0.01
0.00 0.00 0.00 0.00 0.00 0.00 0.00 0.01 0.01 0.01 0.01 0.01 0.00 0.00 0.00 0.00 0.00 0.01 0.01 0.01 0.01 0.01 0.00 0.00 0.00 0.00 0.00 0.00 0.00 0.01 0.01 0.01 0.01 0.01 0.01 0.01 0.01 0.01 0.01 0.01 0.01 0.01 0.02
0.00 0.00 0.00 0.00 0.00 0.00 0.00 0.01 0.01 0.00 0.01 0.01 0.01 0.01 0.01 0.01 0.01 0.01 0.01 0.01 0.01 0.01 0.01 0.00 0.00 0.00 0.00 0.00 0.00 0.00 0.00 0.00 0.00 0.01 0.01 0.01 0.01 0.01 0.01 0.01 0.01 0.01 0.02
0.00 0.00 0.00 0.00 0.00 0.00 0.00 0.00 0.00 0.00 0.01 0.01 0.01 0.01 0.01 0.01 0.01 0.01 0.01 0.00 0.00 0.00 0.01 0.00 0.00 0.00 0.00 0.00 0.00 0.00 0.00 0.00 0.00 0.00 0.01 0.01 0.01 0.01 0.01 0.01 0.02 0.02 0.02
0.00 0.00 0.00 0.00 0.00 0.00 0.00 0.00 0.00 0.01 0.01 0.01 0.01 0.01 0.01 0.00 0.01 0.01 0.00 0.00 0.00 0.00 0.00 0.00 0.00 0.00 0.00 0.01 0.00 0.00 0.00 0.00 0.00 0.00 0.00 0.01 0.01 0.01 0.02 0.02 0.01 0.02 0.01

GFSGL_prec_precacc24_078.txt.gz
Total_Precipitation_Accumulation
0.00 0.00 0.01 0.00 0.01 0.00 0.00 0.00 0.00 0.00 0.01 0.00 0.01 0.01 0.01 0.04 0.06 0.08 0.12 0.11 0.07 0.03 0.03 0.05 0.05 0.07 0.10 0.08 0.07 0.10 0.13 0.16 0.22 0.12 0.06 0.05 0.07 0.08 0.06 0.05 0.04 0.02 0.01
0.02 0.01 0.00 0.00 0.01 0.01 0.01 0.00 0.00 0.00 0.00 0.01 0.00 0.00 0.00 0.00 0.02 0.02 0.02 0.07 0.07 0.07 0.03 0.03 0.02 0.03 0.07 0.08 0.13 0.14 0.11 0.10 0.15 0.10 0.04 0.04 0.04 0.04 0.04 0.03 0.01 0.01 0.01
0.11 0.04 0.02 0.01 0.00 0.00 0.00 0.01 0.01 0.01 0.00 0.00 0.00 0.00 0.00 0.00 0.00 0.00 0.00 0.00 0.00 0.01 0.03 0.04 0.03 0.03 0.03 0.04 0.04 0.04 0.04 0.07 0.12 0.16 0.11 0.06 0.05 0.04 0.04 0.03 0.02 0.02 0.01
0.12 0.06 0.07 0.03 0.02 0.02 0.01 0.01 0.01 0.01 0.01 0.00 0.00 0.00 0.00 0.00 0.00 0.01 0.01 0.01 0.00 0.00 0.01 0.02 0.04 0.04 0.03 0.03 0.04 0.04 0.04 0.05 0.07 0.08 0.08 0.06 0.04 0.02 0.04 0.04 0.02 0.02 0.03
0.12 0.07 0.10 0.08 0.08 0.06 0.04 0.04 0.02 0.01 0.01 0.00 0.00 0.01 0.01 0.01 0.00 0.00 0.00 0.00 0.00 0.00 0.00 0.01 0.02 0.03 0.02 0.03 0.05 0.05 0.07 0.10 0.11 0.11 0.11 0.09 0.06 0.06 0.06 0.08 0.11 0.09 0.11
0.02 0.06 0.11 0.05 0.09 0.11 0.14 0.16 0.10 0.05 0.08 0.05 0.04 0.03 0.04 0.05 0.08 0.02 0.02 0.00 0.00 0.01 0.01 0.02 0.02 0.04 0.03 0.04 0.06 0.09 0.10 0.11 0.12 0.13 0.12 0.12 0.10 0.11 0.12 0.15 0.20 0.28 0.31
0.03 0.02 0.01 0.01 0.01 0.04 0.08 0.10 0.08 0.09 0.14 0.10 0.12 0.12 0.12 0.15 0.28 0.14 0.16 0.07 0.04 0.05 0.05 0.04 0.05 0.08 0.14 0.05 0.13 0.18 0.18 0.26 0.23 0.19 0.17 0.22 0.32 0.39 0.44 0.46 0.42 0.36 0.32
0.00 0.01 0.01 0.01 0.01 0.02 0.03 0.01 0.02 0.06 0.07 0.08 0.08 0.09 0.12 0.15 0.21 0.24 0.32 0.21 0.11 0.07 0.07 0.10 0.11 0.10 0.18 0.25 0.14 0.19 0.24 0.38 0.52 0.51 0.56 0.66 0.66 0.52 0.40 0.40 0.41 0.46 0.50
0.00 0.00 0.00 0.00 0.00 0.01 0.01 0.01 0.02 0.02 0.03 0.04 0.06 0.08 0.09 0.06 0.20 0.24 0.26 0.18 0.14 0.16 0.20 0.26 0.33 0.19 0.45 0.43 0.27 0.28 0.37 0.56 0.80 0.64 0.51 0.62 0.62 0.48 0.39 0.36 0.50 0.89 1.23
0.01 0.00 0.00 0.00 0.00 0.00 0.00 0.00 0.01 0.02 0.02 0.04 0.02 0.03 0.12 0.08 0.25 0.24 0.22 0.12 0.13 0.16 0.22 0.33 0.67 0.33 0.37 0.30 0.20 0.14 0.37 0.72 0.60 0.62 0.67 0.78 0.77 0.80 0.94 0.75 0.74 1.07 1.44
0.01 0.01 0.00 0.00 0.00 0.00 0.01 0.00 0.01 0.01 0.02 0.03 0.04 0.05 0.10 0.17 0.22 0.33 0.30 0.20 0.15 0.23 0.33 0.37 0.47 0.84 0.47 0.52 0.61 0.50 1.08 1.18 1.15 0.89 0.82 0.88 0.89 0.88 0.92 0.90 0.84 0.83 0.89
0.00 0.00 0.00 0.00 0.00 0.00 0.01 0.02 0.04 0.04 0.05 0.06 0.06 0.08 0.09 0.10 0.24 0.24 0.25 0.30 0.42 0.34 0.54 0.56 0.78 0.85 0.53 0.62 0.79 1.10 1.30 1.15 1.07 1.24 1.33 1.39 1.34 1.28 1.20 1.05 0.92 0.80 0.74
0.00 0.00 0.00 0.00 0.00 0.00 0.03 0.07 0.09 0.08 0.09 0.10 0.12 0.15 0.17 0.16 0.21 0.34 0.30 0.39 0.54 0.58 0.85 1.08 1.11 0.94 0.85 0.94 1.10 1.18 1.20 1.22 1.35 1.44 1.49 1.46 1.32 1.16 0.95 0.78 0.63 0.51 0.41
0.01 0.01 0.01 0.01 0.03 0.02 0.07 0.10 0.09 0.09 0.12 0.17 0.25 0.31 0.31 0.33 0.32 0.31 0.35 0.43 0.57 0.72 1.00 1.14 1.13 1.09 1.06 1.14 1.19 1.18 1.19 1.27 1.31 1.32 1.28 1.17 0.98 0.78 0.62 0.50 0.40 0.31 0.22
0.06 0.07 0.09 0.09 0.11 0.12 0.16 0.23 0.21 0.31 0.37 0.39 0.46 0.48 0.51 0.65 0.91 0.95 0.95 1.03 1.10 1.23 1.27 1.37 1.41 1.40 1.37 1.34 1.25 1.16 1.07 0.96 0.84 0.77 0.65 0.54 0.41 0.30 0.21 0.14 0.10 0.07 0.06
0.14 0.16 0.21 0.17 0.17 0.18 0.17 0.25 0.42 0.48 0.48 0.57 0.64 0.65 0.92 1.11 1.22 1.18 1.18 1.20 1.23 1.22 1.09 1.09 1.05 0.95 0.84 0.76 0.67 0.60 0.49 0.40 0.33 0.25 0.18 0.12 0.09 0.06 0.04 0.02 0.01 0.01 0.01
0.28 0.26 0.27 0.28 0.30 0.31 0.33 0.33 0.42 0.55 0.60 0.74 0.84 0.89 0.91 1.03 0.95 0.90 0.85 0.80 0.79 0.65 0.59 0.61 0.58 0.53 0.46 0.37 0.30 0.23 0.17 0.11 0.06 0.04 0.04 0.03 0.02 0.01 0.01 0.01 0.00 0.00 0.00
0.75 0.76 0.68 0.63 0.67 0.79 0.92 1.05 1.13 1.15 1.15 1.22 1.24 1.14 1.11 1.06 0.98 0.88 0.75 0.55 0.50 0.44 0.40 0.36 0.32 0.26 0.19 0.14 0.09 0.06 0.04 0.03 0.02 0.02 0.01 0.01 0.01 0.01 0.01 0.01 0.00 0.00 0.00
0.85 0.99 1.05 1.09 1.11 1.05 0.97 0.91 0.90 0.88 0.87 0.90 0.89 0.82 0.77 0.65 0.54 0.47 0.40 0.34 0.31 0.26 0.19 0.14 0.10 0.07 0.04 0.03 0.03 0.02 0.02 0.02 0.01 0.01 0.01 0.00 0.00 0.00 0.00 0.00 0.00 0.00 0.00
0.38 0.41 0.42 0.44 0.42 0.39 0.38 0.37 0.36 0.34 0.32 0.31 0.30 0.31 0.26 0.17 0.15 0.13 0.10 0.08 0.06 0.04 0.03 0.02 0.02 0.02 0.01 0.01 0.01 0.01 0.00 0.00 0.00 0.00 0.00 0.00 0.00 0.01 0.01 0.00 0.01 0.01 0.01
0.16 0.17 0.18 0.18 0.20 0.19 0.18 0.16 0.14 0.12 0.11 0.10 0.10 0.06 0.03 0.02 0.02 0.01 0.01 0.01 0.01 0.01 0.01 0.01 0.00 0.00 0.00 0.00 0.00 0.00 0.00 0.00 0.00 0.00 0.00 0.00 0.00 0.00 0.00 0.01 0.01 0.00 0.00
0.04 0.04 0.03 0.04 0.04 0.04 0.04 0.04 0.03 0.03 0.02 0.01 0.01 0.00 0.00 0.01 0.01 0.01 0.00 0.00 0.00 0.00 0.00 0.00 0.00 0.00 0.00 0.00 0.00 0.00 0.00 0.00 0.00 0.00 0.00 0.00 0.00 0.00 0.00 0.00 0.00 0.00 0.01
0.00 0.00 0.00 0.00 0.00 0.00 0.00 0.01 0.00 0.01 0.01 0.00 0.00 0.00 0.00 0.00 0.00 0.00 0.01 0.01 0.01 0.01 0.00 0.00 0.00 0.00 0.00 0.00 0.00 0.00 0.00 0.01 0.00 0.00 0.00 0.00 0.00 0.00 0.01 0.01 0.01 0.01 0.01
0.00 0.00 0.00 0.00 0.00 0.00 0.00 0.01 0.00 0.00 0.01 0.01 0.01 0.01 0.01 0.01 0.01 0.01 0.01 0.01 0.01 0.01 0.01 0.00 0.00 0.00 0.00 0.00 0.00 0.00 0.00 0.00 0.00 0.00 0.00 0.00 0.00 0.00 0.00 0.01 0.00 0.01 0.01
0.00 0.00 0.00 0.00 0.01 0.00 0.00 0.01 0.01 0.01 0.01 0.01 0.01 0.01 0.01 0.01 0.01 0.01 0.01 0.00 0.00 0.00 0.01 0.01 0.00 0.00 0.00 0.00 0.00 0.00 0.00 0.00 0.00 0.00 0.00 0.00 0.00 0.00 0.00 0.01 0.01 0.02 0.01
0.00 0.00 0.00 0.00 0.00 0.00 0.00 0.00 0.01 0.01 0.01 0.01 0.01 0.01 0.01 0.00 0.00 0.01 0.00 0.00 0.00 0.00 0.01 0.00 0.00 0.01 0.00 0.01 0.01 0.00 0.00 0.00 0.00 0.00 0.00 0.01 0.01 0.01 0.01 0.01 0.01 0.01 0.01

GFSGL_prec_precacc24_081.txt.gz
Total_Precipitation_Accumulation
0.03 0.00 0.01 0.00 0.01 0.00 0.00 0.00 0.00 0.02 0.03 0.02 0.04 0.02 0.03 0.10 0.13 0.15 0.14 0.12 0.08 0.03 0.03 0.04 0.04 0.06 0.08 0.07 0.06 0.06 0.06 0.07 0.07 0.01 0.00 0.00 0.00 0.00 0.01 0.03 0.04 0.02 0.01
0.06 0.02 0.00 0.00 0.01 0.01 0.01 0.01 0.00 0.00 0.01 0.02 0.03 0.03 0.01 0.01 0.04 0.07 0.09 0.09 0.08 0.08 0.04 0.02 0.02 0.03 0.05 0.05 0.07 0.07 0.06 0.05 0.09 0.06 0.01 0.00 0.00 0.00 0.02 0.03 0.01 0.01 0.01
0.15 0.05 0.02 0.01 0.01 0.01 0.01 0.01 0.01 0.01 0.00 0.00 0.02 0.02 0.01 0.01 0.01 0.01 0.02 0.01 0.01 0.03 0.04 0.03 0.01 0.02 0.03 0.03 0.04 0.03 0.02 0.04 0.05 0.06 0.04 0.03 0.03 0.03 0.04 0.03 0.02 0.02 0.01
0.15 0.07 0.07 0.03 0.02 0.02 0.01 0.01 0.02 0.02 0.01 0.01 0.00 0.00 0.00 0.01 0.01 0.02 0.02 0.02 0.02 0.02 0.02 0.03 0.03 0.04 0.04 0.04 0.04 0.04 0.05 0.05 0.06 0.06 0.06 0.04 0.04 0.02 0.07 0.05 0.03 0.03 0.03
0.16 0.08 0.10 0.08 0.08 0.07 0.05 0.03 0.02 0.01 0.01 0.01 0.01 0.01 0.01 0.01 0.01 0.01 0.01 0.03 0.04 0.04 0.03 0.03 0.05 0.07 0.06 0.08 0.12 0.13 0.17 0.17 0.18 0.18 0.15 0.11 0.08 0.08 0.08 0.10 0.13 0.10 0.12
0.05 0.07 0.12 0.06 0.09 0.11 0.14 0.17 0.11 0.06 0.09 0.05 0.05 0.04 0.04 0.06 0.10 0.03 0.02 0.00 0.01 0.01 0.01 0.01 0.01 0.02 0.01 0.03 0.06 0.09 0.11 0.13 0.14 0.14 0.13 0.12 0.10 0.12 0.13 0.17 0.22 0.30 0.33
0.05 0.04 0.02 0.01 0.02 0.04 0.09 0.11 0.10 0.10 0.15 0.11 0.14 0.13 0.13 0.16 0.29 0.14 0.14 0.05 0.03 0.05 0.05 0.04 0.04 0.08 0.15 0.04 0.11 0.15 0.16 0.26 0.26 0.24 0.21 0.28 0.43 0.51 0.53 0.51 0.45 0.37 0.34
0.02 0.03 0.03 0.01 0.02 0.03 0.05 0.03 0.04 0.07 0.09 0.10 0.10 0.10 0.13 0.15 0.22 0.23 0.30 0.19 0.09 0.05 0.05 0.08 0.09 0.07 0.15 0.20 0.10 0.16 0.23 0.38 0.53 0.50 0.58 0.80 0.84 0.64 0.51 0.56 0.60 0.67 0.71
0.02 0.01 0.00 0.00 0.01 0.01 0.01 0.01 0.02 0.02 0.03 0.04 0.06 0.08 0.08 0.05 0.17 0.20 0.23 0.16 0.10 0.10 0.17 0.22 0.29 0.16 0.34 0.34 0.19 0.18 0.27 0.48 0.83 0.67 0.52 0.64 0.66 0.52 0.43 0.41 0.60 1.03 1.42
0.01 0.01 0.00 0.00 0.00 0.00 0.00 0.00 0.01 0.02 0.02 0.04 0.02 0.03 0.11 0.07 0.16 0.16 0.17 0.11 0.10 0.12 0.20 0.30 0.60 0.29 0.29 0.26 0.18 0.12 0.34 0.69 0.57 0.62 0.69 0.80 0.78 0.84 0.97 0.76 0.74 1.08 1.47
0.01 0.01 0.01 0.00 0.00 0.01 0.01 0.01 0.01 0.01 0.01 0.02 0.04 0.05 0.09 0.15 0.18 0.28 0.26 0.18 0.14 0.20 0.29 0.31 0.38 0.72 0.38 0.45 0.56 0.45 1.03 1.14 1.13 0.88 0.82 0.88 0.88 0.88 0.92 0.90 0.84 0.83 0.89
0.03 0.01 0.01 0.01 0.01 0.01 0.02 0.03 0.04 0.02 0.04 0.05 0.05 0.07 0.08 0.09 0.21 0.21 0.22 0.26 0.35 0.30 0.46 0.46 0.64 0.69 0.43 0.53 0.72 1.05 1.27 1.14 1.06 1.24 1.33 1.39 1.34 1.28 1.20 1.06 0.92 0.80 0.74
0.01 0.01 0.01 0.01 0.01 0.01 0.03 0.05 0.06 0.05 0.06 0.07 0.11 0.13 0.15 0.14 0.18 0.30 0.26 0.34 0.47 0.50 0.72 0.92 0.94 0.79 0.74 0.86 1.07 1.17 1.20 1.22 1.35 1.44 1.49 1.46 1.32 1.16 0.95 0.78 0.63 0.51 0.41
0.01 0.01 0.01 0.01 0.02 0.00 0.04 0.06 0.06 0.07 0.09 0.15 0.23 0.29 0.29 0.31 0.29 0.27 0.29 0.34 0.47 0.60 0.87 1.00 1.02 1.01 1.03 1.12 1.18 1.17 1.19 1.27 1.31 1.32 1.27 1.17 0.98 0.78 0.62 0.50 0.40 0.31 0.22
0.02 0.04 0.05 0.05 0.06 0.07 0.11 0.17 0.17 0.29 0.33 0.37 0.44 0.45 0.48 0.62 0.85 0.88 0.88 0.97 1.04 1.16 1.20 1.30 1.36 1.35 1.35 1.33 1.25 1.16 1.06 0.96 0.84 0.76 0.64 0.53 0.41 0.30 0.21 0.14 0.10 0.07 0.06
0.05 0.08 0.11 0.08 0.10 0.12 0.14 0.21 0.35 0.41 0.40 0.47 0.55 0.57 0.81 0.99 1.08 1.06 1.08 1.13 1.17 1.17 1.06 1.07 1.02 0.93 0.82 0.75 0.65 0.58 0.48 0.40 0.33 0.25 0.18 0.12 0.09 0.06 0.04 0.02 0.01 0.01 0.01
0.17 0.18 0.17 0.15 0.19 0.22 0.24 0.25 0.32 0.40 0.44 0.57 0.67 0.74 0.79 0.92 0.85 0.81 0.78 0.74 0.74 0.61 0.55 0.58 0.54 0.49 0.44 0.36 0.30 0.23 0.17 0.10 0.06 0.04 0.04 0.03 0.02 0.01 0.01 0.00 0.00 0.00 0.00
0.48 0.46 0.42 0.38 0.41 0.53 0.70 0.81 0.90 0.93 0.95 1.04 1.09 1.04 1.02 0.96 0.89 0.79 0.67 0.50 0.47 0.41 0.37 0.33 0.30 0.25 0.19 0.14 0.09 0.05 0.04 0.03 0.02 0.01 0.01 0.01 0.01 0.00 0.00 0.00 0.00 0.00 0.00
0.48 0.56 0.61 0.61 0.64 0.66 0.68 0.68 0.71 0.74 0.76 0.81 0.81 0.75 0.71 0.61 0.51 0.45 0.37 0.32 0.30 0.25 0.19 0.14 0.10 0.06 0.04 0.03 0.03 0.02 0.02 0.01 0.01 0.01 0.00 0.00 0.00 0.00 0.00 0.00 0.00 0.00 0.00
0.22 0.26 0.29 0.32 0.31 0.29 0.28 0.29 0.29 0.28 0.27 0.26 0.25 0.27 0.22 0.15 0.14 0.12 0.09 0.07 0.05 0.04 0.03 0.02 0.02 0.01 0.01 0.01 0.01 0.00 0.00 0.00 0.00 0.00 0.00 0.00 0.00 0.00 0.00 0.00 0.00 0.00 0.00
0.11 0.12 0.13 0.14 0.15 0.15 0.14 0.13 0.12 0.10 0.10 0.09 0.09 0.05 0.02 0.01 0.01 0.01 0.01 0.01 0.01 0.01 0.01 0.00 0.00 0.00 0.00 0.00 0.00 0.00 0.00 0.00 0.00 0.00 0.00 0.00 0.00 0.00 0.00 0.00 0.00 0.00 0.00
0.03 0.03 0.03 0.03 0.03 0.03 0.03 0.03 0.03 0.02 0.02 0.01 0.01 0.00 0.00 0.00 0.00 0.01 0.00 0.00 0.00 0.00 0.00 0.00 0.00 0.00 0.00 0.00 0.00 0.00 0.00 0.00 0.00 0.00 0.00 0.00 0.00 0.00 0.00 0.00 0.00 0.00 0.00
0.00 0.00 0.00 0.00 0.00 0.00 0.00 0.01 0.00 0.00 0.00 0.00 0.00 0.00 0.00 0.00 0.00 0.00 0.01 0.01 0.01 0.01 0.00 0.00 0.00 0.00 0.00 0.00 0.00 0.00 0.00 0.01 0.00 0.00 0.00 0.00 0.00 0.00 0.01 0.00 0.01 0.01 0.00
0.00 0.00 0.00 0.00 0.00 0.00 0.01 0.01 0.00 0.00 0.01 0.01 0.01 0.01 0.01 0.01 0.01 0.01 0.01 0.01 0.01 0.01 0.01 0.00 0.00 0.00 0.00 0.00 0.00 0.00 0.00 0.00 0.00 0.00 0.00 0.00 0.00 0.00 0.00 0.00 0.00 0.00 0.01
0.00 0.00 0.00 0.01 0.01 0.01 0.01 0.01 0.01 0.01 0.01 0.01 0.01 0.01 0.01 0.01 0.01 0.01 0.01 0.00 0.00 0.00 0.01 0.01 0.00 0.00 0.00 0.00 0.00 0.00 0.00 0.00 0.00 0.00 0.00 0.00 0.00 0.00 0.00 0.00 0.01 0.02 0.01
0.00 0.00 0.00 0.00 0.00 0.01 0.00 0.00 0.01 0.01 0.01 0.01 0.01 0.01 0.01 0.00 0.00 0.01 0.00 0.00 0.00 0.00 0.01 0.00 0.00 0.01 0.00 0.01 0.01 0.00 0.00 0.00 0.00 0.00 0.00 0.01 0.00 0.01 0.01 0.01 0.01 0.01 0.01

GFSGL_prec_precacc24_084.txt.gz
Total_Precipitation_Accumulation
0.06 0.01 0.01 0.00 0.01 0.01 0.01 0.01 0.01 0.02 0.03 0.03 0.05 0.03 0.05 0.14 0.20 0.23 0.20 0.15 0.11 0.07 0.04 0.05 0.05 0.06 0.07 0.06 0.05 0.06 0.06 0.08 0.08 0.01 0.00 0.00 0.00 0.00 0.00 0.00 0.00 0.00 0.00
0.07 0.04 0.01 0.01 0.01 0.02 0.01 0.01 0.01 0.01 0.01 0.02 0.04 0.04 0.02 0.03 0.09 0.16 0.16 0.16 0.09 0.10 0.08 0.04 0.03 0.05 0.06 0.05 0.05 0.06 0.06 0.05 0.09 0.05 0.01 0.00 0.00 0.00 0.00 0.01 0.00 0.01 0.01
0.18 0.09 0.04 0.03 0.01 0.01 0.01 0.02 0.02 0.01 0.00 0.00 0.02 0.04 0.02 0.01 0.03 0.06 0.06 0.09 0.06 0.03 0.05 0.05 0.02 0.03 0.03 0.03 0.03 0.01 0.01 0.03 0.05 0.06 0.02 0.01 0.00 0.01 0.02 0.02 0.01 0.02 0.01
0.18 0.08 0.08 0.05 0.03 0.02 0.01 0.02 0.02 0.02 0.01 0.01 0.01 0.02 0.02 0.02 0.04 0.05 0.04 0.05 0.08 0.06 0.06 0.08 0.05 0.02 0.02 0.02 0.02 0.01 0.02 0.04 0.05 0.05 0.03 0.02 0.03 0.01 0.05 0.03 0.02 0.02 0.02
0.19 0.14 0.14 0.09 0.08 0.08 0.06 0.03 0.02 0.02 0.02 0.02 0.01 0.02 0.02 0.02 0.02 0.02 0.03 0.06 0.08 0.10 0.10 0.09 0.10 0.12 0.11 0.13 0.13 0.12 0.16 0.15 0.15 0.18 0.16 0.11 0.08 0.09 0.11 0.10 0.15 0.12 0.13
0.06 0.09 0.13 0.07 0.10 0.12 0.14 0.17 0.11 0.07 0.09 0.06 0.06 0.05 0.05 0.06 0.11 0.04 0.02 0.01 0.03 0.06 0.10 0.10 0.04 0.03 0.02 0.04 0.04 0.04 0.06 0.09 0.10 0.11 0.14 0.15 0.08 0.06 0.05 0.08 0.16 0.28 0.31
0.09 0.06 0.05 0.04 0.04 0.06 0.10 0.11 0.11 0.11 0.16 0.11 0.14 0.14 0.13 0.16 0.31 0.15 0.15 0.05 0.03 0.05 0.05 0.05 0.04 0.08 0.15 0.02 0.07 0.10 0.11 0.20 0.21 0.21 0.16 0.19 0.29 0.38 0.43 0.43 0.44 0.44 0.44
0.07 0.07 0.06 0.06 0.08 0.07 0.08 0.08 0.09 0.11 0.11 0.11 0.11 0.10 0.13 0.16 0.24 0.24 0.31 0.19 0.09 0.06 0.06 0.09 0.10 0.08 0.16 0.20 0.06 0.10 0.14 0.26 0.41 0.36 0.42 0.57 0.60 0.50 0.46 0.55 0.63 0.70 0.75
0.16 0.10 0.07 0.04 0.07 0.09 0.07 0.05 0.07 0.10 0.12 0.11 0.11 0.11 0.10 0.08 0.23 0.22 0.25 0.16 0.11 0.11 0.17 0.20 0.24 0.12 0.21 0.24 0.12 0.09 0.15 0.35 0.67 0.54 0.42 0.57 0.61 0.48 0.42 0.40 0.58 1.02 1.42
0.10 0.11 0.08 0.09 0.04 0.02 0.02 0.02 0.02 0.03 0.06 0.10 0.05 0.05 0.12 0.08 0.16 0.14 0.15 0.10 0.06 0.08 0.14 0.21 0.46 0.21 0.17 0.18 0.14 0.09 0.29 0.62 0.49 0.55 0.64 0.76 0.76 0.81 0.95 0.74 0.72 1.07 1.47
0.12 0.10 0.10 0.12 0.11 0.04 0.02 0.01 0.01 0.01 0.02 0.03 0.04 0.05 0.09 0.14 0.16 0.24 0.21 0.16 0.11 0.16 0.23 0.25 0.30 0.58 0.29 0.35 0.46 0.37 0.91 0.98 0.97 0.76 0.71 0.79 0.82 0.85 0.90 0.89 0.84 0.83 0.90
0.13 0.11 0.09 0.05 0.10 0.13 0.05 0.03 0.04 0.03 0.04 0.05 0.06 0.07 0.08 0.08 0.17 0.17 0.18 0.22 0.30 0.26 0.40 0.40 0.53 0.57 0.35 0.43 0.60 0.89 1.09 0.97 0.93 1.12 1.24 1.33 1.31 1.27 1.20 1.06 0.92 0.80 0.74
0.23 0.23 0.17 0.12 0.07 0.04 0.05 0.05 0.06 0.06 0.07 0.08 0.10 0.12 0.12 0.10 0.14 0.24 0.20 0.26 0.38 0.39 0.58 0.77 0.79 0.68 0.63 0.73 0.91 1.00 1.05 1.09 1.25 1.36 1.43 1.42 1.29 1.14 0.95 0.78 0.63 0.51 0.41
0.00 0.00 0.01 0.02 0.03 0.03 0.04 0.05 0.06 0.08 0.10 0.14 0.20 0.24 0.23 0.22 0.20 0.18 0.21 0.25 0.36 0.50 0.76 0.88 0.89 0.88 0.89 0.98 1.05 1.07 1.11 1.21 1.26 1.28 1.24 1.14 0.96 0.77 0.61 0.49 0.39 0.31 0.22
0.00 0.00 0.01 0.02 0.03 0.04 0.08 0.12 0.12 0.22 0.22 0.25 0.32 0.35 0.37 0.48 0.68 0.70 0.72 0.81 0.88 1.00 1.05 1.15 1.20 1.22 1.23 1.24 1.18 1.11 1.03 0.93 0.82 0.74 0.63 0.52 0.41 0.30 0.21 0.14 0.10 0.07 0.06
0.00 0.01 0.02 0.02 0.03 0.05 0.07 0.13 0.20 0.26 0.25 0.29 0.35 0.40 0.58 0.74 0.79 0.77 0.80 0.88 0.97 1.01 0.92 0.94 0.91 0.84 0.76 0.69 0.61 0.55 0.47 0.39 0.33 0.25 0.18 0.12 0.09 0.06 0.04 0.02 0.01 0.01 0.00
0.02 0.03 0.03 0.04 0.05 0.08 0.12 0.14 0.19 0.24 0.26 0.37 0.47 0.53 0.56 0.64 0.62 0.60 0.60 0.60 0.62 0.52 0.48 0.50 0.48 0.44 0.40 0.34 0.28 0.22 0.16 0.10 0.06 0.04 0.04 0.03 0.02 0.01 0.01 0.00 0.00 0.00 0.00
0.02 0.05 0.08 0.09 0.10 0.13 0.18 0.25 0.32 0.38 0.42 0.52 0.63 0.67 0.70 0.70 0.69 0.65 0.59 0.45 0.42 0.37 0.34 0.31 0.28 0.24 0.18 0.13 0.09 0.05 0.04 0.03 0.02 0.01 0.01 0.01 0.00 0.00 0.00 0.00 0.00 0.00 0.00
0.04 0.08 0.11 0.15 0.18 0.22 0.27 0.29 0.32 0.35 0.40 0.47 0.54 0.56 0.58 0.52 0.46 0.42 0.35 0.31 0.28 0.24 0.18 0.14 0.10 0.06 0.04 0.03 0.03 0.02 0.01 0.01 0.01 0.00 0.00 0.00 0.00 0.00 0.00 0.00 0.00 0.00 0.00
0.05 0.06 0.07 0.09 0.11 0.11 0.12 0.13 0.14 0.14 0.15 0.16 0.17 0.19 0.17 0.14 0.13 0.11 0.09 0.07 0.05 0.04 0.03 0.02 0.02 0.01 0.01 0.01 0.01 0.00 0.00 0.00 0.00 0.00 0.00 0.00 0.00 0.00 0.00 0.00 0.00 0.00 0.00
0.04 0.04 0.04 0.05 0.07 0.08 0.08 0.07 0.07 0.06 0.07 0.07 0.07 0.04 0.02 0.01 0.01 0.01 0.01 0.01 0.01 0.01 0.01 0.00 0.00 0.00 0.00 0.00 0.00 0.00 0.00 0.00 0.00 0.00 0.00 0.00 0.00 0.00 0.00 0.00 0.00 0.00 0.00
0.02 0.01 0.01 0.01 0.01 0.02 0.02 0.02 0.02 0.02 0.01 0.01 0.01 0.00 0.00 0.00 0.00 0.00 0.00 0.00 0.00 0.00 0.00 0.00 0.00 0.00 0.00 0.00 0.00 0.00 0.00 0.00 0.00 0.00 0.00 0.00 0.00 0.00 0.00 0.00 0.00 0.00 0.00
0.00 0.00 0.00 0.00 0.00 0.00 0.00 0.00 0.00 0.00 0.00 0.00 0.00 0.00 0.00 0.00 0.00 0.00 0.01 0.01 0.01 0.01 0.00 0.00 0.00 0.00 0.00 0.00 0.01 0.00 0.00 0.00 0.00 0.00 0.00 0.00 0.00 0.00 0.00 0.00 0.00 0.00 0.00
0.00 0.00 0.00 0.00 0.00 0.00 0.01 0.01 0.01 0.00 0.00 0.01 0.01 0.01 0.01 0.01 0.01 0.01 0.01 0.01 0.01 0.01 0.01 0.00 0.00 0.00 0.00 0.00 0.00 0.00 0.00 0.00 0.00 0.00 0.00 0.00 0.00 0.00 0.00 0.00 0.00 0.00 0.01
0.00 0.00 0.00 0.00 0.01 0.01 0.01 0.01 0.01 0.01 0.01 0.01 0.01 0.01 0.01 0.01 0.01 0.01 0.01 0.00 0.00 0.00 0.01 0.01 0.00 0.00 0.00 0.00 0.00 0.00 0.00 0.00 0.00 0.00 0.00 0.00 0.00 0.00 0.00 0.00 0.00 0.01 0.01
0.00 0.00 0.00 0.00 0.00 0.01 0.01 0.01 0.01 0.01 0.01 0.01 0.01 0.01 0.01 0.00 0.00 0.01 0.00 0.00 0.00 0.00 0.01 0.00 0.00 0.00 0.00 0.01 0.01 0.00 0.00 0.00 0.00 0.00 0.00 0.00 0.01 0.00 0.00 0.00 0.00 0.00 0.00

GFSGL_prec_precacc24_087.txt.gz
Total_Precipitation_Accumulation
0.09 0.05 0.04 0.03 0.02 0.01 0.02 0.01 0.01 0.02 0.03 0.03 0.05 0.03 0.05 0.17 0.27 0.40 0.43 0.24 0.20 0.14 0.09 0.09 0.07 0.06 0.07 0.06 0.04 0.05 0.06 0.09 0.09 0.01 0.00 0.00 0.00 0.00 0.00 0.00 0.01 0.01 0.00
0.09 0.11 0.12 0.05 0.02 0.03 0.02 0.02 0.01 0.01 0.02 0.02 0.04 0.04 0.02 0.04 0.13 0.26 0.36 0.27 0.15 0.17 0.17 0.12 0.08 0.07 0.07 0.07 0.07 0.07 0.05 0.04 0.08 0.04 0.00 0.00 0.00 0.00 0.00 0.01 0.00 0.00 0.00
0.22 0.17 0.13 0.11 0.02 0.02 0.02 0.02 0.02 0.01 0.00 0.00 0.03 0.04 0.02 0.02 0.05 0.14 0.18 0.16 0.16 0.10 0.16 0.17 0.10 0.07 0.06 0.06 0.07 0.04 0.02 0.02 0.02 0.03 0.01 0.01 0.00 0.01 0.02 0.02 0.01 0.00 0.00
0.21 0.18 0.16 0.11 0.05 0.03 0.02 0.03 0.03 0.02 0.02 0.01 0.01 0.06 0.06 0.02 0.06 0.10 0.11 0.13 0.20 0.19 0.12 0.15 0.12 0.10 0.05 0.03 0.03 0.02 0.02 0.03 0.03 0.04 0.01 0.01 0.02 0.01 0.05 0.03 0.02 0.03 0.03
0.20 0.24 0.24 0.15 0.11 0.09 0.06 0.04 0.03 0.02 0.02 0.02 0.01 0.03 0.06 0.03 0.03 0.05 0.08 0.11 0.13 0.23 0.25 0.19 0.16 0.17 0.15 0.14 0.14 0.12 0.16 0.14 0.14 0.15 0.11 0.07 0.06 0.10 0.13 0.15 0.22 0.18 0.20
0.08 0.12 0.13 0.09 0.11 0.13 0.16 0.19 0.12 0.08 0.11 0.07 0.07 0.06 0.06 0.07 0.14 0.06 0.04 0.02 0.05 0.10 0.15 0.16 0.12 0.08 0.04 0.06 0.07 0.07 0.08 0.08 0.07 0.11 0.12 0.12 0.09 0.08 0.07 0.08 0.12 0.17 0.18
0.15 0.08 0.06 0.05 0.04 0.07 0.12 0.13 0.12 0.12 0.17 0.13 0.16 0.16 0.15 0.17 0.32 0.16 0.16 0.06 0.04 0.06 0.07 0.09 0.10 0.17 0.22 0.03 0.08 0.09 0.08 0.17 0.18 0.18 0.14 0.16 0.25 0.29 0.29 0.22 0.22 0.24 0.28
0.15 0.15 0.09 0.08 0.08 0.07 0.08 0.09 0.11 0.11 0.11 0.12 0.11 0.11 0.14 0.17 0.25 0.25 0.32 0.19 0.10 0.06 0.06 0.10 0.12 0.10 0.18 0.22 0.07 0.12 0.17 0.27 0.39 0.32 0.36 0.48 0.51 0.40 0.36 0.46 0.56 0.65 0.71
0.27 0.22 0.16 0.12 0.10 0.13 0.11 0.09 0.11 0.13 0.14 0.13 0.11 0.12 0.10 0.09 0.25 0.24 0.26 0.16 0.11 0.12 0.17 0.22 0.25 0.13 0.23 0.24 0.12 0.08 0.12 0.28 0.49 0.36 0.27 0.43 0.49 0.39 0.32 0.29 0.45 0.90 1.34
0.29 0.26 0.22 0.24 0.17 0.11 0.11 0.13 0.12 0.12 0.12 0.15 0.16 0.16 0.21 0.12 0.22 0.18 0.15 0.08 0.04 0.06 0.12 0.20 0.43 0.18 0.11 0.12 0.09 0.06 0.18 0.46 0.35 0.38 0.45 0.58 0.60 0.68 0.83 0.62 0.61 0.98 1.41
0.33 0.40 0.39 0.35 0.31 0.25 0.14 0.09 0.08 0.06 0.05 0.05 0.08 0.10 0.13 0.15 0.13 0.18 0.16 0.14 0.08 0.13 0.19 0.21 0.24 0.49 0.23 0.25 0.35 0.25 0.66 0.71 0.69 0.51 0.51 0.59 0.62 0.67 0.78 0.82 0.79 0.80 0.87
0.39 0.35 0.43 0.41 0.44 0.46 0.40 0.31 0.17 0.08 0.03 0.01 0.03 0.06 0.08 0.10 0.16 0.13 0.13 0.16 0.23 0.23 0.35 0.34 0.42 0.45 0.26 0.33 0.49 0.75 0.92 0.82 0.79 0.97 1.09 1.20 1.22 1.20 1.15 1.02 0.89 0.78 0.72
0.46 0.49 0.43 0.41 0.38 0.30 0.26 0.31 0.34 0.29 0.18 0.08 0.08 0.11 0.12 0.09 0.12 0.18 0.14 0.18 0.28 0.31 0.46 0.58 0.55 0.45 0.42 0.51 0.68 0.80 0.88 0.95 1.12 1.23 1.31 1.31 1.21 1.08 0.91 0.76 0.62 0.51 0.41
0.06 0.07 0.09 0.12 0.13 0.14 0.16 0.15 0.14 0.16 0.17 0.19 0.20 0.21 0.18 0.19 0.17 0.16 0.18 0.19 0.26 0.33 0.51 0.60 0.62 0.62 0.65 0.75 0.85 0.91 0.96 1.08 1.16 1.19 1.16 1.08 0.92 0.75 0.60 0.49 0.39 0.31 0.22
0.00 0.00 0.00 0.00 0.01 0.03 0.06 0.07 0.08 0.13 0.09 0.09 0.15 0.18 0.20 0.30 0.43 0.40 0.40 0.44 0.49 0.58 0.66 0.75 0.81 0.87 0.90 0.95 0.97 0.97 0.92 0.85 0.76 0.70 0.60 0.50 0.40 0.29 0.21 0.14 0.10 0.07 0.06
0.00 0.00 0.00 0.00 0.00 0.01 0.02 0.05 0.08 0.11 0.09 0.12 0.15 0.17 0.31 0.43 0.43 0.41 0.46 0.50 0.56 0.60 0.57 0.60 0.60 0.61 0.60 0.56 0.51 0.47 0.42 0.36 0.31 0.24 0.18 0.12 0.09 0.06 0.04 0.02 0.01 0.01 0.00
0.01 0.01 0.01 0.01 0.01 0.01 0.02 0.04 0.07 0.09 0.10 0.14 0.18 0.22 0.26 0.33 0.33 0.33 0.32 0.31 0.34 0.31 0.31 0.34 0.34 0.33 0.32 0.29 0.25 0.20 0.16 0.10 0.06 0.04 0.04 0.03 0.02 0.01 0.01 0.00 0.00 0.00 0.00
0.00 0.00 0.01 0.01 0.01 0.02 0.03 0.05 0.08 0.11 0.13 0.16 0.20 0.21 0.25 0.29 0.29 0.27 0.25 0.18 0.19 0.19 0.20 0.20 0.20 0.18 0.16 0.12 0.08 0.05 0.04 0.03 0.02 0.01 0.01 0.01 0.00 0.00 0.00 0.00 0.00 0.00 0.00
0.01 0.01 0.01 0.01 0.01 0.02 0.03 0.04 0.05 0.06 0.08 0.11 0.13 0.14 0.19 0.19 0.17 0.17 0.16 0.15 0.16 0.16 0.14 0.12 0.09 0.06 0.04 0.03 0.03 0.02 0.01 0.01 0.01 0.00 0.00 0.00 0.00 0.00 0.00 0.00 0.00 0.00 0.00
0.01 0.00 0.01 0.01 0.01 0.02 0.02 0.03 0.04 0.05 0.05 0.06 0.06 0.08 0.08 0.07 0.07 0.07 0.06 0.05 0.04 0.03 0.02 0.02 0.02 0.01 0.01 0.01 0.01 0.00 0.00 0.00 0.00 0.00 0.00 0.00 0.00 0.00 0.00 0.00 0.00 0.00 0.00
0.01 0.00 0.01 0.01 0.01 0.01 0.01 0.01 0.01 0.01 0.02 0.02 0.03 0.01 0.00 0.00 0.01 0.01 0.01 0.01 0.01 0.01 0.01 0.00 0.00 0.00 0.00 0.00 0.00 0.00 0.00 0.00 0.00 0.00 0.00 0.00 0.00 0.00 0.00 0.00 0.00 0.00 0.00
0.00 0.00 0.00 0.00 0.00 0.00 0.00 0.00 0.00 0.00 0.00 0.00 0.00 0.00 0.00 0.00 0.00 0.00 0.00 0.00 0.00 0.00 0.00 0.00 0.00 0.00 0.00 0.00 0.00 0.00 0.00 0.00 0.00 0.00 0.00 0.00 0.00 0.00 0.00 0.00 0.00 0.00 0.00
0.00 0.00 0.00 0.00 0.00 0.00 0.00 0.00 0.00 0.00 0.00 0.00 0.00 0.00 0.00 0.00 0.00 0.00 0.01 0.01 0.01 0.01 0.00 0.00 0.00 0.00 0.00 0.00 0.01 0.00 0.00 0.00 0.00 0.00 0.00 0.00 0.00 0.00 0.00 0.00 0.00 0.00 0.00
0.00 0.00 0.00 0.00 0.00 0.00 0.01 0.01 0.01 0.00 0.00 0.01 0.01 0.01 0.01 0.01 0.01 0.01 0.01 0.01 0.01 0.01 0.01 0.00 0.00 0.00 0.00 0.00 0.00 0.00 0.00 0.00 0.00 0.00 0.00 0.00 0.00 0.00 0.00 0.00 0.00 0.00 0.00
0.00 0.00 0.00 0.00 0.01 0.01 0.01 0.01 0.01 0.01 0.01 0.01 0.01 0.01 0.01 0.00 0.00 0.01 0.01 0.00 0.00 0.00 0.01 0.00 0.00 0.00 0.00 0.00 0.01 0.00 0.00 0.00 0.00 0.00 0.00 0.00 0.00 0.00 0.00 0.00 0.00 0.01 0.00
0.00 0.00 0.00 0.00 0.00 0.01 0.01 0.01 0.01 0.01 0.01 0.01 0.01 0.01 0.01 0.00 0.01 0.00 0.00 0.00 0.00 0.00 0.01 0.01 0.00 0.00 0.00 0.01 0.01 0.00 0.00 0.00 0.00 0.00 0.00 0.00 0.01 0.00 0.00 0.00 0.00 0.00 0.00

GFSGL_prec_precacc24_090.txt.gz
Total_Precipitation_Accumulation
0.39 0.19 0.07 0.04 0.04 0.03 0.03 0.02 0.02 0.02 0.03 0.03 0.05 0.03 0.05 0.17 0.32 0.54 0.66 0.40 0.34 0.31 0.24 0.20 0.17 0.13 0.11 0.08 0.04 0.05 0.06 0.09 0.09 0.01 0.01 0.00 0.00 0.00 0.00 0.00 0.01 0.01 0.01
0.36 0.23 0.16 0.07 0.09 0.05 0.03 0.03 0.02 0.01 0.02 0.02 0.04 0.04 0.02 0.04 0.18 0.40 0.57 0.48 0.31 0.34 0.33 0.21 0.18 0.17 0.15 0.11 0.09 0.07 0.05 0.04 0.08 0.04 0.00 0.01 0.01 0.00 0.00 0.00 0.00 0.00 0.00
0.61 0.31 0.17 0.16 0.09 0.04 0.03 0.03 0.04 0.03 0.02 0.01 0.03 0.04 0.02 0.02 0.08 0.30 0.36 0.42 0.31 0.24 0.33 0.30 0.21 0.16 0.15 0.11 0.09 0.06 0.03 0.03 0.04 0.04 0.00 0.01 0.01 0.01 0.01 0.01 0.00 0.00 0.00
0.50 0.34 0.24 0.16 0.08 0.04 0.02 0.04 0.03 0.03 0.02 0.01 0.02 0.06 0.06 0.02 0.09 0.16 0.21 0.29 0.38 0.34 0.24 0.31 0.31 0.23 0.12 0.06 0.05 0.04 0.05 0.08 0.06 0.05 0.01 0.01 0.02 0.01 0.04 0.02 0.01 0.02 0.03
0.36 0.42 0.25 0.13 0.11 0.08 0.07 0.05 0.04 0.03 0.02 0.02 0.02 0.04 0.07 0.03 0.04 0.07 0.10 0.16 0.31 0.47 0.44 0.34 0.25 0.27 0.24 0.22 0.20 0.16 0.17 0.16 0.15 0.15 0.11 0.07 0.06 0.09 0.12 0.15 0.21 0.17 0.20
0.15 0.16 0.15 0.11 0.09 0.08 0.09 0.13 0.10 0.08 0.11 0.08 0.08 0.07 0.08 0.09 0.16 0.08 0.07 0.06 0.09 0.15 0.20 0.20 0.16 0.12 0.06 0.08 0.09 0.09 0.09 0.10 0.10 0.11 0.12 0.12 0.09 0.08 0.07 0.08 0.09 0.11 0.10
0.26 0.16 0.11 0.10 0.09 0.05 0.06 0.09 0.11 0.12 0.14 0.14 0.16 0.17 0.16 0.19 0.34 0.17 0.17 0.07 0.07 0.08 0.08 0.10 0.12 0.18 0.24 0.05 0.10 0.10 0.09 0.16 0.17 0.17 0.13 0.16 0.25 0.30 0.30 0.24 0.21 0.23 0.25
0.24 0.26 0.16 0.10 0.12 0.09 0.08 0.11 0.13 0.10 0.10 0.12 0.11 0.10 0.12 0.18 0.26 0.26 0.34 0.19 0.10 0.07 0.07 0.10 0.12 0.11 0.21 0.27 0.11 0.13 0.17 0.28 0.39 0.33 0.36 0.46 0.47 0.34 0.30 0.38 0.47 0.53 0.57
0.38 0.33 0.35 0.32 0.24 0.19 0.14 0.11 0.11 0.14 0.15 0.14 0.12 0.10 0.09 0.09 0.22 0.22 0.22 0.11 0.09 0.12 0.17 0.22 0.26 0.13 0.25 0.22 0.09 0.08 0.11 0.28 0.48 0.32 0.23 0.34 0.36 0.27 0.22 0.19 0.32 0.73 1.09
0.34 0.38 0.41 0.47 0.44 0.35 0.28 0.22 0.16 0.14 0.13 0.15 0.19 0.19 0.24 0.12 0.24 0.19 0.14 0.08 0.05 0.06 0.11 0.21 0.42 0.17 0.11 0.10 0.08 0.06 0.16 0.42 0.31 0.30 0.34 0.41 0.38 0.42 0.53 0.36 0.36 0.76 1.22
0.42 0.49 0.53 0.57 0.60 0.52 0.34 0.25 0.23 0.18 0.17 0.16 0.15 0.17 0.18 0.20 0.25 0.26 0.22 0.19 0.14 0.16 0.19 0.20 0.22 0.38 0.17 0.19 0.28 0.21 0.54 0.58 0.54 0.38 0.33 0.40 0.45 0.50 0.61 0.68 0.70 0.74 0.82
0.53 0.45 0.54 0.57 0.64 0.74 0.74 0.60 0.38 0.25 0.19 0.14 0.12 0.12 0.13 0.17 0.23 0.22 0.16 0.14 0.17 0.17 0.28 0.28 0.34 0.32 0.17 0.23 0.38 0.59 0.72 0.64 0.61 0.75 0.85 0.94 0.97 0.97 0.96 0.88 0.81 0.73 0.68
0.54 0.58 0.52 0.49 0.51 0.48 0.50 0.60 0.66 0.61 0.45 0.27 0.14 0.10 0.09 0.08 0.10 0.13 0.11 0.14 0.18 0.18 0.28 0.38 0.35 0.30 0.28 0.35 0.49 0.57 0.64 0.70 0.84 0.95 1.03 1.05 0.99 0.91 0.79 0.68 0.59 0.49 0.40
0.09 0.11 0.16 0.20 0.22 0.23 0.26 0.29 0.31 0.36 0.40 0.43 0.40 0.32 0.24 0.18 0.15 0.13 0.13 0.13 0.16 0.18 0.26 0.32 0.37 0.38 0.39 0.44 0.48 0.53 0.65 0.78 0.85 0.89 0.89 0.85 0.75 0.62 0.52 0.46 0.38 0.31 0.22
0.01 0.02 0.03 0.05 0.08 0.10 0.12 0.12 0.14 0.18 0.14 0.14 0.17 0.18 0.20 0.26 0.32 0.22 0.17 0.19 0.22 0.26 0.28 0.33 0.36 0.37 0.41 0.44 0.44 0.46 0.46 0.45 0.43 0.44 0.40 0.36 0.31 0.25 0.19 0.14 0.10 0.07 0.06
0.00 0.00 0.00 0.00 0.00 0.00 0.01 0.02 0.03 0.04 0.03 0.04 0.06 0.07 0.13 0.16 0.14 0.13 0.14 0.17 0.21 0.23 0.21 0.24 0.25 0.26 0.26 0.26 0.25 0.24 0.22 0.20 0.19 0.16 0.13 0.10 0.08 0.06 0.04 0.02 0.01 0.01 0.00
0.01 0.01 0.01 0.01 0.01 0.01 0.01 0.00 0.01 0.01 0.01 0.02 0.04 0.06 0.07 0.10 0.09 0.11 0.12 0.11 0.13 0.12 0.12 0.14 0.15 0.16 0.16 0.15 0.13 0.11 0.09 0.07 0.05 0.03 0.03 0.02 0.02 0.01 0.01 0.00 0.00 0.00 0.00
0.00 0.00 0.01 0.01 0.01 0.01 0.02 0.02 0.02 0.02 0.02 0.02 0.03 0.04 0.06 0.07 0.07 0.07 0.08 0.06 0.06 0.06 0.07 0.07 0.08 0.08 0.07 0.06 0.04 0.03 0.02 0.01 0.01 0.01 0.00 0.00 0.00 0.00 0.00 0.00 0.00 0.00 0.00
0.01 0.01 0.01 0.00 0.00 0.00 0.00 0.00 0.00 0.00 0.01 0.02 0.02 0.01 0.03 0.04 0.04 0.05 0.05 0.05 0.06 0.06 0.05 0.04 0.03 0.02 0.01 0.01 0.01 0.01 0.00 0.00 0.00 0.00 0.00 0.00 0.00 0.00 0.00 0.00 0.00 0.00 0.00
0.00 0.00 0.00 0.00 0.00 0.00 0.00 0.00 0.00 0.00 0.00 0.01 0.01 0.02 0.01 0.01 0.01 0.01 0.02 0.02 0.01 0.01 0.01 0.01 0.01 0.01 0.01 0.01 0.01 0.00 0.00 0.00 0.00 0.00 0.00 0.00 0.00 0.00 0.00 0.00 0.00 0.00 0.00
0.00 0.00 0.00 0.00 0.00 0.00 0.00 0.00 0.00 0.00 0.00 0.00 0.00 0.00 0.00 0.00 0.00 0.00 0.00 0.00 0.00 0.00 0.00 0.00 0.00 0.00 0.00 0.00 0.00 0.00 0.00 0.00 0.00 0.00 0.00 0.00 0.00 0.00 0.00 0.00 0.00 0.00 0.00
0.00 0.00 0.00 0.00 0.00 0.00 0.00 0.00 0.00 0.00 0.00 0.00 0.00 0.00 0.00 0.00 0.00 0.00 0.00 0.00 0.00 0.00 0.00 0.00 0.00 0.00 0.00 0.00 0.00 0.00 0.00 0.00 0.00 0.00 0.00 0.00 0.00 0.00 0.00 0.00 0.00 0.00 0.00
0.00 0.00 0.00 0.00 0.00 0.00 0.00 0.00 0.00 0.00 0.00 0.00 0.00 0.00 0.00 0.00 0.00 0.00 0.01 0.01 0.01 0.01 0.00 0.00 0.00 0.00 0.00 0.00 0.01 0.00 0.00 0.00 0.00 0.00 0.00 0.00 0.00 0.00 0.00 0.00 0.00 0.00 0.00
0.00 0.00 0.00 0.00 0.00 0.00 0.01 0.01 0.00 0.00 0.00 0.01 0.01 0.00 0.00 0.00 0.01 0.01 0.01 0.01 0.01 0.01 0.00 0.00 0.00 0.00 0.00 0.00 0.00 0.00 0.00 0.00 0.00 0.00 0.00 0.00 0.00 0.00 0.00 0.00 0.00 0.00 0.00
0.00 0.00 0.00 0.00 0.01 0.01 0.01 0.00 0.01 0.01 0.01 0.01 0.01 0.01 0.00 0.01 0.00 0.01 0.01 0.00 0.00 0.00 0.00 0.01 0.00 0.00 0.00 0.00 0.01 0.00 0.00 0.00 0.00 0.00 0.00 0.00 0.00 0.01 0.00 0.00 0.00 0.00 0.00
0.00 0.00 0.00 0.00 0.00 0.01 0.01 0.01 0.01 0.01 0.01 0.01 0.01 0.01 0.01 0.01 0.01 0.00 0.00 0.00 0.00 0.00 0.01 0.01 0.00 0.00 0.00 0.01 0.01 0.00 0.00 0.00 0.00 0.00 0.00 0.00 0.01 0.00 0.00 0.00 0.00 0.00 0.00

GFSGL_prec_precacc24_093.txt.gz
Total_Precipitation_Accumulation
0.61 0.43 0.32 0.18 0.13 0.08 0.03 0.02 0.02 0.02 0.03 0.03 0.05 0.03 0.05 0.17 0.32 0.57 0.78 0.55 0.58 0.54 0.46 0.44 0.34 0.22 0.16 0.09 0.05 0.07 0.07 0.09 0.09 0.04 0.02 0.01 0.00 0.00 0.00 0.00 0.01 0.01 0.01
0.64 0.50 0.39 0.20 0.16 0.07 0.04 0.03 0.02 0.01 0.02 0.02 0.04 0.04 0.02 0.04 0.18 0.44 0.74 0.76 0.56 0.55 0.53 0.42 0.37 0.29 0.22 0.16 0.12 0.12 0.10 0.06 0.09 0.05 0.01 0.01 0.01 0.00 0.00 0.00 0.00 0.00 0.01
0.96 0.63 0.43 0.27 0.12 0.05 0.03 0.04 0.04 0.03 0.02 0.02 0.03 0.04 0.03 0.02 0.08 0.32 0.47 0.65 0.60 0.45 0.51 0.54 0.43 0.32 0.28 0.24 0.18 0.13 0.08 0.06 0.06 0.04 0.01 0.01 0.01 0.01 0.02 0.01 0.00 0.00 0.00
0.79 0.87 0.62 0.27 0.10 0.05 0.02 0.04 0.03 0.04 0.03 0.02 0.02 0.07 0.06 0.02 0.10 0.20 0.28 0.45 0.61 0.58 0.51 0.58 0.52 0.42 0.26 0.21 0.18 0.13 0.11 0.11 0.08 0.05 0.02 0.03 0.05 0.03 0.06 0.03 0.02 0.02 0.03
0.60 1.09 1.05 0.42 0.13 0.06 0.06 0.04 0.03 0.03 0.02 0.02 0.02 0.04 0.07 0.03 0.04 0.10 0.18 0.28 0.50 0.63 0.60 0.56 0.39 0.38 0.37 0.32 0.31 0.25 0.23 0.21 0.19 0.18 0.13 0.10 0.10 0.12 0.14 0.15 0.21 0.18 0.22
0.36 0.68 0.93 0.75 0.15 0.07 0.06 0.06 0.05 0.07 0.08 0.07 0.07 0.07 0.10 0.09 0.17 0.09 0.10 0.10 0.13 0.23 0.29 0.30 0.28 0.25 0.21 0.23 0.22 0.20 0.19 0.17 0.13 0.12 0.13 0.13 0.10 0.08 0.07 0.08 0.10 0.12 0.12
0.36 0.41 0.36 0.50 0.33 0.12 0.07 0.07 0.09 0.09 0.09 0.11 0.14 0.15 0.17 0.18 0.35 0.20 0.20 0.10 0.10 0.11 0.14 0.18 0.17 0.29 0.36 0.14 0.16 0.15 0.12 0.18 0.18 0.17 0.13 0.16 0.25 0.30 0.29 0.24 0.22 0.25 0.27
0.38 0.41 0.45 0.35 0.35 0.15 0.12 0.12 0.14 0.09 0.09 0.10 0.10 0.11 0.11 0.18 0.27 0.24 0.24 0.12 0.09 0.10 0.10 0.13 0.15 0.14 0.27 0.31 0.13 0.14 0.18 0.28 0.40 0.33 0.36 0.46 0.48 0.35 0.29 0.34 0.40 0.44 0.47
0.42 0.53 0.56 0.49 0.41 0.27 0.21 0.16 0.14 0.15 0.14 0.13 0.12 0.09 0.08 0.10 0.21 0.16 0.14 0.03 0.05 0.09 0.15 0.22 0.26 0.13 0.25 0.22 0.08 0.10 0.14 0.31 0.50 0.32 0.22 0.34 0.36 0.25 0.18 0.15 0.26 0.65 0.99
0.40 0.46 0.53 0.62 0.62 0.64 0.51 0.33 0.23 0.20 0.17 0.17 0.19 0.18 0.20 0.10 0.20 0.17 0.13 0.06 0.06 0.05 0.10 0.23 0.43 0.17 0.13 0.09 0.06 0.05 0.18 0.47 0.34 0.29 0.31 0.37 0.33 0.35 0.43 0.29 0.29 0.63 1.03
0.52 0.55 0.59 0.66 0.75 0.69 0.58 0.51 0.45 0.34 0.28 0.24 0.21 0.21 0.20 0.20 0.25 0.24 0.23 0.16 0.17 0.17 0.19 0.20 0.25 0.30 0.12 0.12 0.19 0.16 0.44 0.45 0.41 0.30 0.27 0.33 0.38 0.43 0.50 0.53 0.53 0.55 0.63
0.61 0.54 0.62 0.62 0.70 0.84 0.89 0.79 0.60 0.49 0.41 0.31 0.26 0.24 0.25 0.31 0.33 0.31 0.22 0.17 0.17 0.13 0.18 0.17 0.21 0.20 0.09 0.09 0.16 0.28 0.41 0.43 0.44 0.55 0.62 0.72 0.77 0.78 0.75 0.67 0.60 0.53 0.50
0.58 0.64 0.59 0.57 0.57 0.53 0.55 0.67 0.77 0.75 0.61 0.44 0.28 0.22 0.21 0.21 0.26 0.28 0.28 0.25 0.20 0.15 0.14 0.16 0.16 0.13 0.12 0.15 0.20 0.24 0.28 0.33 0.47 0.55 0.60 0.64 0.61 0.56 0.48 0.43 0.36 0.31 0.26
0.11 0.15 0.20 0.25 0.27 0.28 0.30 0.33 0.35 0.43 0.49 0.55 0.53 0.46 0.38 0.31 0.26 0.22 0.16 0.12 0.11 0.10 0.11 0.12 0.12 0.12 0.14 0.16 0.19 0.23 0.25 0.30 0.34 0.39 0.41 0.40 0.35 0.31 0.26 0.23 0.19 0.16 0.12
0.03 0.05 0.07 0.09 0.12 0.15 0.16 0.16 0.17 0.21 0.18 0.21 0.27 0.29 0.31 0.36 0.38 0.28 0.23 0.20 0.18 0.17 0.14 0.13 0.12 0.12 0.12 0.12 0.13 0.16 0.15 0.13 0.11 0.13 0.13 0.12 0.11 0.10 0.08 0.07 0.05 0.04 0.03
0.01 0.01 0.01 0.01 0.01 0.03 0.04 0.06 0.06 0.06 0.04 0.04 0.05 0.05 0.09 0.11 0.09 0.07 0.07 0.06 0.07 0.07 0.06 0.08 0.09 0.09 0.09 0.09 0.08 0.07 0.06 0.06 0.06 0.06 0.05 0.04 0.04 0.03 0.02 0.01 0.01 0.00 0.00
0.01 0.01 0.01 0.01 0.01 0.01 0.01 0.00 0.02 0.02 0.02 0.02 0.02 0.02 0.02 0.02 0.01 0.01 0.00 0.01 0.01 0.01 0.02 0.03 0.04 0.04 0.04 0.04 0.04 0.03 0.02 0.02 0.01 0.01 0.01 0.01 0.01 0.00 0.00 0.00 0.00 0.00 0.00
0.00 0.00 0.01 0.01 0.01 0.01 0.01 0.02 0.02 0.02 0.01 0.01 0.02 0.02 0.01 0.01 0.01 0.00 0.00 0.00 0.00 0.00 0.01 0.02 0.02 0.02 0.01 0.01 0.01 0.01 0.00 0.00 0.00 0.00 0.00 0.00 0.00 0.00 0.00 0.00 0.00 0.00 0.00
0.01 0.01 0.01 0.00 0.00 0.00 0.00 0.00 0.00 0.00 0.00 0.01 0.01 0.00 0.00 0.00 0.00 0.00 0.00 0.00 0.00 0.00 0.00 0.00 0.00 0.00 0.00 0.00 0.00 0.00 0.00 0.00 0.00 0.00 0.00 0.00 0.00 0.00 0.00 0.00 0.00 0.00 0.00
0.00 0.00 0.00 0.00 0.00 0.00 0.00 0.00 0.00 0.00 0.00 0.00 0.00 0.00 0.00 0.00 0.00 0.00 0.00 0.00 0.00 0.00 0.00 0.00 0.00 0.00 0.00 0.00 0.00 0.00 0.00 0.00 0.00 0.00 0.00 0.00 0.00 0.00 0.00 0.00 0.00 0.00 0.00
0.00 0.00 0.00 0.00 0.00 0.00 0.00 0.00 0.00 0.00 0.00 0.00 0.00 0.00 0.00 0.00 0.00 0.00 0.00 0.00 0.00 0.00 0.00 0.00 0.00 0.00 0.00 0.00 0.00 0.00 0.00 0.00 0.00 0.00 0.00 0.00 0.00 0.00 0.00 0.00 0.00 0.00 0.00
0.00 0.00 0.00 0.00 0.00 0.00 0.00 0.00 0.00 0.00 0.00 0.00 0.00 0.00 0.00 0.00 0.00 0.00 0.00 0.00 0.00 0.00 0.00 0.00 0.00 0.00 0.00 0.00 0.00 0.00 0.00 0.00 0.00 0.00 0.00 0.00 0.00 0.00 0.00 0.00 0.00 0.00 0.00
0.00 0.00 0.00 0.00 0.00 0.00 0.00 0.00 0.00 0.00 0.00 0.00 0.00 0.00 0.00 0.00 0.00 0.00 0.01 0.01 0.01 0.01 0.00 0.00 0.00 0.00 0.00 0.00 0.01 0.00 0.00 0.00 0.00 0.00 0.00 0.00 0.00 0.00 0.00 0.00 0.00 0.00 0.00
0.00 0.00 0.00 0.00 0.00 0.00 0.01 0.01 0.00 0.00 0.00 0.01 0.01 0.00 0.00 0.00 0.01 0.01 0.01 0.01 0.01 0.01 0.00 0.00 0.00 0.00 0.00 0.00 0.00 0.00 0.00 0.00 0.00 0.00 0.00 0.00 0.00 0.00 0.00 0.00 0.00 0.00 0.00
0.00 0.00 0.00 0.00 0.01 0.01 0.01 0.00 0.01 0.01 0.01 0.01 0.01 0.01 0.00 0.01 0.00 0.01 0.01 0.00 0.00 0.00 0.00 0.01 0.00 0.00 0.00 0.00 0.01 0.00 0.00 0.00 0.00 0.00 0.00 0.00 0.00 0.01 0.00 0.00 0.00 0.00 0.00
0.00 0.00 0.00 0.00 0.01 0.01 0.01 0.01 0.01 0.01 0.01 0.01 0.01 0.01 0.01 0.01 0.01 0.00 0.00 0.00 0.00 0.00 0.01 0.01 0.00 0.00 0.00 0.01 0.01 0.00 0.00 0.00 0.00 0.00 0.00 0.00 0.01 0.00 0.00 0.00 0.00 0.00 0.00

GFSGL_prec_precacc24_096.txt.gz
Total_Precipitation_Accumulation
0.70 0.60 0.48 0.29 0.25 0.20 0.18 0.12 0.07 0.04 0.04 0.03 0.06 0.03 0.06 0.18 0.32 0.55 0.78 0.56 0.64 0.71 0.64 0.60 0.46 0.33 0.34 0.26 0.16 0.11 0.10 0.09 0.09 0.10 0.03 0.01 0.01 0.01 0.01 0.01 0.01 0.01 0.01
0.69 0.59 0.49 0.29 0.30 0.18 0.15 0.10 0.05 0.02 0.02 0.02 0.04 0.04 0.02 0.04 0.18 0.44 0.74 0.78 0.62 0.65 0.72 0.67 0.62 0.44 0.37 0.33 0.22 0.18 0.13 0.11 0.09 0.11 0.08 0.03 0.02 0.02 0.02 0.01 0.01 0.01 0.01
1.04 0.73 0.61 0.46 0.28 0.13 0.09 0.05 0.04 0.03 0.02 0.02 0.03 0.04 0.03 0.02 0.08 0.32 0.47 0.71 0.74 0.65 0.65 0.74 0.60 0.50 0.46 0.34 0.22 0.19 0.14 0.13 0.14 0.09 0.06 0.05 0.04 0.03 0.03 0.01 0.01 0.01 0.00
0.89 0.97 0.76 0.63 0.41 0.14 0.05 0.04 0.04 0.04 0.03 0.02 0.02 0.07 0.06 0.02 0.10 0.20 0.28 0.47 0.70 0.78 0.73 0.71 0.73 0.61 0.47 0.34 0.25 0.20 0.20 0.20 0.17 0.13 0.07 0.07 0.08 0.06 0.09 0.05 0.04 0.03 0.04
0.66 1.17 1.25 0.84 0.59 0.45 0.12 0.04 0.03 0.03 0.02 0.02 0.02 0.04 0.07 0.03 0.04 0.11 0.22 0.31 0.54 0.76 0.80 0.80 0.64 0.69 0.63 0.55 0.46 0.34 0.30 0.28 0.27 0.25 0.19 0.16 0.16 0.19 0.20 0.21 0.26 0.21 0.24
0.42 0.78 1.16 1.62 0.80 0.64 0.46 0.08 0.05 0.06 0.05 0.05 0.07 0.06 0.09 0.08 0.17 0.10 0.12 0.14 0.18 0.31 0.44 0.52 0.60 0.55 0.47 0.52 0.45 0.40 0.33 0.29 0.25 0.22 0.21 0.20 0.17 0.16 0.15 0.15 0.17 0.18 0.17
0.44 0.71 0.81 0.89 1.29 0.83 0.58 0.14 0.09 0.07 0.07 0.08 0.11 0.13 0.15 0.16 0.29 0.15 0.16 0.09 0.14 0.12 0.19 0.30 0.37 0.62 0.62 0.32 0.38 0.37 0.34 0.38 0.34 0.29 0.21 0.22 0.29 0.32 0.31 0.25 0.23 0.25 0.27
0.42 0.53 0.64 0.51 0.86 0.98 0.51 0.21 0.16 0.10 0.08 0.08 0.08 0.08 0.08 0.13 0.18 0.15 0.17 0.05 0.11 0.15 0.13 0.13 0.19 0.25 0.46 0.49 0.32 0.36 0.34 0.38 0.48 0.39 0.39 0.49 0.48 0.35 0.29 0.34 0.41 0.46 0.51
0.47 0.62 0.74 0.78 0.80 0.74 0.64 0.36 0.23 0.19 0.15 0.13 0.11 0.08 0.06 0.08 0.15 0.14 0.14 0.02 0.04 0.10 0.13 0.21 0.22 0.11 0.30 0.30 0.14 0.16 0.20 0.35 0.52 0.34 0.22 0.30 0.33 0.24 0.17 0.15 0.25 0.59 0.85
0.44 0.49 0.58 0.77 0.90 0.90 0.80 0.63 0.39 0.29 0.23 0.20 0.21 0.19 0.20 0.10 0.18 0.17 0.15 0.06 0.08 0.05 0.07 0.16 0.27 0.15 0.16 0.09 0.04 0.04 0.14 0.39 0.34 0.33 0.32 0.32 0.30 0.31 0.34 0.24 0.25 0.50 0.81
0.54 0.57 0.60 0.68 0.81 0.83 0.73 0.69 0.60 0.49 0.37 0.29 0.26 0.25 0.22 0.23 0.26 0.25 0.25 0.17 0.19 0.17 0.14 0.14 0.20 0.22 0.13 0.12 0.10 0.07 0.17 0.21 0.27 0.22 0.21 0.24 0.23 0.24 0.28 0.33 0.35 0.38 0.44
0.61 0.55 0.62 0.62 0.71 0.87 0.94 0.87 0.70 0.62 0.54 0.45 0.38 0.35 0.36 0.43 0.43 0.39 0.29 0.23 0.21 0.15 0.19 0.17 0.19 0.17 0.12 0.10 0.08 0.11 0.14 0.13 0.12 0.15 0.19 0.23 0.26 0.29 0.32 0.28 0.23 0.18 0.18
0.58 0.64 0.59 0.57 0.57 0.54 0.56 0.69 0.79 0.81 0.70 0.58 0.46 0.41 0.41 0.41 0.43 0.42 0.41 0.37 0.31 0.23 0.22 0.21 0.19 0.12 0.06 0.05 0.04 0.03 0.03 0.03 0.06 0.09 0.15 0.18 0.20 0.18 0.15 0.13 0.10 0.07 0.05
0.11 0.15 0.20 0.25 0.28 0.29 0.30 0.34 0.37 0.46 0.53 0.60 0.59 0.53 0.48 0.41 0.38 0.35 0.30 0.25 0.22 0.21 0.19 0.15 0.10 0.06 0.04 0.04 0.02 0.02 0.03 0.04 0.05 0.06 0.07 0.08 0.07 0.06 0.05 0.05 0.04 0.02 0.01
0.03 0.05 0.07 0.10 0.12 0.15 0.16 0.17 0.18 0.23 0.21 0.24 0.30 0.33 0.36 0.41 0.45 0.37 0.31 0.27 0.25 0.23 0.21 0.20 0.19 0.17 0.15 0.12 0.09 0.07 0.05 0.04 0.04 0.04 0.05 0.04 0.03 0.02 0.02 0.01 0.01 0.00 0.00
0.01 0.01 0.01 0.01 0.02 0.03 0.04 0.06 0.07 0.08 0.06 0.06 0.08 0.08 0.12 0.15 0.13 0.11 0.10 0.09 0.08 0.07 0.06 0.08 0.09 0.08 0.07 0.06 0.05 0.05 0.04 0.04 0.03 0.03 0.02 0.02 0.01 0.01 0.01 0.00 0.00 0.00 0.00
0.01 0.01 0.01 0.01 0.01 0.02 0.01 0.00 0.02 0.03 0.02 0.03 0.02 0.02 0.02 0.02 0.01 0.00 0.00 0.00 0.00 0.00 0.01 0.01 0.02 0.02 0.02 0.02 0.02 0.01 0.02 0.02 0.02 0.02 0.02 0.01 0.01 0.00 0.00 0.00 0.00 0.00 0.00
0.00 0.00 0.00 0.01 0.01 0.01 0.01 0.01 0.02 0.02 0.02 0.01 0.02 0.01 0.01 0.00 0.00 0.00 0.00 0.00 0.00 0.00 0.00 0.00 0.00 0.00 0.00 0.00 0.00 0.00 0.00 0.00 0.00 0.00 0.00 0.00 0.00 0.00 0.00 0.00 0.00 0.00 0.00
0.01 0.01 0.01 0.00 0.00 0.00 0.00 0.00 0.00 0.00 0.00 0.01 0.01 0.00 0.00 0.00 0.00 0.00 0.00 0.00 0.00 0.00 0.00 0.00 0.00 0.00 0.00 0.00 0.00 0.00 0.00 0.00 0.00 0.00 0.00 0.00 0.00 0.00 0.00 0.00 0.00 0.00 0.00
0.00 0.00 0.00 0.00 0.00 0.00 0.00 0.00 0.00 0.00 0.00 0.00 0.00 0.00 0.00 0.00 0.00 0.00 0.00 0.00 0.00 0.00 0.00 0.00 0.00 0.00 0.00 0.00 0.00 0.00 0.00 0.00 0.00 0.00 0.00 0.00 0.00 0.00 0.00 0.00 0.00 0.00 0.00
0.00 0.00 0.00 0.00 0.00 0.00 0.00 0.00 0.00 0.00 0.00 0.00 0.00 0.00 0.00 0.00 0.00 0.00 0.00 0.00 0.00 0.00 0.00 0.00 0.00 0.00 0.00 0.00 0.00 0.00 0.00 0.00 0.00 0.00 0.00 0.00 0.00 0.00 0.00 0.00 0.00 0.00 0.00
0.00 0.00 0.00 0.00 0.00 0.00 0.00 0.00 0.00 0.00 0.00 0.00 0.00 0.00 0.00 0.00 0.00 0.00 0.00 0.00 0.00 0.00 0.00 0.00 0.00 0.00 0.00 0.00 0.00 0.00 0.00 0.00 0.00 0.00 0.00 0.00 0.00 0.00 0.00 0.00 0.00 0.00 0.00
0.00 0.00 0.00 0.00 0.00 0.00 0.00 0.00 0.00 0.00 0.00 0.00 0.00 0.00 0.00 0.00 0.00 0.00 0.00 0.01 0.01 0.01 0.00 0.00 0.00 0.00 0.00 0.00 0.01 0.00 0.00 0.00 0.00 0.00 0.00 0.00 0.00 0.00 0.00 0.00 0.00 0.00 0.00
0.00 0.00 0.00 0.00 0.00 0.00 0.01 0.01 0.00 0.00 0.00 0.01 0.01 0.00 0.00 0.00 0.01 0.00 0.00 0.00 0.00 0.01 0.00 0.00 0.00 0.00 0.00 0.00 0.00 0.00 0.00 0.00 0.00 0.00 0.00 0.00 0.00 0.00 0.00 0.00 0.00 0.00 0.00
0.00 0.00 0.00 0.00 0.01 0.01 0.01 0.01 0.01 0.01 0.01 0.01 0.01 0.01 0.00 0.01 0.00 0.01 0.01 0.00 0.00 0.00 0.00 0.01 0.00 0.00 0.00 0.00 0.01 0.00 0.00 0.00 0.00 0.00 0.00 0.00 0.00 0.01 0.00 0.00 0.00 0.00 0.00
0.00 0.00 0.00 0.01 0.01 0.02 0.02 0.02 0.02 0.01 0.01 0.01 0.01 0.01 0.01 0.01 0.01 0.00 0.00 0.00 0.00 0.00 0.00 0.01 0.00 0.00 0.00 0.01 0.01 0.00 0.00 0.00 0.00 0.00 0.00 0.00 0.01 0.00 0.00 0.00 0.00 0.00 0.00

GFSGL_prec_precacc24_099.txt.gz
Total_Precipitation_Accumulation
0.83 0.76 0.62 0.41 0.30 0.23 0.22 0.16 0.24 0.18 0.19 0.07 0.07 0.04 0.06 0.18 0.33 0.55 0.71 0.53 0.63 0.71 0.64 0.61 0.46 0.33 0.32 0.26 0.20 0.17 0.15 0.14 0.14 0.14 0.04 0.01 0.01 0.01 0.01 0.01 0.01 0.01 0.01
0.77 0.69 0.53 0.40 0.43 0.22 0.17 0.13 0.08 0.07 0.05 0.03 0.05 0.05 0.03 0.05 0.19 0.45 0.74 0.74 0.59 0.62 0.72 0.73 0.71 0.50 0.39 0.36 0.32 0.27 0.18 0.15 0.12 0.13 0.10 0.03 0.02 0.02 0.02 0.03 0.02 0.01 0.01
1.09 0.82 0.66 0.51 0.36 0.22 0.14 0.11 0.08 0.04 0.03 0.02 0.04 0.05 0.03 0.02 0.08 0.32 0.47 0.71 0.74 0.65 0.67 0.78 0.70 0.62 0.52 0.39 0.32 0.31 0.25 0.19 0.16 0.12 0.11 0.06 0.04 0.04 0.03 0.03 0.03 0.02 0.01
0.92 1.02 0.80 0.70 0.54 0.28 0.17 0.12 0.08 0.05 0.03 0.02 0.02 0.07 0.06 0.02 0.11 0.21 0.29 0.47 0.70 0.78 0.76 0.80 0.84 0.72 0.55 0.42 0.35 0.31 0.31 0.28 0.21 0.20 0.13 0.11 0.09 0.08 0.11 0.08 0.06 0.05 0.05
0.79 1.25 1.29 0.88 0.67 0.66 0.53 0.30 0.08 0.04 0.02 0.02 0.02 0.04 0.07 0.03 0.05 0.11 0.22 0.31 0.55 0.76 0.82 0.84 0.73 0.81 0.78 0.67 0.56 0.49 0.45 0.38 0.33 0.32 0.26 0.20 0.19 0.23 0.26 0.29 0.34 0.26 0.29
0.57 0.87 1.19 1.67 0.97 0.93 1.01 0.96 0.41 0.09 0.06 0.05 0.05 0.05 0.07 0.05 0.13 0.09 0.11 0.15 0.20 0.33 0.46 0.58 0.76 0.76 0.73 0.78 0.73 0.64 0.57 0.42 0.32 0.28 0.29 0.28 0.22 0.21 0.24 0.30 0.31 0.30 0.27
0.45 0.76 0.86 1.00 1.41 1.00 1.07 1.06 1.02 0.27 0.08 0.08 0.08 0.09 0.10 0.09 0.18 0.12 0.13 0.08 0.14 0.14 0.20 0.33 0.47 0.87 0.97 0.61 0.71 0.72 0.67 0.64 0.49 0.42 0.32 0.32 0.36 0.39 0.40 0.38 0.34 0.34 0.35
0.43 0.58 0.70 0.57 0.99 1.27 0.94 0.88 0.80 0.36 0.12 0.10 0.08 0.07 0.06 0.10 0.15 0.15 0.17 0.05 0.12 0.16 0.14 0.15 0.22 0.35 0.76 0.82 0.61 0.67 0.66 0.68 0.74 0.56 0.52 0.59 0.57 0.40 0.32 0.39 0.44 0.47 0.50
0.51 0.65 0.77 0.84 0.89 0.99 1.20 0.95 0.79 0.50 0.21 0.15 0.12 0.08 0.06 0.08 0.15 0.16 0.15 0.03 0.05 0.11 0.16 0.16 0.15 0.10 0.30 0.41 0.28 0.29 0.34 0.47 0.56 0.44 0.31 0.29 0.29 0.26 0.22 0.18 0.24 0.44 0.62
0.47 0.53 0.63 0.81 0.97 1.12 1.22 1.20 0.99 0.75 0.40 0.27 0.24 0.20 0.21 0.11 0.19 0.19 0.16 0.06 0.09 0.06 0.06 0.13 0.20 0.15 0.19 0.15 0.11 0.13 0.17 0.26 0.29 0.31 0.28 0.26 0.24 0.25 0.27 0.19 0.20 0.26 0.38
0.56 0.59 0.61 0.69 0.83 0.93 0.96 0.99 1.06 0.97 0.73 0.46 0.38 0.33 0.28 0.28 0.28 0.27 0.27 0.18 0.20 0.18 0.15 0.15 0.20 0.21 0.14 0.14 0.12 0.08 0.12 0.11 0.16 0.11 0.12 0.13 0.11 0.08 0.08 0.09 0.10 0.10 0.12
0.62 0.55 0.62 0.62 0.72 0.87 0.95 0.94 0.83 0.80 0.84 0.76 0.55 0.51 0.47 0.52 0.52 0.45 0.33 0.26 0.24 0.17 0.21 0.19 0.23 0.21 0.16 0.13 0.09 0.12 0.09 0.04 0.02 0.02 0.03 0.03 0.04 0.05 0.06 0.05 0.03 0.02 0.03
0.58 0.64 0.59 0.57 0.57 0.54 0.56 0.69 0.79 0.81 0.71 0.62 0.55 0.49 0.50 0.51 0.55 0.52 0.50 0.45 0.38 0.27 0.27 0.29 0.28 0.18 0.11 0.10 0.09 0.05 0.01 0.00 0.01 0.01 0.01 0.03 0.03 0.03 0.02 0.02 0.01 0.01 0.00
0.11 0.15 0.20 0.25 0.28 0.29 0.30 0.34 0.36 0.45 0.53 0.60 0.60 0.55 0.51 0.46 0.44 0.42 0.36 0.31 0.28 0.27 0.28 0.23 0.18 0.13 0.10 0.09 0.06 0.03 0.02 0.01 0.01 0.02 0.03 0.02 0.02 0.01 0.01 0.00 0.00 0.00 0.00
0.03 0.05 0.07 0.10 0.13 0.15 0.16 0.18 0.18 0.23 0.21 0.23 0.31 0.33 0.36 0.41 0.47 0.39 0.34 0.30 0.28 0.27 0.25 0.26 0.25 0.23 0.21 0.19 0.16 0.13 0.10 0.08 0.07 0.06 0.05 0.04 0.04 0.03 0.02 0.02 0.01 0.01 0.01
0.01 0.01 0.01 0.01 0.02 0.03 0.04 0.06 0.07 0.09 0.06 0.06 0.07 0.08 0.12 0.14 0.13 0.12 0.11 0.10 0.09 0.08 0.07 0.10 0.11 0.11 0.10 0.09 0.08 0.08 0.07 0.06 0.05 0.04 0.03 0.02 0.02 0.01 0.01 0.01 0.00 0.00 0.00
0.01 0.01 0.01 0.01 0.01 0.02 0.01 0.00 0.02 0.03 0.03 0.04 0.03 0.02 0.02 0.02 0.00 0.00 0.00 0.00 0.00 0.00 0.01 0.01 0.02 0.02 0.02 0.02 0.03 0.03 0.04 0.04 0.04 0.03 0.03 0.02 0.02 0.01 0.01 0.01 0.00 0.00 0.00
0.00 0.00 0.00 0.01 0.01 0.01 0.01 0.01 0.02 0.02 0.02 0.02 0.02 0.01 0.01 0.00 0.00 0.00 0.00 0.00 0.00 0.00 0.00 0.00 0.00 0.00 0.00 0.00 0.00 0.00 0.00 0.00 0.00 0.00 0.00 0.00 0.00 0.00 0.00 0.00 0.00 0.00 0.00
0.01 0.01 0.01 0.00 0.00 0.00 0.00 0.00 0.00 0.00 0.00 0.01 0.01 0.00 0.00 0.00 0.00 0.00 0.00 0.00 0.00 0.00 0.00 0.00 0.00 0.00 0.00 0.00 0.00 0.00 0.00 0.00 0.00 0.00 0.00 0.00 0.00 0.00 0.00 0.00 0.00 0.00 0.00
0.00 0.00 0.00 0.00 0.00 0.00 0.00 0.00 0.00 0.00 0.00 0.00 0.00 0.00 0.00 0.00 0.00 0.00 0.00 0.00 0.00 0.00 0.00 0.00 0.00 0.00 0.00 0.00 0.00 0.00 0.00 0.00 0.00 0.00 0.00 0.00 0.00 0.00 0.00 0.00 0.00 0.00 0.00
0.00 0.00 0.00 0.00 0.00 0.00 0.00 0.00 0.00 0.00 0.00 0.00 0.00 0.00 0.00 0.00 0.00 0.00 0.00 0.00 0.00 0.00 0.00 0.00 0.00 0.00 0.00 0.00 0.00 0.00 0.00 0.00 0.00 0.00 0.00 0.00 0.00 0.00 0.00 0.00 0.00 0.00 0.00
0.00 0.00 0.00 0.00 0.00 0.00 0.00 0.00 0.00 0.00 0.00 0.00 0.00 0.00 0.00 0.00 0.00 0.00 0.00 0.00 0.00 0.00 0.00 0.00 0.00 0.00 0.00 0.00 0.00 0.00 0.00 0.00 0.00 0.00 0.00 0.00 0.00 0.00 0.00 0.00 0.00 0.00 0.00
0.00 0.00 0.00 0.00 0.00 0.00 0.00 0.00 0.00 0.00 0.00 0.00 0.00 0.00 0.00 0.00 0.00 0.00 0.00 0.01 0.01 0.01 0.00 0.00 0.00 0.00 0.00 0.00 0.01 0.00 0.00 0.00 0.00 0.00 0.00 0.00 0.00 0.00 0.00 0.00 0.00 0.00 0.00
0.00 0.00 0.00 0.00 0.00 0.00 0.01 0.01 0.00 0.00 0.00 0.01 0.01 0.00 0.00 0.00 0.01 0.00 0.00 0.00 0.00 0.01 0.00 0.00 0.00 0.00 0.00 0.00 0.00 0.00 0.00 0.00 0.00 0.00 0.00 0.00 0.00 0.00 0.00 0.00 0.00 0.00 0.00
0.00 0.00 0.00 0.01 0.01 0.01 0.02 0.01 0.02 0.02 0.02 0.01 0.01 0.01 0.00 0.01 0.00 0.01 0.01 0.00 0.00 0.00 0.00 0.01 0.00 0.00 0.00 0.00 0.01 0.00 0.00 0.00 0.00 0.00 0.00 0.00 0.00 0.01 0.00 0.00 0.00 0.00 0.00
0.00 0.00 0.00 0.01 0.01 0.02 0.02 0.03 0.03 0.02 0.02 0.02 0.02 0.01 0.01 0.01 0.01 0.00 0.00 0.00 0.00 0.00 0.00 0.01 0.00 0.00 0.00 0.01 0.01 0.00 0.00 0.00 0.00 0.00 0.00 0.00 0.01 0.00 0.00 0.00 0.00 0.00 0.00

GFSGL_prec_precacc24_102.txt.gz
Total_Precipitation_Accumulation
0.93 0.88 0.70 0.47 0.36 0.27 0.27 0.21 0.28 0.21 0.23 0.15 0.15 0.13 0.20 0.31 0.41 0.59 0.71 0.48 0.60 0.72 0.66 0.62 0.47 0.33 0.33 0.27 0.21 0.19 0.15 0.14 0.17 0.20 0.11 0.09 0.07 0.04 0.03 0.01 0.01 0.01 0.01
0.86 0.86 0.73 0.56 0.58 0.37 0.27 0.23 0.18 0.14 0.10 0.08 0.10 0.13 0.09 0.10 0.20 0.45 0.74 0.72 0.57 0.60 0.72 0.73 0.72 0.50 0.39 0.37 0.31 0.28 0.20 0.16 0.12 0.16 0.17 0.11 0.07 0.05 0.07 0.06 0.05 0.02 0.01
1.15 0.96 0.76 0.58 0.53 0.44 0.36 0.26 0.22 0.07 0.03 0.03 0.04 0.06 0.07 0.05 0.09 0.32 0.48 0.71 0.74 0.65 0.67 0.77 0.70 0.63 0.55 0.44 0.37 0.35 0.30 0.23 0.19 0.13 0.14 0.10 0.06 0.06 0.08 0.05 0.04 0.02 0.01
0.98 1.05 0.98 0.88 0.72 0.43 0.34 0.25 0.16 0.10 0.03 0.02 0.03 0.08 0.07 0.03 0.11 0.20 0.28 0.47 0.70 0.79 0.77 0.80 0.84 0.73 0.56 0.44 0.38 0.36 0.37 0.35 0.29 0.24 0.16 0.13 0.12 0.12 0.12 0.07 0.06 0.04 0.06
1.09 1.41 1.32 1.02 0.84 0.81 0.64 0.42 0.19 0.07 0.03 0.03 0.02 0.04 0.07 0.03 0.05 0.11 0.22 0.31 0.55 0.76 0.82 0.84 0.73 0.82 0.81 0.77 0.63 0.52 0.48 0.43 0.41 0.39 0.31 0.25 0.22 0.24 0.28 0.29 0.33 0.25 0.30
0.60 0.96 1.32 1.73 0.99 0.94 1.09 1.06 0.66 0.22 0.11 0.06 0.05 0.04 0.06 0.04 0.12 0.09 0.11 0.14 0.20 0.33 0.45 0.58 0.76 0.77 0.76 0.85 0.87 0.78 0.67 0.55 0.42 0.35 0.32 0.30 0.25 0.23 0.26 0.31 0.32 0.31 0.31
0.45 0.86 1.00 1.16 1.51 1.09 1.22 1.34 1.46 1.01 0.52 0.23 0.10 0.08 0.07 0.06 0.13 0.11 0.12 0.07 0.12 0.10 0.16 0.30 0.44 0.85 0.97 0.70 0.82 0.81 0.82 0.83 0.68 0.55 0.41 0.37 0.38 0.41 0.43 0.44 0.40 0.40 0.41
0.44 0.58 0.73 0.62 1.04 1.32 0.97 0.98 1.05 1.03 0.87 0.52 0.19 0.09 0.06 0.09 0.14 0.15 0.18 0.06 0.12 0.16 0.12 0.12 0.19 0.34 0.76 0.85 0.74 0.82 0.88 0.86 0.93 0.71 0.60 0.66 0.59 0.48 0.42 0.42 0.47 0.49 0.51
0.53 0.68 0.81 0.89 0.91 1.03 1.26 1.08 1.06 0.91 0.77 0.53 0.27 0.12 0.07 0.08 0.16 0.16 0.16 0.03 0.05 0.10 0.15 0.16 0.15 0.10 0.28 0.42 0.38 0.45 0.53 0.61 0.68 0.64 0.53 0.46 0.46 0.45 0.39 0.32 0.31 0.31 0.36
0.47 0.56 0.67 0.85 1.00 1.17 1.35 1.43 1.33 1.19 0.94 0.73 0.45 0.24 0.23 0.11 0.19 0.20 0.18 0.07 0.10 0.07 0.06 0.14 0.24 0.18 0.22 0.17 0.15 0.19 0.23 0.29 0.33 0.38 0.37 0.36 0.29 0.28 0.28 0.17 0.18 0.18 0.19
0.56 0.58 0.61 0.69 0.85 0.96 1.04 1.21 1.40 1.47 1.32 0.96 0.74 0.52 0.38 0.32 0.30 0.29 0.29 0.19 0.21 0.18 0.15 0.16 0.21 0.23 0.15 0.16 0.15 0.13 0.21 0.19 0.21 0.16 0.18 0.20 0.19 0.17 0.15 0.14 0.10 0.08 0.09
0.62 0.55 0.62 0.62 0.72 0.88 0.96 0.97 0.93 1.00 1.21 1.27 1.01 0.84 0.72 0.70 0.65 0.56 0.41 0.32 0.28 0.18 0.22 0.19 0.25 0.22 0.18 0.15 0.13 0.18 0.15 0.07 0.04 0.05 0.05 0.06 0.07 0.09 0.11 0.13 0.12 0.08 0.05
0.58 0.64 0.59 0.57 0.58 0.54 0.56 0.69 0.80 0.83 0.75 0.71 0.73 0.74 0.74 0.72 0.74 0.69 0.63 0.57 0.48 0.35 0.35 0.36 0.32 0.19 0.12 0.12 0.13 0.08 0.03 0.01 0.01 0.02 0.02 0.03 0.04 0.04 0.05 0.06 0.07 0.09 0.08
0.11 0.15 0.20 0.25 0.28 0.29 0.30 0.34 0.37 0.46 0.53 0.62 0.61 0.57 0.56 0.51 0.49 0.48 0.44 0.40 0.39 0.37 0.37 0.31 0.23 0.17 0.13 0.12 0.10 0.10 0.08 0.06 0.05 0.06 0.06 0.05 0.04 0.05 0.05 0.05 0.05 0.05 0.06
0.03 0.05 0.07 0.10 0.12 0.15 0.16 0.18 0.18 0.24 0.21 0.24 0.31 0.34 0.37 0.42 0.49 0.42 0.36 0.33 0.31 0.31 0.31 0.31 0.30 0.28 0.25 0.23 0.19 0.18 0.15 0.12 0.12 0.12 0.10 0.08 0.07 0.05 0.04 0.03 0.03 0.02 0.02
0.01 0.01 0.01 0.01 0.02 0.03 0.03 0.06 0.07 0.09 0.06 0.05 0.07 0.08 0.12 0.14 0.13 0.12 0.11 0.10 0.10 0.10 0.09 0.11 0.13 0.14 0.13 0.12 0.11 0.10 0.09 0.08 0.07 0.06 0.05 0.04 0.04 0.03 0.02 0.01 0.01 0.01 0.01
0.01 0.01 0.01 0.01 0.01 0.02 0.01 0.01 0.02 0.03 0.02 0.04 0.03 0.02 0.02 0.02 0.00 0.00 0.00 0.00 0.00 0.00 0.01 0.01 0.02 0.02 0.02 0.03 0.03 0.03 0.04 0.04 0.04 0.04 0.03 0.03 0.02 0.02 0.02 0.01 0.01 0.00 0.00
0.00 0.00 0.00 0.01 0.01 0.01 0.01 0.01 0.02 0.02 0.02 0.01 0.02 0.01 0.00 0.00 0.00 0.00 0.00 0.00 0.00 0.00 0.00 0.00 0.00 0.00 0.00 0.00 0.00 0.00 0.00 0.00 0.00 0.00 0.00 0.00 0.00 0.00 0.00 0.00 0.00 0.00 0.00
0.01 0.01 0.01 0.00 0.00 0.00 0.00 0.00 0.00 0.00 0.00 0.01 0.01 0.00 0.00 0.00 0.00 0.00 0.00 0.00 0.00 0.00 0.00 0.00 0.00 0.00 0.00 0.00 0.00 0.00 0.00 0.00 0.00 0.00 0.00 0.00 0.00 0.00 0.00 0.00 0.00 0.00 0.00
0.00 0.00 0.00 0.00 0.00 0.00 0.00 0.00 0.00 0.00 0.00 0.00 0.00 0.00 0.00 0.00 0.00 0.00 0.00 0.00 0.00 0.00 0.00 0.00 0.00 0.00 0.00 0.00 0.00 0.00 0.00 0.00 0.00 0.00 0.00 0.00 0.00 0.00 0.00 0.00 0.00 0.00 0.00
0.00 0.00 0.00 0.00 0.00 0.00 0.00 0.00 0.00 0.00 0.00 0.00 0.00 0.00 0.00 0.00 0.00 0.00 0.00 0.00 0.00 0.00 0.00 0.00 0.00 0.00 0.00 0.00 0.00 0.00 0.00 0.00 0.00 0.00 0.00 0.00 0.00 0.00 0.00 0.00 0.00 0.00 0.00
0.00 0.00 0.00 0.00 0.00 0.00 0.00 0.00 0.00 0.00 0.00 0.00 0.00 0.00 0.00 0.00 0.00 0.00 0.00 0.01 0.00 0.00 0.00 0.01 0.00 0.00 0.00 0.00 0.00 0.00 0.00 0.00 0.00 0.00 0.00 0.00 0.00 0.00 0.00 0.00 0.00 0.00 0.00
0.00 0.00 0.00 0.00 0.00 0.00 0.00 0.00 0.00 0.01 0.00 0.00 0.00 0.00 0.00 0.00 0.00 0.00 0.00 0.01 0.01 0.01 0.00 0.00 0.00 0.00 0.00 0.00 0.01 0.00 0.00 0.00 0.00 0.00 0.00 0.00 0.00 0.00 0.00 0.00 0.00 0.00 0.00
0.00 0.00 0.00 0.00 0.00 0.01 0.01 0.01 0.01 0.00 0.00 0.01 0.01 0.01 0.00 0.00 0.01 0.00 0.00 0.00 0.00 0.01 0.00 0.00 0.00 0.00 0.00 0.00 0.00 0.00 0.00 0.00 0.00 0.00 0.00 0.00 0.00 0.00 0.00 0.00 0.00 0.00 0.00
0.00 0.00 0.00 0.01 0.01 0.01 0.02 0.02 0.02 0.02 0.02 0.02 0.01 0.01 0.01 0.01 0.01 0.01 0.01 0.00 0.00 0.00 0.00 0.00 0.00 0.00 0.00 0.00 0.00 0.00 0.00 0.00 0.00 0.00 0.00 0.00 0.00 0.01 0.00 0.00 0.00 0.00 0.00
0.00 0.00 0.01 0.01 0.01 0.02 0.02 0.03 0.03 0.03 0.03 0.03 0.03 0.02 0.02 0.02 0.02 0.01 0.01 0.00 0.00 0.00 0.00 0.01 0.01 0.00 0.00 0.00 0.00 0.00 0.00 0.00 0.00 0.00 0.00 0.00 0.01 0.00 0.00 0.00 0.00 0.00 0.00

GFSGL_prec_precacc24_105.txt.gz
Total_Precipitation_Accumulation
0.91 0.89 0.73 0.52 0.47 0.39 0.39 0.33 0.35 0.24 0.27 0.20 0.18 0.15 0.19 0.31 0.58 0.85 0.94 0.67 0.66 0.72 0.66 0.62 0.48 0.35 0.35 0.28 0.22 0.20 0.16 0.15 0.17 0.21 0.11 0.09 0.09 0.08 0.07 0.05 0.03 0.03 0.02
0.82 0.86 0.75 0.62 0.64 0.46 0.36 0.35 0.24 0.18 0.19 0.17 0.08 0.11 0.09 0.15 0.34 0.95 1.23 1.11 0.68 0.61 0.72 0.73 0.73 0.53 0.41 0.38 0.33 0.30 0.23 0.19 0.15 0.17 0.17 0.12 0.09 0.07 0.12 0.15 0.16 0.11 0.02
1.11 0.95 0.78 0.63 0.62 0.53 0.47 0.39 0.33 0.16 0.08 0.10 0.06 0.06 0.06 0.06 0.12 0.38 0.77 0.99 0.83 0.67 0.66 0.77 0.71 0.65 0.56 0.45 0.38 0.36 0.31 0.26 0.30 0.22 0.18 0.11 0.09 0.09 0.19 0.27 0.19 0.07 0.01
1.18 1.19 1.06 0.98 0.84 0.60 0.51 0.48 0.39 0.32 0.09 0.08 0.07 0.09 0.07 0.04 0.14 0.23 0.30 0.50 0.72 0.79 0.78 0.81 0.85 0.75 0.57 0.44 0.38 0.37 0.39 0.39 0.31 0.25 0.21 0.18 0.15 0.15 0.18 0.13 0.08 0.06 0.07
1.15 1.65 1.55 1.18 1.10 1.19 1.26 0.99 0.44 0.40 0.20 0.10 0.06 0.04 0.07 0.03 0.05 0.11 0.21 0.30 0.52 0.74 0.80 0.82 0.68 0.77 0.76 0.72 0.57 0.47 0.42 0.40 0.41 0.38 0.34 0.32 0.29 0.29 0.31 0.31 0.34 0.28 0.33
0.60 0.98 1.40 1.79 1.07 1.07 1.31 1.41 0.90 0.49 0.38 0.13 0.09 0.07 0.06 0.04 0.11 0.10 0.12 0.15 0.20 0.33 0.46 0.58 0.76 0.77 0.75 0.84 0.89 0.85 0.73 0.60 0.51 0.41 0.36 0.34 0.31 0.26 0.28 0.32 0.33 0.32 0.33
0.46 0.86 1.02 1.29 1.67 1.20 1.28 1.43 1.63 1.16 0.78 0.57 0.23 0.11 0.08 0.06 0.12 0.11 0.14 0.08 0.13 0.10 0.16 0.29 0.43 0.83 0.90 0.70 0.84 0.87 0.94 0.99 0.77 0.62 0.48 0.38 0.33 0.35 0.39 0.42 0.40 0.41 0.40
0.45 0.60 0.74 0.69 1.17 1.45 1.06 1.01 1.09 1.21 1.21 1.01 0.49 0.22 0.10 0.09 0.14 0.15 0.18 0.05 0.12 0.16 0.12 0.12 0.19 0.33 0.73 0.82 0.75 0.91 0.97 0.95 1.03 0.82 0.69 0.69 0.56 0.48 0.41 0.34 0.34 0.37 0.43
0.53 0.71 0.85 0.91 0.93 1.03 1.27 1.08 1.08 0.96 0.94 1.00 0.88 0.54 0.30 0.18 0.24 0.21 0.17 0.03 0.05 0.10 0.15 0.17 0.15 0.10 0.28 0.42 0.38 0.47 0.62 0.79 0.87 0.85 0.74 0.63 0.65 0.67 0.58 0.44 0.42 0.34 0.35
0.49 0.60 0.71 0.87 1.02 1.18 1.37 1.49 1.44 1.35 1.10 0.94 0.87 0.72 0.61 0.32 0.33 0.26 0.20 0.07 0.11 0.08 0.08 0.15 0.26 0.19 0.24 0.18 0.15 0.20 0.27 0.39 0.51 0.56 0.51 0.51 0.47 0.47 0.49 0.37 0.37 0.35 0.31
0.56 0.58 0.61 0.69 0.85 0.97 1.06 1.27 1.54 1.71 1.65 1.32 1.16 0.99 0.75 0.64 0.48 0.37 0.33 0.20 0.22 0.19 0.17 0.17 0.21 0.24 0.17 0.18 0.17 0.14 0.25 0.22 0.25 0.23 0.27 0.30 0.30 0.29 0.31 0.31 0.26 0.22 0.22
0.59 0.54 0.62 0.62 0.71 0.88 0.96 0.98 0.97 1.12 1.40 1.59 1.42 1.31 1.23 1.13 0.97 0.78 0.56 0.42 0.34 0.23 0.26 0.20 0.27 0.24 0.19 0.17 0.15 0.23 0.20 0.11 0.05 0.10 0.12 0.13 0.14 0.17 0.23 0.26 0.27 0.25 0.18
0.57 0.63 0.58 0.57 0.57 0.53 0.56 0.68 0.80 0.85 0.80 0.82 0.90 1.00 1.08 1.11 1.12 1.04 0.95 0.80 0.64 0.47 0.47 0.47 0.38 0.22 0.14 0.14 0.16 0.11 0.05 0.02 0.03 0.04 0.06 0.10 0.13 0.14 0.13 0.14 0.15 0.19 0.19
0.11 0.15 0.20 0.25 0.28 0.29 0.31 0.34 0.37 0.46 0.54 0.62 0.64 0.63 0.64 0.61 0.61 0.62 0.59 0.59 0.56 0.53 0.52 0.46 0.37 0.28 0.22 0.20 0.14 0.13 0.11 0.09 0.08 0.09 0.12 0.12 0.11 0.10 0.11 0.11 0.11 0.13 0.16
0.03 0.05 0.07 0.10 0.12 0.15 0.16 0.18 0.18 0.24 0.21 0.24 0.31 0.34 0.38 0.44 0.53 0.47 0.41 0.38 0.37 0.38 0.38 0.39 0.39 0.36 0.33 0.31 0.28 0.26 0.22 0.18 0.17 0.18 0.16 0.15 0.13 0.10 0.09 0.07 0.06 0.06 0.07
0.01 0.01 0.01 0.01 0.02 0.03 0.03 0.06 0.07 0.09 0.06 0.05 0.07 0.08 0.12 0.14 0.13 0.12 0.12 0.12 0.12 0.12 0.11 0.14 0.16 0.17 0.17 0.16 0.15 0.14 0.13 0.12 0.11 0.09 0.07 0.06 0.06 0.06 0.05 0.04 0.03 0.02 0.03
0.01 0.01 0.01 0.01 0.01 0.02 0.01 0.00 0.02 0.03 0.02 0.03 0.02 0.02 0.02 0.01 0.00 0.00 0.00 0.00 0.00 0.00 0.01 0.02 0.03 0.03 0.03 0.03 0.03 0.04 0.05 0.05 0.04 0.04 0.03 0.03 0.02 0.02 0.02 0.01 0.01 0.00 0.00
0.00 0.00 0.00 0.01 0.01 0.01 0.01 0.01 0.02 0.02 0.01 0.01 0.02 0.01 0.00 0.00 0.00 0.00 0.00 0.00 0.00 0.00 0.00 0.00 0.00 0.00 0.00 0.00 0.00 0.00 0.00 0.00 0.00 0.00 0.00 0.00 0.00 0.00 0.00 0.00 0.00 0.00 0.00
0.00 0.01 0.01 0.00 0.00 0.00 0.00 0.00 0.00 0.00 0.00 0.01 0.01 0.00 0.00 0.00 0.00 0.00 0.00 0.00 0.00 0.00 0.00 0.00 0.00 0.00 0.00 0.00 0.00 0.00 0.00 0.00 0.00 0.00 0.00 0.00 0.00 0.00 0.00 0.00 0.00 0.00 0.00
0.00 0.00 0.00 0.00 0.00 0.00 0.00 0.00 0.00 0.00 0.00 0.00 0.00 0.00 0.00 0.00 0.00 0.00 0.00 0.00 0.00 0.00 0.00 0.00 0.00 0.00 0.00 0.00 0.00 0.00 0.00 0.00 0.00 0.00 0.00 0.00 0.00 0.00 0.00 0.00 0.00 0.00 0.00
0.00 0.00 0.00 0.00 0.00 0.00 0.00 0.00 0.00 0.00 0.00 0.00 0.00 0.00 0.00 0.00 0.00 0.00 0.00 0.00 0.00 0.00 0.01 0.00 0.00 0.00 0.00 0.00 0.00 0.00 0.00 0.00 0.00 0.00 0.00 0.00 0.00 0.00 0.00 0.00 0.00 0.00 0.00
0.00 0.00 0.00 0.00 0.00 0.00 0.00 0.00 0.00 0.00 0.00 0.00 0.00 0.00 0.00 0.00 0.00 0.00 0.00 0.01 0.01 0.00 0.00 0.01 0.00 0.00 0.00 0.00 0.00 0.00 0.00 0.00 0.00 0.00 0.00 0.00 0.00 0.00 0.00 0.00 0.00 0.00 0.00
0.00 0.00 0.00 0.00 0.00 0.00 0.00 0.00 0.01 0.01 0.01 0.01 0.01 0.01 0.01 0.01 0.01 0.00 0.01 0.01 0.01 0.01 0.01 0.00 0.00 0.00 0.00 0.00 0.00 0.00 0.00 0.00 0.00 0.00 0.00 0.00 0.00 0.00 0.00 0.00 0.00 0.00 0.00
0.00 0.00 0.00 0.00 0.00 0.01 0.01 0.02 0.01 0.01 0.01 0.01 0.02 0.01 0.01 0.01 0.02 0.01 0.01 0.01 0.01 0.01 0.00 0.00 0.00 0.00 0.00 0.00 0.00 0.00 0.00 0.00 0.00 0.00 0.00 0.00 0.00 0.00 0.00 0.00 0.00 0.00 0.00
0.00 0.00 0.00 0.01 0.02 0.02 0.02 0.02 0.03 0.03 0.03 0.03 0.02 0.02 0.02 0.02 0.02 0.02 0.01 0.01 0.01 0.01 0.00 0.00 0.00 0.00 0.00 0.00 0.00 0.00 0.00 0.00 0.00 0.00 0.00 0.00 0.00 0.01 0.00 0.00 0.00 0.00 0.00
0.00 0.01 0.01 0.01 0.02 0.02 0.03 0.03 0.03 0.03 0.03 0.03 0.03 0.03 0.03 0.02 0.02 0.02 0.02 0.01 0.01 0.01 0.01 0.01 0.01 0.00 0.00 0.00 0.00 0.00 0.00 0.00 0.00 0.00 0.00 0.00 0.00 0.00 0.00 0.00 0.00 0.00 0.00

GFSGL_prec_precacc24_111.txt.gz
Total_Precipitation_Accumulation
0.85 0.84 0.70 0.49 0.49 0.43 0.45 0.47 0.53 0.46 0.46 0.39 0.37 0.47 0.37 0.47 0.66 0.74 0.69 0.68 0.80 0.98 0.97 0.90 0.69 0.52 0.53 0.42 0.34 0.31 0.19 0.15 0.18 0.23 0.12 0.10 0.11 0.12 0.13 0.11 0.06 0.03 0.03
0.80 0.77 0.63 0.58 0.63 0.47 0.46 0.51 0.43 0.37 0.47 0.58 0.46 0.51 0.43 0.35 0.44 0.94 1.06 0.99 0.87 1.08 1.30 1.17 1.05 0.81 0.60 0.52 0.40 0.34 0.26 0.20 0.14 0.18 0.18 0.13 0.10 0.08 0.14 0.17 0.19 0.18 0.05
1.04 0.83 0.67 0.53 0.60 0.52 0.47 0.44 0.42 0.29 0.30 0.53 0.60 0.63 0.69 0.46 0.34 0.41 0.72 1.04 0.89 0.95 1.04 1.25 1.12 0.90 0.69 0.52 0.43 0.39 0.33 0.27 0.32 0.28 0.21 0.13 0.10 0.10 0.20 0.34 0.29 0.14 0.06
1.09 1.08 0.97 0.92 0.82 0.60 0.52 0.50 0.42 0.37 0.17 0.25 0.47 0.56 0.81 0.83 0.71 0.37 0.35 0.57 0.88 0.86 0.82 0.78 0.89 0.83 0.70 0.61 0.47 0.42 0.43 0.44 0.36 0.36 0.31 0.24 0.18 0.19 0.32 0.25 0.19 0.16 0.14
1.03 1.48 1.43 1.18 1.14 1.27 1.36 1.23 0.70 0.56 0.38 0.29 0.25 0.28 0.57 0.88 0.45 0.33 0.27 0.32 0.62 0.79 0.67 0.72 0.63 0.74 0.79 0.77 0.63 0.50 0.44 0.43 0.44 0.41 0.39 0.38 0.35 0.37 0.40 0.31 0.27 0.24 0.33
0.56 0.93 1.36 1.77 1.07 1.11 1.39 1.56 1.15 0.75 0.78 0.52 0.56 0.38 0.29 0.47 0.59 0.34 0.41 0.28 0.32 0.33 0.50 0.54 0.72 0.76 0.78 0.85 0.88 0.84 0.75 0.62 0.53 0.42 0.37 0.34 0.30 0.26 0.29 0.35 0.34 0.39 0.47
0.38 0.84 0.99 1.26 1.67 1.25 1.35 1.48 1.72 1.35 0.98 0.97 0.63 0.51 0.40 0.34 0.66 0.46 0.47 0.25 0.23 0.15 0.18 0.38 0.42 0.77 0.89 0.71 0.83 0.85 0.93 0.98 0.81 0.67 0.52 0.38 0.34 0.32 0.31 0.34 0.32 0.34 0.34
0.35 0.52 0.72 0.66 1.15 1.49 1.15 1.08 1.12 1.25 1.28 1.12 0.78 0.58 0.42 0.39 0.42 0.70 0.60 0.25 0.20 0.22 0.17 0.15 0.20 0.32 0.68 0.79 0.73 0.85 0.88 0.89 1.00 0.88 0.75 0.72 0.68 0.68 0.49 0.46 0.58 0.63 0.66
0.31 0.56 0.78 0.91 0.95 1.02 1.26 1.09 1.08 0.91 0.89 1.04 0.95 0.64 0.54 0.48 0.57 0.57 0.57 0.31 0.21 0.13 0.16 0.19 0.19 0.12 0.26 0.39 0.37 0.46 0.61 0.80 0.93 1.01 0.92 0.81 0.92 1.20 0.87 0.67 0.75 0.62 0.69
0.23 0.39 0.56 0.70 0.94 1.18 1.38 1.48 1.42 1.34 1.14 0.94 0.91 0.88 0.94 0.79 0.84 0.78 0.79 0.48 0.27 0.21 0.17 0.19 0.32 0.24 0.27 0.19 0.16 0.20 0.27 0.39 0.53 0.64 0.68 0.74 0.77 0.89 0.85 0.62 0.64 0.68 0.60
0.24 0.19 0.23 0.35 0.55 0.75 0.95 1.23 1.52 1.73 1.69 1.39 1.25 1.15 1.02 1.11 1.18 1.20 1.04 0.76 0.67 0.46 0.32 0.27 0.29 0.32 0.22 0.21 0.19 0.16 0.28 0.23 0.28 0.26 0.35 0.48 0.54 0.56 0.63 0.66 0.63 0.60 0.55
0.23 0.21 0.20 0.22 0.29 0.43 0.57 0.68 0.82 1.07 1.41 1.66 1.53 1.49 1.50 1.51 1.53 1.47 1.36 1.25 1.08 0.79 0.70 0.47 0.45 0.35 0.26 0.22 0.20 0.31 0.27 0.14 0.06 0.10 0.13 0.16 0.22 0.30 0.38 0.45 0.50 0.51 0.54
0.13 0.15 0.17 0.17 0.19 0.25 0.30 0.38 0.47 0.56 0.64 0.79 0.94 1.09 1.23 1.34 1.45 1.47 1.47 1.39 1.25 1.06 1.07 1.03 0.80 0.45 0.28 0.25 0.25 0.18 0.10 0.05 0.04 0.06 0.09 0.16 0.19 0.24 0.27 0.30 0.30 0.36 0.41
0.05 0.08 0.12 0.14 0.15 0.15 0.15 0.20 0.24 0.31 0.38 0.49 0.55 0.58 0.63 0.63 0.69 0.77 0.81 0.87 0.92 0.92 0.93 0.87 0.78 0.66 0.57 0.54 0.41 0.30 0.22 0.19 0.17 0.18 0.20 0.21 0.20 0.21 0.23 0.29 0.34 0.36 0.35
0.03 0.05 0.07 0.09 0.12 0.13 0.15 0.16 0.17 0.22 0.20 0.23 0.31 0.33 0.37 0.43 0.53 0.49 0.46 0.46 0.48 0.54 0.58 0.61 0.60 0.59 0.58 0.59 0.57 0.55 0.50 0.43 0.38 0.37 0.33 0.31 0.27 0.23 0.23 0.22 0.21 0.22 0.27
0.01 0.01 0.01 0.01 0.02 0.03 0.04 0.06 0.07 0.09 0.06 0.05 0.07 0.08 0.12 0.14 0.13 0.12 0.12 0.12 0.13 0.14 0.15 0.19 0.24 0.27 0.29 0.31 0.32 0.33 0.31 0.30 0.30 0.27 0.24 0.22 0.21 0.20 0.19 0.17 0.17 0.16 0.16
0.00 0.00 0.00 0.00 0.00 0.01 0.00 0.01 0.03 0.03 0.02 0.03 0.02 0.02 0.02 0.02 0.00 0.00 0.00 0.00 0.00 0.00 0.01 0.03 0.04 0.05 0.07 0.08 0.10 0.11 0.14 0.16 0.15 0.14 0.14 0.14 0.13 0.13 0.12 0.11 0.10 0.09 0.10
0.00 0.00 0.01 0.00 0.01 0.00 0.01 0.01 0.01 0.01 0.01 0.01 0.02 0.01 0.00 0.00 0.00 0.00 0.00 0.00 0.00 0.00 0.00 0.00 0.00 0.00 0.00 0.00 0.01 0.01 0.02 0.03 0.04 0.05 0.05 0.05 0.04 0.04 0.05 0.04 0.04 0.04 0.04
0.00 0.00 0.01 0.01 0.00 0.00 0.00 0.00 0.00 0.00 0.00 0.00 0.00 0.00 0.00 0.00 0.00 0.00 0.00 0.00 0.00 0.00 0.00 0.00 0.00 0.00 0.00 0.00 0.00 0.00 0.00 0.00 0.00 0.00 0.00 0.01 0.01 0.01 0.01 0.01 0.01 0.01 0.02
0.00 0.00 0.00 0.00 0.00 0.00 0.00 0.00 0.00 0.00 0.00 0.00 0.00 0.00 0.00 0.00 0.00 0.00 0.00 0.00 0.00 0.00 0.00 0.01 0.00 0.00 0.00 0.00 0.00 0.00 0.00 0.00 0.00 0.00 0.00 0.00 0.00 0.00 0.00 0.00 0.00 0.00 0.00
0.00 0.00 0.00 0.00 0.00 0.00 0.00 0.00 0.00 0.00 0.00 0.00 0.01 0.00 0.00 0.00 0.00 0.00 0.00 0.00 0.00 0.00 0.01 0.01 0.01 0.00 0.00 0.00 0.00 0.00 0.00 0.00 0.00 0.00 0.00 0.00 0.00 0.00 0.00 0.00 0.00 0.00 0.00
0.00 0.00 0.00 0.00 0.00 0.00 0.00 0.00 0.01 0.00 0.00 0.01 0.01 0.01 0.00 0.00 0.00 0.00 0.00 0.01 0.01 0.00 0.00 0.02 0.01 0.00 0.00 0.00 0.00 0.00 0.00 0.00 0.00 0.00 0.00 0.00 0.00 0.00 0.00 0.00 0.00 0.00 0.00
0.00 0.00 0.00 0.00 0.00 0.00 0.01 0.01 0.01 0.01 0.01 0.01 0.02 0.02 0.02 0.01 0.01 0.01 0.01 0.01 0.01 0.01 0.01 0.01 0.01 0.00 0.00 0.01 0.00 0.00 0.00 0.00 0.00 0.00 0.00 0.00 0.00 0.00 0.00 0.00 0.00 0.00 0.00
0.00 0.00 0.00 0.00 0.00 0.01 0.01 0.02 0.02 0.01 0.01 0.02 0.03 0.03 0.03 0.02 0.03 0.03 0.02 0.01 0.01 0.01 0.01 0.00 0.00 0.00 0.00 0.01 0.01 0.00 0.00 0.00 0.00 0.00 0.00 0.00 0.00 0.00 0.00 0.00 0.00 0.00 0.00
0.00 0.00 0.01 0.01 0.02 0.02 0.02 0.02 0.03 0.03 0.03 0.03 0.03 0.03 0.03 0.03 0.03 0.03 0.05 0.02 0.01 0.01 0.01 0.01 0.00 0.00 0.00 0.00 0.00 0.00 0.00 0.00 0.00 0.00 0.00 0.00 0.00 0.00 0.00 0.00 0.00 0.00 0.00
0.01 0.01 0.01 0.02 0.02 0.03 0.03 0.04 0.04 0.04 0.04 0.04 0.04 0.04 0.04 0.03 0.03 0.03 0.04 0.03 0.01 0.01 0.01 0.01 0.01 0.00 0.00 0.01 0.00 0.00 0.00 0.00 0.00 0.00 0.00 0.00 0.00 0.00 0.00 0.00 0.00 0.00 0.00

GFSGL_prec_precacc24_114.txt.gz
Total_Precipitation_Accumulation
0.55 0.70 0.67 0.48 0.47 0.41 0.44 0.47 0.53 0.46 0.47 0.40 0.38 0.48 0.39 0.49 0.64 0.66 0.56 0.69 0.83 0.92 1.11 0.91 0.63 0.50 0.53 0.47 0.44 0.39 0.30 0.23 0.20 0.23 0.12 0.09 0.10 0.13 0.13 0.11 0.06 0.04 0.04
0.53 0.64 0.59 0.55 0.56 0.45 0.45 0.50 0.42 0.37 0.47 0.58 0.46 0.51 0.47 0.43 0.51 0.88 0.97 0.90 0.83 0.97 1.24 1.26 1.01 0.76 0.59 0.57 0.49 0.42 0.34 0.30 0.21 0.21 0.18 0.12 0.09 0.08 0.14 0.18 0.21 0.19 0.08
0.64 0.69 0.63 0.49 0.54 0.51 0.47 0.43 0.40 0.27 0.29 0.53 0.60 0.63 0.70 0.51 0.40 0.36 0.70 1.02 0.92 0.88 0.98 1.28 1.14 0.94 0.80 0.80 0.73 0.53 0.40 0.32 0.36 0.30 0.22 0.13 0.10 0.10 0.20 0.34 0.30 0.14 0.06
0.79 0.90 0.90 0.87 0.79 0.59 0.52 0.49 0.42 0.36 0.17 0.25 0.46 0.56 0.81 0.84 0.81 0.66 0.63 0.63 0.91 0.88 0.87 0.81 0.96 0.94 0.72 0.65 0.63 0.66 0.65 0.52 0.37 0.38 0.32 0.24 0.19 0.20 0.32 0.25 0.19 0.16 0.13
0.85 1.26 1.36 1.15 1.11 1.26 1.35 1.23 0.69 0.55 0.38 0.29 0.25 0.29 0.60 0.95 0.59 0.49 0.45 0.69 0.79 0.85 0.70 0.72 0.70 0.87 0.81 0.76 0.71 0.58 0.52 0.51 0.48 0.44 0.41 0.39 0.36 0.38 0.41 0.32 0.28 0.25 0.33
0.49 0.85 1.28 1.73 1.05 1.10 1.38 1.56 1.14 0.74 0.78 0.52 0.55 0.37 0.28 0.48 0.73 0.49 0.50 0.44 0.62 0.65 0.62 0.59 0.78 0.74 0.77 0.89 0.96 0.99 0.89 0.72 0.56 0.43 0.38 0.35 0.30 0.25 0.28 0.34 0.34 0.40 0.49
0.27 0.75 0.94 1.21 1.63 1.26 1.35 1.46 1.71 1.34 0.97 0.97 0.63 0.50 0.39 0.34 0.70 0.55 0.62 0.71 0.61 0.39 0.35 0.44 0.44 0.78 0.92 0.73 0.89 0.94 1.05 1.04 0.83 0.68 0.53 0.37 0.32 0.30 0.29 0.30 0.28 0.28 0.29
0.27 0.42 0.67 0.66 1.14 1.50 1.16 1.07 1.10 1.24 1.27 1.12 0.78 0.60 0.43 0.42 0.45 0.73 0.77 0.69 0.70 0.53 0.39 0.23 0.25 0.33 0.71 0.87 0.87 0.91 0.91 0.91 1.00 0.86 0.72 0.68 0.64 0.65 0.47 0.46 0.60 0.68 0.70
0.21 0.45 0.61 0.72 0.82 0.96 1.25 1.10 1.09 0.91 0.89 1.06 0.98 0.67 0.57 0.54 0.65 0.64 0.69 0.55 0.75 0.64 0.46 0.39 0.30 0.21 0.33 0.49 0.48 0.58 0.63 0.80 0.92 1.00 0.92 0.81 0.92 1.21 0.94 0.74 0.82 0.70 0.81
0.17 0.27 0.37 0.47 0.66 0.94 1.22 1.39 1.38 1.31 1.13 0.94 0.89 0.87 0.90 0.79 0.86 0.84 0.87 0.64 0.52 0.60 0.47 0.38 0.45 0.37 0.38 0.31 0.23 0.28 0.34 0.40 0.53 0.64 0.68 0.74 0.77 0.90 0.89 0.64 0.65 0.73 0.70
0.15 0.11 0.08 0.13 0.27 0.47 0.75 1.06 1.37 1.60 1.56 1.28 1.15 1.05 0.94 1.02 1.06 1.14 1.04 0.90 0.91 0.65 0.54 0.53 0.47 0.43 0.37 0.39 0.34 0.27 0.34 0.25 0.29 0.26 0.35 0.48 0.54 0.56 0.63 0.67 0.65 0.64 0.60
0.09 0.10 0.09 0.06 0.08 0.15 0.23 0.39 0.61 0.89 1.25 1.53 1.42 1.39 1.41 1.42 1.43 1.35 1.32 1.29 1.16 0.95 0.94 0.71 0.70 0.59 0.45 0.37 0.33 0.42 0.33 0.16 0.06 0.10 0.14 0.17 0.22 0.30 0.39 0.45 0.52 0.54 0.60
0.04 0.06 0.08 0.08 0.07 0.06 0.06 0.10 0.14 0.24 0.37 0.58 0.83 1.02 1.18 1.30 1.41 1.44 1.42 1.35 1.24 1.10 1.18 1.24 1.08 0.74 0.55 0.47 0.42 0.31 0.16 0.06 0.05 0.06 0.10 0.17 0.20 0.24 0.27 0.30 0.31 0.38 0.44
0.02 0.04 0.05 0.05 0.06 0.05 0.05 0.06 0.07 0.11 0.15 0.21 0.27 0.35 0.47 0.55 0.63 0.74 0.79 0.85 0.91 0.91 0.94 0.92 0.85 0.79 0.76 0.77 0.66 0.52 0.39 0.30 0.23 0.21 0.22 0.23 0.22 0.22 0.24 0.30 0.35 0.37 0.37
0.02 0.03 0.04 0.04 0.05 0.06 0.08 0.10 0.09 0.13 0.11 0.14 0.21 0.22 0.24 0.30 0.41 0.40 0.41 0.43 0.47 0.53 0.57 0.60 0.59 0.60 0.60 0.63 0.65 0.68 0.66 0.59 0.52 0.47 0.40 0.37 0.32 0.27 0.27 0.27 0.26 0.25 0.29
0.00 0.01 0.01 0.01 0.02 0.03 0.03 0.06 0.07 0.08 0.06 0.05 0.06 0.08 0.11 0.13 0.13 0.12 0.12 0.12 0.13 0.14 0.15 0.19 0.24 0.27 0.30 0.32 0.33 0.36 0.37 0.40 0.42 0.40 0.36 0.32 0.30 0.28 0.26 0.25 0.23 0.21 0.23
0.00 0.00 0.00 0.00 0.00 0.01 0.00 0.01 0.02 0.03 0.02 0.03 0.02 0.02 0.02 0.02 0.00 0.00 0.00 0.00 0.00 0.00 0.01 0.03 0.04 0.06 0.07 0.08 0.10 0.12 0.15 0.18 0.19 0.20 0.23 0.24 0.22 0.20 0.18 0.19 0.18 0.16 0.15
0.00 0.00 0.01 0.00 0.00 0.00 0.01 0.01 0.01 0.01 0.01 0.01 0.02 0.01 0.01 0.00 0.00 0.00 0.00 0.00 0.00 0.00 0.00 0.00 0.00 0.00 0.00 0.00 0.01 0.02 0.03 0.03 0.04 0.06 0.07 0.08 0.08 0.09 0.10 0.09 0.09 0.10 0.10
0.00 0.00 0.01 0.01 0.00 0.00 0.00 0.00 0.00 0.00 0.00 0.00 0.00 0.00 0.00 0.00 0.00 0.00 0.00 0.00 0.00 0.01 0.01 0.00 0.00 0.00 0.00 0.00 0.00 0.00 0.00 0.00 0.00 0.00 0.00 0.01 0.01 0.01 0.02 0.03 0.05 0.06 0.07
0.00 0.00 0.00 0.00 0.00 0.00 0.00 0.00 0.00 0.00 0.00 0.00 0.00 0.00 0.00 0.00 0.00 0.00 0.00 0.00 0.00 0.00 0.01 0.01 0.00 0.00 0.00 0.00 0.00 0.00 0.00 0.00 0.00 0.00 0.00 0.00 0.00 0.00 0.00 0.00 0.01 0.02 0.03
0.00 0.00 0.00 0.00 0.00 0.00 0.00 0.00 0.00 0.00 0.00 0.00 0.01 0.01 0.00 0.00 0.00 0.00 0.00 0.00 0.00 0.00 0.01 0.01 0.01 0.00 0.00 0.00 0.00 0.00 0.00 0.00 0.00 0.00 0.00 0.00 0.00 0.00 0.00 0.00 0.00 0.00 0.00
0.00 0.00 0.00 0.00 0.00 0.00 0.00 0.00 0.01 0.00 0.00 0.01 0.01 0.01 0.00 0.01 0.01 0.00 0.00 0.01 0.01 0.00 0.00 0.01 0.01 0.00 0.00 0.00 0.00 0.00 0.00 0.00 0.00 0.00 0.00 0.00 0.00 0.00 0.00 0.00 0.00 0.00 0.00
0.00 0.00 0.00 0.00 0.00 0.00 0.01 0.01 0.01 0.01 0.01 0.01 0.02 0.02 0.02 0.02 0.02 0.01 0.01 0.01 0.01 0.01 0.01 0.01 0.01 0.00 0.00 0.01 0.00 0.00 0.00 0.00 0.00 0.01 0.01 0.00 0.00 0.00 0.00 0.00 0.00 0.00 0.00
0.00 0.00 0.00 0.00 0.00 0.01 0.01 0.02 0.02 0.01 0.01 0.02 0.03 0.03 0.03 0.02 0.03 0.03 0.02 0.01 0.01 0.01 0.01 0.00 0.00 0.00 0.00 0.01 0.01 0.00 0.00 0.00 0.00 0.00 0.00 0.00 0.00 0.00 0.00 0.00 0.00 0.00 0.00
0.00 0.00 0.01 0.01 0.02 0.02 0.02 0.02 0.03 0.03 0.03 0.03 0.04 0.03 0.03 0.03 0.03 0.03 0.05 0.02 0.01 0.01 0.01 0.00 0.00 0.00 0.00 0.00 0.00 0.00 0.00 0.00 0.00 0.00 0.00 0.00 0.00 0.00 0.00 0.00 0.00 0.00 0.00
0.01 0.01 0.01 0.02 0.02 0.03 0.03 0.04 0.04 0.03 0.04 0.04 0.04 0.04 0.05 0.04 0.03 0.04 0.04 0.03 0.01 0.01 0.01 0.01 0.00 0.00 0.00 0.01 0.00 0.00 0.00 0.00 0.00 0.00 0.00 0.00 0.00 0.00 0.00 0.00 0.00 0.00 0.00

GFSGL_prec_precacc24_117.txt.gz
Total_Precipitation_Accumulation
0.33 0.47 0.41 0.35 0.38 0.37 0.43 0.47 0.53 0.46 0.47 0.40 0.38 0.48 0.39 0.49 0.65 0.64 0.44 0.54 0.59 0.71 0.91 0.71 0.48 0.47 0.51 0.57 0.62 0.54 0.40 0.32 0.25 0.22 0.11 0.09 0.10 0.13 0.14 0.11 0.06 0.04 0.04
0.24 0.37 0.36 0.42 0.50 0.42 0.44 0.50 0.42 0.37 0.47 0.58 0.46 0.51 0.47 0.43 0.51 0.85 0.81 0.64 0.59 0.77 1.07 1.14 0.86 0.69 0.63 0.63 0.62 0.55 0.39 0.40 0.39 0.31 0.20 0.13 0.09 0.08 0.14 0.18 0.21 0.19 0.09
0.27 0.36 0.37 0.37 0.50 0.49 0.46 0.42 0.40 0.27 0.29 0.52 0.59 0.63 0.70 0.51 0.40 0.34 0.60 0.83 0.67 0.70 0.82 1.07 0.96 0.84 0.73 0.74 0.70 0.55 0.46 0.37 0.41 0.37 0.28 0.18 0.11 0.10 0.20 0.34 0.30 0.14 0.06
0.47 0.36 0.49 0.74 0.75 0.57 0.51 0.49 0.42 0.36 0.16 0.24 0.46 0.56 0.81 0.84 0.79 0.62 0.57 0.50 0.72 0.70 0.67 0.60 0.78 0.82 0.63 0.56 0.56 0.63 0.67 0.58 0.41 0.43 0.37 0.26 0.18 0.19 0.31 0.25 0.19 0.16 0.13
0.62 0.60 0.55 0.85 1.07 1.26 1.35 1.23 0.69 0.55 0.38 0.28 0.25 0.28 0.59 0.95 0.60 0.47 0.38 0.58 0.62 0.72 0.78 0.83 0.72 0.90 0.87 0.76 0.65 0.52 0.52 0.58 0.61 0.51 0.47 0.41 0.35 0.36 0.41 0.32 0.28 0.23 0.30
0.27 0.33 0.50 1.09 0.98 1.09 1.38 1.56 1.14 0.74 0.78 0.52 0.55 0.37 0.27 0.49 0.73 0.50 0.50 0.44 0.63 0.75 0.75 0.73 1.13 1.32 0.95 0.89 0.90 0.90 0.81 0.67 0.59 0.58 0.51 0.41 0.33 0.26 0.30 0.35 0.34 0.40 0.48
0.16 0.50 0.69 0.81 1.38 1.19 1.33 1.47 1.71 1.35 0.97 0.96 0.63 0.50 0.39 0.35 0.71 0.54 0.64 0.75 0.63 0.47 0.59 0.67 0.65 1.18 1.34 0.93 0.86 0.93 1.13 1.23 1.02 0.82 0.62 0.48 0.40 0.31 0.29 0.29 0.27 0.26 0.26
0.12 0.26 0.37 0.42 0.91 1.44 1.12 1.06 1.09 1.25 1.27 1.12 0.79 0.61 0.44 0.45 0.48 0.76 0.81 0.76 0.75 0.56 0.46 0.50 0.58 0.60 0.92 0.90 0.88 0.98 0.98 1.10 1.28 1.12 0.92 0.76 0.68 0.64 0.46 0.43 0.57 0.65 0.67
0.16 0.25 0.40 0.55 0.65 0.88 1.18 1.05 1.07 0.90 0.89 1.06 0.98 0.67 0.60 0.60 0.74 0.75 0.78 0.66 0.83 0.73 0.57 0.58 0.49 0.44 0.49 0.66 0.55 0.81 0.87 0.94 1.11 1.12 0.96 0.84 0.92 1.23 0.95 0.75 0.82 0.71 0.83
0.12 0.19 0.25 0.32 0.49 0.65 0.98 1.28 1.31 1.25 1.09 0.92 0.88 0.86 0.89 0.81 0.89 0.87 0.93 0.74 0.63 0.76 0.67 0.62 0.79 0.66 0.62 0.50 0.34 0.40 0.66 0.70 0.65 0.81 0.81 0.75 0.77 0.90 0.92 0.66 0.66 0.74 0.72
0.06 0.04 0.03 0.03 0.12 0.30 0.51 0.80 1.14 1.44 1.45 1.19 1.09 1.02 0.90 0.98 1.01 1.08 0.97 0.87 0.91 0.70 0.67 0.72 0.70 0.71 0.66 0.66 0.51 0.41 0.55 0.55 0.59 0.42 0.45 0.51 0.54 0.56 0.63 0.68 0.65 0.64 0.62
0.01 0.01 0.01 0.01 0.02 0.05 0.08 0.20 0.39 0.65 1.03 1.36 1.28 1.26 1.28 1.25 1.25 1.20 1.19 1.16 1.05 0.90 0.93 0.78 0.87 0.81 0.70 0.65 0.64 0.69 0.52 0.36 0.26 0.31 0.25 0.21 0.23 0.30 0.39 0.45 0.52 0.55 0.61
0.00 0.01 0.01 0.01 0.01 0.02 0.01 0.02 0.04 0.10 0.20 0.41 0.68 0.89 1.05 1.15 1.21 1.22 1.20 1.17 1.10 1.01 1.12 1.21 1.09 0.78 0.65 0.67 0.69 0.59 0.42 0.29 0.26 0.23 0.21 0.21 0.22 0.25 0.28 0.31 0.31 0.38 0.45
0.00 0.00 0.00 0.01 0.01 0.00 0.01 0.02 0.02 0.04 0.05 0.09 0.13 0.20 0.32 0.40 0.49 0.61 0.70 0.78 0.84 0.86 0.89 0.86 0.81 0.76 0.75 0.78 0.72 0.64 0.58 0.54 0.49 0.45 0.40 0.33 0.26 0.24 0.26 0.31 0.36 0.39 0.39
0.00 0.00 0.00 0.00 0.00 0.01 0.03 0.05 0.04 0.07 0.04 0.05 0.10 0.08 0.09 0.14 0.24 0.24 0.26 0.28 0.33 0.42 0.48 0.53 0.53 0.55 0.55 0.59 0.63 0.68 0.70 0.68 0.64 0.64 0.61 0.57 0.47 0.35 0.31 0.30 0.28 0.28 0.31
0.00 0.00 0.00 0.00 0.00 0.00 0.00 0.02 0.04 0.05 0.03 0.03 0.04 0.05 0.07 0.07 0.06 0.06 0.06 0.07 0.09 0.10 0.11 0.16 0.22 0.25 0.28 0.31 0.33 0.37 0.38 0.41 0.46 0.45 0.44 0.41 0.41 0.42 0.39 0.35 0.31 0.28 0.29
0.00 0.00 0.00 0.00 0.00 0.00 0.00 0.01 0.02 0.02 0.01 0.03 0.02 0.02 0.02 0.01 0.00 0.00 0.00 0.00 0.00 0.00 0.01 0.02 0.04 0.06 0.07 0.08 0.10 0.12 0.16 0.19 0.19 0.21 0.24 0.26 0.26 0.26 0.27 0.30 0.31 0.27 0.25
0.00 0.00 0.01 0.00 0.00 0.00 0.01 0.01 0.01 0.01 0.01 0.01 0.01 0.00 0.01 0.00 0.00 0.00 0.00 0.00 0.00 0.00 0.00 0.00 0.01 0.01 0.01 0.01 0.01 0.02 0.03 0.04 0.04 0.06 0.07 0.08 0.10 0.12 0.14 0.16 0.17 0.20 0.20
0.00 0.00 0.01 0.01 0.00 0.00 0.00 0.00 0.00 0.00 0.00 0.01 0.00 0.00 0.00 0.00 0.00 0.00 0.00 0.00 0.00 0.01 0.01 0.00 0.00 0.00 0.00 0.00 0.01 0.00 0.00 0.01 0.01 0.00 0.00 0.01 0.01 0.02 0.05 0.07 0.09 0.11 0.13
0.00 0.00 0.00 0.00 0.00 0.00 0.00 0.00 0.00 0.00 0.00 0.01 0.00 0.00 0.00 0.00 0.00 0.00 0.00 0.00 0.00 0.00 0.01 0.01 0.00 0.00 0.00 0.00 0.01 0.00 0.00 0.00 0.00 0.00 0.00 0.00 0.00 0.00 0.00 0.01 0.03 0.05 0.06
0.00 0.00 0.00 0.00 0.00 0.00 0.00 0.00 0.00 0.00 0.00 0.00 0.01 0.01 0.00 0.00 0.00 0.00 0.00 0.00 0.00 0.00 0.01 0.01 0.01 0.00 0.00 0.00 0.00 0.00 0.00 0.00 0.00 0.00 0.00 0.00 0.00 0.00 0.00 0.00 0.00 0.00 0.00
0.00 0.00 0.00 0.00 0.00 0.00 0.00 0.00 0.01 0.00 0.00 0.01 0.01 0.01 0.00 0.01 0.01 0.00 0.00 0.01 0.01 0.00 0.00 0.01 0.01 0.00 0.00 0.00 0.00 0.00 0.00 0.00 0.00 0.00 0.00 0.00 0.00 0.00 0.00 0.00 0.00 0.00 0.00
0.00 0.00 0.00 0.00 0.00 0.00 0.01 0.01 0.01 0.01 0.01 0.01 0.02 0.02 0.02 0.02 0.02 0.01 0.01 0.01 0.01 0.01 0.01 0.01 0.01 0.00 0.00 0.01 0.00 0.00 0.00 0.00 0.00 0.01 0.01 0.01 0.00 0.00 0.00 0.00 0.00 0.00 0.00
0.00 0.00 0.00 0.00 0.00 0.01 0.01 0.02 0.02 0.01 0.01 0.02 0.03 0.04 0.03 0.03 0.03 0.03 0.02 0.01 0.01 0.01 0.01 0.00 0.00 0.00 0.00 0.01 0.01 0.00 0.00 0.00 0.00 0.01 0.01 0.01 0.01 0.00 0.00 0.00 0.00 0.00 0.00
0.00 0.00 0.01 0.01 0.02 0.01 0.02 0.02 0.03 0.03 0.03 0.03 0.04 0.03 0.04 0.03 0.03 0.04 0.05 0.03 0.01 0.01 0.01 0.00 0.00 0.00 0.00 0.00 0.00 0.00 0.00 0.00 0.00 0.00 0.00 0.00 0.01 0.00 0.00 0.00 0.00 0.00 0.00
0.01 0.01 0.01 0.02 0.02 0.02 0.03 0.04 0.04 0.03 0.04 0.04 0.04 0.05 0.05 0.04 0.04 0.04 0.04 0.05 0.02 0.01 0.01 0.01 0.00 0.00 0.00 0.01 0.00 0.00 0.00 0.00 0.00 0.00 0.00 0.00 0.00 0.00 0.00 0.00 0.00 0.00 0.00

GFSGL_prec_precacc24_123.txt.gz
Total_Precipitation_Accumulation
0.11 0.14 0.12 0.11 0.21 0.21 0.25 0.33 0.31 0.30 0.31 0.36 0.36 0.47 0.38 0.48 0.64 0.62 0.42 0.51 0.52 0.55 0.72 0.54 0.36 0.36 0.34 0.42 0.50 0.47 0.40 0.36 0.24 0.18 0.13 0.12 0.13 0.15 0.15 0.13 0.07 0.04 0.04
0.10 0.18 0.22 0.22 0.23 0.27 0.31 0.40 0.36 0.31 0.44 0.57 0.45 0.50 0.46 0.43 0.50 0.84 0.80 0.61 0.52 0.68 0.89 0.85 0.53 0.49 0.47 0.47 0.49 0.45 0.41 0.43 0.48 0.37 0.30 0.25 0.16 0.12 0.16 0.20 0.21 0.19 0.08
0.08 0.15 0.12 0.13 0.27 0.33 0.36 0.35 0.36 0.26 0.28 0.52 0.59 0.63 0.70 0.51 0.39 0.34 0.60 0.78 0.54 0.51 0.69 0.87 0.74 0.60 0.54 0.64 0.62 0.44 0.36 0.35 0.43 0.47 0.39 0.33 0.31 0.24 0.27 0.36 0.29 0.13 0.06
0.31 0.20 0.28 0.30 0.31 0.34 0.36 0.42 0.37 0.34 0.16 0.24 0.46 0.55 0.81 0.84 0.79 0.61 0.56 0.48 0.63 0.51 0.46 0.45 0.58 0.64 0.43 0.40 0.43 0.51 0.56 0.50 0.38 0.39 0.39 0.36 0.29 0.30 0.49 0.36 0.19 0.14 0.12
0.42 0.42 0.30 0.39 0.51 0.65 0.87 0.96 0.63 0.54 0.38 0.29 0.25 0.29 0.60 0.95 0.60 0.46 0.34 0.54 0.57 0.59 0.56 0.56 0.43 0.57 0.56 0.49 0.48 0.34 0.39 0.55 0.59 0.45 0.42 0.42 0.37 0.37 0.40 0.33 0.26 0.20 0.24
0.07 0.15 0.23 0.16 0.14 0.22 0.41 0.63 0.76 0.70 0.76 0.51 0.55 0.37 0.27 0.49 0.73 0.49 0.48 0.39 0.56 0.65 0.58 0.44 0.66 0.83 0.45 0.39 0.51 0.59 0.61 0.60 0.55 0.53 0.42 0.32 0.22 0.16 0.18 0.20 0.21 0.30 0.38
0.05 0.16 0.19 0.31 0.31 0.31 0.33 0.46 0.75 1.13 0.94 0.94 0.62 0.50 0.40 0.35 0.70 0.53 0.62 0.74 0.60 0.46 0.57 0.55 0.37 0.62 0.79 0.66 0.59 0.63 0.84 0.98 0.85 0.73 0.60 0.44 0.34 0.26 0.22 0.19 0.19 0.21 0.26
0.08 0.09 0.12 0.19 0.27 0.31 0.30 0.30 0.43 0.97 1.23 1.10 0.78 0.61 0.45 0.45 0.47 0.74 0.78 0.77 0.72 0.53 0.49 0.54 0.56 0.52 0.71 0.65 0.61 0.68 0.78 0.98 1.22 1.16 0.96 0.77 0.75 0.78 0.53 0.45 0.56 0.62 0.62
0.08 0.13 0.18 0.20 0.18 0.16 0.19 0.26 0.41 0.54 0.81 1.04 0.98 0.68 0.60 0.60 0.72 0.72 0.76 0.69 0.89 0.77 0.57 0.57 0.50 0.53 0.64 0.81 0.78 0.92 0.89 0.94 1.21 1.32 1.34 1.30 1.29 1.50 1.15 0.85 0.87 0.76 0.84
0.05 0.12 0.15 0.12 0.14 0.16 0.27 0.41 0.55 0.70 0.87 0.82 0.83 0.85 0.88 0.81 0.87 0.83 0.90 0.75 0.62 0.77 0.70 0.63 0.80 0.76 0.72 0.66 0.67 0.72 0.90 0.90 0.87 1.02 1.02 1.01 1.10 1.32 1.41 0.97 0.78 0.79 0.71
0.02 0.01 0.01 0.01 0.03 0.06 0.12 0.32 0.54 0.81 1.01 0.97 0.93 0.90 0.82 0.90 0.97 1.04 0.93 0.85 0.89 0.67 0.64 0.71 0.73 0.78 0.83 0.88 0.83 0.81 0.98 0.96 0.92 0.76 0.85 0.89 0.88 0.82 0.92 1.06 1.04 0.93 0.81
0.00 0.00 0.00 0.00 0.01 0.01 0.01 0.05 0.16 0.34 0.60 0.91 0.98 0.99 1.06 1.03 1.04 1.05 1.07 1.06 0.96 0.83 0.83 0.69 0.75 0.69 0.65 0.71 0.80 0.94 0.83 0.69 0.62 0.70 0.72 0.72 0.74 0.78 0.76 0.78 0.81 0.89 0.94
0.00 0.00 0.00 0.00 0.00 0.00 0.00 0.00 0.01 0.04 0.10 0.22 0.41 0.62 0.76 0.86 0.91 0.96 0.97 0.96 0.91 0.87 0.94 0.98 0.84 0.63 0.56 0.60 0.67 0.66 0.59 0.52 0.54 0.58 0.65 0.73 0.76 0.79 0.74 0.64 0.64 0.67 0.72
0.00 0.00 0.00 0.00 0.00 0.00 0.00 0.00 0.00 0.01 0.01 0.03 0.06 0.11 0.18 0.24 0.31 0.40 0.49 0.58 0.65 0.67 0.69 0.70 0.68 0.66 0.67 0.72 0.68 0.64 0.61 0.64 0.65 0.68 0.72 0.74 0.71 0.70 0.72 0.75 0.70 0.68 0.66
0.00 0.00 0.00 0.00 0.00 0.00 0.02 0.03 0.02 0.02 0.01 0.03 0.05 0.03 0.03 0.06 0.12 0.12 0.15 0.17 0.22 0.28 0.33 0.35 0.35 0.37 0.39 0.45 0.50 0.57 0.62 0.63 0.62 0.66 0.67 0.69 0.68 0.64 0.66 0.69 0.69 0.62 0.57
0.00 0.00 0.00 0.00 0.00 0.00 0.00 0.01 0.01 0.01 0.00 0.00 0.01 0.01 0.01 0.01 0.00 0.01 0.01 0.02 0.04 0.06 0.07 0.10 0.14 0.17 0.20 0.23 0.26 0.29 0.31 0.35 0.42 0.43 0.43 0.43 0.46 0.52 0.58 0.61 0.64 0.66 0.66
0.00 0.00 0.00 0.00 0.00 0.00 0.00 0.00 0.01 0.01 0.00 0.00 0.00 0.00 0.01 0.00 0.00 0.00 0.00 0.00 0.00 0.00 0.00 0.02 0.03 0.04 0.05 0.06 0.08 0.09 0.12 0.15 0.16 0.18 0.22 0.25 0.27 0.29 0.32 0.38 0.44 0.49 0.54
0.00 0.00 0.01 0.00 0.00 0.00 0.01 0.01 0.01 0.01 0.01 0.00 0.00 0.00 0.00 0.00 0.00 0.00 0.00 0.00 0.00 0.00 0.00 0.00 0.01 0.01 0.01 0.01 0.01 0.02 0.03 0.03 0.04 0.05 0.07 0.09 0.10 0.13 0.16 0.19 0.23 0.29 0.33
0.00 0.00 0.01 0.01 0.00 0.00 0.00 0.00 0.00 0.00 0.00 0.00 0.00 0.00 0.00 0.00 0.00 0.00 0.00 0.00 0.00 0.01 0.01 0.00 0.00 0.00 0.00 0.00 0.01 0.00 0.00 0.01 0.01 0.00 0.01 0.01 0.01 0.02 0.05 0.08 0.11 0.15 0.18
0.00 0.00 0.00 0.00 0.00 0.00 0.00 0.00 0.00 0.00 0.00 0.01 0.01 0.01 0.00 0.00 0.00 0.00 0.00 0.00 0.00 0.00 0.01 0.01 0.00 0.00 0.00 0.00 0.01 0.00 0.00 0.00 0.00 0.00 0.01 0.01 0.01 0.00 0.00 0.01 0.03 0.05 0.09
0.00 0.00 0.00 0.00 0.00 0.00 0.00 0.00 0.00 0.00 0.00 0.00 0.02 0.01 0.00 0.00 0.00 0.00 0.00 0.01 0.00 0.00 0.01 0.01 0.01 0.00 0.00 0.00 0.00 0.00 0.00 0.00 0.00 0.00 0.01 0.01 0.01 0.01 0.00 0.00 0.00 0.00 0.01
0.00 0.00 0.00 0.00 0.00 0.00 0.00 0.00 0.01 0.00 0.00 0.01 0.01 0.01 0.00 0.01 0.01 0.00 0.01 0.01 0.01 0.01 0.01 0.02 0.01 0.01 0.01 0.01 0.01 0.00 0.00 0.00 0.01 0.01 0.00 0.00 0.01 0.00 0.00 0.00 0.00 0.00 0.00
0.00 0.00 0.00 0.00 0.00 0.00 0.01 0.01 0.01 0.01 0.01 0.01 0.02 0.03 0.02 0.02 0.02 0.02 0.02 0.02 0.01 0.02 0.01 0.01 0.01 0.01 0.00 0.01 0.01 0.01 0.00 0.00 0.00 0.02 0.01 0.01 0.01 0.01 0.01 0.00 0.00 0.00 0.00
0.00 0.00 0.00 0.00 0.00 0.01 0.01 0.02 0.02 0.01 0.01 0.02 0.03 0.04 0.03 0.03 0.03 0.03 0.03 0.01 0.01 0.01 0.01 0.01 0.01 0.00 0.00 0.01 0.01 0.00 0.00 0.00 0.00 0.01 0.01 0.01 0.01 0.00 0.00 0.00 0.00 0.00 0.00
0.00 0.00 0.01 0.01 0.01 0.01 0.01 0.02 0.02 0.02 0.03 0.03 0.04 0.03 0.04 0.03 0.03 0.04 0.05 0.03 0.01 0.02 0.01 0.01 0.01 0.01 0.00 0.00 0.00 0.00 0.00 0.00 0.00 0.00 0.00 0.00 0.01 0.00 0.00 0.00 0.00 0.00 0.00
0.01 0.01 0.01 0.01 0.01 0.02 0.02 0.02 0.02 0.02 0.03 0.03 0.03 0.04 0.05 0.04 0.04 0.04 0.04 0.05 0.02 0.01 0.01 0.01 0.01 0.00 0.00 0.01 0.00 0.00 0.00 0.00 0.00 0.00 0.00 0.00 0.00 0.00 0.00 0.00 0.00 0.00 0.00

GFSGL_prec_precacc24_126.txt.gz
Total_Precipitation_Accumulation
0.01 0.02 0.04 0.05 0.15 0.17 0.20 0.29 0.27 0.28 0.27 0.28 0.28 0.37 0.24 0.32 0.52 0.56 0.41 0.51 0.51 0.53 0.70 0.53 0.35 0.37 0.34 0.42 0.51 0.49 0.43 0.39 0.22 0.12 0.07 0.08 0.09 0.13 0.15 0.13 0.07 0.04 0.04
0.00 0.01 0.02 0.06 0.08 0.12 0.21 0.29 0.27 0.25 0.39 0.51 0.41 0.42 0.40 0.37 0.48 0.82 0.79 0.61 0.52 0.67 0.88 0.85 0.53 0.49 0.46 0.46 0.49 0.44 0.39 0.41 0.48 0.34 0.23 0.18 0.15 0.12 0.15 0.19 0.19 0.18 0.09
0.01 0.01 0.03 0.06 0.10 0.11 0.13 0.19 0.22 0.22 0.27 0.51 0.58 0.61 0.66 0.48 0.38 0.34 0.60 0.77 0.54 0.50 0.68 0.87 0.74 0.59 0.52 0.59 0.57 0.40 0.33 0.34 0.43 0.48 0.37 0.30 0.30 0.25 0.27 0.37 0.31 0.14 0.07
0.22 0.15 0.09 0.12 0.13 0.18 0.20 0.27 0.29 0.29 0.16 0.24 0.45 0.55 0.81 0.84 0.78 0.61 0.56 0.48 0.63 0.50 0.45 0.44 0.57 0.63 0.41 0.37 0.39 0.46 0.50 0.43 0.31 0.37 0.39 0.35 0.27 0.28 0.50 0.40 0.21 0.15 0.12
0.10 0.25 0.26 0.24 0.34 0.49 0.75 0.83 0.52 0.50 0.36 0.28 0.24 0.29 0.59 0.95 0.60 0.46 0.34 0.54 0.56 0.59 0.56 0.56 0.43 0.57 0.53 0.39 0.39 0.29 0.33 0.46 0.49 0.38 0.40 0.43 0.43 0.40 0.40 0.33 0.28 0.24 0.27
0.03 0.05 0.10 0.09 0.11 0.19 0.32 0.53 0.51 0.56 0.70 0.49 0.55 0.37 0.27 0.49 0.72 0.48 0.48 0.39 0.56 0.65 0.58 0.44 0.65 0.81 0.42 0.32 0.38 0.47 0.51 0.48 0.47 0.53 0.47 0.38 0.29 0.27 0.24 0.22 0.23 0.32 0.41
0.04 0.04 0.05 0.15 0.20 0.21 0.18 0.18 0.31 0.38 0.49 0.78 0.60 0.49 0.40 0.35 0.69 0.52 0.61 0.74 0.60 0.46 0.57 0.55 0.37 0.59 0.71 0.56 0.47 0.51 0.69 0.78 0.65 0.57 0.56 0.57 0.50 0.45 0.38 0.27 0.22 0.19 0.20
0.06 0.08 0.08 0.13 0.22 0.26 0.27 0.20 0.18 0.30 0.48 0.69 0.67 0.59 0.44 0.45 0.46 0.73 0.76 0.77 0.72 0.54 0.50 0.55 0.56 0.52 0.67 0.57 0.48 0.52 0.56 0.73 0.93 0.95 0.82 0.66 0.69 0.71 0.49 0.48 0.57 0.59 0.55
0.05 0.10 0.14 0.15 0.15 0.12 0.13 0.13 0.15 0.13 0.25 0.65 0.83 0.64 0.60 0.59 0.71 0.72 0.75 0.69 0.89 0.77 0.57 0.57 0.49 0.53 0.64 0.77 0.67 0.76 0.69 0.69 0.96 1.07 1.12 1.14 1.13 1.34 1.04 0.86 1.03 0.89 0.88
0.04 0.09 0.11 0.08 0.11 0.12 0.15 0.18 0.22 0.26 0.32 0.36 0.62 0.80 0.86 0.81 0.87 0.83 0.88 0.74 0.62 0.77 0.70 0.62 0.76 0.73 0.68 0.64 0.63 0.65 0.84 0.85 0.83 0.95 0.92 0.91 1.07 1.34 1.43 1.13 1.06 0.98 0.81
0.01 0.00 0.00 0.00 0.01 0.03 0.04 0.10 0.20 0.31 0.42 0.47 0.56 0.70 0.73 0.85 0.95 1.02 0.91 0.84 0.88 0.67 0.63 0.71 0.72 0.76 0.82 0.86 0.80 0.77 0.92 0.91 0.88 0.77 0.87 0.92 0.89 0.85 0.99 1.15 1.23 1.17 1.01
0.00 0.00 0.00 0.00 0.00 0.00 0.00 0.01 0.06 0.14 0.23 0.40 0.53 0.67 0.80 0.85 0.91 0.93 0.99 1.00 0.92 0.82 0.82 0.68 0.73 0.68 0.63 0.69 0.77 0.87 0.77 0.66 0.61 0.69 0.73 0.75 0.80 0.86 0.85 0.85 0.86 0.94 1.03
0.00 0.00 0.00 0.00 0.00 0.00 0.00 0.00 0.00 0.02 0.06 0.14 0.23 0.37 0.52 0.64 0.72 0.79 0.84 0.83 0.80 0.78 0.86 0.91 0.79 0.61 0.55 0.58 0.63 0.63 0.58 0.51 0.53 0.58 0.65 0.75 0.80 0.87 0.85 0.76 0.73 0.73 0.75
0.00 0.00 0.00 0.00 0.00 0.00 0.00 0.00 0.00 0.00 0.01 0.02 0.04 0.09 0.14 0.19 0.25 0.33 0.41 0.49 0.55 0.57 0.59 0.62 0.63 0.63 0.65 0.68 0.64 0.58 0.54 0.59 0.62 0.65 0.69 0.71 0.69 0.69 0.72 0.78 0.76 0.77 0.76
0.00 0.00 0.00 0.00 0.00 0.00 0.01 0.02 0.01 0.01 0.01 0.02 0.04 0.02 0.02 0.05 0.08 0.09 0.12 0.14 0.18 0.23 0.28 0.30 0.30 0.32 0.35 0.41 0.46 0.53 0.57 0.59 0.56 0.60 0.62 0.65 0.66 0.62 0.65 0.69 0.72 0.68 0.68
0.00 0.00 0.00 0.00 0.00 0.00 0.00 0.01 0.01 0.00 0.00 0.00 0.01 0.01 0.01 0.01 0.00 0.00 0.01 0.02 0.03 0.04 0.06 0.08 0.12 0.14 0.17 0.20 0.23 0.27 0.29 0.34 0.40 0.41 0.42 0.41 0.44 0.51 0.57 0.61 0.65 0.70 0.73
0.00 0.00 0.00 0.00 0.00 0.00 0.00 0.00 0.01 0.01 0.00 0.00 0.00 0.00 0.01 0.00 0.00 0.00 0.00 0.00 0.00 0.00 0.00 0.01 0.03 0.04 0.05 0.06 0.08 0.09 0.12 0.15 0.16 0.17 0.22 0.25 0.27 0.29 0.32 0.37 0.44 0.50 0.57
0.00 0.00 0.01 0.00 0.00 0.00 0.00 0.00 0.00 0.01 0.01 0.00 0.00 0.00 0.00 0.00 0.00 0.00 0.00 0.00 0.00 0.00 0.00 0.00 0.01 0.01 0.01 0.01 0.01 0.02 0.03 0.03 0.04 0.05 0.07 0.09 0.10 0.14 0.16 0.19 0.23 0.29 0.33
0.00 0.00 0.01 0.01 0.00 0.00 0.00 0.00 0.00 0.00 0.00 0.01 0.00 0.00 0.00 0.00 0.00 0.00 0.00 0.00 0.00 0.01 0.01 0.00 0.00 0.00 0.00 0.00 0.01 0.00 0.00 0.01 0.01 0.01 0.01 0.02 0.02 0.03 0.06 0.08 0.12 0.15 0.18
0.00 0.00 0.00 0.00 0.00 0.00 0.00 0.00 0.00 0.00 0.00 0.01 0.01 0.01 0.00 0.00 0.00 0.00 0.00 0.00 0.00 0.01 0.01 0.01 0.00 0.00 0.00 0.00 0.01 0.00 0.00 0.00 0.00 0.00 0.01 0.01 0.01 0.01 0.01 0.02 0.04 0.06 0.09
0.00 0.00 0.00 0.00 0.00 0.00 0.00 0.00 0.00 0.00 0.00 0.00 0.02 0.01 0.00 0.00 0.01 0.01 0.00 0.01 0.01 0.01 0.01 0.02 0.01 0.01 0.01 0.00 0.00 0.00 0.00 0.00 0.00 0.00 0.01 0.01 0.01 0.01 0.00 0.00 0.00 0.00 0.01
0.00 0.00 0.00 0.00 0.00 0.00 0.00 0.00 0.00 0.00 0.00 0.01 0.01 0.01 0.00 0.01 0.01 0.01 0.00 0.01 0.02 0.01 0.01 0.02 0.02 0.01 0.01 0.01 0.01 0.01 0.01 0.01 0.01 0.01 0.01 0.00 0.01 0.01 0.00 0.00 0.00 0.00 0.00
0.00 0.00 0.00 0.00 0.00 0.00 0.00 0.00 0.01 0.01 0.01 0.01 0.02 0.02 0.02 0.02 0.02 0.02 0.02 0.02 0.01 0.02 0.01 0.01 0.01 0.01 0.01 0.02 0.01 0.01 0.01 0.01 0.01 0.02 0.02 0.01 0.01 0.01 0.01 0.01 0.00 0.00 0.00
0.00 0.00 0.00 0.00 0.00 0.00 0.01 0.01 0.01 0.01 0.01 0.02 0.03 0.03 0.03 0.03 0.03 0.03 0.03 0.01 0.01 0.01 0.01 0.01 0.01 0.00 0.00 0.01 0.01 0.01 0.01 0.01 0.01 0.01 0.01 0.01 0.01 0.01 0.01 0.00 0.00 0.00 0.00
0.00 0.00 0.00 0.00 0.01 0.01 0.01 0.01 0.01 0.01 0.02 0.02 0.03 0.03 0.03 0.03 0.03 0.03 0.05 0.03 0.01 0.01 0.01 0.01 0.01 0.01 0.00 0.00 0.00 0.00 0.00 0.00 0.01 0.00 0.00 0.01 0.01 0.01 0.00 0.00 0.00 0.00 0.00
0.01 0.00 0.01 0.01 0.01 0.01 0.01 0.02 0.02 0.01 0.02 0.02 0.02 0.04 0.04 0.03 0.03 0.03 0.04 0.04 0.02 0.01 0.01 0.01 0.00 0.00 0.00 0.01 0.00 0.00 0.00 0.00 0.00 0.00 0.00 0.00 0.00 0.00 0.00 0.00 0.00 0.00 0.00

GFSGL_prec_precacc24_129.txt.gz
Total_Precipitation_Accumulation
0.00 0.00 0.00 0.01 0.04 0.05 0.07 0.16 0.20 0.23 0.21 0.21 0.22 0.33 0.23 0.27 0.29 0.23 0.16 0.31 0.45 0.52 0.70 0.52 0.34 0.35 0.32 0.41 0.50 0.49 0.44 0.41 0.24 0.12 0.08 0.08 0.08 0.10 0.11 0.11 0.08 0.05 0.06
0.00 0.00 0.00 0.00 0.01 0.03 0.11 0.17 0.20 0.20 0.29 0.41 0.40 0.42 0.39 0.31 0.32 0.28 0.23 0.20 0.40 0.65 0.88 0.84 0.52 0.47 0.45 0.46 0.49 0.44 0.38 0.40 0.47 0.35 0.24 0.18 0.13 0.11 0.12 0.13 0.12 0.12 0.10
0.00 0.00 0.00 0.01 0.01 0.01 0.01 0.06 0.10 0.14 0.22 0.44 0.54 0.60 0.66 0.47 0.34 0.27 0.29 0.48 0.44 0.47 0.68 0.87 0.73 0.58 0.51 0.59 0.58 0.41 0.34 0.32 0.35 0.41 0.35 0.29 0.28 0.22 0.16 0.17 0.19 0.12 0.09
0.00 0.00 0.01 0.02 0.01 0.01 0.02 0.04 0.05 0.06 0.08 0.18 0.41 0.53 0.80 0.82 0.75 0.57 0.54 0.43 0.59 0.48 0.42 0.41 0.55 0.61 0.40 0.36 0.39 0.45 0.48 0.39 0.28 0.35 0.36 0.35 0.28 0.28 0.45 0.38 0.22 0.16 0.12
0.00 0.00 0.03 0.08 0.07 0.11 0.12 0.25 0.26 0.17 0.19 0.20 0.20 0.28 0.58 0.95 0.59 0.45 0.33 0.53 0.56 0.57 0.55 0.54 0.42 0.56 0.53 0.38 0.38 0.27 0.29 0.41 0.42 0.31 0.32 0.33 0.35 0.38 0.43 0.34 0.29 0.27 0.27
0.01 0.02 0.01 0.01 0.03 0.06 0.09 0.17 0.26 0.28 0.43 0.41 0.50 0.33 0.26 0.49 0.71 0.47 0.47 0.39 0.56 0.64 0.57 0.43 0.65 0.80 0.42 0.32 0.36 0.40 0.43 0.41 0.36 0.44 0.40 0.33 0.25 0.25 0.25 0.25 0.24 0.33 0.41
0.01 0.03 0.02 0.02 0.03 0.10 0.11 0.08 0.12 0.22 0.22 0.43 0.45 0.45 0.38 0.35 0.68 0.51 0.60 0.74 0.60 0.46 0.57 0.55 0.37 0.59 0.71 0.55 0.42 0.44 0.55 0.58 0.50 0.43 0.43 0.51 0.45 0.40 0.35 0.28 0.26 0.28 0.28
0.03 0.04 0.05 0.06 0.08 0.13 0.16 0.15 0.13 0.11 0.12 0.18 0.35 0.45 0.39 0.44 0.44 0.72 0.76 0.76 0.72 0.53 0.50 0.55 0.56 0.52 0.67 0.57 0.45 0.41 0.43 0.57 0.74 0.77 0.62 0.47 0.56 0.59 0.40 0.42 0.54 0.61 0.57
0.03 0.07 0.10 0.12 0.13 0.11 0.12 0.12 0.13 0.08 0.08 0.19 0.22 0.22 0.36 0.49 0.62 0.66 0.74 0.69 0.89 0.77 0.57 0.57 0.49 0.53 0.64 0.76 0.67 0.73 0.59 0.49 0.69 0.80 0.89 0.94 0.90 1.08 0.81 0.69 0.82 0.74 0.76
0.02 0.05 0.07 0.06 0.09 0.11 0.12 0.12 0.11 0.10 0.16 0.16 0.20 0.32 0.48 0.60 0.73 0.77 0.86 0.74 0.61 0.76 0.68 0.62 0.75 0.72 0.67 0.63 0.63 0.65 0.81 0.76 0.65 0.75 0.76 0.74 0.88 1.11 1.19 0.96 0.91 0.85 0.76
0.00 0.00 0.00 0.00 0.01 0.02 0.02 0.04 0.06 0.08 0.09 0.11 0.14 0.23 0.35 0.53 0.77 0.94 0.86 0.83 0.87 0.66 0.62 0.68 0.71 0.75 0.80 0.83 0.78 0.75 0.87 0.88 0.84 0.70 0.79 0.82 0.78 0.74 0.84 1.03 1.16 1.18 1.06
0.00 0.00 0.00 0.00 0.00 0.00 0.00 0.00 0.01 0.02 0.04 0.08 0.12 0.19 0.30 0.43 0.59 0.71 0.84 0.91 0.85 0.77 0.78 0.67 0.71 0.66 0.62 0.67 0.74 0.82 0.72 0.63 0.60 0.65 0.66 0.68 0.73 0.78 0.76 0.78 0.82 0.94 1.11
0.00 0.00 0.00 0.00 0.00 0.00 0.00 0.00 0.00 0.00 0.00 0.03 0.06 0.11 0.17 0.25 0.34 0.44 0.52 0.60 0.64 0.66 0.74 0.80 0.73 0.59 0.53 0.57 0.61 0.60 0.56 0.50 0.52 0.55 0.61 0.67 0.71 0.78 0.78 0.72 0.71 0.72 0.77
0.00 0.00 0.00 0.00 0.00 0.00 0.00 0.00 0.00 0.00 0.00 0.01 0.01 0.03 0.05 0.09 0.13 0.20 0.25 0.30 0.37 0.41 0.44 0.47 0.49 0.51 0.55 0.61 0.60 0.54 0.51 0.56 0.59 0.62 0.63 0.64 0.63 0.63 0.66 0.72 0.71 0.73 0.72
0.00 0.00 0.00 0.00 0.00 0.00 0.01 0.02 0.01 0.00 0.00 0.02 0.03 0.02 0.01 0.02 0.04 0.04 0.07 0.09 0.12 0.16 0.20 0.21 0.21 0.24 0.27 0.32 0.37 0.45 0.50 0.53 0.51 0.54 0.56 0.59 0.60 0.58 0.60 0.65 0.69 0.65 0.66
0.00 0.00 0.00 0.00 0.00 0.00 0.00 0.00 0.01 0.00 0.00 0.00 0.01 0.01 0.01 0.00 0.00 0.00 0.00 0.00 0.02 0.03 0.04 0.06 0.09 0.10 0.13 0.16 0.19 0.23 0.25 0.30 0.36 0.38 0.40 0.40 0.43 0.49 0.54 0.58 0.64 0.69 0.71
0.00 0.00 0.00 0.00 0.00 0.00 0.00 0.00 0.00 0.01 0.00 0.00 0.00 0.00 0.01 0.00 0.00 0.00 0.00 0.00 0.00 0.00 0.00 0.01 0.02 0.03 0.04 0.05 0.07 0.08 0.11 0.14 0.15 0.17 0.22 0.25 0.27 0.29 0.32 0.37 0.45 0.50 0.57
0.00 0.00 0.00 0.00 0.00 0.00 0.00 0.00 0.00 0.01 0.01 0.01 0.01 0.00 0.00 0.00 0.00 0.00 0.00 0.00 0.00 0.00 0.00 0.00 0.01 0.01 0.01 0.01 0.01 0.02 0.03 0.03 0.04 0.05 0.07 0.09 0.11 0.14 0.17 0.19 0.24 0.29 0.34
0.00 0.00 0.00 0.00 0.00 0.00 0.00 0.00 0.00 0.00 0.01 0.01 0.00 0.00 0.00 0.00 0.00 0.00 0.00 0.00 0.00 0.01 0.01 0.00 0.00 0.00 0.00 0.00 0.01 0.01 0.01 0.01 0.01 0.01 0.01 0.02 0.03 0.03 0.06 0.09 0.12 0.16 0.19
0.00 0.00 0.00 0.00 0.00 0.00 0.00 0.00 0.00 0.00 0.00 0.01 0.01 0.01 0.00 0.00 0.01 0.01 0.00 0.00 0.01 0.01 0.01 0.01 0.00 0.00 0.00 0.00 0.01 0.01 0.00 0.00 0.01 0.01 0.01 0.01 0.02 0.01 0.01 0.02 0.04 0.06 0.09
0.00 0.00 0.00 0.00 0.00 0.00 0.00 0.00 0.00 0.00 0.00 0.00 0.02 0.01 0.00 0.00 0.01 0.00 0.00 0.01 0.01 0.01 0.01 0.02 0.01 0.01 0.01 0.00 0.00 0.01 0.00 0.00 0.01 0.01 0.01 0.01 0.02 0.02 0.01 0.01 0.01 0.00 0.01
0.00 0.00 0.00 0.00 0.00 0.00 0.00 0.00 0.00 0.00 0.00 0.00 0.01 0.01 0.00 0.01 0.01 0.00 0.00 0.01 0.01 0.01 0.01 0.02 0.02 0.01 0.01 0.02 0.02 0.02 0.01 0.01 0.01 0.02 0.01 0.01 0.01 0.01 0.01 0.01 0.01 0.01 0.01
0.00 0.00 0.00 0.00 0.00 0.00 0.00 0.00 0.00 0.00 0.00 0.01 0.01 0.02 0.01 0.02 0.02 0.01 0.01 0.01 0.01 0.01 0.01 0.01 0.01 0.01 0.00 0.01 0.01 0.02 0.02 0.02 0.02 0.03 0.03 0.02 0.01 0.02 0.01 0.01 0.01 0.01 0.01
0.00 0.00 0.00 0.00 0.00 0.00 0.00 0.01 0.01 0.00 0.00 0.01 0.02 0.02 0.02 0.02 0.02 0.03 0.02 0.01 0.00 0.01 0.01 0.01 0.01 0.00 0.00 0.01 0.01 0.01 0.01 0.01 0.01 0.02 0.02 0.02 0.02 0.01 0.01 0.01 0.01 0.01 0.01
0.00 0.00 0.00 0.00 0.00 0.00 0.00 0.00 0.00 0.01 0.01 0.01 0.02 0.02 0.02 0.02 0.02 0.02 0.04 0.02 0.01 0.01 0.01 0.00 0.00 0.00 0.00 0.00 0.00 0.00 0.00 0.00 0.01 0.01 0.01 0.01 0.02 0.01 0.01 0.01 0.01 0.01 0.01
0.01 0.00 0.00 0.01 0.01 0.01 0.01 0.01 0.01 0.01 0.01 0.01 0.02 0.03 0.03 0.02 0.02 0.02 0.03 0.04 0.02 0.01 0.00 0.00 0.00 0.00 0.00 0.01 0.00 0.00 0.00 0.01 0.01 0.01 0.01 0.01 0.01 0.01 0.01 0.01 0.01 0.01 0.01

GFSGL_prec_precacc24_135.txt.gz
Total_Precipitation_Accumulation
0.00 0.00 0.00 0.00 0.00 0.00 0.00 0.01 0.01 0.01 0.01 0.01 0.01 0.01 0.02 0.03 0.06 0.08 0.11 0.18 0.18 0.16 0.33 0.20 0.11 0.17 0.14 0.27 0.38 0.39 0.41 0.42 0.23 0.11 0.07 0.08 0.06 0.06 0.06 0.08 0.07 0.07 0.10
0.00 0.00 0.00 0.00 0.00 0.00 0.00 0.00 0.00 0.00 0.00 0.00 0.00 0.01 0.05 0.09 0.13 0.10 0.13 0.14 0.13 0.10 0.17 0.31 0.15 0.17 0.25 0.30 0.41 0.41 0.37 0.42 0.49 0.34 0.23 0.18 0.13 0.10 0.11 0.12 0.09 0.06 0.10
0.00 0.00 0.00 0.00 0.00 0.00 0.00 0.00 0.00 0.00 0.00 0.00 0.00 0.00 0.02 0.06 0.09 0.12 0.18 0.29 0.23 0.13 0.18 0.25 0.24 0.28 0.34 0.47 0.49 0.36 0.32 0.33 0.35 0.38 0.32 0.28 0.26 0.21 0.15 0.12 0.10 0.06 0.06
0.00 0.00 0.00 0.00 0.00 0.00 0.00 0.00 0.00 0.00 0.00 0.00 0.00 0.00 0.01 0.01 0.13 0.34 0.39 0.25 0.25 0.25 0.29 0.32 0.41 0.44 0.24 0.19 0.29 0.40 0.43 0.34 0.24 0.25 0.28 0.30 0.25 0.23 0.31 0.27 0.12 0.06 0.05
0.00 0.00 0.00 0.00 0.00 0.00 0.00 0.00 0.00 0.00 0.00 0.00 0.00 0.01 0.03 0.08 0.17 0.19 0.21 0.42 0.37 0.33 0.46 0.49 0.37 0.48 0.42 0.27 0.30 0.24 0.26 0.37 0.37 0.26 0.25 0.27 0.27 0.25 0.24 0.22 0.19 0.16 0.11
0.00 0.00 0.00 0.00 0.00 0.00 0.00 0.00 0.00 0.00 0.00 0.00 0.01 0.01 0.01 0.04 0.18 0.19 0.16 0.24 0.39 0.55 0.39 0.33 0.58 0.74 0.36 0.26 0.31 0.36 0.39 0.38 0.33 0.39 0.34 0.27 0.21 0.21 0.19 0.19 0.18 0.21 0.23
0.00 0.00 0.00 0.01 0.01 0.01 0.01 0.01 0.01 0.01 0.01 0.01 0.02 0.03 0.03 0.04 0.09 0.14 0.24 0.56 0.49 0.39 0.52 0.43 0.31 0.55 0.66 0.53 0.39 0.42 0.52 0.53 0.42 0.37 0.37 0.47 0.39 0.35 0.32 0.25 0.22 0.22 0.19
0.01 0.01 0.01 0.02 0.02 0.03 0.02 0.02 0.03 0.03 0.03 0.04 0.06 0.07 0.06 0.11 0.12 0.15 0.31 0.56 0.63 0.45 0.43 0.50 0.51 0.49 0.64 0.53 0.44 0.40 0.42 0.53 0.65 0.61 0.49 0.35 0.39 0.37 0.28 0.26 0.26 0.31 0.29
0.01 0.01 0.01 0.01 0.01 0.01 0.01 0.02 0.04 0.03 0.03 0.06 0.08 0.08 0.10 0.15 0.22 0.25 0.29 0.41 0.71 0.70 0.53 0.52 0.43 0.48 0.58 0.73 0.66 0.73 0.58 0.47 0.60 0.63 0.70 0.77 0.63 0.55 0.52 0.47 0.51 0.45 0.42
0.01 0.00 0.00 0.00 0.00 0.00 0.00 0.01 0.01 0.02 0.03 0.03 0.02 0.03 0.04 0.07 0.14 0.18 0.23 0.33 0.45 0.62 0.59 0.57 0.67 0.67 0.63 0.62 0.62 0.65 0.80 0.75 0.63 0.66 0.59 0.50 0.58 0.70 0.82 0.71 0.66 0.55 0.48
0.00 0.00 0.00 0.00 0.00 0.00 0.00 0.00 0.00 0.00 0.01 0.01 0.01 0.01 0.01 0.03 0.05 0.09 0.13 0.26 0.41 0.39 0.47 0.59 0.64 0.66 0.75 0.80 0.76 0.74 0.84 0.86 0.80 0.67 0.70 0.64 0.54 0.46 0.53 0.68 0.80 0.84 0.78
0.00 0.00 0.00 0.00 0.00 0.00 0.00 0.00 0.00 0.00 0.00 0.00 0.00 0.00 0.00 0.00 0.00 0.01 0.04 0.07 0.12 0.21 0.33 0.40 0.52 0.55 0.55 0.62 0.69 0.74 0.65 0.60 0.59 0.64 0.65 0.65 0.65 0.65 0.60 0.59 0.59 0.68 0.77
0.00 0.00 0.00 0.00 0.00 0.00 0.00 0.00 0.00 0.00 0.00 0.00 0.00 0.00 0.01 0.00 0.00 0.00 0.00 0.01 0.04 0.08 0.14 0.24 0.31 0.35 0.39 0.46 0.51 0.53 0.51 0.48 0.50 0.54 0.58 0.62 0.65 0.68 0.64 0.56 0.56 0.55 0.55
0.00 0.00 0.00 0.00 0.00 0.00 0.00 0.00 0.00 0.00 0.00 0.01 0.01 0.01 0.01 0.00 0.00 0.00 0.00 0.00 0.00 0.01 0.03 0.05 0.08 0.13 0.20 0.26 0.33 0.37 0.41 0.47 0.50 0.53 0.55 0.56 0.54 0.52 0.53 0.55 0.48 0.50 0.52
0.00 0.00 0.00 0.00 0.00 0.00 0.01 0.02 0.00 0.00 0.00 0.01 0.03 0.02 0.01 0.02 0.02 0.00 0.00 0.00 0.00 0.00 0.00 0.00 0.00 0.01 0.02 0.05 0.09 0.15 0.23 0.28 0.31 0.36 0.39 0.42 0.46 0.45 0.46 0.50 0.54 0.49 0.46
0.00 0.00 0.00 0.00 0.00 0.00 0.00 0.00 0.00 0.00 0.00 0.00 0.01 0.01 0.01 0.00 0.00 0.00 0.00 0.00 0.00 0.00 0.00 0.00 0.00 0.00 0.01 0.01 0.02 0.04 0.07 0.12 0.17 0.20 0.23 0.24 0.28 0.34 0.41 0.45 0.50 0.55 0.58
0.00 0.00 0.00 0.00 0.00 0.00 0.00 0.00 0.00 0.00 0.00 0.00 0.00 0.00 0.00 0.00 0.00 0.00 0.00 0.00 0.00 0.00 0.00 0.00 0.01 0.01 0.01 0.00 0.01 0.01 0.02 0.04 0.05 0.07 0.11 0.14 0.16 0.19 0.22 0.28 0.36 0.42 0.48
0.00 0.00 0.00 0.00 0.00 0.00 0.00 0.00 0.00 0.01 0.02 0.03 0.01 0.00 0.00 0.00 0.00 0.00 0.00 0.00 0.00 0.00 0.00 0.00 0.01 0.01 0.01 0.01 0.01 0.01 0.01 0.01 0.01 0.01 0.02 0.04 0.07 0.10 0.13 0.16 0.20 0.25 0.30
0.00 0.00 0.00 0.00 0.00 0.00 0.00 0.00 0.00 0.00 0.01 0.01 0.00 0.00 0.00 0.00 0.00 0.00 0.00 0.00 0.00 0.00 0.00 0.00 0.00 0.00 0.01 0.01 0.01 0.01 0.01 0.01 0.01 0.01 0.01 0.02 0.02 0.03 0.06 0.08 0.12 0.15 0.17
0.00 0.00 0.00 0.00 0.00 0.00 0.00 0.00 0.00 0.00 0.00 0.00 0.01 0.01 0.00 0.00 0.00 0.00 0.00 0.00 0.00 0.00 0.00 0.00 0.00 0.00 0.01 0.00 0.01 0.01 0.00 0.00 0.01 0.01 0.01 0.02 0.02 0.02 0.02 0.03 0.05 0.06 0.09
0.00 0.00 0.00 0.00 0.00 0.00 0.00 0.00 0.00 0.00 0.00 0.00 0.01 0.01 0.00 0.00 0.00 0.00 0.00 0.01 0.01 0.01 0.01 0.01 0.01 0.01 0.01 0.01 0.01 0.01 0.01 0.01 0.01 0.01 0.01 0.01 0.02 0.02 0.01 0.01 0.02 0.01 0.02
0.00 0.00 0.00 0.00 0.00 0.00 0.00 0.00 0.00 0.00 0.00 0.00 0.00 0.01 0.00 0.00 0.00 0.00 0.00 0.01 0.01 0.01 0.01 0.01 0.01 0.01 0.01 0.01 0.02 0.02 0.02 0.01 0.01 0.01 0.02 0.01 0.01 0.01 0.01 0.02 0.02 0.01 0.01
0.00 0.00 0.00 0.00 0.00 0.00 0.00 0.00 0.00 0.00 0.00 0.00 0.00 0.00 0.00 0.01 0.01 0.01 0.01 0.01 0.01 0.01 0.01 0.01 0.01 0.01 0.00 0.01 0.01 0.02 0.02 0.02 0.02 0.03 0.03 0.02 0.02 0.02 0.02 0.02 0.02 0.01 0.01
0.00 0.00 0.00 0.00 0.00 0.00 0.00 0.00 0.00 0.00 0.00 0.00 0.00 0.00 0.01 0.01 0.01 0.01 0.01 0.01 0.00 0.01 0.01 0.01 0.01 0.00 0.00 0.00 0.01 0.01 0.01 0.01 0.01 0.02 0.03 0.03 0.02 0.02 0.03 0.03 0.02 0.01 0.01
0.00 0.00 0.00 0.00 0.00 0.00 0.00 0.00 0.00 0.00 0.00 0.00 0.01 0.01 0.01 0.01 0.01 0.00 0.00 0.01 0.01 0.00 0.00 0.00 0.00 0.00 0.00 0.00 0.01 0.00 0.00 0.01 0.01 0.01 0.01 0.02 0.02 0.03 0.03 0.03 0.01 0.01 0.01
0.00 0.00 0.00 0.00 0.00 0.00 0.00 0.00 0.00 0.00 0.00 0.01 0.01 0.02 0.02 0.01 0.01 0.01 0.00 0.01 0.01 0.00 0.00 0.00 0.00 0.00 0.00 0.00 0.00 0.00 0.00 0.01 0.01 0.01 0.01 0.02 0.03 0.03 0.03 0.02 0.01 0.01 0.01

GFSGL_prec_precacc24_141.txt.gz
Total_Precipitation_Accumulation
0.00 0.00 0.00 0.00 0.00 0.00 0.00 0.00 0.00 0.00 0.00 0.00 0.00 0.00 0.01 0.00 0.00 0.01 0.02 0.02 0.04 0.07 0.06 0.08 0.10 0.11 0.13 0.13 0.12 0.15 0.20 0.26 0.16 0.08 0.07 0.08 0.06 0.06 0.05 0.07 0.07 0.05 0.08
0.00 0.00 0.00 0.00 0.00 0.00 0.00 0.00 0.00 0.00 0.00 0.00 0.00 0.00 0.00 0.00 0.00 0.01 0.01 0.01 0.01 0.03 0.04 0.05 0.07 0.07 0.10 0.15 0.18 0.17 0.21 0.21 0.23 0.20 0.20 0.16 0.13 0.10 0.10 0.11 0.07 0.05 0.06
0.00 0.00 0.00 0.00 0.00 0.00 0.00 0.00 0.00 0.00 0.00 0.00 0.00 0.00 0.00 0.00 0.00 0.00 0.01 0.00 0.01 0.02 0.05 0.06 0.07 0.08 0.08 0.08 0.11 0.12 0.13 0.18 0.23 0.28 0.26 0.22 0.25 0.21 0.15 0.11 0.09 0.06 0.05
0.00 0.00 0.00 0.00 0.00 0.00 0.00 0.00 0.00 0.00 0.00 0.00 0.00 0.00 0.01 0.00 0.00 0.00 0.00 0.00 0.00 0.02 0.04 0.08 0.12 0.14 0.11 0.08 0.06 0.07 0.10 0.13 0.15 0.17 0.22 0.26 0.22 0.22 0.30 0.26 0.11 0.06 0.05
0.00 0.00 0.00 0.00 0.00 0.00 0.00 0.00 0.00 0.00 0.00 0.00 0.00 0.00 0.00 0.00 0.01 0.00 0.00 0.00 0.00 0.00 0.00 0.01 0.05 0.11 0.12 0.10 0.11 0.10 0.11 0.15 0.15 0.13 0.15 0.20 0.24 0.23 0.22 0.21 0.18 0.15 0.10
0.00 0.00 0.00 0.00 0.00 0.00 0.00 0.00 0.00 0.00 0.00 0.00 0.00 0.00 0.00 0.01 0.01 0.01 0.00 0.00 0.00 0.00 0.00 0.00 0.01 0.01 0.02 0.05 0.14 0.18 0.23 0.24 0.22 0.22 0.19 0.19 0.17 0.21 0.18 0.17 0.16 0.18 0.16
0.00 0.00 0.00 0.00 0.00 0.00 0.00 0.00 0.00 0.00 0.00 0.00 0.00 0.00 0.00 0.01 0.00 0.00 0.00 0.01 0.02 0.03 0.04 0.03 0.02 0.02 0.05 0.20 0.28 0.29 0.29 0.25 0.19 0.21 0.28 0.38 0.34 0.36 0.33 0.24 0.21 0.21 0.18
0.00 0.00 0.00 0.00 0.00 0.00 0.00 0.00 0.00 0.00 0.01 0.01 0.00 0.00 0.00 0.01 0.00 0.00 0.01 0.03 0.05 0.07 0.10 0.11 0.11 0.17 0.31 0.32 0.23 0.25 0.31 0.31 0.34 0.33 0.28 0.28 0.36 0.36 0.27 0.25 0.22 0.25 0.24
0.00 0.00 0.00 0.00 0.00 0.00 0.00 0.00 0.00 0.00 0.00 0.00 0.01 0.01 0.00 0.00 0.00 0.01 0.02 0.04 0.08 0.09 0.09 0.09 0.10 0.15 0.30 0.42 0.47 0.34 0.28 0.28 0.37 0.47 0.63 0.71 0.60 0.51 0.42 0.38 0.44 0.37 0.28
0.00 0.00 0.00 0.00 0.00 0.00 0.00 0.00 0.00 0.00 0.00 0.00 0.00 0.00 0.01 0.00 0.00 0.00 0.00 0.01 0.03 0.05 0.05 0.08 0.11 0.19 0.21 0.26 0.42 0.45 0.38 0.39 0.46 0.47 0.44 0.48 0.57 0.68 0.76 0.68 0.65 0.50 0.38
0.00 0.00 0.00 0.00 0.00 0.00 0.00 0.00 0.01 0.01 0.00 0.01 0.00 0.00 0.00 0.00 0.00 0.00 0.00 0.01 0.01 0.02 0.02 0.04 0.10 0.16 0.23 0.30 0.39 0.45 0.54 0.53 0.49 0.51 0.60 0.61 0.54 0.46 0.52 0.66 0.78 0.79 0.72
0.00 0.00 0.00 0.00 0.00 0.00 0.01 0.02 0.01 0.01 0.00 0.00 0.00 0.00 0.00 0.00 0.00 0.00 0.00 0.00 0.00 0.01 0.02 0.02 0.04 0.04 0.08 0.17 0.24 0.36 0.40 0.37 0.39 0.43 0.54 0.61 0.64 0.65 0.60 0.58 0.57 0.65 0.70
0.00 0.00 0.00 0.00 0.00 0.00 0.00 0.01 0.01 0.00 0.00 0.00 0.00 0.00 0.00 0.00 0.00 0.00 0.00 0.00 0.00 0.00 0.00 0.00 0.00 0.01 0.01 0.03 0.06 0.13 0.19 0.24 0.29 0.36 0.47 0.56 0.62 0.67 0.63 0.55 0.54 0.53 0.52
0.00 0.00 0.00 0.00 0.00 0.00 0.00 0.00 0.00 0.00 0.00 0.00 0.00 0.01 0.00 0.00 0.00 0.00 0.00 0.00 0.00 0.00 0.00 0.00 0.00 0.00 0.00 0.00 0.01 0.02 0.05 0.11 0.18 0.26 0.36 0.44 0.48 0.50 0.51 0.52 0.47 0.47 0.49
0.00 0.00 0.00 0.00 0.00 0.00 0.00 0.00 0.00 0.00 0.00 0.00 0.01 0.01 0.00 0.01 0.01 0.00 0.00 0.00 0.00 0.00 0.00 0.00 0.00 0.00 0.00 0.00 0.00 0.00 0.01 0.02 0.05 0.08 0.12 0.17 0.26 0.33 0.38 0.43 0.47 0.44 0.41
0.00 0.00 0.00 0.00 0.00 0.00 0.00 0.00 0.00 0.00 0.00 0.00 0.00 0.00 0.00 0.00 0.00 0.00 0.00 0.00 0.00 0.00 0.00 0.00 0.00 0.00 0.00 0.00 0.00 0.00 0.00 0.01 0.02 0.02 0.03 0.05 0.07 0.13 0.21 0.28 0.36 0.43 0.45
0.00 0.00 0.00 0.00 0.00 0.00 0.00 0.00 0.00 0.00 0.00 0.00 0.00 0.00 0.00 0.00 0.00 0.00 0.00 0.00 0.00 0.00 0.00 0.00 0.00 0.00 0.00 0.00 0.00 0.00 0.01 0.00 0.00 0.00 0.01 0.02 0.04 0.05 0.07 0.10 0.15 0.24 0.33
0.00 0.00 0.00 0.00 0.00 0.00 0.00 0.00 0.00 0.01 0.03 0.03 0.01 0.00 0.00 0.00 0.00 0.00 0.00 0.00 0.00 0.00 0.00 0.00 0.00 0.00 0.00 0.00 0.00 0.00 0.01 0.00 0.01 0.01 0.01 0.01 0.02 0.03 0.04 0.05 0.07 0.10 0.14
0.00 0.00 0.00 0.00 0.00 0.00 0.00 0.00 0.00 0.00 0.00 0.01 0.00 0.00 0.01 0.00 0.00 0.00 0.00 0.00 0.00 0.00 0.00 0.00 0.00 0.00 0.00 0.00 0.00 0.00 0.01 0.01 0.01 0.01 0.01 0.01 0.02 0.02 0.02 0.02 0.03 0.05 0.06
0.00 0.00 0.00 0.00 0.00 0.00 0.00 0.00 0.00 0.00 0.00 0.00 0.00 0.00 0.00 0.00 0.00 0.00 0.00 0.00 0.00 0.00 0.00 0.00 0.00 0.00 0.00 0.00 0.00 0.00 0.01 0.00 0.01 0.00 0.01 0.02 0.02 0.02 0.02 0.02 0.02 0.02 0.04
0.00 0.00 0.00 0.00 0.00 0.00 0.00 0.00 0.00 0.00 0.00 0.00 0.00 0.00 0.00 0.00 0.00 0.00 0.00 0.01 0.01 0.01 0.01 0.01 0.01 0.01 0.00 0.00 0.00 0.01 0.01 0.01 0.01 0.00 0.01 0.01 0.02 0.02 0.02 0.01 0.02 0.01 0.01
0.00 0.00 0.00 0.00 0.00 0.00 0.00 0.00 0.00 0.00 0.00 0.00 0.00 0.00 0.00 0.00 0.00 0.00 0.00 0.01 0.01 0.01 0.01 0.01 0.01 0.01 0.01 0.01 0.01 0.02 0.02 0.01 0.01 0.01 0.01 0.01 0.01 0.01 0.02 0.02 0.02 0.01 0.01
0.00 0.00 0.00 0.00 0.00 0.00 0.00 0.00 0.00 0.00 0.00 0.00 0.00 0.00 0.00 0.01 0.01 0.01 0.01 0.01 0.01 0.01 0.01 0.01 0.01 0.01 0.00 0.01 0.01 0.02 0.02 0.02 0.02 0.02 0.02 0.02 0.02 0.02 0.02 0.03 0.02 0.02 0.01
0.00 0.00 0.00 0.00 0.00 0.00 0.00 0.00 0.00 0.00 0.00 0.00 0.00 0.00 0.00 0.01 0.01 0.01 0.01 0.01 0.00 0.01 0.01 0.01 0.01 0.00 0.00 0.00 0.01 0.01 0.01 0.01 0.01 0.01 0.02 0.03 0.02 0.02 0.03 0.03 0.02 0.02 0.01
0.00 0.00 0.00 0.00 0.00 0.00 0.00 0.00 0.00 0.00 0.00 0.00 0.00 0.01 0.00 0.00 0.00 0.00 0.00 0.00 0.00 0.00 0.00 0.00 0.00 0.00 0.00 0.00 0.01 0.00 0.00 0.01 0.01 0.01 0.02 0.02 0.02 0.03 0.03 0.03 0.02 0.01 0.01
0.00 0.00 0.00 0.00 0.00 0.00 0.00 0.00 0.00 0.00 0.00 0.00 0.00 0.01 0.00 0.00 0.00 0.00 0.00 0.00 0.00 0.00 0.00 0.00 0.00 0.00 0.00 0.00 0.00 0.00 0.00 0.01 0.01 0.01 0.01 0.02 0.03 0.03 0.03 0.02 0.01 0.01 0.01

GFSGL_prec_precacc24_144.txt.gz
Total_Precipitation_Accumulation
0.00 0.00 0.00 0.00 0.00 0.00 0.00 0.00 0.00 0.00 0.00 0.00 0.00 0.00 0.00 0.00 0.00 0.01 0.02 0.02 0.03 0.05 0.03 0.06 0.08 0.09 0.10 0.11 0.14 0.18 0.20 0.23 0.16 0.06 0.04 0.04 0.03 0.04 0.04 0.07 0.06 0.05 0.08
0.00 0.00 0.00 0.00 0.00 0.00 0.00 0.00 0.00 0.00 0.00 0.00 0.00 0.00 0.00 0.00 0.00 0.01 0.01 0.01 0.01 0.02 0.02 0.03 0.06 0.06 0.09 0.11 0.16 0.19 0.19 0.18 0.19 0.12 0.05 0.04 0.05 0.06 0.09 0.10 0.07 0.04 0.05
0.00 0.00 0.00 0.00 0.00 0.00 0.00 0.00 0.00 0.00 0.00 0.00 0.00 0.00 0.00 0.00 0.00 0.00 0.00 0.00 0.01 0.01 0.02 0.03 0.04 0.05 0.05 0.06 0.07 0.08 0.08 0.09 0.14 0.14 0.09 0.07 0.12 0.14 0.11 0.11 0.09 0.06 0.04
0.00 0.00 0.00 0.00 0.00 0.00 0.00 0.00 0.00 0.00 0.00 0.00 0.00 0.00 0.01 0.00 0.00 0.00 0.00 0.00 0.00 0.01 0.01 0.01 0.03 0.04 0.06 0.06 0.05 0.07 0.08 0.08 0.08 0.10 0.13 0.12 0.10 0.15 0.26 0.24 0.11 0.05 0.04
0.00 0.00 0.00 0.00 0.00 0.00 0.00 0.00 0.00 0.00 0.00 0.00 0.00 0.00 0.00 0.00 0.01 0.00 0.00 0.00 0.00 0.00 0.00 0.00 0.01 0.05 0.07 0.06 0.07 0.09 0.09 0.09 0.10 0.10 0.13 0.17 0.16 0.15 0.16 0.18 0.18 0.14 0.10
0.00 0.00 0.00 0.00 0.00 0.00 0.00 0.00 0.00 0.00 0.00 0.00 0.00 0.00 0.00 0.01 0.01 0.00 0.00 0.00 0.00 0.00 0.00 0.00 0.00 0.01 0.02 0.03 0.06 0.11 0.18 0.19 0.17 0.18 0.18 0.19 0.17 0.19 0.15 0.15 0.15 0.17 0.16
0.02 0.00 0.00 0.00 0.00 0.00 0.00 0.00 0.00 0.00 0.00 0.00 0.00 0.00 0.00 0.00 0.00 0.00 0.00 0.00 0.00 0.01 0.01 0.01 0.00 0.01 0.01 0.00 0.01 0.03 0.06 0.09 0.11 0.17 0.27 0.38 0.33 0.33 0.30 0.22 0.21 0.20 0.18
0.03 0.00 0.00 0.00 0.00 0.00 0.00 0.00 0.00 0.00 0.01 0.01 0.00 0.00 0.00 0.00 0.00 0.00 0.00 0.00 0.00 0.00 0.01 0.01 0.02 0.02 0.03 0.02 0.01 0.03 0.09 0.12 0.16 0.21 0.25 0.27 0.31 0.27 0.20 0.18 0.18 0.23 0.24
0.03 0.00 0.00 0.00 0.00 0.00 0.00 0.00 0.00 0.00 0.00 0.00 0.00 0.00 0.00 0.00 0.00 0.00 0.00 0.00 0.00 0.00 0.01 0.01 0.01 0.02 0.04 0.05 0.06 0.08 0.13 0.19 0.24 0.26 0.34 0.39 0.35 0.29 0.28 0.30 0.34 0.28 0.23
0.02 0.00 0.00 0.00 0.00 0.00 0.00 0.00 0.00 0.00 0.00 0.00 0.00 0.00 0.00 0.00 0.00 0.00 0.00 0.00 0.00 0.00 0.00 0.00 0.01 0.02 0.02 0.04 0.09 0.13 0.19 0.27 0.27 0.24 0.23 0.23 0.29 0.36 0.43 0.50 0.58 0.46 0.36
0.00 0.00 0.00 0.00 0.00 0.00 0.00 0.00 0.01 0.01 0.00 0.01 0.00 0.00 0.00 0.00 0.00 0.00 0.00 0.00 0.00 0.00 0.00 0.01 0.01 0.01 0.02 0.03 0.07 0.14 0.25 0.31 0.28 0.25 0.25 0.25 0.27 0.31 0.37 0.50 0.61 0.70 0.69
0.00 0.00 0.00 0.00 0.00 0.00 0.01 0.02 0.01 0.01 0.00 0.00 0.00 0.00 0.00 0.00 0.00 0.00 0.00 0.00 0.00 0.00 0.01 0.01 0.00 0.00 0.00 0.01 0.03 0.06 0.08 0.12 0.17 0.20 0.21 0.23 0.29 0.37 0.46 0.48 0.52 0.60 0.67
0.00 0.00 0.00 0.00 0.00 0.00 0.00 0.01 0.01 0.00 0.00 0.00 0.00 0.00 0.00 0.00 0.00 0.00 0.00 0.00 0.00 0.00 0.00 0.00 0.00 0.00 0.00 0.00 0.00 0.01 0.03 0.06 0.09 0.11 0.15 0.20 0.28 0.37 0.45 0.48 0.49 0.51 0.51
0.00 0.00 0.00 0.00 0.00 0.01 0.00 0.00 0.00 0.00 0.00 0.00 0.00 0.01 0.00 0.00 0.00 0.00 0.00 0.00 0.00 0.00 0.00 0.00 0.00 0.00 0.00 0.00 0.00 0.00 0.01 0.02 0.05 0.08 0.10 0.12 0.15 0.19 0.26 0.37 0.40 0.43 0.46
0.00 0.00 0.00 0.00 0.00 0.01 0.00 0.00 0.00 0.00 0.00 0.00 0.01 0.01 0.00 0.01 0.01 0.00 0.00 0.00 0.00 0.00 0.00 0.00 0.00 0.00 0.00 0.00 0.00 0.00 0.00 0.00 0.01 0.02 0.04 0.04 0.06 0.08 0.14 0.23 0.32 0.35 0.36
0.00 0.00 0.00 0.00 0.00 0.00 0.00 0.01 0.00 0.00 0.00 0.00 0.00 0.00 0.00 0.01 0.01 0.00 0.00 0.00 0.00 0.00 0.00 0.00 0.00 0.00 0.00 0.00 0.00 0.00 0.00 0.00 0.01 0.00 0.01 0.01 0.02 0.03 0.05 0.08 0.15 0.26 0.33
0.00 0.00 0.00 0.00 0.00 0.00 0.00 0.00 0.00 0.01 0.00 0.00 0.00 0.00 0.00 0.01 0.01 0.00 0.00 0.00 0.00 0.00 0.00 0.00 0.00 0.00 0.00 0.00 0.00 0.00 0.00 0.00 0.00 0.00 0.01 0.01 0.01 0.01 0.02 0.03 0.06 0.11 0.17
0.00 0.00 0.00 0.00 0.00 0.00 0.00 0.00 0.00 0.01 0.02 0.03 0.01 0.00 0.00 0.00 0.00 0.00 0.00 0.00 0.00 0.00 0.00 0.00 0.00 0.00 0.00 0.00 0.00 0.00 0.00 0.00 0.00 0.00 0.01 0.01 0.01 0.02 0.02 0.01 0.03 0.05 0.08
0.01 0.00 0.00 0.00 0.00 0.00 0.00 0.00 0.00 0.00 0.00 0.01 0.00 0.01 0.02 0.00 0.00 0.00 0.00 0.00 0.00 0.00 0.00 0.00 0.00 0.00 0.00 0.00 0.00 0.00 0.01 0.01 0.01 0.01 0.01 0.01 0.02 0.02 0.02 0.01 0.01 0.02 0.03
0.00 0.00 0.00 0.00 0.00 0.00 0.00 0.00 0.00 0.00 0.00 0.00 0.00 0.00 0.00 0.00 0.00 0.00 0.00 0.00 0.00 0.00 0.00 0.00 0.00 0.00 0.00 0.00 0.00 0.00 0.01 0.00 0.00 0.00 0.01 0.01 0.02 0.02 0.02 0.02 0.02 0.02 0.01
0.01 0.00 0.00 0.00 0.00 0.00 0.00 0.00 0.00 0.00 0.00 0.00 0.00 0.00 0.00 0.00 0.00 0.00 0.00 0.01 0.01 0.01 0.01 0.01 0.01 0.01 0.00 0.00 0.00 0.01 0.01 0.01 0.01 0.00 0.01 0.01 0.01 0.02 0.02 0.01 0.02 0.01 0.01
0.00 0.00 0.00 0.00 0.00 0.00 0.00 0.00 0.00 0.00 0.00 0.00 0.00 0.00 0.00 0.00 0.00 0.00 0.00 0.01 0.01 0.01 0.01 0.01 0.01 0.01 0.01 0.01 0.01 0.02 0.02 0.01 0.01 0.01 0.01 0.01 0.01 0.01 0.02 0.02 0.02 0.01 0.01
0.00 0.00 0.00 0.00 0.00 0.00 0.00 0.00 0.00 0.00 0.00 0.00 0.00 0.00 0.00 0.00 0.00 0.00 0.01 0.01 0.01 0.01 0.01 0.01 0.01 0.01 0.00 0.01 0.01 0.02 0.02 0.02 0.02 0.02 0.02 0.02 0.01 0.02 0.02 0.03 0.02 0.02 0.01
0.00 0.00 0.00 0.00 0.00 0.00 0.00 0.00 0.00 0.00 0.00 0.00 0.00 0.00 0.00 0.00 0.00 0.00 0.00 0.00 0.00 0.00 0.00 0.00 0.01 0.00 0.00 0.00 0.01 0.01 0.01 0.01 0.01 0.01 0.02 0.02 0.02 0.02 0.03 0.03 0.02 0.02 0.01
0.00 0.00 0.00 0.00 0.00 0.00 0.00 0.00 0.00 0.00 0.00 0.00 0.00 0.00 0.00 0.00 0.00 0.00 0.00 0.00 0.00 0.00 0.00 0.00 0.00 0.00 0.00 0.00 0.01 0.00 0.00 0.01 0.01 0.01 0.02 0.02 0.02 0.02 0.03 0.03 0.02 0.01 0.01
0.00 0.00 0.00 0.00 0.00 0.00 0.00 0.00 0.00 0.00 0.00 0.00 0.00 0.00 0.00 0.00 0.00 0.00 0.00 0.00 0.00 0.00 0.00 0.00 0.00 0.00 0.00 0.00 0.00 0.00 0.00 0.01 0.01 0.01 0.01 0.02 0.03 0.03 0.03 0.02 0.01 0.02 0.02

GFSGL_prec_precacc24_147.txt.gz
Total_Precipitation_Accumulation
0.00 0.00 0.00 0.00 0.00 0.00 0.00 0.00 0.00 0.00 0.00 0.00 0.00 0.00 0.00 0.00 0.00 0.01 0.02 0.02 0.03 0.05 0.03 0.05 0.06 0.07 0.08 0.09 0.12 0.16 0.19 0.23 0.18 0.09 0.08 0.06 0.04 0.03 0.03 0.05 0.06 0.05 0.08
0.00 0.00 0.00 0.00 0.00 0.00 0.00 0.00 0.00 0.00 0.00 0.00 0.00 0.00 0.00 0.00 0.00 0.01 0.01 0.01 0.01 0.02 0.01 0.02 0.04 0.04 0.07 0.08 0.13 0.17 0.18 0.17 0.20 0.15 0.08 0.05 0.05 0.05 0.06 0.07 0.06 0.04 0.05
0.00 0.00 0.00 0.00 0.00 0.00 0.00 0.00 0.00 0.00 0.00 0.00 0.00 0.00 0.00 0.00 0.00 0.00 0.00 0.00 0.01 0.00 0.01 0.01 0.02 0.01 0.02 0.03 0.04 0.05 0.06 0.07 0.11 0.10 0.06 0.03 0.03 0.05 0.06 0.06 0.07 0.05 0.04
0.00 0.00 0.00 0.00 0.00 0.00 0.00 0.00 0.00 0.00 0.00 0.00 0.00 0.00 0.00 0.00 0.00 0.00 0.00 0.00 0.00 0.01 0.01 0.00 0.01 0.01 0.03 0.02 0.02 0.02 0.02 0.03 0.04 0.06 0.09 0.09 0.07 0.06 0.08 0.10 0.07 0.05 0.04
0.00 0.00 0.00 0.00 0.00 0.00 0.00 0.00 0.00 0.00 0.00 0.00 0.00 0.00 0.00 0.00 0.00 0.00 0.00 0.00 0.00 0.00 0.00 0.00 0.00 0.01 0.02 0.02 0.02 0.04 0.02 0.01 0.03 0.04 0.06 0.08 0.12 0.12 0.10 0.06 0.06 0.10 0.09
0.00 0.00 0.00 0.00 0.00 0.00 0.00 0.00 0.00 0.00 0.00 0.00 0.00 0.00 0.00 0.00 0.00 0.00 0.00 0.00 0.00 0.00 0.00 0.00 0.00 0.00 0.00 0.00 0.02 0.04 0.06 0.07 0.08 0.10 0.12 0.13 0.15 0.19 0.13 0.10 0.09 0.10 0.11
0.02 0.00 0.00 0.00 0.00 0.00 0.00 0.00 0.00 0.00 0.00 0.00 0.00 0.00 0.00 0.00 0.00 0.00 0.00 0.00 0.00 0.00 0.00 0.01 0.00 0.00 0.00 0.00 0.00 0.01 0.02 0.04 0.05 0.06 0.10 0.28 0.29 0.31 0.28 0.19 0.17 0.16 0.10
0.10 0.07 0.03 0.00 0.00 0.00 0.00 0.00 0.00 0.00 0.01 0.00 0.00 0.00 0.00 0.00 0.00 0.00 0.00 0.00 0.00 0.00 0.01 0.01 0.01 0.01 0.00 0.00 0.00 0.00 0.01 0.02 0.05 0.05 0.06 0.11 0.16 0.12 0.12 0.14 0.14 0.19 0.20
0.15 0.08 0.03 0.00 0.00 0.00 0.00 0.00 0.00 0.00 0.00 0.00 0.00 0.00 0.00 0.00 0.00 0.00 0.00 0.00 0.00 0.01 0.01 0.01 0.00 0.00 0.00 0.00 0.00 0.00 0.01 0.02 0.03 0.05 0.07 0.10 0.11 0.12 0.12 0.21 0.32 0.25 0.18
0.14 0.04 0.01 0.00 0.00 0.00 0.00 0.00 0.00 0.00 0.00 0.00 0.00 0.00 0.00 0.00 0.00 0.00 0.00 0.00 0.00 0.00 0.00 0.00 0.00 0.00 0.00 0.00 0.00 0.01 0.01 0.03 0.06 0.07 0.09 0.12 0.16 0.19 0.20 0.32 0.46 0.39 0.31
0.11 0.02 0.00 0.00 0.00 0.00 0.00 0.00 0.01 0.01 0.00 0.01 0.00 0.00 0.00 0.00 0.00 0.00 0.00 0.00 0.00 0.00 0.00 0.00 0.00 0.00 0.00 0.00 0.00 0.01 0.03 0.04 0.05 0.08 0.10 0.12 0.13 0.15 0.20 0.26 0.36 0.49 0.50
0.04 0.00 0.00 0.00 0.00 0.00 0.01 0.02 0.01 0.01 0.00 0.00 0.00 0.00 0.00 0.00 0.00 0.00 0.00 0.00 0.00 0.00 0.00 0.00 0.00 0.00 0.00 0.00 0.00 0.00 0.00 0.00 0.02 0.03 0.05 0.08 0.12 0.16 0.19 0.22 0.27 0.30 0.37
0.05 0.00 0.00 0.00 0.00 0.00 0.00 0.01 0.01 0.00 0.00 0.00 0.00 0.00 0.00 0.00 0.01 0.00 0.00 0.00 0.00 0.00 0.00 0.00 0.00 0.00 0.00 0.00 0.00 0.00 0.00 0.00 0.00 0.01 0.02 0.04 0.07 0.12 0.17 0.21 0.22 0.24 0.25
0.01 0.00 0.00 0.00 0.00 0.01 0.00 0.00 0.00 0.00 0.00 0.00 0.00 0.00 0.00 0.00 0.00 0.00 0.00 0.00 0.00 0.00 0.00 0.00 0.00 0.00 0.00 0.00 0.00 0.00 0.00 0.00 0.01 0.01 0.01 0.01 0.02 0.02 0.04 0.08 0.13 0.18 0.21
0.03 0.00 0.00 0.00 0.00 0.01 0.00 0.00 0.00 0.00 0.00 0.00 0.00 0.01 0.00 0.00 0.01 0.00 0.00 0.00 0.00 0.00 0.00 0.00 0.00 0.00 0.00 0.00 0.00 0.00 0.00 0.00 0.00 0.00 0.01 0.00 0.00 0.01 0.01 0.02 0.04 0.09 0.15
0.00 0.00 0.00 0.00 0.00 0.00 0.01 0.02 0.01 0.00 0.00 0.00 0.00 0.00 0.00 0.01 0.01 0.01 0.00 0.00 0.00 0.00 0.00 0.00 0.00 0.00 0.00 0.00 0.00 0.00 0.00 0.00 0.00 0.00 0.00 0.00 0.01 0.01 0.01 0.01 0.02 0.05 0.07
0.00 0.00 0.00 0.00 0.00 0.00 0.00 0.00 0.01 0.01 0.00 0.00 0.00 0.00 0.00 0.02 0.02 0.00 0.00 0.00 0.00 0.00 0.00 0.00 0.00 0.00 0.00 0.00 0.00 0.00 0.00 0.00 0.00 0.00 0.00 0.01 0.01 0.01 0.01 0.01 0.01 0.01 0.03
0.01 0.01 0.00 0.00 0.00 0.00 0.00 0.00 0.00 0.01 0.02 0.03 0.01 0.00 0.01 0.01 0.00 0.00 0.00 0.00 0.00 0.00 0.00 0.00 0.00 0.00 0.00 0.00 0.00 0.00 0.00 0.00 0.00 0.00 0.01 0.00 0.01 0.01 0.02 0.01 0.01 0.01 0.01
0.04 0.02 0.01 0.00 0.00 0.00 0.00 0.00 0.00 0.00 0.00 0.01 0.00 0.01 0.02 0.00 0.00 0.00 0.00 0.00 0.00 0.00 0.00 0.00 0.00 0.00 0.00 0.00 0.00 0.00 0.01 0.01 0.01 0.01 0.01 0.01 0.02 0.01 0.02 0.01 0.01 0.01 0.01
0.03 0.01 0.00 0.00 0.00 0.00 0.00 0.00 0.00 0.00 0.00 0.00 0.00 0.00 0.01 0.00 0.00 0.00 0.00 0.00 0.00 0.00 0.00 0.00 0.00 0.00 0.00 0.00 0.00 0.00 0.01 0.00 0.00 0.00 0.01 0.01 0.02 0.01 0.02 0.02 0.02 0.02 0.01
0.02 0.01 0.00 0.00 0.00 0.00 0.00 0.00 0.00 0.00 0.00 0.00 0.00 0.00 0.00 0.00 0.00 0.00 0.00 0.01 0.01 0.01 0.01 0.01 0.01 0.01 0.00 0.00 0.00 0.01 0.01 0.01 0.01 0.00 0.01 0.01 0.01 0.01 0.01 0.01 0.02 0.01 0.01
0.02 0.00 0.00 0.00 0.00 0.00 0.00 0.00 0.00 0.00 0.00 0.00 0.00 0.00 0.00 0.00 0.00 0.00 0.00 0.01 0.01 0.01 0.01 0.01 0.01 0.00 0.01 0.01 0.01 0.02 0.02 0.01 0.01 0.01 0.01 0.01 0.01 0.01 0.01 0.01 0.02 0.01 0.01
0.01 0.00 0.00 0.00 0.00 0.00 0.00 0.00 0.00 0.00 0.00 0.00 0.00 0.00 0.00 0.00 0.00 0.00 0.00 0.00 0.00 0.00 0.01 0.00 0.01 0.00 0.00 0.01 0.01 0.02 0.02 0.02 0.02 0.02 0.02 0.02 0.01 0.01 0.02 0.03 0.02 0.02 0.01
0.01 0.00 0.00 0.00 0.00 0.00 0.00 0.00 0.00 0.00 0.00 0.00 0.00 0.00 0.00 0.00 0.00 0.00 0.00 0.00 0.00 0.00 0.00 0.00 0.00 0.00 0.00 0.00 0.01 0.01 0.01 0.01 0.01 0.01 0.02 0.02 0.02 0.02 0.03 0.03 0.02 0.02 0.01
0.01 0.00 0.00 0.00 0.00 0.00 0.00 0.00 0.00 0.00 0.00 0.00 0.00 0.00 0.00 0.00 0.00 0.00 0.00 0.00 0.00 0.00 0.00 0.00 0.00 0.00 0.00 0.00 0.00 0.00 0.00 0.00 0.01 0.01 0.02 0.02 0.02 0.02 0.03 0.03 0.01 0.01 0.01
0.00 0.00 0.00 0.00 0.00 0.00 0.00 0.00 0.00 0.00 0.00 0.00 0.00 0.00 0.00 0.00 0.00 0.00 0.00 0.00 0.00 0.00 0.00 0.00 0.00 0.00 0.00 0.00 0.00 0.00 0.00 0.00 0.00 0.01 0.01 0.02 0.03 0.03 0.03 0.02 0.01 0.01 0.02

GFSGL_prec_precacc24_150.txt.gz
Total_Precipitation_Accumulation
0.00 0.00 0.00 0.00 0.00 0.00 0.00 0.00 0.00 0.00 0.00 0.00 0.00 0.00 0.00 0.00 0.00 0.01 0.01 0.02 0.03 0.05 0.03 0.05 0.06 0.06 0.07 0.07 0.09 0.13 0.15 0.19 0.16 0.08 0.08 0.04 0.01 0.02 0.02 0.06 0.08 0.05 0.08
0.00 0.00 0.00 0.00 0.00 0.00 0.00 0.00 0.00 0.00 0.00 0.00 0.00 0.00 0.00 0.00 0.00 0.01 0.01 0.00 0.00 0.01 0.01 0.02 0.03 0.04 0.06 0.08 0.11 0.15 0.16 0.16 0.18 0.13 0.07 0.04 0.03 0.03 0.04 0.08 0.09 0.04 0.05
0.00 0.00 0.00 0.00 0.00 0.00 0.00 0.00 0.00 0.00 0.00 0.00 0.00 0.00 0.00 0.00 0.00 0.00 0.00 0.00 0.00 0.00 0.01 0.00 0.01 0.01 0.02 0.02 0.04 0.05 0.04 0.04 0.07 0.07 0.04 0.03 0.02 0.01 0.02 0.05 0.06 0.05 0.04
0.00 0.00 0.00 0.00 0.00 0.00 0.00 0.00 0.00 0.00 0.00 0.00 0.00 0.00 0.00 0.00 0.00 0.00 0.00 0.00 0.00 0.00 0.00 0.00 0.00 0.01 0.02 0.02 0.01 0.02 0.01 0.02 0.02 0.03 0.06 0.06 0.06 0.05 0.04 0.06 0.05 0.04 0.04
0.00 0.00 0.00 0.00 0.00 0.00 0.00 0.00 0.00 0.00 0.00 0.00 0.00 0.00 0.00 0.00 0.00 0.00 0.00 0.00 0.00 0.00 0.00 0.00 0.00 0.00 0.01 0.01 0.02 0.03 0.02 0.00 0.01 0.01 0.02 0.02 0.04 0.07 0.07 0.05 0.04 0.06 0.05
0.01 0.01 0.00 0.00 0.00 0.00 0.00 0.00 0.00 0.00 0.00 0.00 0.00 0.00 0.00 0.00 0.00 0.00 0.00 0.00 0.00 0.00 0.00 0.00 0.00 0.00 0.00 0.00 0.01 0.02 0.03 0.04 0.03 0.03 0.03 0.04 0.05 0.06 0.06 0.06 0.05 0.04 0.04
0.06 0.03 0.01 0.00 0.00 0.00 0.00 0.00 0.00 0.00 0.00 0.00 0.00 0.00 0.00 0.00 0.00 0.00 0.00 0.00 0.00 0.00 0.00 0.00 0.00 0.00 0.00 0.00 0.00 0.00 0.01 0.01 0.03 0.05 0.04 0.08 0.07 0.07 0.06 0.05 0.08 0.13 0.10
0.26 0.19 0.13 0.08 0.05 0.04 0.02 0.01 0.00 0.00 0.01 0.00 0.00 0.00 0.00 0.00 0.00 0.00 0.00 0.00 0.00 0.00 0.00 0.00 0.00 0.00 0.00 0.00 0.00 0.00 0.00 0.01 0.02 0.03 0.04 0.05 0.07 0.05 0.03 0.03 0.04 0.12 0.16
0.36 0.26 0.19 0.13 0.07 0.03 0.00 0.00 0.00 0.00 0.01 0.01 0.00 0.00 0.00 0.00 0.00 0.00 0.00 0.00 0.00 0.01 0.01 0.00 0.00 0.00 0.00 0.00 0.00 0.00 0.00 0.00 0.00 0.00 0.01 0.01 0.01 0.01 0.01 0.01 0.02 0.02 0.07
0.40 0.29 0.21 0.09 0.03 0.01 0.00 0.00 0.00 0.00 0.00 0.01 0.00 0.00 0.00 0.00 0.00 0.00 0.00 0.00 0.00 0.00 0.00 0.00 0.00 0.00 0.00 0.00 0.00 0.00 0.00 0.00 0.00 0.00 0.00 0.00 0.00 0.00 0.01 0.04 0.08 0.10 0.13
0.61 0.31 0.16 0.08 0.04 0.01 0.00 0.00 0.01 0.01 0.00 0.01 0.01 0.00 0.00 0.00 0.00 0.00 0.00 0.00 0.00 0.00 0.00 0.00 0.00 0.00 0.00 0.00 0.00 0.00 0.00 0.00 0.00 0.00 0.00 0.00 0.00 0.01 0.02 0.05 0.10 0.19 0.24
0.47 0.24 0.10 0.05 0.02 0.01 0.01 0.02 0.01 0.01 0.00 0.00 0.00 0.01 0.01 0.01 0.01 0.00 0.00 0.00 0.00 0.00 0.00 0.00 0.00 0.00 0.00 0.00 0.00 0.00 0.00 0.00 0.00 0.00 0.00 0.00 0.00 0.01 0.03 0.06 0.11 0.16 0.23
0.28 0.17 0.08 0.03 0.00 0.00 0.00 0.01 0.01 0.00 0.00 0.00 0.00 0.01 0.01 0.01 0.01 0.00 0.00 0.00 0.00 0.00 0.00 0.00 0.00 0.00 0.00 0.00 0.00 0.00 0.00 0.00 0.00 0.00 0.00 0.01 0.01 0.01 0.02 0.04 0.06 0.09 0.14
0.16 0.12 0.06 0.02 0.00 0.01 0.00 0.00 0.00 0.00 0.00 0.00 0.00 0.00 0.01 0.01 0.01 0.00 0.00 0.00 0.00 0.00 0.00 0.00 0.00 0.00 0.00 0.00 0.00 0.00 0.00 0.00 0.00 0.00 0.01 0.00 0.00 0.00 0.00 0.01 0.02 0.04 0.06
0.22 0.11 0.04 0.01 0.00 0.01 0.00 0.00 0.00 0.00 0.00 0.00 0.00 0.01 0.00 0.01 0.01 0.00 0.00 0.00 0.00 0.00 0.00 0.00 0.00 0.00 0.00 0.00 0.00 0.00 0.00 0.00 0.00 0.00 0.00 0.00 0.00 0.00 0.00 0.00 0.00 0.01 0.03
0.06 0.05 0.03 0.01 0.00 0.00 0.01 0.02 0.01 0.00 0.00 0.00 0.00 0.00 0.00 0.00 0.01 0.01 0.00 0.00 0.00 0.00 0.00 0.00 0.00 0.00 0.00 0.00 0.00 0.00 0.00 0.00 0.00 0.00 0.00 0.00 0.00 0.00 0.01 0.00 0.00 0.00 0.00
0.02 0.01 0.01 0.00 0.00 0.00 0.00 0.00 0.01 0.01 0.00 0.00 0.00 0.00 0.00 0.02 0.02 0.01 0.00 0.00 0.00 0.00 0.00 0.00 0.00 0.00 0.00 0.00 0.00 0.00 0.00 0.00 0.00 0.00 0.00 0.00 0.00 0.00 0.01 0.01 0.01 0.00 0.00
0.04 0.02 0.01 0.00 0.00 0.00 0.00 0.00 0.00 0.01 0.02 0.03 0.02 0.01 0.01 0.02 0.01 0.00 0.00 0.00 0.00 0.00 0.00 0.00 0.00 0.00 0.00 0.00 0.00 0.00 0.00 0.00 0.00 0.00 0.00 0.00 0.01 0.01 0.01 0.01 0.01 0.01 0.01
0.06 0.04 0.03 0.02 0.01 0.00 0.00 0.00 0.00 0.00 0.01 0.01 0.01 0.02 0.03 0.01 0.01 0.00 0.00 0.00 0.00 0.00 0.00 0.00 0.00 0.00 0.00 0.00 0.00 0.00 0.01 0.01 0.01 0.01 0.01 0.01 0.01 0.01 0.01 0.01 0.01 0.01 0.01
0.05 0.03 0.02 0.01 0.00 0.00 0.00 0.00 0.00 0.01 0.00 0.00 0.00 0.01 0.01 0.00 0.01 0.01 0.00 0.00 0.00 0.00 0.00 0.00 0.00 0.00 0.00 0.00 0.00 0.00 0.01 0.00 0.00 0.00 0.01 0.01 0.01 0.01 0.01 0.01 0.01 0.02 0.01
0.04 0.03 0.01 0.00 0.00 0.00 0.00 0.00 0.00 0.00 0.00 0.00 0.00 0.00 0.00 0.00 0.00 0.00 0.00 0.00 0.00 0.00 0.00 0.00 0.00 0.00 0.00 0.00 0.00 0.00 0.01 0.01 0.01 0.00 0.01 0.01 0.01 0.01 0.01 0.01 0.01 0.01 0.01
0.03 0.01 0.01 0.01 0.00 0.00 0.00 0.00 0.00 0.00 0.00 0.00 0.00 0.00 0.00 0.00 0.00 0.00 0.00 0.00 0.00 0.00 0.00 0.00 0.00 0.00 0.00 0.00 0.00 0.01 0.01 0.01 0.01 0.01 0.01 0.01 0.01 0.01 0.01 0.01 0.01 0.01 0.01
0.01 0.01 0.01 0.01 0.00 0.00 0.00 0.00 0.00 0.00 0.00 0.00 0.00 0.00 0.00 0.00 0.00 0.00 0.00 0.00 0.00 0.00 0.00 0.00 0.00 0.00 0.00 0.00 0.00 0.01 0.01 0.01 0.01 0.01 0.02 0.01 0.01 0.01 0.02 0.02 0.02 0.01 0.01
0.01 0.01 0.00 0.00 0.00 0.00 0.00 0.00 0.00 0.00 0.00 0.00 0.00 0.00 0.00 0.00 0.00 0.00 0.00 0.00 0.00 0.00 0.00 0.00 0.00 0.00 0.00 0.00 0.00 0.00 0.00 0.00 0.01 0.01 0.01 0.02 0.02 0.01 0.03 0.02 0.02 0.01 0.01
0.02 0.01 0.00 0.00 0.00 0.00 0.00 0.00 0.00 0.00 0.00 0.00 0.01 0.00 0.00 0.00 0.00 0.00 0.00 0.00 0.00 0.00 0.00 0.00 0.00 0.00 0.00 0.00 0.00 0.00 0.00 0.00 0.00 0.01 0.01 0.02 0.02 0.02 0.03 0.03 0.01 0.01 0.01
0.02 0.01 0.01 0.00 0.00 0.00 0.00 0.00 0.00 0.00 0.00 0.00 0.00 0.00 0.00 0.00 0.00 0.00 0.00 0.00 0.00 0.00 0.00 0.00 0.00 0.00 0.00 0.00 0.00 0.00 0.00 0.00 0.00 0.00 0.01 0.02 0.03 0.03 0.03 0.02 0.01 0.01 0.01

GFSGL_prec_precacc24_153.txt.gz
Total_Precipitation_Accumulation
0.00 0.00 0.00 0.00 0.00 0.00 0.00 0.00 0.00 0.00 0.00 0.00 0.00 0.00 0.00 0.00 0.00 0.01 0.01 0.02 0.03 0.05 0.02 0.04 0.06 0.06 0.07 0.07 0.09 0.11 0.12 0.14 0.12 0.07 0.06 0.04 0.01 0.01 0.01 0.06 0.07 0.02 0.05
0.00 0.00 0.00 0.00 0.00 0.00 0.00 0.00 0.00 0.00 0.00 0.00 0.00 0.00 0.00 0.00 0.00 0.00 0.00 0.00 0.00 0.01 0.01 0.02 0.03 0.03 0.06 0.07 0.10 0.13 0.14 0.14 0.15 0.11 0.06 0.03 0.02 0.01 0.02 0.07 0.08 0.02 0.03
0.00 0.00 0.00 0.00 0.00 0.00 0.00 0.00 0.00 0.00 0.00 0.00 0.00 0.00 0.00 0.00 0.00 0.00 0.00 0.00 0.00 0.00 0.00 0.00 0.00 0.00 0.01 0.02 0.02 0.03 0.02 0.03 0.05 0.04 0.02 0.02 0.01 0.01 0.01 0.04 0.08 0.03 0.02
0.00 0.00 0.00 0.00 0.00 0.00 0.00 0.00 0.00 0.00 0.00 0.00 0.00 0.00 0.00 0.00 0.00 0.00 0.00 0.00 0.00 0.00 0.00 0.00 0.00 0.00 0.01 0.02 0.01 0.01 0.01 0.01 0.01 0.01 0.02 0.01 0.01 0.01 0.00 0.01 0.03 0.05 0.05
0.00 0.01 0.01 0.00 0.00 0.00 0.00 0.00 0.00 0.00 0.00 0.00 0.00 0.00 0.00 0.00 0.00 0.00 0.00 0.00 0.00 0.00 0.00 0.00 0.00 0.00 0.00 0.01 0.01 0.03 0.01 0.00 0.01 0.00 0.01 0.02 0.02 0.01 0.01 0.01 0.00 0.02 0.02
0.01 0.01 0.01 0.01 0.01 0.01 0.01 0.01 0.01 0.00 0.00 0.00 0.00 0.00 0.00 0.00 0.00 0.00 0.00 0.00 0.00 0.00 0.00 0.00 0.00 0.00 0.00 0.00 0.00 0.01 0.03 0.03 0.03 0.02 0.01 0.02 0.03 0.03 0.02 0.01 0.01 0.01 0.01
0.07 0.03 0.03 0.03 0.04 0.05 0.05 0.04 0.02 0.01 0.00 0.00 0.00 0.00 0.00 0.00 0.00 0.00 0.00 0.00 0.00 0.00 0.00 0.00 0.00 0.00 0.00 0.00 0.00 0.00 0.01 0.01 0.03 0.04 0.04 0.07 0.06 0.06 0.03 0.01 0.01 0.01 0.01
0.30 0.27 0.27 0.23 0.20 0.17 0.14 0.09 0.04 0.02 0.01 0.00 0.00 0.00 0.00 0.00 0.00 0.00 0.00 0.00 0.00 0.00 0.00 0.00 0.00 0.00 0.00 0.00 0.00 0.00 0.00 0.00 0.01 0.01 0.02 0.03 0.05 0.03 0.02 0.02 0.00 0.00 0.01
0.63 0.56 0.51 0.44 0.36 0.28 0.20 0.14 0.08 0.04 0.02 0.01 0.00 0.00 0.00 0.00 0.00 0.00 0.00 0.00 0.00 0.01 0.01 0.00 0.00 0.00 0.00 0.00 0.00 0.00 0.00 0.00 0.00 0.00 0.00 0.00 0.00 0.01 0.01 0.01 0.02 0.01 0.00
0.84 0.70 0.57 0.39 0.26 0.18 0.12 0.07 0.04 0.01 0.01 0.01 0.01 0.00 0.00 0.00 0.00 0.00 0.00 0.00 0.00 0.00 0.00 0.00 0.00 0.00 0.00 0.00 0.00 0.00 0.00 0.00 0.00 0.00 0.00 0.00 0.00 0.00 0.00 0.01 0.03 0.04 0.03
1.06 0.75 0.47 0.29 0.18 0.11 0.06 0.02 0.01 0.01 0.01 0.01 0.01 0.01 0.00 0.00 0.00 0.00 0.00 0.00 0.00 0.00 0.00 0.00 0.00 0.00 0.00 0.00 0.00 0.00 0.00 0.00 0.00 0.00 0.00 0.00 0.00 0.00 0.00 0.00 0.01 0.04 0.06
0.93 0.66 0.32 0.20 0.12 0.09 0.05 0.03 0.01 0.01 0.01 0.01 0.01 0.01 0.01 0.01 0.01 0.00 0.00 0.00 0.00 0.00 0.00 0.00 0.00 0.00 0.00 0.00 0.00 0.00 0.00 0.00 0.00 0.00 0.00 0.00 0.00 0.00 0.00 0.00 0.00 0.00 0.02
0.58 0.44 0.28 0.18 0.11 0.04 0.03 0.01 0.01 0.00 0.00 0.01 0.00 0.01 0.02 0.02 0.01 0.00 0.00 0.00 0.00 0.00 0.00 0.00 0.00 0.00 0.00 0.00 0.00 0.00 0.00 0.00 0.00 0.00 0.00 0.00 0.00 0.00 0.00 0.00 0.00 0.00 0.00
0.31 0.31 0.24 0.16 0.12 0.06 0.01 0.00 0.00 0.00 0.00 0.00 0.00 0.01 0.01 0.02 0.01 0.01 0.00 0.00 0.00 0.00 0.00 0.00 0.00 0.00 0.00 0.00 0.00 0.00 0.00 0.00 0.00 0.00 0.00 0.00 0.00 0.00 0.00 0.00 0.00 0.00 0.00
0.34 0.25 0.21 0.14 0.06 0.03 0.00 0.00 0.00 0.00 0.00 0.00 0.00 0.01 0.01 0.02 0.02 0.01 0.00 0.00 0.00 0.00 0.00 0.00 0.00 0.00 0.00 0.00 0.00 0.00 0.00 0.00 0.00 0.00 0.00 0.00 0.00 0.00 0.00 0.00 0.00 0.00 0.00
0.16 0.16 0.15 0.09 0.01 0.00 0.01 0.02 0.01 0.00 0.00 0.00 0.00 0.00 0.00 0.01 0.01 0.01 0.00 0.00 0.00 0.00 0.00 0.00 0.00 0.00 0.00 0.00 0.00 0.00 0.00 0.00 0.00 0.00 0.00 0.00 0.00 0.00 0.00 0.00 0.00 0.00 0.00
0.04 0.05 0.07 0.03 0.01 0.00 0.00 0.00 0.01 0.01 0.00 0.00 0.00 0.00 0.00 0.02 0.02 0.01 0.00 0.00 0.00 0.00 0.00 0.00 0.00 0.00 0.00 0.00 0.00 0.00 0.00 0.00 0.00 0.00 0.00 0.00 0.00 0.00 0.00 0.00 0.00 0.00 0.00
0.08 0.06 0.06 0.02 0.00 0.00 0.00 0.00 0.00 0.01 0.02 0.02 0.01 0.01 0.01 0.02 0.01 0.00 0.00 0.00 0.00 0.00 0.00 0.00 0.00 0.00 0.00 0.00 0.00 0.00 0.00 0.00 0.00 0.00 0.00 0.00 0.00 0.00 0.01 0.00 0.00 0.01 0.00
0.11 0.11 0.08 0.05 0.02 0.01 0.01 0.01 0.00 0.00 0.01 0.01 0.01 0.03 0.03 0.02 0.01 0.00 0.00 0.00 0.00 0.00 0.00 0.00 0.00 0.00 0.00 0.00 0.00 0.00 0.01 0.00 0.00 0.00 0.00 0.00 0.00 0.00 0.01 0.00 0.00 0.00 0.00
0.10 0.07 0.04 0.03 0.02 0.01 0.01 0.01 0.01 0.01 0.00 0.00 0.00 0.02 0.02 0.02 0.01 0.01 0.01 0.00 0.00 0.00 0.00 0.00 0.00 0.00 0.00 0.00 0.00 0.00 0.00 0.00 0.00 0.00 0.00 0.00 0.00 0.00 0.01 0.01 0.01 0.01 0.00
0.07 0.06 0.03 0.02 0.02 0.01 0.01 0.01 0.00 0.00 0.00 0.00 0.00 0.01 0.00 0.00 0.00 0.00 0.00 0.00 0.00 0.00 0.00 0.00 0.00 0.00 0.00 0.00 0.00 0.00 0.01 0.00 0.00 0.00 0.00 0.00 0.00 0.00 0.01 0.01 0.01 0.01 0.01
0.05 0.03 0.03 0.03 0.02 0.01 0.00 0.00 0.00 0.00 0.00 0.00 0.00 0.01 0.00 0.00 0.00 0.00 0.00 0.00 0.00 0.00 0.00 0.00 0.00 0.00 0.00 0.00 0.00 0.01 0.01 0.00 0.00 0.00 0.00 0.00 0.00 0.00 0.01 0.01 0.01 0.00 0.00
0.02 0.02 0.02 0.02 0.01 0.01 0.01 0.00 0.00 0.00 0.00 0.00 0.00 0.00 0.00 0.00 0.00 0.00 0.00 0.00 0.00 0.00 0.00 0.00 0.00 0.00 0.00 0.00 0.00 0.01 0.01 0.00 0.00 0.00 0.01 0.01 0.01 0.00 0.01 0.02 0.02 0.01 0.00
0.01 0.01 0.01 0.01 0.01 0.01 0.00 0.00 0.00 0.00 0.01 0.01 0.00 0.00 0.00 0.00 0.01 0.01 0.00 0.00 0.00 0.00 0.00 0.00 0.00 0.00 0.00 0.00 0.00 0.00 0.00 0.00 0.00 0.00 0.00 0.01 0.01 0.01 0.02 0.02 0.01 0.01 0.00
0.02 0.02 0.01 0.00 0.00 0.00 0.00 0.01 0.01 0.01 0.01 0.01 0.01 0.01 0.01 0.01 0.01 0.00 0.00 0.00 0.00 0.00 0.00 0.00 0.00 0.00 0.00 0.00 0.00 0.00 0.00 0.00 0.00 0.00 0.01 0.01 0.01 0.02 0.02 0.03 0.01 0.01 0.01
0.02 0.02 0.01 0.00 0.00 0.01 0.01 0.01 0.01 0.01 0.01 0.01 0.01 0.01 0.01 0.01 0.00 0.01 0.00 0.00 0.00 0.00 0.00 0.00 0.00 0.00 0.00 0.00 0.00 0.00 0.00 0.00 0.00 0.00 0.00 0.01 0.02 0.03 0.03 0.02 0.01 0.01 0.01

GFSGL_prec_precacc24_156.txt.gz
Total_Precipitation_Accumulation
0.00 0.00 0.00 0.00 0.00 0.00 0.00 0.00 0.00 0.00 0.00 0.00 0.00 0.00 0.00 0.00 0.00 0.01 0.01 0.02 0.03 0.05 0.02 0.04 0.05 0.05 0.06 0.07 0.08 0.10 0.11 0.12 0.10 0.06 0.06 0.03 0.01 0.00 0.00 0.04 0.05 0.01 0.02
0.00 0.00 0.00 0.00 0.00 0.00 0.00 0.00 0.00 0.00 0.00 0.00 0.00 0.00 0.00 0.00 0.00 0.00 0.00 0.00 0.00 0.01 0.01 0.01 0.01 0.02 0.04 0.06 0.09 0.12 0.13 0.13 0.14 0.11 0.06 0.03 0.01 0.01 0.01 0.06 0.07 0.01 0.01
0.00 0.00 0.00 0.00 0.00 0.00 0.00 0.00 0.00 0.00 0.00 0.00 0.00 0.00 0.00 0.00 0.00 0.00 0.00 0.00 0.00 0.00 0.00 0.00 0.00 0.00 0.01 0.01 0.01 0.02 0.01 0.01 0.03 0.02 0.02 0.02 0.01 0.01 0.01 0.02 0.07 0.01 0.01
0.00 0.00 0.00 0.00 0.00 0.00 0.00 0.00 0.00 0.00 0.00 0.00 0.00 0.00 0.00 0.00 0.00 0.00 0.00 0.00 0.00 0.00 0.00 0.00 0.00 0.00 0.01 0.01 0.01 0.01 0.00 0.01 0.00 0.01 0.01 0.01 0.00 0.00 0.00 0.00 0.03 0.04 0.04
0.00 0.01 0.01 0.00 0.00 0.00 0.00 0.00 0.00 0.00 0.00 0.00 0.00 0.01 0.01 0.01 0.01 0.00 0.00 0.00 0.00 0.00 0.00 0.00 0.00 0.00 0.00 0.01 0.01 0.02 0.01 0.00 0.00 0.00 0.00 0.00 0.00 0.00 0.00 0.00 0.00 0.02 0.02
0.01 0.01 0.01 0.01 0.01 0.01 0.01 0.01 0.01 0.01 0.01 0.02 0.02 0.02 0.02 0.02 0.01 0.00 0.00 0.00 0.00 0.00 0.00 0.00 0.00 0.00 0.00 0.00 0.00 0.01 0.02 0.02 0.02 0.01 0.01 0.01 0.02 0.02 0.01 0.00 0.00 0.00 0.01
0.07 0.04 0.03 0.04 0.04 0.05 0.06 0.07 0.08 0.06 0.05 0.05 0.03 0.02 0.02 0.01 0.00 0.00 0.00 0.00 0.00 0.00 0.00 0.00 0.00 0.00 0.00 0.00 0.00 0.00 0.00 0.01 0.02 0.03 0.02 0.05 0.05 0.05 0.02 0.01 0.00 0.00 0.01
0.33 0.32 0.33 0.30 0.27 0.24 0.23 0.24 0.19 0.14 0.10 0.08 0.04 0.02 0.01 0.00 0.00 0.00 0.00 0.00 0.00 0.00 0.00 0.00 0.00 0.00 0.00 0.00 0.00 0.00 0.00 0.00 0.00 0.00 0.01 0.02 0.03 0.02 0.01 0.01 0.00 0.00 0.01
0.77 0.70 0.66 0.61 0.57 0.52 0.47 0.39 0.29 0.21 0.18 0.10 0.03 0.01 0.00 0.00 0.00 0.00 0.00 0.00 0.00 0.00 0.01 0.00 0.00 0.00 0.00 0.00 0.00 0.00 0.00 0.00 0.00 0.00 0.00 0.00 0.00 0.00 0.00 0.00 0.01 0.00 0.00
1.05 0.96 0.89 0.73 0.62 0.52 0.41 0.31 0.24 0.18 0.12 0.05 0.03 0.01 0.00 0.00 0.00 0.00 0.00 0.00 0.00 0.00 0.00 0.00 0.00 0.00 0.00 0.00 0.00 0.00 0.00 0.00 0.00 0.00 0.00 0.00 0.00 0.00 0.00 0.00 0.01 0.02 0.02
1.24 1.02 0.82 0.65 0.51 0.39 0.28 0.19 0.14 0.10 0.05 0.03 0.01 0.01 0.00 0.00 0.00 0.00 0.00 0.00 0.00 0.00 0.00 0.00 0.00 0.00 0.00 0.00 0.00 0.00 0.00 0.00 0.00 0.00 0.00 0.00 0.00 0.00 0.00 0.00 0.00 0.00 0.01
1.09 0.88 0.55 0.42 0.32 0.26 0.19 0.15 0.10 0.06 0.03 0.01 0.01 0.01 0.01 0.01 0.01 0.00 0.00 0.00 0.00 0.00 0.00 0.00 0.00 0.00 0.00 0.00 0.00 0.00 0.00 0.00 0.00 0.00 0.00 0.00 0.00 0.00 0.00 0.00 0.00 0.00 0.00
0.73 0.57 0.43 0.34 0.26 0.18 0.16 0.13 0.09 0.04 0.01 0.01 0.01 0.01 0.02 0.02 0.01 0.00 0.00 0.00 0.00 0.00 0.00 0.00 0.00 0.00 0.00 0.00 0.00 0.00 0.00 0.00 0.00 0.00 0.00 0.00 0.00 0.00 0.00 0.00 0.00 0.00 0.00
0.38 0.41 0.37 0.30 0.27 0.20 0.11 0.06 0.04 0.01 0.00 0.00 0.00 0.01 0.01 0.02 0.01 0.01 0.00 0.00 0.00 0.00 0.00 0.00 0.00 0.00 0.00 0.00 0.00 0.00 0.00 0.00 0.00 0.00 0.00 0.00 0.00 0.00 0.00 0.00 0.00 0.00 0.00
0.39 0.34 0.31 0.28 0.19 0.14 0.10 0.04 0.01 0.00 0.00 0.00 0.00 0.00 0.01 0.02 0.01 0.00 0.00 0.00 0.00 0.00 0.00 0.00 0.00 0.00 0.00 0.00 0.00 0.00 0.00 0.00 0.00 0.00 0.00 0.00 0.00 0.00 0.00 0.00 0.00 0.00 0.00
0.17 0.22 0.22 0.19 0.12 0.07 0.04 0.03 0.01 0.00 0.00 0.00 0.00 0.00 0.00 0.01 0.01 0.01 0.00 0.00 0.00 0.00 0.00 0.00 0.00 0.00 0.00 0.00 0.00 0.00 0.00 0.00 0.00 0.00 0.00 0.00 0.00 0.00 0.00 0.00 0.00 0.00 0.00
0.04 0.05 0.10 0.09 0.06 0.03 0.01 0.00 0.01 0.00 0.00 0.00 0.00 0.00 0.00 0.02 0.02 0.01 0.00 0.00 0.00 0.00 0.00 0.00 0.00 0.00 0.00 0.00 0.00 0.00 0.00 0.00 0.00 0.00 0.00 0.00 0.00 0.00 0.00 0.00 0.00 0.00 0.00
0.09 0.08 0.09 0.07 0.05 0.03 0.01 0.01 0.00 0.00 0.01 0.01 0.01 0.01 0.01 0.01 0.01 0.00 0.00 0.00 0.00 0.00 0.00 0.00 0.00 0.00 0.00 0.00 0.00 0.00 0.00 0.00 0.00 0.00 0.00 0.00 0.00 0.00 0.00 0.00 0.00 0.00 0.00
0.15 0.16 0.13 0.10 0.05 0.02 0.01 0.01 0.01 0.00 0.01 0.01 0.01 0.03 0.03 0.02 0.01 0.00 0.00 0.00 0.00 0.00 0.00 0.00 0.00 0.00 0.00 0.00 0.00 0.00 0.00 0.00 0.00 0.00 0.00 0.00 0.00 0.00 0.00 0.00 0.00 0.00 0.00
0.15 0.12 0.09 0.07 0.05 0.04 0.03 0.01 0.01 0.01 0.00 0.01 0.01 0.02 0.03 0.02 0.02 0.01 0.00 0.00 0.00 0.00 0.00 0.00 0.00 0.00 0.00 0.00 0.00 0.00 0.00 0.00 0.00 0.00 0.00 0.00 0.00 0.00 0.00 0.01 0.00 0.01 0.00
0.11 0.11 0.07 0.05 0.05 0.03 0.03 0.01 0.00 0.01 0.00 0.00 0.01 0.01 0.01 0.01 0.01 0.00 0.00 0.00 0.00 0.00 0.00 0.00 0.00 0.00 0.00 0.00 0.00 0.00 0.00 0.00 0.00 0.00 0.00 0.00 0.00 0.00 0.00 0.00 0.00 0.00 0.00
0.08 0.06 0.05 0.05 0.03 0.02 0.01 0.01 0.00 0.00 0.00 0.00 0.01 0.01 0.00 0.00 0.00 0.00 0.00 0.00 0.00 0.00 0.00 0.00 0.00 0.00 0.00 0.00 0.00 0.00 0.00 0.00 0.00 0.00 0.00 0.00 0.00 0.00 0.00 0.00 0.01 0.00 0.00
0.04 0.04 0.04 0.04 0.03 0.03 0.02 0.01 0.01 0.00 0.00 0.01 0.02 0.01 0.01 0.00 0.01 0.00 0.00 0.00 0.00 0.00 0.00 0.00 0.00 0.00 0.00 0.00 0.00 0.00 0.00 0.00 0.00 0.00 0.00 0.00 0.00 0.00 0.01 0.01 0.01 0.01 0.00
0.02 0.02 0.01 0.02 0.02 0.02 0.02 0.01 0.01 0.00 0.01 0.02 0.02 0.01 0.00 0.01 0.01 0.01 0.00 0.00 0.00 0.00 0.00 0.00 0.00 0.00 0.00 0.00 0.00 0.00 0.00 0.00 0.00 0.00 0.00 0.01 0.01 0.00 0.01 0.01 0.01 0.01 0.00
0.02 0.02 0.01 0.01 0.01 0.01 0.01 0.01 0.01 0.01 0.02 0.02 0.03 0.01 0.01 0.01 0.02 0.01 0.01 0.00 0.00 0.00 0.00 0.00 0.00 0.00 0.00 0.00 0.00 0.00 0.00 0.00 0.00 0.00 0.00 0.01 0.01 0.01 0.01 0.02 0.01 0.00 0.01
0.02 0.02 0.02 0.01 0.01 0.01 0.01 0.01 0.02 0.02 0.01 0.02 0.02 0.01 0.01 0.01 0.01 0.01 0.01 0.00 0.00 0.00 0.00 0.00 0.00 0.00 0.00 0.00 0.00 0.00 0.00 0.00 0.00 0.00 0.00 0.01 0.01 0.02 0.02 0.01 0.00 0.01 0.01

GFSGL_prec_precacc24_159.txt.gz
Total_Precipitation_Accumulation
0.00 0.00 0.00 0.00 0.00 0.00 0.00 0.00 0.00 0.00 0.00 0.00 0.00 0.00 0.00 0.00 0.00 0.00 0.01 0.01 0.02 0.04 0.02 0.04 0.05 0.05 0.06 0.06 0.07 0.09 0.10 0.11 0.10 0.06 0.06 0.03 0.01 0.00 0.00 0.04 0.04 0.00 0.01
0.00 0.00 0.00 0.00 0.00 0.00 0.00 0.00 0.00 0.00 0.00 0.00 0.00 0.00 0.00 0.00 0.00 0.00 0.00 0.00 0.00 0.01 0.00 0.01 0.01 0.01 0.04 0.05 0.08 0.10 0.11 0.10 0.12 0.11 0.06 0.03 0.01 0.01 0.01 0.06 0.07 0.00 0.00
0.00 0.00 0.00 0.00 0.00 0.00 0.00 0.00 0.00 0.00 0.00 0.00 0.00 0.00 0.00 0.00 0.00 0.00 0.00 0.00 0.00 0.00 0.00 0.00 0.00 0.00 0.00 0.01 0.00 0.01 0.01 0.00 0.01 0.01 0.02 0.01 0.01 0.01 0.01 0.02 0.07 0.01 0.01
0.00 0.00 0.00 0.00 0.00 0.00 0.00 0.00 0.00 0.00 0.00 0.00 0.00 0.00 0.00 0.00 0.00 0.00 0.00 0.00 0.00 0.00 0.00 0.00 0.00 0.00 0.01 0.01 0.00 0.01 0.00 0.01 0.00 0.00 0.00 0.00 0.00 0.00 0.00 0.00 0.03 0.04 0.04
0.00 0.01 0.01 0.00 0.00 0.00 0.00 0.00 0.00 0.00 0.00 0.00 0.01 0.01 0.02 0.02 0.02 0.01 0.02 0.01 0.00 0.00 0.00 0.00 0.00 0.00 0.00 0.01 0.01 0.01 0.01 0.00 0.00 0.00 0.00 0.00 0.00 0.00 0.00 0.00 0.00 0.02 0.02
0.01 0.01 0.01 0.01 0.01 0.01 0.01 0.02 0.04 0.03 0.01 0.02 0.03 0.03 0.03 0.08 0.06 0.02 0.01 0.01 0.00 0.00 0.00 0.00 0.00 0.00 0.00 0.00 0.00 0.01 0.01 0.01 0.01 0.01 0.01 0.01 0.01 0.01 0.00 0.00 0.00 0.00 0.01
0.07 0.04 0.04 0.05 0.05 0.07 0.11 0.16 0.15 0.10 0.08 0.10 0.10 0.08 0.10 0.12 0.05 0.01 0.01 0.01 0.00 0.00 0.00 0.00 0.00 0.00 0.00 0.00 0.00 0.00 0.00 0.00 0.01 0.01 0.01 0.03 0.03 0.03 0.01 0.00 0.00 0.00 0.01
0.33 0.33 0.38 0.36 0.35 0.34 0.37 0.37 0.30 0.23 0.21 0.20 0.14 0.14 0.13 0.06 0.02 0.01 0.01 0.00 0.00 0.00 0.00 0.00 0.00 0.00 0.00 0.00 0.00 0.00 0.00 0.00 0.00 0.00 0.00 0.01 0.02 0.01 0.01 0.01 0.00 0.00 0.01
0.80 0.76 0.73 0.69 0.69 0.66 0.64 0.57 0.47 0.38 0.38 0.29 0.19 0.18 0.09 0.03 0.00 0.00 0.00 0.00 0.00 0.00 0.01 0.00 0.00 0.00 0.00 0.00 0.00 0.00 0.00 0.00 0.00 0.00 0.00 0.00 0.00 0.00 0.00 0.00 0.01 0.00 0.00
1.07 1.02 0.96 0.84 0.76 0.71 0.62 0.52 0.44 0.38 0.33 0.20 0.20 0.14 0.04 0.02 0.00 0.00 0.00 0.00 0.00 0.00 0.00 0.00 0.00 0.00 0.00 0.00 0.00 0.00 0.00 0.00 0.00 0.00 0.00 0.00 0.00 0.00 0.00 0.00 0.01 0.01 0.01
1.25 1.05 0.87 0.73 0.62 0.53 0.43 0.34 0.32 0.27 0.19 0.16 0.17 0.08 0.03 0.01 0.00 0.00 0.00 0.00 0.00 0.00 0.00 0.00 0.00 0.00 0.00 0.00 0.00 0.00 0.00 0.00 0.00 0.00 0.00 0.00 0.00 0.00 0.00 0.00 0.00 0.00 0.00
1.10 0.90 0.58 0.48 0.40 0.36 0.29 0.28 0.24 0.19 0.16 0.16 0.12 0.07 0.03 0.02 0.01 0.00 0.01 0.00 0.00 0.00 0.00 0.00 0.00 0.00 0.00 0.00 0.00 0.00 0.00 0.00 0.00 0.00 0.00 0.00 0.00 0.00 0.00 0.00 0.00 0.00 0.00
0.74 0.58 0.45 0.38 0.31 0.24 0.24 0.24 0.22 0.17 0.14 0.12 0.08 0.05 0.03 0.02 0.01 0.00 0.01 0.01 0.01 0.00 0.00 0.00 0.00 0.00 0.00 0.00 0.00 0.00 0.00 0.00 0.00 0.00 0.00 0.00 0.00 0.00 0.00 0.00 0.00 0.00 0.00
0.39 0.42 0.39 0.32 0.32 0.29 0.20 0.17 0.15 0.12 0.09 0.06 0.03 0.02 0.02 0.02 0.01 0.01 0.01 0.00 0.00 0.00 0.00 0.00 0.00 0.00 0.00 0.00 0.00 0.00 0.00 0.00 0.00 0.00 0.00 0.00 0.00 0.00 0.00 0.00 0.00 0.00 0.00
0.40 0.36 0.34 0.31 0.24 0.21 0.18 0.12 0.08 0.06 0.03 0.01 0.01 0.00 0.01 0.02 0.01 0.00 0.00 0.00 0.00 0.00 0.00 0.00 0.00 0.00 0.00 0.00 0.00 0.00 0.00 0.00 0.00 0.00 0.00 0.00 0.00 0.00 0.00 0.00 0.00 0.00 0.00
0.19 0.23 0.24 0.21 0.16 0.12 0.12 0.12 0.08 0.03 0.00 0.00 0.00 0.00 0.00 0.01 0.01 0.01 0.00 0.00 0.00 0.00 0.00 0.00 0.00 0.00 0.00 0.00 0.00 0.00 0.00 0.00 0.00 0.00 0.00 0.00 0.00 0.00 0.00 0.00 0.00 0.00 0.00
0.06 0.07 0.12 0.10 0.07 0.06 0.06 0.06 0.07 0.04 0.01 0.00 0.00 0.00 0.00 0.02 0.02 0.01 0.00 0.00 0.00 0.00 0.00 0.00 0.00 0.00 0.00 0.00 0.00 0.00 0.00 0.00 0.00 0.00 0.00 0.00 0.00 0.00 0.00 0.00 0.00 0.00 0.00
0.20 0.11 0.13 0.10 0.08 0.07 0.06 0.06 0.05 0.02 0.02 0.03 0.04 0.01 0.01 0.01 0.01 0.00 0.00 0.00 0.00 0.00 0.00 0.00 0.00 0.00 0.00 0.00 0.00 0.00 0.00 0.00 0.00 0.00 0.00 0.00 0.00 0.00 0.00 0.00 0.00 0.00 0.00
0.22 0.20 0.17 0.14 0.10 0.06 0.05 0.05 0.04 0.02 0.01 0.01 0.03 0.05 0.04 0.02 0.01 0.00 0.00 0.00 0.00 0.00 0.00 0.00 0.00 0.00 0.00 0.00 0.00 0.00 0.00 0.00 0.00 0.00 0.00 0.00 0.00 0.00 0.00 0.00 0.00 0.00 0.00
0.23 0.18 0.14 0.12 0.10 0.08 0.06 0.04 0.03 0.02 0.00 0.01 0.01 0.02 0.03 0.03 0.02 0.01 0.00 0.00 0.00 0.00 0.00 0.00 0.00 0.00 0.00 0.00 0.00 0.00 0.00 0.00 0.00 0.00 0.00 0.00 0.00 0.00 0.00 0.00 0.00 0.01 0.00
0.13 0.14 0.11 0.08 0.08 0.06 0.04 0.02 0.01 0.01 0.00 0.00 0.01 0.01 0.01 0.01 0.01 0.00 0.00 0.00 0.00 0.00 0.00 0.00 0.00 0.00 0.00 0.00 0.00 0.00 0.00 0.00 0.00 0.00 0.00 0.00 0.00 0.00 0.00 0.00 0.00 0.00 0.00
0.09 0.07 0.07 0.06 0.05 0.03 0.02 0.01 0.00 0.00 0.00 0.00 0.01 0.01 0.00 0.00 0.00 0.00 0.00 0.00 0.00 0.00 0.00 0.00 0.00 0.00 0.00 0.00 0.00 0.00 0.00 0.00 0.00 0.00 0.00 0.00 0.00 0.00 0.00 0.00 0.00 0.00 0.00
0.04 0.04 0.05 0.04 0.03 0.03 0.02 0.01 0.01 0.01 0.00 0.01 0.03 0.01 0.01 0.00 0.01 0.00 0.00 0.00 0.00 0.00 0.00 0.00 0.00 0.00 0.00 0.00 0.00 0.00 0.00 0.00 0.00 0.00 0.00 0.00 0.00 0.00 0.01 0.01 0.01 0.01 0.00
0.02 0.02 0.01 0.02 0.02 0.02 0.02 0.01 0.01 0.01 0.01 0.03 0.02 0.01 0.00 0.01 0.01 0.01 0.00 0.00 0.00 0.00 0.00 0.00 0.00 0.00 0.00 0.00 0.00 0.00 0.00 0.00 0.00 0.00 0.00 0.00 0.00 0.00 0.01 0.00 0.01 0.01 0.00
0.02 0.02 0.01 0.01 0.01 0.01 0.01 0.01 0.01 0.01 0.02 0.03 0.03 0.02 0.01 0.01 0.02 0.01 0.01 0.00 0.00 0.00 0.00 0.00 0.00 0.00 0.00 0.00 0.00 0.00 0.00 0.00 0.00 0.00 0.00 0.01 0.01 0.01 0.01 0.01 0.01 0.01 0.01
0.03 0.02 0.02 0.01 0.01 0.01 0.01 0.01 0.02 0.02 0.01 0.02 0.03 0.02 0.01 0.01 0.01 0.01 0.01 0.00 0.00 0.00 0.00 0.00 0.00 0.00 0.00 0.00 0.00 0.00 0.00 0.00 0.00 0.00 0.00 0.01 0.01 0.01 0.01 0.01 0.01 0.01 0.01

GFSGL_prec_precacc24_162.txt.gz
Total_Precipitation_Accumulation
0.00 0.00 0.00 0.00 0.00 0.00 0.00 0.00 0.00 0.00 0.00 0.00 0.00 0.00 0.00 0.00 0.00 0.00 0.00 0.00 0.00 0.00 0.01 0.02 0.04 0.05 0.05 0.06 0.07 0.09 0.10 0.10 0.10 0.06 0.06 0.03 0.01 0.00 0.00 0.04 0.04 0.00 0.01
0.00 0.00 0.00 0.00 0.00 0.00 0.00 0.00 0.00 0.00 0.00 0.00 0.00 0.00 0.00 0.00 0.00 0.00 0.00 0.00 0.00 0.00 0.00 0.01 0.01 0.01 0.03 0.05 0.07 0.10 0.11 0.10 0.12 0.10 0.06 0.03 0.01 0.01 0.01 0.06 0.07 0.00 0.00
0.00 0.00 0.00 0.00 0.00 0.00 0.00 0.00 0.00 0.00 0.00 0.00 0.00 0.00 0.00 0.00 0.00 0.00 0.00 0.00 0.00 0.01 0.01 0.00 0.00 0.01 0.01 0.00 0.00 0.01 0.01 0.00 0.01 0.01 0.01 0.01 0.01 0.01 0.01 0.02 0.07 0.01 0.01
0.00 0.00 0.00 0.00 0.00 0.00 0.00 0.00 0.00 0.00 0.00 0.00 0.00 0.00 0.00 0.00 0.00 0.00 0.01 0.01 0.01 0.02 0.03 0.01 0.00 0.01 0.01 0.00 0.00 0.00 0.00 0.00 0.00 0.00 0.00 0.00 0.00 0.00 0.00 0.00 0.03 0.04 0.04
0.00 0.01 0.01 0.00 0.00 0.00 0.00 0.00 0.00 0.00 0.00 0.00 0.01 0.02 0.02 0.02 0.02 0.02 0.03 0.02 0.03 0.05 0.02 0.00 0.00 0.00 0.00 0.00 0.00 0.01 0.00 0.00 0.00 0.00 0.00 0.00 0.00 0.00 0.00 0.00 0.00 0.02 0.02
0.01 0.01 0.01 0.01 0.01 0.01 0.01 0.02 0.05 0.06 0.05 0.06 0.06 0.04 0.04 0.08 0.07 0.05 0.04 0.03 0.03 0.02 0.01 0.00 0.00 0.00 0.00 0.00 0.00 0.00 0.00 0.00 0.00 0.00 0.00 0.00 0.00 0.00 0.00 0.00 0.00 0.00 0.01
0.07 0.04 0.04 0.05 0.06 0.08 0.13 0.20 0.22 0.18 0.16 0.17 0.17 0.16 0.17 0.19 0.11 0.06 0.04 0.03 0.03 0.02 0.00 0.00 0.00 0.00 0.00 0.00 0.00 0.00 0.00 0.00 0.00 0.00 0.00 0.02 0.01 0.01 0.00 0.00 0.00 0.00 0.01
0.33 0.33 0.38 0.37 0.36 0.38 0.42 0.45 0.39 0.33 0.31 0.30 0.25 0.27 0.26 0.18 0.11 0.07 0.06 0.03 0.02 0.01 0.00 0.00 0.00 0.00 0.00 0.00 0.00 0.00 0.00 0.00 0.00 0.00 0.00 0.01 0.01 0.00 0.00 0.00 0.00 0.00 0.01
0.80 0.76 0.73 0.69 0.70 0.73 0.76 0.72 0.63 0.54 0.51 0.37 0.31 0.35 0.25 0.12 0.06 0.03 0.02 0.01 0.03 0.02 0.01 0.00 0.00 0.00 0.00 0.00 0.00 0.00 0.00 0.00 0.00 0.00 0.00 0.00 0.00 0.00 0.00 0.00 0.00 0.00 0.00
1.07 1.02 0.96 0.84 0.77 0.76 0.71 0.63 0.55 0.48 0.40 0.28 0.32 0.29 0.15 0.09 0.06 0.04 0.02 0.01 0.01 0.01 0.00 0.00 0.00 0.00 0.00 0.00 0.00 0.00 0.00 0.00 0.00 0.00 0.00 0.00 0.00 0.00 0.00 0.00 0.00 0.00 0.00
1.25 1.05 0.87 0.73 0.63 0.55 0.47 0.38 0.35 0.32 0.26 0.28 0.30 0.19 0.10 0.09 0.10 0.06 0.01 0.01 0.00 0.00 0.00 0.00 0.00 0.00 0.00 0.00 0.00 0.00 0.00 0.00 0.00 0.00 0.00 0.00 0.00 0.00 0.00 0.00 0.00 0.00 0.00
1.10 0.90 0.58 0.48 0.41 0.37 0.32 0.33 0.28 0.23 0.22 0.24 0.21 0.15 0.11 0.10 0.08 0.04 0.01 0.01 0.00 0.00 0.00 0.00 0.00 0.00 0.00 0.00 0.00 0.00 0.00 0.00 0.00 0.00 0.00 0.00 0.00 0.00 0.00 0.00 0.00 0.00 0.00
0.74 0.58 0.45 0.39 0.32 0.26 0.25 0.27 0.26 0.22 0.19 0.19 0.15 0.12 0.11 0.08 0.05 0.03 0.02 0.02 0.01 0.00 0.00 0.00 0.00 0.00 0.00 0.00 0.00 0.00 0.00 0.00 0.00 0.00 0.00 0.00 0.00 0.00 0.00 0.00 0.00 0.00 0.00
0.39 0.43 0.40 0.34 0.34 0.31 0.23 0.20 0.18 0.17 0.14 0.12 0.10 0.08 0.06 0.05 0.03 0.03 0.03 0.01 0.00 0.00 0.00 0.00 0.00 0.00 0.00 0.00 0.00 0.00 0.00 0.00 0.00 0.00 0.00 0.00 0.00 0.00 0.00 0.00 0.00 0.00 0.00
0.41 0.38 0.36 0.33 0.26 0.23 0.21 0.16 0.12 0.11 0.06 0.05 0.04 0.03 0.02 0.03 0.02 0.01 0.00 0.00 0.00 0.00 0.00 0.00 0.00 0.00 0.00 0.00 0.00 0.00 0.00 0.00 0.00 0.00 0.00 0.00 0.00 0.00 0.00 0.00 0.00 0.00 0.00
0.20 0.25 0.26 0.23 0.18 0.14 0.13 0.16 0.15 0.11 0.07 0.03 0.00 0.00 0.00 0.01 0.01 0.01 0.00 0.00 0.00 0.00 0.00 0.00 0.00 0.00 0.00 0.00 0.00 0.00 0.00 0.00 0.00 0.00 0.00 0.00 0.00 0.00 0.00 0.00 0.00 0.00 0.00
0.06 0.08 0.14 0.13 0.10 0.09 0.10 0.10 0.13 0.13 0.09 0.05 0.01 0.00 0.00 0.02 0.01 0.01 0.00 0.00 0.00 0.00 0.00 0.00 0.00 0.00 0.00 0.00 0.00 0.00 0.00 0.00 0.00 0.00 0.00 0.00 0.00 0.00 0.00 0.00 0.00 0.00 0.00
0.25 0.20 0.15 0.12 0.12 0.12 0.09 0.10 0.10 0.08 0.08 0.10 0.08 0.01 0.01 0.01 0.01 0.00 0.00 0.00 0.00 0.00 0.00 0.00 0.00 0.00 0.00 0.00 0.00 0.00 0.00 0.00 0.00 0.00 0.00 0.00 0.00 0.00 0.00 0.00 0.00 0.00 0.00
0.24 0.23 0.18 0.16 0.12 0.08 0.07 0.08 0.08 0.07 0.05 0.03 0.05 0.08 0.06 0.03 0.01 0.00 0.01 0.00 0.00 0.00 0.00 0.00 0.00 0.00 0.00 0.00 0.00 0.00 0.00 0.00 0.00 0.00 0.00 0.00 0.00 0.00 0.00 0.00 0.00 0.00 0.00
0.25 0.23 0.20 0.16 0.12 0.10 0.08 0.06 0.05 0.03 0.02 0.02 0.01 0.03 0.05 0.04 0.04 0.02 0.01 0.00 0.00 0.00 0.00 0.00 0.00 0.00 0.00 0.00 0.00 0.00 0.00 0.00 0.00 0.00 0.00 0.00 0.00 0.00 0.00 0.00 0.00 0.00 0.00
0.14 0.15 0.11 0.09 0.08 0.06 0.05 0.03 0.01 0.01 0.01 0.01 0.01 0.01 0.01 0.01 0.01 0.00 0.00 0.00 0.00 0.00 0.00 0.00 0.00 0.00 0.00 0.00 0.00 0.00 0.00 0.00 0.00 0.00 0.00 0.00 0.00 0.00 0.00 0.00 0.00 0.00 0.00
0.09 0.08 0.07 0.07 0.05 0.04 0.02 0.01 0.00 0.01 0.00 0.00 0.01 0.01 0.00 0.00 0.00 0.00 0.00 0.00 0.00 0.00 0.00 0.00 0.00 0.00 0.00 0.00 0.00 0.00 0.00 0.00 0.00 0.00 0.00 0.00 0.00 0.00 0.00 0.00 0.00 0.00 0.00
0.04 0.05 0.05 0.05 0.03 0.03 0.02 0.01 0.01 0.01 0.00 0.01 0.03 0.01 0.01 0.00 0.01 0.00 0.00 0.00 0.00 0.00 0.00 0.00 0.00 0.00 0.00 0.00 0.00 0.00 0.00 0.00 0.00 0.00 0.00 0.00 0.00 0.00 0.01 0.01 0.00 0.00 0.00
0.02 0.02 0.02 0.02 0.02 0.02 0.02 0.01 0.01 0.01 0.02 0.03 0.03 0.01 0.00 0.01 0.02 0.01 0.01 0.00 0.00 0.00 0.00 0.00 0.00 0.00 0.00 0.00 0.00 0.00 0.00 0.00 0.00 0.00 0.00 0.00 0.00 0.00 0.01 0.00 0.00 0.01 0.00
0.03 0.03 0.01 0.01 0.01 0.01 0.01 0.01 0.01 0.02 0.03 0.03 0.04 0.02 0.01 0.01 0.02 0.01 0.01 0.00 0.00 0.00 0.00 0.00 0.00 0.00 0.00 0.00 0.00 0.00 0.00 0.00 0.00 0.00 0.00 0.00 0.00 0.01 0.01 0.01 0.00 0.01 0.01
0.03 0.02 0.02 0.01 0.01 0.01 0.01 0.01 0.02 0.02 0.02 0.02 0.03 0.02 0.01 0.01 0.01 0.01 0.01 0.00 0.00 0.00 0.00 0.00 0.00 0.00 0.00 0.00 0.00 0.00 0.00 0.00 0.00 0.00 0.00 0.00 0.01 0.01 0.00 0.01 0.01 0.01 0.01